# Wetter Temperatur Luftdruck Luftfeuchtigkeit Sichtweite Windgeschwindigkeit Windrichtung Zeit
1 Clouds 11 1023 74 10000 5.66 350 21:41 02.12.2021
2 Clouds 11 1022 72 10000 7.2 330 20:46 02.12.2021
3 Clouds 11 1022 71 10000 4.63 330 20:26 02.12.2021
4 Clouds 11 1021 68 10000 6.69 330 19:23 02.12.2021
5 Clouds 13 1019 59 10000 9.26 350 17:30 02.12.2021
6 Clouds 15 1019 53 10000 7.72 340 15:41 02.12.2021
7 Clouds 15 1019 54 10000 9.77 340 14:57 02.12.2021
8 Clouds 15 1020 54 10000 8.23 350 13:45 02.12.2021
9 Clouds 14 1020 58 10000 9.26 350 12:52 02.12.2021
10 Clouds 13 1020 66 10000 7.72 340 11:55 02.12.2021
11 Clouds 11 1018 82 10000 5.14 340 09:29 02.12.2021
12 Clouds 11 1018 89 10000 4.63 350 08:27 02.12.2021
13 Clouds 13 1018 82 10000 2.57 300 03:33 02.12.2021
14 Clear 13 1020 82 10000 2.57 320 00:51 02.12.2021
15 Clear 13 1021 80 10000 3.09 340 22:51 01.12.2021
16 Clouds 13 1022 77 10000 4.12 340 22:23 01.12.2021
17 Clouds 14 1021 79 10000 5.14 330 20:36 01.12.2021
18 Clouds 14 1021 82 10000 5.14 340 19:53 01.12.2021
19 Clouds 14 1021 84 3500 4.63 300 19:25 01.12.2021
20 Clouds 15 1022 81 10000 4.12 290 17:45 01.12.2021
21 Clouds 15 1022 81 10000 4.12 290 17:45 01.12.2021
22 Clouds 16 1022 80 10000 3.6 300 16:42 01.12.2021
23 Clouds 15 1023 80 10000 5.14 260 14:52 01.12.2021
24 Clouds 15 1024 73 10000 4.12 270 13:44 01.12.2021
25 Clouds 15 1025 74 10000 1.03 0 12:37 01.12.2021
26 Clouds 13 1025 77 10000 1.54 270 10:42 01.12.2021
27 Clouds 8 1025 88 10000 1.03 0 09:19 01.12.2021
28 Clouds 8 1025 85 10000 0 0 08:26 01.12.2021
29 Clouds 8 1026 82 10000 0 0 07:33 01.12.2021
30 Clouds 9 1026 80 10000 0 0 05:51 01.12.2021
31 Clouds 9 1025 79 10000 0 0 03:44 01.12.2021
32 Clouds 10 1026 81 10000 1.03 340 00:56 01.12.2021
33 Clouds 11 1026 82 10000 1.54 310 23:53 30.11.2021
34 Clear 11 1026 81 10000 1.03 330 23:23 30.11.2021
35 Clouds 13 1026 74 10000 1.54 60 21:30 30.11.2021
36 Clouds 13 1026 74 10000 2.57 340 20:44 30.11.2021
37 Clouds 14 1025 73 10000 2.06 350 19:53 30.11.2021
38 Clouds 14 1025 71 10000 0 0 19:34 30.11.2021
39 Clouds 15 1025 69 10000 1.03 100 18:36 30.11.2021
40 Clouds 16 1025 63 10000 2.06 110 16:50 30.11.2021
41 Clouds 16 1025 63 10000 2.06 80 15:38 30.11.2021
42 Clouds 16 1027 65 10000 2.57 70 14:20 30.11.2021
43 Clouds 16 1026 67 10000 2.06 90 13:26 30.11.2021
44 Clouds 15 1026 70 10000 2.57 0 12:45 30.11.2021
45 Clouds 14 1026 75 10000 2.57 70 11:49 30.11.2021
46 Clouds 13 1026 76 10000 2.06 70 11:19 30.11.2021
47 Clouds 12 1025 82 10000 1.03 0 10:32 30.11.2021
48 Clouds 11 1024 84 10000 0 0 08:52 30.11.2021
49 Clouds 11 1024 83 10000 0.51 0 08:22 30.11.2021
50 Clouds 11 1023 84 10000 0 0 07:47 30.11.2021
51 Clouds 13 1024 77 10000 1.03 280 02:41 30.11.2021
52 Clouds 13 1024 75 10000 1.03 270 01:42 30.11.2021
53 Clouds 13 1024 74 10000 2.06 230 00:33 30.11.2021
54 Clouds 13 1024 73 10000 0 0 23:24 29.11.2021
55 Clouds 13 1024 71 10000 0 0 22:57 29.11.2021
56 Clouds 13 1024 69 10000 1.03 210 22:34 29.11.2021
57 Clouds 14 1025 69 10000 1.03 0 21:39 29.11.2021
58 Clouds 14 1025 69 10000 1.03 0 21:18 29.11.2021
59 Clouds 14 1024 67 10000 1.03 0 20:40 29.11.2021
60 Clouds 14 1024 65 10000 1.03 0 19:56 29.11.2021
61 Clouds 14 1024 64 10000 2.57 310 19:36 29.11.2021
62 Clouds 14 1024 64 10000 2.57 310 19:36 29.11.2021
63 Clouds 14 1024 63 10000 4.12 320 18:52 29.11.2021
64 Clouds 14 1025 68 10000 5.42 332 18:26 29.11.2021
65 Clouds 15 1025 65 10000 6.13 333 17:20 29.11.2021
66 Clouds 15 1025 65 10000 6.13 333 16:32 29.11.2021
67 Clouds 16 1025 62 10000 6.65 330 15:52 29.11.2021
68 Clouds 16 1025 59 10000 6.62 327 14:43 29.11.2021
69 Clouds 16 1025 57 10000 6.61 327 13:36 29.11.2021
70 Clouds 16 1026 58 10000 6.61 330 12:42 29.11.2021
71 Clouds 16 1027 61 10000 6.47 331 11:41 29.11.2021
72 Clouds 15 1027 67 10000 6.08 328 10:59 29.11.2021
73 Clouds 13 1026 79 10000 6.17 320 09:50 29.11.2021
74 Clouds 14 1025 82 10000 4.12 330 06:22 29.11.2021
75 Clouds 14 1025 88 10000 4.12 300 03:46 29.11.2021
76 Clouds 15 1025 82 10000 4.12 310 00:43 29.11.2021
77 Clouds 14 1025 88 10000 4.63 320 23:44 28.11.2021
78 Clouds 14 1025 88 10000 4.12 320 23:25 28.11.2021
79 Clouds 13 1025 94 10000 3.6 320 21:53 28.11.2021
80 Drizzle 13 1025 94 9000 5.14 330 21:26 28.11.2021
81 Clouds 13 1025 91 10000 3.09 290 20:35 28.11.2021
82 Drizzle 13 1024 79 10000 4.12 300 19:28 28.11.2021
83 Clouds 14 1024 69 10000 3.09 300 18:35 28.11.2021
84 Clouds 14 1024 67 10000 4.12 320 17:56 28.11.2021
85 Clouds 15 1024 62 10000 5.66 320 17:32 28.11.2021
86 Clouds 14 1024 63 10000 6.17 310 16:44 28.11.2021
87 Clouds 15 1024 60 10000 5.66 330 16:22 28.11.2021
88 Clouds 14 1024 62 10000 6.17 330 15:33 28.11.2021
89 Clouds 14 1025 65 10000 5.66 320 14:49 28.11.2021
90 Clouds 15 1025 58 10000 7.2 340 13:49 28.11.2021
91 Clouds 13 1025 62 10000 5.66 340 12:52 28.11.2021
92 Clear 12 1025 69 10000 3.09 350 11:18 28.11.2021
93 Clouds 11 1024 71 10000 3.09 330 10:22 28.11.2021
94 Clouds 10 1023 74 10000 4.63 330 09:40 28.11.2021
95 Clear 9 1023 82 10000 4.12 330 08:19 28.11.2021
96 Clear 8 1021 70 10000 2.57 340 00:39 28.11.2021
97 Clear 11 1020 62 10000 6.17 350 21:40 27.11.2021
98 Clouds 11 1018 60 10000 6.17 350 19:49 27.11.2021
99 Clouds 13 1017 53 10000 10.29 340 17:57 27.11.2021
100 Clouds 14 1016 60 10000 9.26 350 15:59 27.11.2021
101 Clouds 14 1016 72 10000 7.72 340 14:30 27.11.2021
102 Clouds 14 1016 77 10000 5.66 340 12:58 27.11.2021
103 Clouds 14 1015 83 10000 5.66 320 10:52 27.11.2021
104 Clouds 12 1014 91 10000 4.12 320 09:54 27.11.2021
105 Clouds 11 1014 90 10000 2.57 310 08:45 27.11.2021
106 Clouds 11 1014 93 10000 2.06 310 06:35 27.11.2021
107 Clouds 11 1016 81 10000 1.54 310 02:25 27.11.2021
108 Clouds 11 1017 71 10000 5.14 340 23:40 26.11.2021
109 Clouds 11 1017 71 10000 5.14 350 22:41 26.11.2021
110 Clouds 11 1017 71 10000 5.14 350 22:19 26.11.2021
111 Clear 11 1017 69 10000 5.14 350 21:22 26.11.2021
112 Clear 12 1016 66 10000 6.69 330 20:40 26.11.2021
113 Clear 12 1016 66 10000 8.23 340 19:55 26.11.2021
114 Clouds 12 1016 65 10000 6.17 340 18:45 26.11.2021
115 Clouds 13 1015 61 10000 8.23 330 17:27 26.11.2021
116 Clouds 14 1015 59 10000 6.69 340 16:50 26.11.2021
117 Clouds 14 1015 58 10000 6.17 330 14:57 26.11.2021
118 Clouds 14 1014 53 10000 5.66 360 13:35 26.11.2021
119 Clouds 11 1014 62 10000 3.6 340 10:44 26.11.2021
120 Clouds 10 1013 64 10000 2.57 330 09:53 26.11.2021
121 Clear 9 1013 67 10000 3.09 330 08:53 26.11.2021
122 Clear 9 1012 67 10000 4.63 340 08:20 26.11.2021
123 Clear 9 1011 71 10000 4.12 330 06:37 26.11.2021
124 Clear 9 1011 71 10000 4.12 330 06:37 26.11.2021
125 Clear 10 1011 71 10000 4.12 330 06:19 26.11.2021
126 Clear 10 1011 73 10000 4.63 330 03:41 26.11.2021
127 Clear 10 1011 73 10000 3.6 340 00:47 26.11.2021
128 Clear 10 1010 75 10000 3.6 330 22:36 25.11.2021
129 Clouds 10 1011 76 10000 2.57 330 21:19 25.11.2021
130 Clouds 10 1009 76 10000 2.57 340 19:54 25.11.2021
131 Clouds 11 1009 71 10000 3.6 330 18:38 25.11.2021
132 Clouds 12 1008 66 10000 4.63 310 17:28 25.11.2021
133 Clouds 12 1008 66 10000 3.6 310 16:56 25.11.2021
134 Clouds 13 1008 66 10000 4.63 340 16:28 25.11.2021
135 Rain 13 1010 68 10000 4.12 310 14:56 25.11.2021
136 Clouds 12 1011 74 10000 3.6 320 13:25 25.11.2021
137 Rain 10 1010 78 10000 5.14 320 12:19 25.11.2021
138 Clouds 11 1011 81 10000 9.26 340 11:48 25.11.2021
139 Clouds 12 1011 79 10000 1.54 270 09:25 25.11.2021
140 Clouds 13 1013 69 10000 7.72 330 04:24 25.11.2021
141 Clear 12 1014 66 10000 5.66 330 02:45 25.11.2021
142 Clouds 13 1016 70 10000 7.2 330 22:45 24.11.2021
143 Clouds 13 1014 71 10000 7.2 330 22:23 24.11.2021
144 Clouds 13 1014 70 10000 6.69 330 21:28 24.11.2021
145 Clouds 13 1015 68 10000 6.69 340 20:46 24.11.2021
146 Clouds 13 1015 68 10000 6.69 340 20:46 24.11.2021
147 Clouds 13 1014 68 10000 6.69 340 20:18 24.11.2021
148 Clouds 13 1015 66 10000 5.66 340 18:30 24.11.2021
149 Clouds 14 1015 61 10000 6.17 340 17:24 24.11.2021
150 Clouds 15 1015 56 10000 6.69 340 15:23 24.11.2021
151 Clouds 15 1015 57 10000 6.69 340 14:47 24.11.2021
152 Clouds 15 1016 58 10000 7.2 350 14:19 24.11.2021
153 Clouds 15 1016 58 10000 7.2 350 14:19 24.11.2021
154 Clouds 13 1016 68 10000 6.17 350 12:28 24.11.2021
155 Clouds 13 1016 70 10000 4.12 330 11:20 24.11.2021
156 Clouds 13 1016 73 10000 3.09 310 10:47 24.11.2021
157 Clouds 13 1017 74 10000 1.54 310 10:21 24.11.2021
158 Clouds 11 1014 81 10000 2.06 270 07:52 24.11.2021
159 Clouds 10 1014 79 10000 2.06 250 06:54 24.11.2021
160 Clouds 12 1014 77 10000 3.09 340 03:51 24.11.2021
161 Clouds 11 1015 76 10000 2.06 280 00:43 24.11.2021
162 Clear 12 1014 71 10000 3.6 320 22:40 23.11.2021
163 Clear 12 1014 70 10000 3.6 320 22:18 23.11.2021
164 Clear 12 1014 68 10000 2.57 340 21:44 23.11.2021
165 Clear 12 1014 64 10000 1.03 0 19:43 23.11.2021
166 Clouds 13 1013 57 10000 2.57 330 18:42 23.11.2021
167 Clouds 14 1013 54 10000 5.14 360 18:20 23.11.2021
168 Clouds 15 1012 51 10000 8.23 350 16:58 23.11.2021
169 Clouds 16 1012 52 10000 7.72 340 16:20 23.11.2021
170 Clouds 16 1012 51 10000 6.17 340 15:22 23.11.2021
171 Clouds 16 1012 53 10000 5.66 330 14:22 23.11.2021
172 Clouds 14 1012 62 10000 6.17 320 11:42 23.11.2021
173 Clouds 12 1012 69 10000 3.6 330 09:59 23.11.2021
174 Clouds 11 1012 72 10000 3.6 320 09:18 23.11.2021
175 Clouds 11 1010 72 10000 3.6 310 06:45 23.11.2021
176 Clouds 11 1011 70 10000 1.03 0 03:52 23.11.2021
177 Clouds 11 1011 70 10000 4.63 330 01:49 23.11.2021
178 Clouds 12 1011 70 10000 2.06 310 23:21 22.11.2021
179 Clouds 12 1011 68 10000 4.12 310 22:52 22.11.2021
180 Clouds 11 1011 68 10000 4.12 330 22:25 22.11.2021
181 Clouds 12 1011 66 10000 6.17 330 21:41 22.11.2021
182 Clouds 12 1011 66 10000 6.17 340 20:52 22.11.2021
183 Clouds 12 1011 64 10000 4.63 330 19:57 22.11.2021
184 Clouds 12 1011 64 10000 3.09 340 19:19 22.11.2021
185 Clouds 12 1011 61 10000 6.69 330 18:39 22.11.2021
186 Clouds 13 1011 57 10000 7.2 340 17:43 22.11.2021
187 Clouds 15 1011 51 10000 7.72 330 16:19 22.11.2021
188 Clouds 15 1011 53 10000 6.69 330 14:18 22.11.2021
189 Clouds 15 1012 56 10000 6.69 340 12:18 22.11.2021
190 Clouds 14 1012 73 10000 4.12 330 10:43 22.11.2021
191 Clouds 13 1012 78 10000 4.12 330 09:43 22.11.2021
192 Clouds 13 1012 81 10000 2.06 320 08:40 22.11.2021
193 Clouds 14 1011 85 10000 2.06 290 06:22 22.11.2021
194 Clouds 14 1014 86 10000 1.03 0 23:30 21.11.2021
195 Clouds 14 1014 85 10000 2.57 300 22:50 21.11.2021
196 Clouds 14 1013 83 10000 2.57 310 22:18 21.11.2021
197 Clouds 14 1014 85 10000 3.6 300 20:42 21.11.2021
198 Clouds 14 1014 84 10000 2.06 300 19:59 21.11.2021
199 Clouds 16 1014 81 10000 2.06 260 18:25 21.11.2021
200 Clouds 17 1014 77 10000 1.54 290 17:39 21.11.2021
201 Clouds 18 1014 73 10000 1.03 0 16:46 21.11.2021
202 Clouds 17 1014 72 10000 1.54 0 14:46 21.11.2021
203 Clouds 17 1015 75 10000 2.06 60 13:49 21.11.2021
204 Clouds 16 1016 81 10000 2.06 60 12:38 21.11.2021
205 Fog 15 1016 85 10000 1.54 0 11:57 21.11.2021
206 Fog 14 1016 86 10000 2.57 50 11:35 21.11.2021
207 Fog 13 1016 89 10000 2.57 50 10:19 21.11.2021
208 Fog 13 1015 88 10000 2.57 70 09:20 21.11.2021
209 Fog 13 1014 87 10000 2.06 40 08:30 21.11.2021
210 Clouds 13 1014 88 10000 2.57 60 07:50 21.11.2021
211 Clouds 13 1011 83 10000 1.34 123 06:20 21.11.2021
212 Clouds 13 1014 87 10000 2.06 40 05:37 21.11.2021
213 Clouds 13 1014 86 10000 2.57 60 03:20 21.11.2021
214 Clouds 13 1015 87 10000 2.06 50 02:53 21.11.2021
215 Clouds 13 1015 85 10000 2.57 50 01:23 21.11.2021
216 Clouds 14 1015 87 10000 2.57 50 00:23 21.11.2021
217 Clouds 14 1015 86 10000 1.54 50 21:51 20.11.2021
218 Clouds 14 1015 86 10000 2.57 50 21:30 20.11.2021
219 Clouds 16 1015 84 10000 3.09 80 19:24 20.11.2021
220 Rain 16 1015 78 6000 2.57 130 18:45 20.11.2021
221 Clouds 17 1015 70 10000 3.6 80 18:19 20.11.2021
222 Clouds 18 1015 65 10000 3.09 0 17:19 20.11.2021
223 Clouds 18 1015 64 10000 3.6 100 14:50 20.11.2021
224 Clouds 18 1015 64 10000 4.63 100 14:28 20.11.2021
225 Clouds 18 1016 64 10000 5.14 110 13:35 20.11.2021
226 Clouds 16 1016 70 10000 4.12 60 11:25 20.11.2021
227 Clouds 14 1016 72 10000 3.09 70 09:55 20.11.2021
228 Clear 14 1015 69 10000 5.14 60 08:32 20.11.2021
229 Clouds 13 1015 73 10000 2.06 60 05:30 20.11.2021
230 Clouds 13 1015 72 10000 1.03 0 04:51 20.11.2021
231 Clouds 14 1015 66 10000 4.12 60 03:54 20.11.2021
232 Clear 15 1015 60 10000 4.63 70 00:42 20.11.2021
233 Clear 15 1016 61 10000 5.14 60 23:45 19.11.2021
234 Clear 16 1015 59 10000 4.63 60 22:53 19.11.2021
235 Clear 17 1015 53 10000 3.6 50 21:24 19.11.2021
236 Clear 17 1015 52 10000 5.14 60 20:40 19.11.2021
237 Clear 17 1015 51 10000 5.14 60 20:22 19.11.2021
238 Clear 18 1015 51 10000 4.12 60 19:43 19.11.2021
239 Clear 18 1016 51 10000 4.12 80 18:45 19.11.2021
240 Clear 19 1015 49 10000 4.63 60 17:44 19.11.2021
241 Clear 20 1015 45 10000 5.14 70 16:40 19.11.2021
242 Clear 19 1016 47 10000 5.66 50 14:51 19.11.2021
243 Clear 14 1018 64 10000 7.72 60 11:32 19.11.2021
244 Clear 13 1018 66 10000 7.2 60 10:24 19.11.2021
245 Clear 12 1017 69 10000 5.66 60 08:35 19.11.2021
246 Clear 13 1017 65 10000 5.14 60 05:36 19.11.2021
247 Clear 13 1017 65 10000 5.14 60 03:37 19.11.2021
248 Clear 15 1018 58 10000 4.63 50 23:54 18.11.2021
249 Clear 15 1018 57 10000 4.12 40 23:18 18.11.2021
250 Clear 16 1019 55 10000 5.66 40 21:18 18.11.2021
251 Clear 16 1018 53 10000 6.69 40 20:44 18.11.2021
252 Clear 16 1018 52 10000 5.14 30 20:23 18.11.2021
253 Clear 17 1018 50 10000 6.17 40 19:36 18.11.2021
254 Clear 18 1017 45 10000 6.17 50 18:38 18.11.2021
255 Clear 19 1017 42 10000 5.66 40 17:52 18.11.2021
256 Clear 19 1017 41 10000 5.14 50 17:22 18.11.2021
257 Clear 19 1017 41 10000 6.17 50 16:42 18.11.2021
258 Clear 19 1018 42 10000 5.66 60 15:23 18.11.2021
259 Clear 15 1020 50 10000 7.2 70 12:56 18.11.2021
260 Clear 14 1020 51 10000 6.69 60 11:45 18.11.2021
261 Clear 13 1020 55 10000 7.2 60 11:26 18.11.2021
262 Clear 13 1020 55 10000 7.2 60 10:44 18.11.2021
263 Clear 11 1019 59 10000 5.66 60 08:49 18.11.2021
264 Clear 11 1019 62 10000 6.17 60 07:19 18.11.2021
265 Clear 12 1019 61 10000 6.17 50 05:46 18.11.2021
266 Clear 13 1019 60 10000 4.63 60 02:35 18.11.2021
267 Clear 13 1019 58 10000 4.63 50 01:21 18.11.2021
268 Clear 14 1019 52 10000 5.14 30 22:41 17.11.2021
269 Clear 15 1019 51 10000 5.14 30 22:20 17.11.2021
270 Clear 15 1019 49 10000 5.66 50 21:36 17.11.2021
271 Clear 15 1018 50 10000 6.69 40 20:18 17.11.2021
272 Clear 18 1017 45 10000 6.69 30 17:44 17.11.2021
273 Clear 18 1017 44 10000 7.2 30 16:59 17.11.2021
274 Clear 17 1018 49 10000 5.14 50 13:59 17.11.2021
275 Clear 15 1019 54 10000 6.69 50 12:39 17.11.2021
276 Clear 14 1019 55 10000 5.14 60 11:37 17.11.2021
277 Clear 13 1018 56 10000 5.14 50 10:28 17.11.2021
278 Clear 12 1018 61 10000 5.14 40 09:23 17.11.2021
279 Clear 11 1017 64 10000 5.14 50 07:41 17.11.2021
280 Clear 12 1017 67 10000 2.57 350 03:35 17.11.2021
281 Clear 12 1017 68 10000 3.09 340 00:47 17.11.2021
282 Clear 14 1018 68 10000 5.14 340 22:44 16.11.2021
283 Clear 15 1017 58 10000 4.63 330 20:20 16.11.2021
284 Clear 15 1016 58 10000 4.63 330 19:59 16.11.2021
285 Clear 17 1016 55 10000 3.09 20 18:53 16.11.2021
286 Clear 17 1016 52 10000 3.09 30 18:30 16.11.2021
287 Clear 19 1017 45 10000 2.06 350 17:34 16.11.2021
288 Clear 20 1016 40 10000 3.09 60 16:35 16.11.2021
289 Clear 19 1017 42 10000 2.57 60 15:49 16.11.2021
290 Clear 18 1017 45 10000 5.14 60 14:39 16.11.2021
291 Clear 14 1018 57 10000 6.17 50 11:28 16.11.2021
292 Clear 12 1017 61 10000 3.6 40 09:46 16.11.2021
293 Clear 11 1016 63 10000 2.06 20 08:27 16.11.2021
294 Clear 12 1015 62 10000 3.09 10 07:32 16.11.2021
295 Clear 13 1017 69 10000 3.6 30 01:44 16.11.2021
296 Clear 14 1017 70 10000 4.12 330 23:20 15.11.2021
297 Clear 14 1017 69 10000 2.57 320 22:33 15.11.2021
298 Clear 14 1016 67 10000 3.09 340 21:53 15.11.2021
299 Clear 14 1017 68 10000 4.12 320 21:28 15.11.2021
300 Clear 15 1017 65 10000 3.09 320 19:42 15.11.2021
301 Clear 17 1016 60 10000 4.12 330 18:33 15.11.2021
302 Clear 20 1016 53 10000 4.63 340 16:20 15.11.2021
303 Clear 19 1018 52 10000 2.57 0 15:41 15.11.2021
304 Clear 19 1018 52 10000 2.57 0 15:23 15.11.2021
305 Clear 18 1019 58 10000 1.54 90 13:32 15.11.2021
306 Clouds 14 1019 72 10000 2.06 80 11:21 15.11.2021
307 Clouds 12 1018 76 10000 1.54 30 09:28 15.11.2021
308 Clear 12 1017 69 10000 3.09 340 07:52 15.11.2021
309 Clear 13 1017 61 10000 3.09 340 05:21 15.11.2021
310 Clear 15 1018 59 10000 2.57 330 23:54 14.11.2021
311 Clear 15 1018 56 10000 4.12 320 22:35 14.11.2021
312 Clear 16 1017 54 10000 3.09 320 19:57 14.11.2021
313 Clear 17 1017 52 10000 4.63 330 19:18 14.11.2021
314 Clear 18 1016 51 10000 3.09 310 18:54 14.11.2021
315 Clear 18 1016 52 10000 3.6 330 18:36 14.11.2021
316 Clear 19 1016 51 10000 3.6 330 18:18 14.11.2021
317 Clear 20 1018 46 10000 1.54 80 17:56 14.11.2021
318 Clear 20 1018 45 10000 2.06 110 17:38 14.11.2021
319 Clear 21 1018 44 10000 2.06 110 17:20 14.11.2021
320 Clear 21 1018 46 10000 2.06 70 16:47 14.11.2021
321 Clear 21 1018 46 10000 2.06 70 16:47 14.11.2021
322 Clear 20 1018 48 10000 2.06 80 16:20 14.11.2021
323 Clear 20 1017 51 10000 3.09 60 15:23 14.11.2021
324 Clear 20 1017 51 10000 4.12 60 14:49 14.11.2021
325 Clear 19 1017 52 10000 4.12 60 14:29 14.11.2021
326 Clear 19 1017 54 10000 4.63 60 13:57 14.11.2021
327 Clear 19 1017 55 10000 3.09 60 13:39 14.11.2021
328 Clear 17 1018 58 10000 4.63 50 12:28 14.11.2021
329 Clear 17 1018 59 10000 4.63 60 11:52 14.11.2021
330 Clear 15 1018 60 10000 3.6 50 10:45 14.11.2021
331 Clear 15 1018 60 10000 1.54 50 10:26 14.11.2021
332 Clouds 13 1017 70 10000 2.06 30 08:56 14.11.2021
333 Clear 12 1016 73 10000 2.57 340 07:24 14.11.2021
334 Clear 15 1016 64 10000 3.09 320 01:24 14.11.2021
335 Clear 15 1017 69 10000 3.6 310 22:27 13.11.2021
336 Clear 15 1017 69 10000 3.6 310 22:27 13.11.2021
337 Clear 16 1017 69 10000 4.12 310 21:57 13.11.2021
338 Clear 16 1017 69 10000 3.6 320 21:25 13.11.2021
339 Clear 17 1016 66 10000 3.09 320 19:48 13.11.2021
340 Clear 19 1016 54 10000 0 0 18:33 13.11.2021
341 Clear 21 1016 49 10000 1.54 90 17:56 13.11.2021
342 Clear 21 1018 50 10000 3.09 50 16:40 13.11.2021
343 Clear 21 1017 49 10000 2.57 70 15:37 13.11.2021
344 Clear 20 1017 52 10000 2.57 70 14:33 13.11.2021
345 Clear 20 1017 53 10000 2.57 70 13:38 13.11.2021
346 Clear 18 1018 59 10000 3.09 0 12:33 13.11.2021
347 Clear 17 1018 63 10000 3.09 70 11:38 13.11.2021
348 Clear 16 1018 67 10000 2.57 60 10:45 13.11.2021
349 Fog 13 1019 80 10000 2.06 50 10:23 13.11.2021
350 Fog 11 1018 86 8000 1.54 30 09:38 13.11.2021
351 Mist 11 1017 84 6000 2.57 90 08:56 13.11.2021
352 Mist 11 1017 82 10000 1.54 10 08:31 13.11.2021
353 Fog 12 1018 82 10000 1.54 340 05:59 13.11.2021
354 Fog 12 1016 81 10000 2.06 10 04:30 13.11.2021
355 Clear 12 1016 79 10000 2.57 330 01:54 13.11.2021
356 Clear 14 1017 74 10000 3.6 310 22:59 12.11.2021
357 Clear 14 1017 72 10000 4.12 310 21:50 12.11.2021
358 Clear 15 1016 72 10000 4.12 330 20:18 12.11.2021
359 Clear 16 1016 72 10000 4.12 340 19:28 12.11.2021
360 Clear 16 1015 69 10000 4.63 330 18:46 12.11.2021
361 Clear 20 1015 53 10000 3.09 60 16:40 12.11.2021
362 Clear 20 1016 60 10000 2.06 0 15:34 12.11.2021
363 Clouds 17 1017 70 10000 3.09 100 13:21 12.11.2021
364 Clouds 14 1018 77 10000 2.06 80 10:58 12.11.2021
365 Clouds 14 1017 79 10000 1.54 360 09:45 12.11.2021
366 Clear 13 1016 80 10000 4.12 340 08:40 12.11.2021
367 Clouds 14 1016 79 10000 3.09 340 03:27 12.11.2021
368 Clouds 14 1018 81 10000 1.03 0 23:43 11.11.2021
369 Clear 14 1018 80 10000 4.12 310 22:40 11.11.2021
370 Clear 15 1018 79 10000 3.6 310 21:29 11.11.2021
371 Clear 15 1018 80 10000 4.63 320 20:48 11.11.2021
372 Clear 16 1017 76 10000 4.12 320 19:24 11.11.2021
373 Clear 17 1017 70 10000 4.12 310 18:22 11.11.2021
374 Clear 18 1018 65 10000 1.03 0 17:37 11.11.2021
375 Clouds 19 1018 62 10000 1.03 0 15:19 11.11.2021
376 Clouds 18 1019 61 10000 2.57 110 14:30 11.11.2021
377 Clouds 18 1018 64 10000 2.57 80 13:40 11.11.2021
378 Clouds 17 1019 71 10000 3.6 80 12:52 11.11.2021
379 Clouds 15 1019 76 10000 1.54 0 11:30 11.11.2021
380 Mist 14 1017 85 4500 0 0 09:49 11.11.2021
381 Clouds 12 1018 87 7000 1.54 60 08:19 11.11.2021
382 Clear 14 1016 82 10000 3.6 310 06:18 11.11.2021
383 Clear 14 1017 81 10000 3.6 330 00:36 11.11.2021
384 Clear 15 1017 69 10000 3.6 320 22:32 10.11.2021
385 Clear 16 1016 62 10000 3.6 310 21:33 10.11.2021
386 Clear 16 1017 63 10000 3.6 310 20:51 10.11.2021
387 Clear 16 1016 61 10000 3.6 320 19:48 10.11.2021
388 Clear 17 1016 59 10000 2.06 320 19:30 10.11.2021
389 Clear 20 1017 51 10000 2.06 100 16:40 10.11.2021
390 Clear 19 1017 51 10000 2.06 110 15:46 10.11.2021
391 Clear 19 1018 52 10000 2.57 60 14:23 10.11.2021
392 Clear 18 1017 53 10000 3.09 70 13:27 10.11.2021
393 Clear 16 1019 56 10000 4.12 70 11:39 10.11.2021
394 Clear 13 1014 67 10000 3.6 40 09:18 10.11.2021
395 Clear 12 1013 69 10000 3.6 60 08:40 10.11.2021
396 Clear 13 1009 62 10000 2.57 30 06:44 10.11.2021
397 Clear 13 1011 70 10000 3.6 30 05:56 10.11.2021
398 Clear 15 1011 75 10000 2.57 320 01:44 10.11.2021
399 Clear 16 1012 69 10000 4.63 320 21:59 09.11.2021
400 Clear 16 1012 71 10000 5.14 310 20:34 09.11.2021
401 Clear 17 1012 68 10000 5.14 320 19:28 09.11.2021
402 Clear 18 1012 62 10000 4.12 320 18:47 09.11.2021
403 Clear 22 1011 52 10000 5.14 350 16:40 09.11.2021
404 Clear 21 1010 55 10000 4.12 330 15:20 09.11.2021
405 Clouds 20 1013 60 10000 5.14 350 13:31 09.11.2021
406 Clouds 19 1014 66 10000 5.14 330 12:28 09.11.2021
407 Clouds 16 1014 70 10000 6.17 320 10:55 09.11.2021
408 Clouds 15 1013 77 10000 3.09 340 09:44 09.11.2021
409 Clouds 14 1013 74 10000 3.09 340 08:53 09.11.2021
410 Clear 15 1011 66 10000 4.12 330 06:59 09.11.2021
411 Clear 15 1012 58 10000 3.6 320 02:32 09.11.2021
412 Clear 15 1012 58 10000 3.6 310 01:50 09.11.2021
413 Clear 15 1014 62 10000 3.6 330 00:30 09.11.2021
414 Clear 15 1015 61 10000 4.63 320 23:29 08.11.2021
415 Clear 15 1015 57 10000 3.6 340 22:36 08.11.2021
416 Clear 16 1016 56 10000 5.66 330 21:22 08.11.2021
417 Clear 16 1016 53 10000 3.6 350 20:31 08.11.2021
418 Clear 17 1016 49 10000 4.63 340 19:18 08.11.2021
419 Clear 20 1016 47 10000 4.12 330 17:39 08.11.2021
420 Clear 20 1016 47 10000 4.12 330 17:39 08.11.2021
421 Clear 20 1020 48 10000 4.63 350 15:48 08.11.2021
422 Clear 20 1015 48 10000 2.57 80 14:55 08.11.2021
423 Clear 19 1021 52 10000 3.09 90 14:24 08.11.2021
424 Clear 18 1018 52 10000 5.14 40 12:59 08.11.2021
425 Clear 17 1017 54 10000 3.09 50 11:54 08.11.2021
426 Clear 15 1018 60 10000 2.06 30 10:41 08.11.2021
427 Clouds 11 1016 66 10000 0.51 0 08:56 08.11.2021
428 Clear 11 1017 66 10000 2.57 330 08:18 08.11.2021
429 Clear 11 1016 64 10000 1.03 0 06:55 08.11.2021
430 Clear 12 1015 66 10000 2.06 320 03:35 08.11.2021
431 Clear 12 1018 70 10000 3.6 310 00:20 08.11.2021
432 Clear 13 1018 65 10000 4.12 310 22:57 07.11.2021
433 Clear 13 1019 60 10000 5.14 320 21:25 07.11.2021
434 Clear 14 1019 59 10000 4.63 330 20:18 07.11.2021
435 Clear 17 1019 42 10000 3.6 310 18:30 07.11.2021
436 Clear 18 1023 37 10000 3.6 360 17:42 07.11.2021
437 Clear 20 1019 32 10000 4.63 60 16:22 07.11.2021
438 Clear 19 1020 31 10000 5.14 60 14:54 07.11.2021
439 Clear 18 1020 35 10000 5.14 50 14:27 07.11.2021
440 Clear 18 1020 33 10000 5.14 60 12:50 07.11.2021
441 Clear 15 1022 42 10000 3.6 50 11:41 07.11.2021
442 Clear 9 1025 65 10000 1.54 80 08:59 07.11.2021
443 Clear 11 1026 60 10000 3.09 320 02:56 07.11.2021
444 Clear 11 1027 59 10000 3.09 320 02:18 07.11.2021
445 Clear 12 1027 60 10000 4.12 330 22:56 06.11.2021
446 Clear 12 1027 60 10000 3.6 320 21:58 06.11.2021
447 Clear 13 1027 52 10000 3.09 340 20:59 06.11.2021
448 Clear 13 1027 44 10000 2.57 360 20:18 06.11.2021
449 Clear 16 1026 35 10000 6.17 30 17:31 06.11.2021
450 Clear 17 1027 34 10000 6.17 30 16:32 06.11.2021
451 Clear 15 1025 44 10000 5.66 50 13:41 06.11.2021
452 Clear 14 1025 44 10000 5.66 50 12:56 06.11.2021
453 Clear 13 1023 45 10000 8.23 50 11:18 06.11.2021
454 Clear 11 1024 57 10000 3.09 10 08:48 06.11.2021
455 Clear 11 1020 61 10000 2.06 330 04:50 06.11.2021
456 Clear 12 1022 62 10000 3.6 350 00:36 06.11.2021
457 Clear 13 1022 58 10000 5.14 350 23:29 05.11.2021
458 Clear 13 1021 58 10000 5.14 330 22:33 05.11.2021
459 Clear 13 1022 60 10000 5.66 330 20:32 05.11.2021
460 Clear 14 1022 59 10000 5.66 330 19:51 05.11.2021
461 Clear 15 1021 55 10000 5.14 330 18:51 05.11.2021
462 Clear 16 1021 50 10000 5.66 350 18:29 05.11.2021
463 Clear 18 1024 41 10000 4.63 60 16:45 05.11.2021
464 Clear 17 1023 37 10000 5.66 60 14:22 05.11.2021
465 Clear 15 1024 44 10000 5.14 40 12:27 05.11.2021
466 Clear 13 1023 57 10000 3.09 10 09:47 05.11.2021
467 Clear 10 1022 66 10000 2.57 350 08:31 05.11.2021
468 Clear 11 1020 67 10000 4.63 340 06:22 05.11.2021
469 Clear 12 1020 71 10000 5.14 340 02:38 05.11.2021
470 Clear 12 1020 71 10000 5.14 340 02:19 05.11.2021
471 Clear 13 1020 70 10000 3.6 360 23:58 04.11.2021
472 Clear 13 1020 69 10000 5.14 350 22:36 04.11.2021
473 Clear 13 1019 69 10000 5.14 350 22:18 04.11.2021
474 Clear 13 1019 68 10000 6.17 340 21:28 04.11.2021
475 Clear 13 1019 66 10000 5.66 340 20:29 04.11.2021
476 Clouds 14 1018 62 10000 5.14 340 19:49 04.11.2021
477 Clouds 14 1018 61 10000 5.14 340 19:28 04.11.2021
478 Clouds 15 1017 56 10000 7.2 350 18:29 04.11.2021
479 Clouds 16 1016 52 10000 6.69 340 17:26 04.11.2021
480 Clouds 17 1018 52 10000 6.69 350 16:23 04.11.2021
481 Clouds 17 1016 53 10000 6.69 360 13:50 04.11.2021
482 Clouds 15 1016 69 10000 3.6 360 10:48 04.11.2021
483 Clouds 11 1014 82 10000 1.03 0 08:41 04.11.2021
484 Clear 11 1013 76 10000 1.54 280 07:49 04.11.2021
485 Clear 11 1013 76 10000 1.03 0 07:31 04.11.2021
486 Clear 13 1014 72 10000 1.54 310 23:18 03.11.2021
487 Clear 12 1014 75 10000 1.03 300 22:26 03.11.2021
488 Clear 13 1014 72 10000 1.54 320 21:37 03.11.2021
489 Clear 13 1014 71 10000 2.57 320 20:44 03.11.2021
490 Clouds 13 1014 70 10000 3.09 330 20:25 03.11.2021
491 Clouds 13 1013 68 10000 2.57 320 19:37 03.11.2021
492 Clouds 15 1015 66 10000 3.09 310 18:27 03.11.2021
493 Clouds 15 1015 66 10000 3.09 310 18:27 03.11.2021
494 Clouds 15 1015 64 10000 3.6 320 17:48 03.11.2021
495 Clouds 16 1013 63 10000 5.14 330 16:49 03.11.2021
496 Clouds 17 1012 51 10000 5.66 320 15:49 03.11.2021
497 Clouds 17 1013 50 10000 5.66 310 15:30 03.11.2021
498 Clouds 16 1014 62 10000 4.12 340 13:42 03.11.2021
499 Clouds 15 1014 71 10000 3.6 340 11:37 03.11.2021
500 Clouds 15 1013 74 10000 2.06 290 10:50 03.11.2021
501 Clouds 14 1013 77 10000 1.54 290 09:47 03.11.2021
502 Clouds 13 1012 77 10000 2.06 270 08:58 03.11.2021
503 Rain 14 1012 74 10000 1.54 310 07:59 03.11.2021
504 Rain 14 1012 74 10000 2.57 310 07:35 03.11.2021
505 Clouds 14 1011 76 10000 1.54 280 04:23 03.11.2021
506 Clouds 15 1011 83 10000 4.12 330 01:32 03.11.2021
507 Clouds 15 1011 84 6000 5.66 310 23:30 02.11.2021
508 Clouds 16 1011 86 10000 2.57 320 21:59 02.11.2021
509 Clouds 16 1011 89 10000 3.6 250 20:45 02.11.2021
510 Clouds 16 1011 89 10000 4.12 230 20:21 02.11.2021
511 Clouds 16 1013 86 4500 2.57 290 19:31 02.11.2021
512 Clouds 16 1013 86 4500 2.57 290 19:31 02.11.2021
513 Clouds 17 1011 81 10000 4.12 240 18:36 02.11.2021
514 Clouds 17 1011 81 10000 4.12 240 18:36 02.11.2021
515 Clouds 17 1011 81 10000 4.12 240 17:47 02.11.2021
516 Rain 17 1012 82 10000 4.63 250 17:25 02.11.2021
517 Rain 17 1014 79 10000 4.12 240 16:19 02.11.2021
518 Rain 18 1013 73 10000 5.66 270 14:57 02.11.2021
519 Clouds 18 1014 69 10000 4.12 270 13:32 02.11.2021
520 Rain 18 1014 68 10000 3.6 280 12:59 02.11.2021
521 Clouds 18 1014 67 10000 2.06 280 12:18 02.11.2021
522 Clouds 18 1015 71 10000 3.09 230 11:26 02.11.2021
523 Clouds 17 1015 76 10000 5.14 250 10:38 02.11.2021
524 Clouds 16 1015 77 10000 5.14 250 10:18 02.11.2021
525 Clouds 16 1014 83 10000 1.54 250 07:47 02.11.2021
526 Clouds 16 1014 85 10000 2.57 230 06:29 02.11.2021
527 Clouds 16 1015 79 10000 1.03 0 03:27 02.11.2021
528 Clouds 15 1017 83 10000 0 0 00:19 02.11.2021
529 Clouds 16 1017 77 10000 1.03 300 22:19 01.11.2021
530 Clouds 17 1016 76 10000 2.06 320 20:46 01.11.2021
531 Clouds 17 1016 76 10000 2.06 320 20:26 01.11.2021
532 Clouds 17 1016 74 10000 2.06 310 19:42 01.11.2021
533 Clouds 18 1016 73 10000 3.09 330 18:50 01.11.2021
534 Clouds 19 1015 70 10000 4.12 340 17:49 01.11.2021
535 Clouds 19 1017 69 10000 4.63 340 16:57 01.11.2021
536 Clouds 20 1015 70 10000 4.63 340 16:32 01.11.2021
537 Clouds 20 1015 71 10000 3.09 330 15:39 01.11.2021
538 Clouds 20 1015 70 10000 3.09 330 15:19 01.11.2021
539 Clouds 20 1015 75 10000 3.6 350 14:38 01.11.2021
540 Clouds 20 1015 74 10000 3.6 350 14:19 01.11.2021
541 Clouds 19 1016 82 10000 2.06 360 12:41 01.11.2021
542 Clouds 18 1016 83 10000 2.06 360 11:39 01.11.2021
543 Clouds 18 1015 87 10000 3.09 350 10:20 01.11.2021
544 Clouds 17 1014 89 10000 3.09 330 08:19 01.11.2021
545 Clouds 18 1013 90 8000 3.09 310 07:46 01.11.2021
546 Drizzle 19 1012 91 8000 2.57 300 03:55 01.11.2021
547 Clouds 20 1011 90 2000 7.2 250 01:44 01.11.2021
548 Clouds 20 1013 90 10000 7.2 250 23:30 31.10.2021
549 Clouds 20 1013 92 10000 8.23 240 20:58 31.10.2021
550 Mist 20 1013 93 10000 6.69 230 19:49 31.10.2021
551 Mist 20 1013 94 10000 6.17 230 18:43 31.10.2021
552 Clouds 20 1013 93 9000 4.12 240 18:20 31.10.2021
553 Mist 20 1013 92 6000 7.72 230 16:41 31.10.2021
554 Mist 20 1013 91 1800 7.72 220 14:45 31.10.2021
555 Mist 20 1013 91 7000 7.2 230 12:55 31.10.2021
556 Clouds 20 1013 92 6000 8.75 220 11:44 31.10.2021
557 Mist 20 1013 92 3000 6.69 230 10:48 31.10.2021
558 Drizzle 20 1013 92 5000 6.69 230 09:26 31.10.2021
559 Drizzle 20 1013 90 4500 5.14 220 08:44 31.10.2021
560 Drizzle 20 1011 90 10000 6.17 250 02:52 31.10.2021
561 Clouds 20 1009 91 7000 8.23 220 00:32 31.10.2021
562 Clouds 20 1009 93 8000 7.72 240 22:20 30.10.2021
563 Rain 20 1008 92 9000 9.26 230 21:27 30.10.2021
564 Mist 20 1006 90 4000 4.47 305 19:42 30.10.2021
565 Mist 20 1007 92 4000 6.69 220 17:49 30.10.2021
566 Rain 20 1007 90 10000 3.6 250 15:42 30.10.2021
567 Rain 20 1008 88 10000 5.14 230 13:59 30.10.2021
568 Rain 20 1008 88 10000 5.14 230 13:59 30.10.2021
569 Clouds 20 1008 89 10000 5.14 230 13:38 30.10.2021
570 Clouds 20 1008 89 10000 5.14 230 13:20 30.10.2021
571 Mist 20 1007 88 10000 3.6 230 11:49 30.10.2021
572 Clouds 20 1006 90 10000 3.09 230 10:56 30.10.2021
573 Clouds 19 1005 91 7000 4.63 250 08:57 30.10.2021
574 Drizzle 19 1003 91 5000 7.2 240 07:56 30.10.2021
575 Clouds 20 1003 89 7000 8.23 240 05:46 30.10.2021
576 Clouds 20 1003 87 10000 10.8 230 02:59 30.10.2021
577 Mist 20 1004 88 3000 11.83 220 23:21 29.10.2021
578 Mist 19 1007 86 3000 10.8 220 22:35 29.10.2021
579 Clouds 20 1005 87 9000 14.4 210 21:18 29.10.2021
580 Clouds 19 1005 90 6000 11.83 200 20:32 29.10.2021
581 Clouds 19 1006 91 6000 10.8 200 19:26 29.10.2021
582 Rain 19 1007 83 10000 8.23 210 17:43 29.10.2021
583 Rain 19 1008 80 10000 6.17 210 15:42 29.10.2021
584 Clouds 19 1010 78 10000 4.12 220 12:50 29.10.2021
585 Clouds 18 1010 88 10000 3.09 240 10:49 29.10.2021
586 Clouds 18 1010 89 10000 2.57 250 10:30 29.10.2021
587 Rain 18 1010 85 10000 7.72 210 02:46 29.10.2021
588 Clouds 18 1011 80 10000 7.72 210 00:32 29.10.2021
589 Clouds 18 1012 82 10000 5.66 220 22:32 28.10.2021
590 Clouds 18 1014 80 10000 4.63 220 20:59 28.10.2021
591 Clouds 18 1012 81 10000 5.14 210 19:57 28.10.2021
592 Clouds 19 1012 79 10000 5.14 220 18:47 28.10.2021
593 Clouds 20 1013 76 10000 5.14 250 17:42 28.10.2021
594 Clouds 20 1013 65 10000 5.66 220 16:38 28.10.2021
595 Clear 20 1014 67 10000 5.66 230 14:42 28.10.2021
596 Clear 19 1015 65 10000 1.54 0 13:33 28.10.2021
597 Fog 19 1015 59 10000 2.06 90 12:50 28.10.2021
598 Clear 18 1014 58 10000 1.54 50 11:50 28.10.2021
599 Fog 16 1015 66 10000 0 0 10:38 28.10.2021
600 Fog 12 1017 75 10000 0.51 0 09:37 28.10.2021
601 Clear 14 1014 65 10000 0.51 0 08:36 28.10.2021
602 Clear 14 1014 69 10000 1.03 0 07:41 28.10.2021
603 Clear 16 1015 58 10000 2.06 310 02:33 28.10.2021
604 Clear 19 1017 50 10000 2.57 330 22:57 27.10.2021
605 Clear 19 1017 49 10000 4.12 310 22:26 27.10.2021
606 Clear 19 1017 51 10000 5.14 310 21:32 27.10.2021
607 Clear 20 1017 49 10000 4.63 310 20:46 27.10.2021
608 Clear 21 1017 49 10000 3.09 310 19:48 27.10.2021
609 Clear 23 1019 44 10000 1.54 0 18:56 27.10.2021
610 Clear 23 1019 42 10000 1.03 0 18:36 27.10.2021
611 Clear 24 1019 41 10000 2.57 90 16:25 27.10.2021
612 Clear 23 1018 39 10000 2.06 70 15:28 27.10.2021
613 Clear 23 1018 40 10000 2.57 60 14:28 27.10.2021
614 Clear 18 1019 51 10000 3.09 60 11:18 27.10.2021
615 Clear 17 1019 54 10000 3.6 50 10:56 27.10.2021
616 Clear 15 1018 58 10000 1.54 60 09:28 27.10.2021
617 Clear 16 1017 59 10000 2.06 30 07:47 27.10.2021
618 Clear 17 1016 53 10000 2.06 10 06:34 27.10.2021
619 Clear 17 1018 62 10000 3.09 330 01:26 27.10.2021
620 Clear 18 1018 59 10000 3.6 330 00:55 27.10.2021
621 Clear 19 1018 57 10000 3.6 320 23:56 26.10.2021
622 Clear 19 1018 54 10000 3.6 320 22:55 26.10.2021
623 Clear 19 1018 54 10000 3.09 310 22:27 26.10.2021
624 Clear 19 1018 54 10000 3.09 320 21:51 26.10.2021
625 Clear 21 1018 51 10000 2.06 270 19:59 26.10.2021
626 Clear 22 1018 45 10000 1.54 40 19:25 26.10.2021
627 Clear 24 1019 41 10000 2.06 90 18:30 26.10.2021
628 Clear 23 1018 42 10000 3.6 50 15:53 26.10.2021
629 Clear 22 1019 49 10000 4.12 60 14:18 26.10.2021
630 Clear 18 1019 64 10000 3.09 360 11:31 26.10.2021
631 Clear 15 1019 79 10000 3.09 320 09:28 26.10.2021
632 Clear 15 1018 79 10000 4.63 320 07:23 26.10.2021
633 Clear 16 1019 72 10000 6.17 330 00:50 26.10.2021
634 Clear 16 1019 71 10000 6.17 330 23:48 25.10.2021
635 Clear 17 1019 67 10000 7.2 340 22:36 25.10.2021
636 Clear 17 1019 65 10000 7.72 340 21:49 25.10.2021
637 Clear 17 1019 65 10000 7.2 330 21:25 25.10.2021
638 Clouds 19 1018 64 10000 6.69 330 19:45 25.10.2021
639 Clouds 20 1018 60 10000 6.69 350 19:24 25.10.2021
640 Clouds 21 1018 56 10000 6.17 330 18:50 25.10.2021
641 Clouds 22 1018 48 10000 6.17 330 17:42 25.10.2021
642 Clouds 22 1019 50 10000 4.63 330 15:38 25.10.2021
643 Clouds 22 1020 53 10000 5.14 350 13:54 25.10.2021
644 Clouds 18 1020 68 10000 4.12 360 11:58 25.10.2021
645 Clouds 16 1020 83 10000 1.03 0 09:58 25.10.2021
646 Clouds 14 1019 85 10000 1.54 330 07:40 25.10.2021
647 Clouds 15 1019 82 10000 2.06 350 05:55 25.10.2021
648 Clear 15 1020 71 10000 1.03 0 00:53 25.10.2021
649 Clear 15 1020 70 10000 2.06 10 00:35 25.10.2021
650 Clear 16 1020 67 10000 3.6 330 23:45 24.10.2021
651 Clear 17 1020 64 10000 4.63 320 22:40 24.10.2021
652 Clear 17 1020 64 10000 4.63 320 22:20 24.10.2021
653 Clear 17 1020 63 10000 5.14 310 21:37 24.10.2021
654 Clear 18 1020 59 10000 4.12 310 20:42 24.10.2021
655 Clear 20 1019 47 10000 3.09 290 19:49 24.10.2021
656 Clear 22 1022 42 10000 3.6 300 18:30 24.10.2021
657 Clear 23 1022 40 10000 3.6 300 17:48 24.10.2021
658 Clouds 23 1022 41 10000 3.6 0 16:32 24.10.2021
659 Clouds 23 1020 48 10000 2.57 0 15:20 24.10.2021
660 Clear 20 1021 56 10000 2.06 90 13:43 24.10.2021
661 Clear 19 1021 58 10000 2.06 80 12:29 24.10.2021
662 Clear 17 1023 58 10000 2.57 360 11:36 24.10.2021
663 Clear 15 1022 69 10000 0 0 10:40 24.10.2021
664 Clear 14 1020 70 10000 2.06 340 08:50 24.10.2021
665 Clear 16 1019 59 10000 3.09 310 03:30 24.10.2021
666 Clear 17 1019 55 10000 4.12 330 23:56 23.10.2021
667 Clear 18 1019 55 10000 4.12 320 22:55 23.10.2021
668 Clear 19 1019 51 10000 4.63 310 21:20 23.10.2021
669 Clear 23 1020 39 10000 1.03 0 19:37 23.10.2021
670 Clear 24 1020 32 10000 1.03 0 18:44 23.10.2021
671 Clear 24 1020 33 10000 2.06 110 17:46 23.10.2021
672 Clear 24 1020 37 10000 2.06 110 17:18 23.10.2021
673 Clear 23 1018 42 10000 2.57 70 15:57 23.10.2021
674 Clear 20 1019 48 10000 4.63 70 13:35 23.10.2021
675 Clear 16 1018 60 10000 4.12 330 00:45 23.10.2021
676 Clear 17 1018 57 10000 5.66 330 23:41 22.10.2021
677 Clear 17 1018 56 10000 6.69 330 21:37 22.10.2021
678 Clear 19 1017 51 10000 7.2 330 19:33 22.10.2021
679 Clear 21 1017 47 10000 7.2 340 18:25 22.10.2021
680 Clear 22 1017 43 10000 7.2 330 16:44 22.10.2021
681 Clear 22 1017 41 10000 6.69 360 14:45 22.10.2021
682 Clouds 19 1018 54 10000 7.72 340 12:41 22.10.2021
683 Clouds 17 1018 65 10000 6.17 320 10:56 22.10.2021
684 Clouds 16 1018 67 10000 4.12 310 10:33 22.10.2021
685 Clouds 15 1018 74 10000 0.51 0 09:34 22.10.2021
686 Clouds 15 1017 74 10000 5.14 350 07:40 22.10.2021
687 Clouds 15 1017 74 10000 5.14 350 07:21 22.10.2021
688 Clouds 15 1017 74 10000 5.14 350 07:21 22.10.2021
689 Clear 16 1022 73 10000 3.6 330 01:41 22.10.2021
690 Clear 16 1019 71 10000 3.6 330 23:50 21.10.2021
691 Clouds 16 1020 67 10000 4.12 340 22:43 21.10.2021
692 Clouds 17 1020 68 10000 3.6 360 21:38 21.10.2021
693 Clouds 17 1019 64 10000 6.17 350 20:24 21.10.2021
694 Clouds 18 1018 61 10000 6.17 350 19:55 21.10.2021
695 Clouds 19 1019 60 10000 7.72 330 19:25 21.10.2021
696 Clouds 20 1019 53 10000 7.2 330 18:33 21.10.2021
697 Clouds 21 1019 51 10000 6.17 320 17:51 21.10.2021
698 Clouds 21 1018 50 10000 5.66 320 16:50 21.10.2021
699 Clouds 22 1019 53 10000 6.69 340 15:33 21.10.2021
700 Clouds 21 1020 59 10000 5.14 340 14:56 21.10.2021
701 Clouds 21 1020 59 10000 5.66 350 14:37 21.10.2021
702 Clouds 21 1020 59 10000 5.66 350 14:37 21.10.2021
703 Clouds 19 1021 73 10000 4.63 360 11:59 21.10.2021
704 Clouds 18 1020 84 10000 1.03 0 09:42 21.10.2021
705 Clouds 18 1019 84 10000 1.54 310 07:54 21.10.2021
706 Clouds 18 1019 85 10000 1.54 310 06:54 21.10.2021
707 Clouds 19 1019 82 10000 1.54 350 00:51 21.10.2021
708 Clouds 19 1020 79 10000 4.63 340 22:36 20.10.2021
709 Clouds 19 1020 79 10000 4.12 330 21:50 20.10.2021
710 Clouds 20 1019 76 10000 3.09 330 20:59 20.10.2021
711 Clouds 20 1019 76 10000 4.12 310 20:39 20.10.2021
712 Clouds 20 1019 76 10000 4.12 310 20:19 20.10.2021
713 Clouds 22 1020 74 10000 3.6 300 19:26 20.10.2021
714 Clouds 22 1020 75 10000 4.12 320 18:45 20.10.2021
715 Clouds 23 1020 70 10000 4.63 280 17:36 20.10.2021
716 Clouds 23 1020 69 10000 4.12 210 14:56 20.10.2021
717 Fog 18 1020 89 8000 0 0 09:57 20.10.2021
718 Fog 18 1018 87 9000 0 0 06:57 20.10.2021
719 Clear 20 1019 77 10000 0 0 02:38 20.10.2021
720 Clear 21 1019 74 10000 4.63 260 00:34 20.10.2021
721 Clear 21 1020 73 10000 6.17 260 22:58 19.10.2021
722 Clear 21 1019 69 10000 5.66 260 21:38 19.10.2021
723 Clear 22 1019 65 10000 5.66 260 20:29 19.10.2021
724 Clouds 23 1019 61 10000 6.17 250 19:59 19.10.2021
725 Clouds 23 1019 59 10000 5.66 250 19:37 19.10.2021
726 Clear 25 1019 53 10000 5.66 250 18:45 19.10.2021
727 Clear 26 1018 52 10000 4.63 240 17:52 19.10.2021
728 Clear 26 1019 49 10000 5.14 240 15:30 19.10.2021
729 Clear 26 1020 49 10000 5.14 240 14:44 19.10.2021
730 Clear 25 1020 52 10000 4.12 240 13:56 19.10.2021
731 Clear 23 1020 70 10000 2.06 80 12:24 19.10.2021
732 Clear 22 1020 74 10000 3.09 50 11:30 19.10.2021
733 Clear 19 1019 86 10000 2.06 50 09:55 19.10.2021
734 Clear 18 1018 86 10000 1.03 60 08:57 19.10.2021
735 Clear 20 1018 76 10000 0 0 02:38 19.10.2021
736 Clear 20 1019 75 10000 0 0 00:20 19.10.2021
737 Clear 21 1017 70 10000 0.51 0 23:41 18.10.2021
738 Clear 22 1018 70 10000 2.57 320 22:57 18.10.2021
739 Clear 22 1018 70 10000 2.06 310 22:31 18.10.2021
740 Clear 22 1018 70 10000 2.06 310 22:31 18.10.2021
741 Clear 23 1018 66 10000 0 0 20:53 18.10.2021
742 Clear 23 1018 63 10000 0 0 20:32 18.10.2021
743 Clear 24 1020 63 10000 0.51 0 19:49 18.10.2021
744 Clear 25 1020 59 10000 1.54 0 19:22 18.10.2021
745 Clear 25 1020 61 10000 2.06 0 18:49 18.10.2021
746 Fog 25 1019 69 10000 2.06 0 14:58 18.10.2021
747 Fog 22 1019 78 10000 2.06 50 12:41 18.10.2021
748 Fog 18 1019 92 5000 1.54 60 10:26 18.10.2021
749 Mist 17 1019 91 5000 0 0 09:26 18.10.2021
750 Fog 18 1018 90 10000 1.03 0 01:35 18.10.2021
751 Clear 19 1018 86 10000 1.54 310 23:20 17.10.2021
752 Fog 20 1018 84 10000 1.03 0 21:45 17.10.2021
753 Clouds 20 1017 83 10000 2.06 280 20:59 17.10.2021
754 Clouds 21 1017 80 10000 2.06 280 20:31 17.10.2021
755 Clouds 22 1017 77 10000 3.6 260 19:39 17.10.2021
756 Clouds 22 1011 72 10000 1.34 258 18:54 17.10.2021
757 Clouds 22 1017 72 10000 4.63 250 17:27 17.10.2021
758 Fog 21 1017 79 10000 4.63 230 14:58 17.10.2021
759 Fog 21 1017 81 10000 4.63 220 14:24 17.10.2021
760 Mist 21 1017 83 9000 3.6 230 13:34 17.10.2021
761 Mist 20 1017 89 9000 4.12 250 11:54 17.10.2021
762 Fog 19 1017 91 6000 2.57 260 10:23 17.10.2021
763 Mist 19 1016 91 7000 4.12 230 09:28 17.10.2021
764 Drizzle 18 1015 90 5000 0 0 06:58 17.10.2021
765 Clouds 18 1015 83 10000 1.03 0 00:52 17.10.2021
766 Clouds 18 1015 81 10000 0 0 00:21 17.10.2021
767 Clear 19 1016 78 10000 1.54 300 21:38 16.10.2021
768 Rain 20 1016 72 10000 3.09 310 20:31 16.10.2021
769 Rain 21 1016 62 10000 2.06 270 19:45 16.10.2021
770 Rain 21 1016 57 10000 3.09 260 19:21 16.10.2021
771 Clear 21 1016 55 10000 3.09 250 18:54 16.10.2021
772 Clear 22 1016 52 10000 3.09 270 18:36 16.10.2021
773 Clear 22 1016 47 10000 3.09 270 18:18 16.10.2021
774 Clear 22 1016 48 10000 2.57 270 17:23 16.10.2021
775 Clear 23 1017 47 10000 4.63 330 14:52 16.10.2021
776 Clear 21 1019 55 10000 3.09 300 11:52 16.10.2021
777 Clear 19 1016 59 10000 0 0 10:36 16.10.2021
778 Clear 17 1014 65 10000 2.57 310 08:20 16.10.2021
779 Clear 19 1017 49 10000 3.09 310 01:25 16.10.2021
780 Clear 19 1017 45 10000 4.12 320 23:55 15.10.2021
781 Clear 19 1016 46 10000 4.12 310 23:20 15.10.2021
782 Clear 20 1017 47 10000 4.12 330 22:19 15.10.2021
783 Clear 21 1017 45 10000 3.6 320 21:26 15.10.2021
784 Clear 21 1016 41 10000 3.09 320 20:47 15.10.2021
785 Clear 24 1017 33 10000 5.14 340 19:31 15.10.2021
786 Clear 24 1018 35 10000 5.14 340 18:40 15.10.2021
787 Clear 25 1017 35 10000 4.12 200 16:29 15.10.2021
788 Clear 25 1017 38 10000 3.09 170 15:36 15.10.2021
789 Clear 24 1019 44 10000 2.06 100 13:29 15.10.2021
790 Clear 21 1018 47 10000 0.51 0 11:36 15.10.2021
791 Clear 20 1018 49 10000 0.51 0 10:57 15.10.2021
792 Clear 17 1018 53 10000 0 0 09:49 15.10.2021
793 Clear 18 1015 47 10000 1.03 290 05:32 15.10.2021
794 Clear 18 1017 51 10000 1.54 70 01:47 15.10.2021
795 Clear 20 1018 47 10000 2.57 340 00:22 15.10.2021
796 Clear 21 1018 39 10000 5.14 310 22:52 14.10.2021
797 Clear 21 1018 45 10000 4.63 310 21:45 14.10.2021
798 Clear 21 1018 45 10000 4.12 300 20:49 14.10.2021
799 Clear 22 1018 44 10000 3.6 300 20:19 14.10.2021
800 Clear 23 1017 44 10000 3.09 310 19:35 14.10.2021
801 Clear 26 1017 39 10000 3.09 160 17:31 14.10.2021
802 Clear 27 1017 35 10000 3.09 110 16:51 14.10.2021
803 Clear 27 1017 34 10000 2.06 100 16:20 14.10.2021
804 Clear 25 1020 40 10000 2.06 100 14:43 14.10.2021
805 Clear 25 1020 41 10000 2.06 110 14:21 14.10.2021
806 Clear 21 1020 52 10000 3.09 0 11:44 14.10.2021
807 Clear 18 1017 55 10000 0 0 09:55 14.10.2021
808 Clear 18 1017 55 10000 0 0 09:55 14.10.2021
809 Clouds 19 1018 44 10000 1.55 43 06:56 14.10.2021
810 Clouds 23 1010 29 10000 0.89 39 00:59 14.10.2021
811 Clouds 23 1010 28 10000 0.89 1 00:28 14.10.2021
812 Clear 23 1015 46 10000 3.09 320 21:58 13.10.2021
813 Clear 23 1015 44 10000 3.6 300 21:32 13.10.2021
814 Clear 24 1015 45 10000 3.6 320 19:59 13.10.2021
815 Clear 26 1016 44 10000 3.6 270 18:57 13.10.2021
816 Clear 26 1016 44 10000 2.57 270 18:35 13.10.2021
817 Clear 27 1015 40 10000 2.57 0 15:32 13.10.2021
818 Clear 26 1018 42 10000 2.57 110 14:45 13.10.2021
819 Clear 26 1015 43 10000 3.09 80 14:21 13.10.2021
820 Clear 24 1016 49 10000 3.09 50 12:22 13.10.2021
821 Clear 22 1015 52 10000 2.57 60 11:35 13.10.2021
822 Clear 19 1014 62 10000 0 0 08:42 13.10.2021
823 Clear 19 1013 61 10000 1.54 30 06:51 13.10.2021
824 Clear 20 1013 62 10000 2.57 350 02:28 13.10.2021
825 Clear 21 1013 58 10000 2.57 330 01:43 13.10.2021
826 Clear 22 1013 53 10000 3.09 320 23:30 12.10.2021
827 Clear 22 1013 53 10000 3.09 320 23:30 12.10.2021
828 Clear 22 1014 51 10000 4.12 320 22:46 12.10.2021
829 Clear 23 1013 50 10000 5.66 310 21:52 12.10.2021
830 Clear 23 1013 47 10000 5.66 310 20:41 12.10.2021
831 Clear 23 1013 47 10000 5.66 310 20:18 12.10.2021
832 Clear 25 1013 45 10000 4.63 310 18:36 12.10.2021
833 Clear 27 1013 42 10000 2.57 0 17:57 12.10.2021
834 Clear 28 1015 39 10000 2.57 0 16:39 12.10.2021
835 Clear 27 1016 43 10000 3.09 70 15:58 12.10.2021
836 Clear 26 1014 43 10000 4.12 60 14:46 12.10.2021
837 Clear 25 1014 45 10000 4.63 50 13:44 12.10.2021
838 Clear 23 1014 49 10000 4.12 60 12:39 12.10.2021
839 Clear 20 1014 59 10000 3.6 50 09:59 12.10.2021
840 Clear 19 1013 60 10000 4.12 50 08:44 12.10.2021
841 Clear 20 1012 57 10000 2.57 50 07:36 12.10.2021
842 Clear 21 1012 52 10000 3.09 30 05:31 12.10.2021
843 Clear 22 1012 50 10000 4.63 40 04:33 12.10.2021
844 Clear 24 1012 44 10000 4.63 50 00:28 12.10.2021
845 Clear 24 1012 42 10000 5.14 50 23:41 11.10.2021
846 Clear 24 1013 45 10000 5.14 50 22:57 11.10.2021
847 Clear 24 1013 50 10000 6.17 40 21:46 11.10.2021
848 Clear 24 1013 48 10000 6.69 40 21:18 11.10.2021
849 Clear 27 1015 40 10000 6.69 40 19:46 11.10.2021
850 Clear 28 1015 41 10000 6.69 40 18:43 11.10.2021
851 Clouds 29 1013 36 10000 5.66 40 17:54 11.10.2021
852 Clear 29 1013 37 10000 4.63 60 16:39 11.10.2021
853 Clear 28 1013 38 10000 4.63 30 15:51 11.10.2021
854 Clear 28 1014 38 10000 4.12 40 15:23 11.10.2021
855 Clear 27 1014 40 10000 4.63 60 14:42 11.10.2021
856 Clear 25 1015 46 10000 4.12 60 13:37 11.10.2021
857 Clear 23 1014 51 10000 6.17 50 11:51 11.10.2021
858 Clear 21 1014 56 10000 4.12 50 10:34 11.10.2021
859 Clear 20 1013 62 10000 3.09 50 09:37 11.10.2021
860 Clear 21 1012 59 10000 4.12 50 07:27 11.10.2021
861 Clear 21 1012 53 10000 3.6 340 01:41 11.10.2021
862 Clear 22 1013 50 10000 4.12 330 00:48 11.10.2021
863 Clear 22 1013 50 10000 4.12 320 00:28 11.10.2021
864 Clear 21 1014 60 10000 5.14 310 21:54 10.10.2021
865 Clear 21 1014 60 10000 3.6 320 21:32 10.10.2021
866 Clear 22 1013 58 10000 2.57 310 20:47 10.10.2021
867 Clear 23 1013 55 10000 2.57 300 20:21 10.10.2021
868 Clear 24 1013 51 10000 4.12 250 19:59 10.10.2021
869 Clear 24 1013 51 10000 4.63 250 19:36 10.10.2021
870 Clear 25 1013 49 10000 4.63 230 18:36 10.10.2021
871 Clear 26 1014 48 10000 3.09 230 16:46 10.10.2021
872 Clear 26 1014 49 10000 3.09 0 15:46 10.10.2021
873 Clear 24 1014 55 10000 1.54 110 14:42 10.10.2021
874 Clear 23 1015 56 10000 3.09 60 13:34 10.10.2021
875 Clear 23 1018 55 10000 4.63 70 12:35 10.10.2021
876 Clear 18 1017 75 10000 2.57 50 10:44 10.10.2021
877 Clear 17 1016 83 10000 2.06 30 09:31 10.10.2021
878 Clear 15 1016 92 10000 1.54 360 08:54 10.10.2021
879 Clear 15 1016 86 10000 0 0 07:28 10.10.2021
880 Clear 17 1017 77 10000 2.57 320 03:20 10.10.2021
881 Clear 18 1014 76 10000 4.63 320 00:58 10.10.2021
882 Clear 18 1014 78 10000 5.14 310 00:29 10.10.2021
883 Clear 18 1015 81 10000 5.14 310 22:53 09.10.2021
884 Clouds 18 1015 80 10000 5.66 310 21:47 09.10.2021
885 Clouds 18 1017 78 10000 6.17 310 21:28 09.10.2021
886 Clear 21 1014 66 10000 4.63 310 19:45 09.10.2021
887 Clear 22 1014 62 10000 4.63 320 19:20 09.10.2021
888 Clear 23 1014 59 10000 5.66 330 18:33 09.10.2021
889 Clear 25 1015 53 10000 4.12 310 17:20 09.10.2021
890 Clear 24 1015 57 10000 4.63 310 16:19 09.10.2021
891 Clear 24 1016 54 10000 5.14 350 13:45 09.10.2021
892 Clouds 22 1017 62 10000 4.63 320 12:40 09.10.2021
893 Clouds 20 1020 67 10000 5.66 320 11:48 09.10.2021
894 Clouds 19 1017 73 10000 6.69 330 10:42 09.10.2021
895 Clouds 18 1016 78 10000 6.17 310 09:52 09.10.2021
896 Clouds 17 1016 80 10000 7.2 310 08:30 09.10.2021
897 Clouds 17 1015 81 10000 6.69 310 07:49 09.10.2021
898 Clear 18 1014 76 10000 3.09 320 05:29 09.10.2021
899 Clear 18 1015 71 10000 5.14 350 02:59 09.10.2021
900 Clear 18 1015 69 10000 3.09 40 02:40 09.10.2021
901 Clear 19 1015 69 10000 3.09 40 23:51 08.10.2021
902 Clear 20 1016 68 10000 5.66 320 22:55 08.10.2021
903 Clear 20 1016 67 10000 5.14 320 22:24 08.10.2021
904 Clear 22 1015 63 10000 6.17 310 20:55 08.10.2021
905 Clear 26 1015 44 10000 6.69 330 18:59 08.10.2021
906 Clear 28 1015 45 10000 6.69 330 17:36 08.10.2021
907 Clear 28 1015 37 10000 6.17 340 16:51 08.10.2021
908 Clear 28 1015 35 10000 5.14 340 16:23 08.10.2021
909 Clear 25 1019 49 10000 2.57 0 13:57 08.10.2021
910 Clear 24 1017 51 10000 1.54 0 12:56 08.10.2021
911 Clear 22 1019 64 10000 2.06 70 11:33 08.10.2021
912 Clear 19 1018 70 10000 0 0 10:41 08.10.2021
913 Clear 17 1016 76 10000 0 0 09:25 08.10.2021
914 Clear 22 1015 50 10000 4.12 320 23:59 07.10.2021
915 Clear 23 1016 49 10000 4.12 310 23:19 07.10.2021
916 Clear 24 1015 46 10000 5.14 330 21:46 07.10.2021
917 Clear 24 1015 45 10000 5.14 330 21:23 07.10.2021
918 Clear 25 1015 44 10000 5.14 330 20:22 07.10.2021
919 Clear 28 1015 41 10000 6.17 330 19:29 07.10.2021
920 Clear 29 1018 41 10000 4.12 60 18:24 07.10.2021
921 Clear 29 1016 39 10000 4.63 70 17:24 07.10.2021
922 Clear 28 1017 43 10000 4.12 80 15:50 07.10.2021
923 Clear 26 1018 49 10000 3.09 80 13:52 07.10.2021
924 Clear 26 1018 49 10000 3.09 80 13:34 07.10.2021
925 Clear 24 1018 54 10000 3.6 80 12:40 07.10.2021
926 Clear 22 1018 61 10000 3.6 50 10:52 07.10.2021
927 Clear 22 1018 61 10000 3.6 50 10:52 07.10.2021
928 Clear 21 1018 65 10000 3.6 40 10:19 07.10.2021
929 Clear 19 1018 74 10000 2.06 10 09:33 07.10.2021
930 Clear 18 1017 76 10000 2.57 350 08:41 07.10.2021
931 Clear 19 1016 75 10000 2.57 360 07:43 07.10.2021
932 Clear 19 1016 75 10000 2.06 340 07:19 07.10.2021
933 Clear 20 1017 69 10000 2.06 320 02:26 07.10.2021
934 Clear 21 1018 69 10000 4.12 320 00:29 07.10.2021
935 Clear 22 1018 65 10000 3.6 310 22:51 06.10.2021
936 Clear 23 1018 63 10000 3.6 310 21:53 06.10.2021
937 Clear 25 1018 59 10000 4.63 330 20:38 06.10.2021
938 Clear 26 1020 53 10000 4.63 340 19:53 06.10.2021
939 Clear 28 1020 43 10000 3.6 70 18:40 06.10.2021
940 Clear 27 1018 44 10000 4.63 90 16:56 06.10.2021
941 Clear 26 1019 49 10000 4.63 60 15:30 06.10.2021
942 Clear 25 1020 53 10000 5.14 60 14:22 06.10.2021
943 Clear 23 1021 61 10000 5.14 60 12:59 06.10.2021
944 Clear 22 1021 64 10000 3.6 50 12:41 06.10.2021
945 Clear 22 1021 63 10000 3.6 50 12:21 06.10.2021
946 Clear 18 1020 73 10000 2.06 90 10:21 06.10.2021
947 Clear 17 1020 80 10000 1.54 330 09:39 06.10.2021
948 Clear 16 1020 79 10000 2.06 320 08:42 06.10.2021
949 Clear 16 1020 79 10000 2.06 330 07:48 06.10.2021
950 Clear 17 1019 80 10000 2.57 360 05:26 06.10.2021
951 Clear 19 1021 80 10000 4.63 320 00:29 06.10.2021
952 Clear 19 1021 79 10000 4.12 320 23:58 05.10.2021
953 Clouds 19 1021 80 10000 5.14 340 23:39 05.10.2021
954 Clouds 19 1021 80 10000 5.14 340 23:20 05.10.2021
955 Clouds 19 1021 81 10000 4.12 320 22:28 05.10.2021
956 Clouds 20 1021 80 10000 3.09 330 21:49 05.10.2021
957 Clouds 20 1021 78 10000 3.09 320 20:42 05.10.2021
958 Clouds 21 1020 76 10000 3.6 330 20:24 05.10.2021
959 Clouds 21 1020 74 10000 4.12 310 19:43 05.10.2021
960 Clouds 22 1020 71 10000 3.6 320 18:54 05.10.2021
961 Clouds 22 1021 73 10000 3.6 320 16:48 05.10.2021
962 Clouds 22 1022 71 10000 3.6 290 14:38 05.10.2021
963 Drizzle 21 1021 74 10000 3.09 310 13:35 05.10.2021
964 Clouds 21 1022 74 10000 3.6 290 12:47 05.10.2021
965 Clouds 21 1022 73 10000 3.09 310 12:18 05.10.2021
966 Clouds 20 1022 75 10000 2.57 280 11:19 05.10.2021
967 Clouds 17 1021 81 10000 1.54 270 09:26 05.10.2021
968 Clouds 16 1020 81 10000 2.06 220 05:25 05.10.2021
969 Clear 17 1022 73 10000 1.54 300 23:54 04.10.2021
970 Clear 17 1021 71 10000 2.57 310 22:38 04.10.2021
971 Clear 19 1021 62 10000 4.63 310 20:29 04.10.2021
972 Clouds 22 1020 52 10000 4.63 310 18:34 04.10.2021
973 Clouds 22 1020 50 10000 2.57 140 16:34 04.10.2021
974 Clouds 21 1021 50 10000 2.06 0 15:31 04.10.2021
975 Clouds 21 1021 50 10000 2.06 0 15:31 04.10.2021
976 Clouds 21 1021 56 10000 3.09 140 14:43 04.10.2021
977 Clouds 21 1021 56 10000 3.09 140 14:43 04.10.2021
978 Clouds 20 1021 58 10000 3.09 110 13:57 04.10.2021
979 Clouds 20 1022 60 10000 3.09 130 13:27 04.10.2021
980 Clouds 19 1022 63 10000 3.6 340 12:28 04.10.2021
981 Clouds 19 1024 68 10000 2.57 0 11:31 04.10.2021
982 Clouds 18 1024 71 10000 0 0 10:34 04.10.2021
983 Clear 15 1021 80 10000 0 0 08:45 04.10.2021
984 Clear 15 1020 76 10000 0 0 07:43 04.10.2021
985 Clear 15 1019 70 10000 4.12 310 01:56 04.10.2021
986 Clear 16 1019 67 10000 3.09 30 22:44 03.10.2021
987 Clear 17 1018 64 10000 4.12 350 21:43 03.10.2021
988 Clear 17 1018 63 10000 4.63 350 21:24 03.10.2021
989 Clouds 18 1018 57 10000 6.69 330 20:25 03.10.2021
990 Clouds 19 1017 55 10000 8.23 330 19:31 03.10.2021
991 Clouds 20 1017 53 10000 6.69 320 18:28 03.10.2021
992 Clouds 21 1016 47 10000 7.2 300 17:30 03.10.2021
993 Clouds 21 1015 46 10000 7.72 350 14:49 03.10.2021
994 Clouds 21 1015 47 10000 7.2 350 14:27 03.10.2021
995 Clouds 20 1015 56 10000 7.72 350 13:34 03.10.2021
996 Clouds 19 1014 61 10000 6.69 350 12:41 03.10.2021
997 Clouds 18 1013 74 10000 6.17 330 10:57 03.10.2021
998 Clouds 17 1011 82 10000 6.69 330 09:34 03.10.2021
999 Clouds 20 1010 87 10000 6.69 230 03:36 03.10.2021
1000 Clouds 19 1013 83 10000 3.09 240 22:46 02.10.2021
1001 Clouds 20 1013 80 10000 3.6 250 21:35 02.10.2021
1002 Clouds 21 1013 73 10000 4.12 270 19:54 02.10.2021
1003 Clouds 21 1012 69 10000 3.6 280 18:56 02.10.2021
1004 Clouds 22 1013 69 10000 4.63 290 18:18 02.10.2021
1005 Clouds 22 1014 69 10000 4.63 290 17:36 02.10.2021
1006 Clouds 23 1015 66 10000 3.09 290 15:53 02.10.2021
1007 Clouds 18 1015 83 10000 4.12 330 06:39 02.10.2021
1008 Clear 27 1023 42 10000 2.57 0 15:37 30.09.2021
1009 Clear 25 1022 47 10000 3.09 320 13:51 30.09.2021
1010 Clear 21 1022 63 10000 4.12 330 11:42 30.09.2021
1011 Clear 19 1022 69 10000 3.09 340 10:46 30.09.2021
1012 Clouds 17 1021 78 10000 3.6 330 09:44 30.09.2021
1013 Clear 16 1022 81 10000 3.6 310 08:30 30.09.2021
1014 Clear 17 1021 78 10000 4.63 310 07:34 30.09.2021
1015 Clear 17 1021 72 10000 6.17 320 05:23 30.09.2021
1016 Clear 18 1022 72 10000 6.69 330 01:36 30.09.2021
1017 Clear 19 1022 69 10000 6.69 330 00:23 30.09.2021
1018 Clear 19 1023 69 10000 6.69 330 22:37 29.09.2021
1019 Clear 19 1022 67 10000 7.2 330 21:25 29.09.2021
1020 Clear 21 1022 61 10000 5.14 320 20:27 29.09.2021
1021 Clear 22 1024 57 10000 6.69 330 19:54 29.09.2021
1022 Clear 24 1022 48 10000 7.2 340 18:50 29.09.2021
1023 Clear 25 1022 41 10000 6.69 360 17:41 29.09.2021
1024 Clear 26 1022 37 10000 7.2 350 16:48 29.09.2021
1025 Clear 26 1023 36 10000 6.69 10 15:58 29.09.2021
1026 Clear 25 1024 38 10000 7.2 360 14:39 29.09.2021
1027 Clear 24 1024 40 10000 7.2 10 13:58 29.09.2021
1028 Clear 23 1024 42 10000 6.69 360 13:18 29.09.2021
1029 Clear 22 1024 48 10000 6.69 10 12:19 29.09.2021
1030 Clear 18 1024 60 10000 8.23 350 10:49 29.09.2021
1031 Clouds 17 1024 69 10000 7.72 360 09:51 29.09.2021
1032 Clouds 16 1023 70 10000 6.17 360 09:24 29.09.2021
1033 Clouds 16 1023 70 10000 7.2 360 07:32 29.09.2021
1034 Clear 16 1022 72 10000 6.17 350 04:19 29.09.2021
1035 Clear 17 1023 65 10000 5.14 350 23:27 28.09.2021
1036 Clear 18 1023 64 10000 7.72 350 22:24 28.09.2021
1037 Clear 18 1023 61 10000 7.72 350 21:44 28.09.2021
1038 Clear 19 1023 54 10000 8.23 350 20:43 28.09.2021
1039 Clouds 20 1022 50 10000 8.23 350 19:46 28.09.2021
1040 Clouds 21 1022 45 10000 8.75 350 18:50 28.09.2021
1041 Clear 22 1021 42 10000 8.23 360 18:18 28.09.2021
1042 Clouds 22 1021 49 10000 7.2 340 16:38 28.09.2021
1043 Clouds 22 1022 45 10000 7.72 350 14:30 28.09.2021
1044 Clouds 21 1022 53 10000 7.72 350 12:50 28.09.2021
1045 Clouds 21 1022 55 10000 7.72 350 12:21 28.09.2021
1046 Clouds 20 1022 58 10000 7.2 350 11:46 28.09.2021
1047 Clouds 19 1022 64 10000 5.66 350 11:22 28.09.2021
1048 Clouds 18 1021 71 10000 5.66 350 10:21 28.09.2021
1049 Clouds 18 1021 71 10000 5.66 350 10:21 28.09.2021
1050 Rain 17 1020 78 10000 4.63 350 09:18 28.09.2021
1051 Clear 17 1020 78 10000 3.09 350 08:39 28.09.2021
1052 Clear 17 1019 76 10000 2.57 340 07:48 28.09.2021
1053 Clear 17 1019 69 10000 4.63 350 05:31 28.09.2021
1054 Clouds 19 1020 81 10000 4.63 310 01:25 28.09.2021
1055 Clouds 20 1020 83 10000 5.14 310 00:26 28.09.2021
1056 Clouds 20 1020 82 10000 4.63 310 23:42 27.09.2021
1057 Clouds 20 1020 81 10000 4.63 300 23:22 27.09.2021
1058 Clouds 20 1020 79 10000 4.63 310 21:55 27.09.2021
1059 Clouds 22 1020 74 10000 4.63 300 20:45 27.09.2021
1060 Clouds 23 1019 67 10000 4.12 300 19:57 27.09.2021
1061 Clouds 24 1020 61 10000 4.12 300 19:29 27.09.2021
1062 Clouds 24 1020 59 10000 4.12 310 18:51 27.09.2021
1063 Clouds 25 1020 55 10000 3.09 0 17:30 27.09.2021
1064 Clouds 25 1019 56 10000 3.09 80 16:51 27.09.2021
1065 Clouds 25 1021 62 10000 2.57 90 15:45 27.09.2021
1066 Clouds 24 1020 61 10000 2.57 170 15:19 27.09.2021
1067 Clouds 23 1024 67 10000 3.09 100 13:32 27.09.2021
1068 Fog 20 1024 75 10000 2.06 80 11:59 27.09.2021
1069 Fog 19 1023 84 10000 2.06 100 10:38 27.09.2021
1070 Clouds 17 1020 86 10000 0 0 09:28 27.09.2021
1071 Clear 16 1019 86 10000 0 0 06:30 27.09.2021
1072 Clear 17 1020 84 10000 0 0 03:29 27.09.2021
1073 Clear 19 1020 75 10000 3.6 310 22:39 26.09.2021
1074 Clear 20 1019 76 10000 4.12 300 21:53 26.09.2021
1075 Clouds 20 1019 74 10000 3.6 300 21:26 26.09.2021
1076 Clouds 21 1019 70 10000 3.09 300 20:24 26.09.2021
1077 Clouds 22 1019 68 10000 4.12 240 19:53 26.09.2021
1078 Clouds 23 1019 66 10000 5.66 230 18:52 26.09.2021
1079 Clouds 23 1019 68 10000 6.17 210 17:59 26.09.2021
1080 Clouds 23 1018 67 10000 5.66 220 17:36 26.09.2021
1081 Clouds 23 1018 66 10000 5.66 220 17:18 26.09.2021
1082 Clouds 23 1019 65 10000 4.63 210 16:22 26.09.2021
1083 Clouds 23 1020 66 10000 1.54 0 15:22 26.09.2021
1084 Clouds 22 1020 68 10000 3.09 100 14:18 26.09.2021
1085 Clouds 22 1021 68 10000 2.57 110 13:42 26.09.2021
1086 Clouds 22 1021 69 10000 1.54 0 12:26 26.09.2021
1087 Clouds 20 1022 76 10000 1.54 300 11:52 26.09.2021
1088 Clouds 19 1020 80 8000 0 0 10:52 26.09.2021
1089 Mist 16 1019 88 3000 1.03 0 09:37 26.09.2021
1090 Fog 16 1019 86 10000 1.03 0 08:30 26.09.2021
1091 Clear 19 1018 77 10000 1.03 280 00:28 26.09.2021
1092 Clouds 19 1018 75 10000 2.06 260 23:41 25.09.2021
1093 Clouds 19 1018 74 10000 1.54 280 22:39 25.09.2021
1094 Clouds 19 1018 74 10000 1.54 280 22:18 25.09.2021
1095 Clouds 20 1017 71 10000 3.09 270 21:36 25.09.2021
1096 Clouds 20 1017 70 10000 3.09 300 20:52 25.09.2021
1097 Clouds 22 1018 63 10000 6.17 240 19:33 25.09.2021
1098 Clouds 23 1016 58 10000 6.69 230 18:28 25.09.2021
1099 Clouds 23 1015 57 10000 6.17 240 17:21 25.09.2021
1100 Clouds 23 1016 61 10000 5.66 260 14:30 25.09.2021
1101 Clouds 22 1016 64 10000 5.14 230 13:54 25.09.2021
1102 Clouds 21 1015 72 10000 4.12 240 12:37 25.09.2021
1103 Clouds 19 1014 86 10000 4.12 240 10:42 25.09.2021
1104 Clouds 19 1014 87 10000 4.12 240 10:18 25.09.2021
1105 Clouds 18 1013 90 10000 0 0 08:55 25.09.2021
1106 Clouds 18 1012 88 10000 0 0 07:47 25.09.2021
1107 Clouds 19 1012 81 10000 3.6 220 00:52 25.09.2021
1108 Clouds 19 1012 78 10000 5.14 220 22:18 24.09.2021
1109 Clouds 20 1012 78 10000 5.66 210 21:32 24.09.2021
1110 Clouds 20 1012 74 10000 6.17 220 20:32 24.09.2021
1111 Clouds 21 1011 69 10000 6.17 240 19:31 24.09.2021
1112 Clouds 23 1010 63 10000 5.66 230 18:20 24.09.2021
1113 Clouds 23 1010 61 10000 5.66 230 17:50 24.09.2021
1114 Clouds 23 1010 63 10000 5.66 220 17:31 24.09.2021
1115 Clouds 22 1011 69 10000 5.66 240 15:39 24.09.2021
1116 Clouds 21 1013 71 10000 3.09 100 13:21 24.09.2021
1117 Clouds 21 1013 71 10000 3.09 100 13:21 24.09.2021
1118 Clouds 21 1011 73 10000 3.09 90 12:43 24.09.2021
1119 Clouds 21 1011 74 10000 2.57 100 12:25 24.09.2021
1120 Clouds 18 1013 82 9000 2.06 90 10:53 24.09.2021
1121 Fog 18 1012 83 10000 0.51 0 09:37 24.09.2021
1122 Clouds 17 1012 82 10000 0 0 07:57 24.09.2021
1123 Clouds 17 1011 81 10000 2.06 340 06:59 24.09.2021
1124 Clear 18 1011 81 10000 0 0 05:57 24.09.2021
1125 Thunderstorm 18 1012 81 10000 3.09 60 03:56 24.09.2021
1126 Clouds 21 1012 60 10000 4.63 350 22:37 23.09.2021
1127 Clouds 22 1012 59 10000 4.12 340 21:58 23.09.2021
1128 Clouds 22 1012 58 10000 4.63 330 20:54 23.09.2021
1129 Clouds 23 1011 55 10000 4.63 360 20:31 23.09.2021
1130 Clouds 24 1011 49 10000 5.14 60 18:32 23.09.2021
1131 Clouds 24 1012 52 10000 2.06 0 15:53 23.09.2021
1132 Clouds 24 1013 55 10000 2.06 0 15:19 23.09.2021
1133 Clouds 23 1013 55 10000 3.09 40 14:25 23.09.2021
1134 Clouds 21 1014 63 10000 4.63 50 13:27 23.09.2021
1135 Clouds 21 1014 67 10000 5.14 40 12:55 23.09.2021
1136 Clouds 20 1014 68 10000 5.66 60 12:26 23.09.2021
1137 Clouds 19 1013 70 10000 5.14 30 11:57 23.09.2021
1138 Clouds 18 1013 75 10000 3.6 40 10:31 23.09.2021
1139 Clouds 18 1012 75 10000 5.14 30 09:54 23.09.2021
1140 Clouds 18 1012 72 10000 5.66 50 08:56 23.09.2021
1141 Clouds 18 1013 56 10000 4.63 30 05:32 23.09.2021
1142 Thunderstorm 21 1014 51 10000 6.17 20 23:50 22.09.2021
1143 Thunderstorm 22 1013 50 10000 5.66 20 22:52 22.09.2021
1144 Clear 22 1013 51 10000 5.14 350 22:20 22.09.2021
1145 Clear 22 1013 51 10000 5.14 330 21:42 22.09.2021
1146 Clear 23 1013 46 10000 6.17 340 20:57 22.09.2021
1147 Clear 25 1013 40 10000 6.69 330 19:48 22.09.2021
1148 Clear 25 1013 42 10000 7.2 340 19:26 22.09.2021
1149 Clear 27 1013 33 10000 2.06 0 18:30 22.09.2021
1150 Clear 26 1012 31 10000 4.33 4 17:33 22.09.2021
1151 Clear 25 1014 40 10000 3.44 24 15:51 22.09.2021
1152 Clouds 26 1016 42 10000 4.63 60 14:28 22.09.2021
1153 Clear 23 1016 48 10000 5.14 50 13:19 22.09.2021
1154 Clear 21 1017 44 10000 5.66 50 11:20 22.09.2021
1155 Clear 19 1016 50 10000 6.17 40 09:30 22.09.2021
1156 Clear 19 1016 50 10000 6.17 40 08:45 22.09.2021
1157 Clear 19 1016 48 10000 5.66 40 07:33 22.09.2021
1158 Clear 20 1016 45 10000 5.66 40 06:51 22.09.2021
1159 Clear 21 1016 43 10000 5.66 40 05:48 22.09.2021
1160 Clear 21 1017 47 10000 6.69 30 04:20 22.09.2021
1161 Clear 21 1017 46 10000 4.63 30 02:56 22.09.2021
1162 Clear 22 1018 45 10000 3.6 340 23:54 21.09.2021
1163 Clear 22 1017 45 10000 4.12 330 22:26 21.09.2021
1164 Clear 25 1016 38 10000 4.27 15 20:43 21.09.2021
1165 Clear 26 1016 34 10000 4.73 21 19:37 21.09.2021
1166 Clear 27 1016 29 10000 6.69 30 19:18 21.09.2021
1167 Clear 27 1017 30 10000 7.2 40 16:48 21.09.2021
1168 Clear 27 1018 28 10000 7.72 40 15:57 21.09.2021
1169 Clear 27 1018 28 10000 7.72 30 15:24 21.09.2021
1170 Clear 26 1018 28 10000 7.72 20 14:43 21.09.2021
1171 Clear 24 1019 33 10000 7.72 40 13:40 21.09.2021
1172 Clear 23 1019 37 10000 8.23 40 12:45 21.09.2021
1173 Clear 19 1018 46 10000 8.75 50 10:44 21.09.2021
1174 Clear 19 1018 45 10000 8.23 30 09:53 21.09.2021
1175 Clear 20 1018 39 10000 8.23 40 07:44 21.09.2021
1176 Clear 21 1018 45 10000 8.23 30 05:42 21.09.2021
1177 Clear 21 1019 60 10000 7.72 330 23:52 20.09.2021
1178 Clear 21 1019 62 10000 6.17 320 21:53 20.09.2021
1179 Clear 21 1018 62 10000 7.72 330 21:32 20.09.2021
1180 Clear 23 1018 57 10000 7.2 330 20:26 20.09.2021
1181 Clear 23 1018 53 10000 6.17 320 19:20 20.09.2021
1182 Clear 25 1019 47 10000 6.69 350 17:31 20.09.2021
1183 Clouds 25 1019 48 10000 6.17 330 16:26 20.09.2021
1184 Clouds 25 1019 48 10000 5.66 350 15:47 20.09.2021
1185 Clear 25 1020 50 10000 5.66 340 14:59 20.09.2021
1186 Clear 24 1020 53 10000 7.2 350 13:42 20.09.2021
1187 Clouds 22 1021 58 10000 7.72 340 12:34 20.09.2021
1188 Clouds 21 1021 66 10000 7.72 330 11:18 20.09.2021
1189 Clouds 18 1020 75 10000 7.72 330 09:53 20.09.2021
1190 Clouds 18 1020 75 10000 7.2 330 09:34 20.09.2021
1191 Clouds 18 1020 77 10000 7.72 340 08:56 20.09.2021
1192 Clouds 18 1020 76 10000 6.69 350 06:46 20.09.2021
1193 Clear 19 1020 69 10000 7.72 320 23:44 19.09.2021
1194 Clear 19 1020 65 10000 7.72 330 21:56 19.09.2021
1195 Clear 19 1020 62 10000 7.72 320 21:34 19.09.2021
1196 Clear 20 1019 60 10000 9.77 330 20:33 19.09.2021
1197 Clear 22 1019 53 10000 8.75 330 19:18 19.09.2021
1198 Clear 24 1019 47 10000 7.72 330 18:25 19.09.2021
1199 Clear 24 1019 42 10000 7.2 330 17:22 19.09.2021
1200 Clear 25 1020 36 10000 6.69 350 15:52 19.09.2021
1201 Clear 25 1020 40 10000 6.17 340 14:50 19.09.2021
1202 Clear 24 1020 41 10000 6.69 360 14:29 19.09.2021
1203 Clear 23 1021 47 10000 7.72 350 13:20 19.09.2021
1204 Clear 22 1021 48 10000 7.72 350 12:47 19.09.2021
1205 Clouds 20 1021 58 10000 8.23 340 11:27 19.09.2021
1206 Clouds 19 1020 66 10000 8.23 340 10:24 19.09.2021
1207 Clouds 18 1020 72 10000 6.69 330 09:28 19.09.2021
1208 Clear 17 1019 74 10000 5.66 340 07:31 19.09.2021
1209 Clear 18 1019 72 10000 7.72 330 04:21 19.09.2021
1210 Clear 18 1020 69 10000 4.12 320 23:36 18.09.2021
1211 Clouds 19 1019 66 10000 7.2 340 21:59 18.09.2021
1212 Clouds 20 1018 60 10000 9.26 340 20:48 18.09.2021
1213 Clouds 21 1018 57 10000 9.26 350 20:27 18.09.2021
1214 Clouds 22 1018 49 10000 8.75 340 19:39 18.09.2021
1215 Clouds 22 1018 49 10000 8.75 340 19:39 18.09.2021
1216 Clouds 22 1018 49 10000 8.75 340 19:20 18.09.2021
1217 Clear 23 1018 46 10000 9.26 350 18:31 18.09.2021
1218 Clouds 24 1018 45 10000 9.26 330 17:25 18.09.2021
1219 Clouds 24 1019 46 10000 8.75 340 15:48 18.09.2021
1220 Clouds 23 1019 46 10000 8.23 340 13:46 18.09.2021
1221 Clouds 23 1019 47 10000 10.29 340 13:27 18.09.2021
1222 Clouds 22 1019 50 10000 9.26 350 12:49 18.09.2021
1223 Clouds 20 1019 59 10000 5.66 350 11:38 18.09.2021
1224 Clouds 19 1019 69 10000 2.57 350 10:31 18.09.2021
1225 Clouds 17 1018 76 10000 2.57 330 09:27 18.09.2021
1226 Clouds 17 1018 77 10000 2.06 330 08:48 18.09.2021
1227 Clear 19 1018 75 10000 5.74 348 02:50 18.09.2021
1228 Clouds 19 1018 72 10000 6.37 356 00:41 18.09.2021
1229 Clear 19 1018 71 10000 6.73 355 23:47 17.09.2021
1230 Clear 20 1018 72 10000 5.47 344 22:33 17.09.2021
1231 Clouds 20 1017 78 10000 5.14 320 21:55 17.09.2021
1232 Clouds 22 1017 72 10000 4.63 310 20:25 17.09.2021
1233 Clouds 24 1016 64 10000 6.17 310 18:54 17.09.2021
1234 Clouds 25 1017 56 10000 6.69 340 16:51 17.09.2021
1235 Clouds 25 1017 56 10000 5.66 330 16:18 17.09.2021
1236 Clouds 22 1019 63 10000 4.12 320 12:37 17.09.2021
1237 Clouds 20 1018 75 10000 4.63 340 10:41 17.09.2021
1238 Clouds 19 1018 81 10000 5.66 320 08:25 17.09.2021
1239 Clouds 19 1017 80 10000 5.66 320 06:49 17.09.2021
1240 Clouds 20 1020 77 10000 4.63 360 00:59 17.09.2021
1241 Clouds 20 1019 76 10000 7.2 330 22:54 16.09.2021
1242 Clouds 20 1019 75 10000 8.75 320 22:24 16.09.2021
1243 Clouds 21 1018 74 10000 7.72 320 21:40 16.09.2021
1244 Clouds 21 1018 72 10000 7.72 320 20:50 16.09.2021
1245 Clouds 22 1018 69 10000 9.26 330 20:18 16.09.2021
1246 Clouds 24 1018 61 10000 6.69 320 18:19 16.09.2021
1247 Clouds 26 1018 57 10000 5.14 320 17:29 16.09.2021
1248 Clouds 26 1019 58 10000 3.6 320 14:55 16.09.2021
1249 Clouds 25 1019 61 10000 5.14 340 13:55 16.09.2021
1250 Clouds 24 1019 64 10000 4.12 330 12:48 16.09.2021
1251 Clouds 24 1019 67 10000 4.63 330 12:28 16.09.2021
1252 Clouds 23 1019 73 10000 6.17 340 11:25 16.09.2021
1253 Clouds 22 1018 76 10000 5.14 330 10:31 16.09.2021
1254 Clouds 21 1018 80 10000 5.14 330 09:53 16.09.2021
1255 Clouds 20 1018 83 10000 4.63 330 08:42 16.09.2021
1256 Clouds 20 1017 82 10000 3.09 320 07:22 16.09.2021
1257 Clouds 20 1017 83 10000 3.6 330 06:39 16.09.2021
1258 Clouds 20 1018 82 10000 5.14 340 04:34 16.09.2021
1259 Clouds 21 1018 80 10000 2.57 310 01:26 16.09.2021
1260 Clouds 21 1018 80 10000 2.57 310 01:26 16.09.2021
1261 Clouds 21 1018 79 10000 2.57 340 23:37 15.09.2021
1262 Clouds 21 1017 81 10000 3.09 340 22:47 15.09.2021
1263 Clouds 21 1016 76 10000 5.14 310 21:44 15.09.2021
1264 Clouds 22 1016 74 10000 4.12 310 21:25 15.09.2021
1265 Clouds 23 1016 66 10000 5.14 310 19:52 15.09.2021
1266 Clouds 23 1015 65 10000 3.09 270 19:19 15.09.2021
1267 Clouds 24 1015 61 10000 2.57 290 17:49 15.09.2021
1268 Clouds 23 1016 73 10000 3.6 240 16:54 15.09.2021
1269 Clouds 22 1015 82 10000 4.12 280 15:33 15.09.2021
1270 Rain 22 1016 80 2000 1.54 150 14:44 15.09.2021
1271 Rain 22 1016 79 10000 3.09 90 13:51 15.09.2021
1272 Clouds 22 1016 78 10000 3.6 70 13:29 15.09.2021
1273 Clouds 22 1016 79 10000 3.6 60 12:42 15.09.2021
1274 Clouds 21 1015 82 10000 2.57 0 11:51 15.09.2021
1275 Clouds 21 1015 83 10000 2.06 90 11:19 15.09.2021
1276 Clouds 20 1015 83 10000 2.06 90 10:50 15.09.2021
1277 Fog 19 1014 87 10000 0 0 09:28 15.09.2021
1278 Clouds 18 1012 86 10000 0 0 07:43 15.09.2021
1279 Clouds 19 1012 85 10000 0 0 04:24 15.09.2021
1280 Clouds 20 1010 83 10000 2.57 100 22:59 14.09.2021
1281 Clouds 21 1010 80 10000 3.6 80 21:40 14.09.2021
1282 Clouds 21 1009 79 10000 5.14 60 20:38 14.09.2021
1283 Thunderstorm 23 1008 72 10000 4.12 220 19:41 14.09.2021
1284 Clouds 24 1008 70 10000 6.17 240 17:34 14.09.2021
1285 Clouds 24 1008 69 10000 6.69 240 16:58 14.09.2021
1286 Clouds 23 1008 67 10000 3.09 110 15:30 14.09.2021
1287 Clouds 23 1008 65 10000 1.54 0 14:31 14.09.2021
1288 Clouds 21 1009 82 10000 3.6 120 11:52 14.09.2021
1289 Clouds 20 1008 83 10000 1.54 310 10:54 14.09.2021
1290 Clouds 20 1007 85 10000 2.06 170 09:50 14.09.2021
1291 Clouds 20 1008 85 10000 2.57 150 08:39 14.09.2021
1292 Clouds 21 1008 85 10000 2.57 150 06:24 14.09.2021
1293 Clouds 22 1010 83 10000 4.63 220 23:57 13.09.2021
1294 Clouds 22 1009 84 10000 5.66 220 22:46 13.09.2021
1295 Clouds 22 1009 84 10000 6.69 230 22:23 13.09.2021
1296 Clouds 22 1009 82 10000 7.72 220 21:45 13.09.2021
1297 Clouds 23 1009 79 10000 7.72 200 20:50 13.09.2021
1298 Clouds 24 1009 77 10000 9.26 210 18:46 13.09.2021
1299 Clouds 25 1009 71 10000 7.72 210 17:42 13.09.2021
1300 Clouds 25 1009 67 10000 6.69 180 16:50 13.09.2021
1301 Clouds 25 1009 70 10000 6.69 150 15:22 13.09.2021
1302 Clouds 21 1010 85 10000 3.09 70 11:55 13.09.2021
1303 Clouds 21 1010 87 10000 4.12 110 10:58 13.09.2021
1304 Clouds 21 1009 86 10000 2.57 140 09:35 13.09.2021
1305 Clouds 21 1010 86 5000 5.14 160 04:38 13.09.2021
1306 Clouds 21 1010 80 10000 3.6 220 23:32 12.09.2021
1307 Clouds 22 1010 77 10000 6.17 230 22:25 12.09.2021
1308 Clouds 23 1010 71 10000 2.06 230 21:36 12.09.2021
1309 Rain 23 1009 69 10000 4.63 150 20:28 12.09.2021
1310 Rain 23 1009 69 10000 4.63 150 20:28 12.09.2021
1311 Clear 23 1009 67 10000 4.12 190 19:50 12.09.2021
1312 Clear 24 1010 68 10000 1.54 240 19:19 12.09.2021
1313 Clear 24 1011 68 10000 6.17 240 18:20 12.09.2021
1314 Clouds 24 1011 65 10000 6.17 230 16:30 12.09.2021
1315 Clouds 24 1011 65 10000 6.17 230 16:30 12.09.2021
1316 Clouds 25 1011 65 10000 6.17 230 16:30 12.09.2021
1317 Clouds 24 1012 67 10000 3.09 80 14:50 12.09.2021
1318 Clouds 23 1013 69 10000 3.6 80 12:47 12.09.2021
1319 Clouds 21 1014 85 10000 2.57 130 10:35 12.09.2021
1320 Clouds 20 1013 87 10000 0 0 08:59 12.09.2021
1321 Clouds 20 1013 87 10000 1.03 0 08:36 12.09.2021
1322 Clear 21 1015 79 10000 1.03 240 00:56 12.09.2021
1323 Clear 22 1015 78 10000 2.06 290 23:18 11.09.2021
1324 Clouds 22 1015 76 10000 3.09 280 21:41 11.09.2021
1325 Clouds 25 1014 61 10000 3.6 210 20:18 11.09.2021
1326 Clouds 25 1014 61 10000 3.6 210 20:18 11.09.2021
1327 Clouds 26 1015 54 10000 3.6 240 18:32 11.09.2021
1328 Clouds 27 1015 53 10000 4.63 210 17:29 11.09.2021
1329 Clouds 26 1016 56 10000 3.09 240 15:39 11.09.2021
1330 Clouds 25 1018 64 10000 2.06 0 13:30 11.09.2021
1331 Clear 23 1018 68 10000 2.06 0 11:47 11.09.2021
1332 Clouds 21 1018 81 10000 1.54 10 10:51 11.09.2021
1333 Rain 20 1018 83 10000 2.06 50 09:31 11.09.2021
1334 Clouds 20 1018 84 10000 1.03 90 07:44 11.09.2021
1335 Clouds 20 1017 83 10000 2.06 40 06:31 11.09.2021
1336 Clear 22 1019 73 10000 4.63 310 22:48 10.09.2021
1337 Clear 22 1019 73 10000 4.63 310 22:48 10.09.2021
1338 Clear 22 1019 71 10000 4.63 300 22:22 10.09.2021
1339 Clear 23 1019 68 10000 3.6 290 21:46 10.09.2021
1340 Clouds 25 1019 58 10000 5.14 310 19:41 10.09.2021
1341 Clouds 26 1018 58 10000 4.12 310 18:20 10.09.2021
1342 Clouds 26 1019 58 10000 4.12 300 16:40 10.09.2021
1343 Clouds 25 1020 62 10000 2.57 0 13:54 10.09.2021
1344 Clouds 23 1020 69 10000 1.03 0 11:46 10.09.2021
1345 Clouds 20 1018 88 10000 1.03 230 08:29 10.09.2021
1346 Clouds 20 1018 85 10000 1.54 260 07:45 10.09.2021
1347 Clouds 21 1020 81 10000 2.06 270 00:42 10.09.2021
1348 Clouds 21 1019 78 10000 2.06 260 22:24 09.09.2021
1349 Clouds 22 1019 72 10000 3.09 300 21:28 09.09.2021
1350 Clouds 23 1019 70 10000 3.6 300 20:42 09.09.2021
1351 Clouds 24 1019 65 10000 4.12 310 18:55 09.09.2021
1352 Clouds 24 1019 66 10000 4.12 300 17:56 09.09.2021
1353 Clouds 25 1019 63 10000 4.63 280 16:40 09.09.2021
1354 Clouds 25 1019 64 10000 5.14 320 15:27 09.09.2021
1355 Clouds 23 1019 68 10000 3.09 330 12:48 09.09.2021
1356 Clouds 23 1019 68 10000 3.09 330 12:48 09.09.2021
1357 Clouds 23 1019 73 10000 2.57 340 11:33 09.09.2021
1358 Clouds 21 1018 81 10000 2.06 330 09:39 09.09.2021
1359 Clouds 21 1018 83 10000 1.54 330 08:32 09.09.2021
1360 Clouds 21 1018 85 10000 2.06 280 06:24 09.09.2021
1361 Clouds 21 1018 81 10000 2.06 280 02:18 09.09.2021
1362 Clouds 21 1017 80 10000 3.6 270 22:39 08.09.2021
1363 Clouds 22 1017 77 10000 5.14 270 21:22 08.09.2021
1364 Clouds 23 1017 75 10000 5.14 250 19:56 08.09.2021
1365 Clouds 24 1017 75 10000 5.14 250 18:55 08.09.2021
1366 Clouds 23 1017 75 10000 4.63 240 18:28 08.09.2021
1367 Clouds 23 1017 76 10000 4.63 250 17:55 08.09.2021
1368 Clouds 24 1017 72 10000 7.2 210 16:28 08.09.2021
1369 Clouds 24 1018 73 10000 6.17 210 14:23 08.09.2021
1370 Clouds 23 1018 75 10000 5.66 220 12:43 08.09.2021
1371 Clouds 23 1018 75 10000 5.66 220 12:25 08.09.2021
1372 Clouds 23 1017 80 10000 4.63 230 11:29 08.09.2021
1373 Clouds 22 1017 86 10000 3.09 250 10:33 08.09.2021
1374 Clouds 21 1017 88 10000 3.6 230 09:59 08.09.2021
1375 Clouds 21 1016 88 10000 2.57 240 07:55 08.09.2021
1376 Clouds 21 1016 88 10000 2.06 220 07:32 08.09.2021
1377 Clouds 21 1016 88 10000 4.12 240 03:41 08.09.2021
1378 Clouds 22 1015 83 10000 3.09 240 22:38 07.09.2021
1379 Clouds 22 1015 83 10000 3.6 230 21:46 07.09.2021
1380 Clouds 23 1015 78 10000 6.69 230 19:47 07.09.2021
1381 Clouds 25 1015 74 10000 6.69 230 18:40 07.09.2021
1382 Clouds 25 1015 75 10000 6.69 230 17:47 07.09.2021
1383 Clouds 24 1016 76 10000 5.66 220 15:59 07.09.2021
1384 Clouds 25 1016 77 10000 6.17 230 15:35 07.09.2021
1385 Clouds 24 1016 77 10000 7.2 220 14:41 07.09.2021
1386 Clouds 22 1016 86 10000 4.12 230 12:38 07.09.2021
1387 Mist 22 1015 84 10000 6.69 200 11:36 07.09.2021
1388 Mist 21 1015 87 10000 5.14 210 10:40 07.09.2021
1389 Clouds 21 1013 89 10000 4.63 210 08:23 07.09.2021
1390 Clouds 21 1013 87 6000 4.63 210 06:45 07.09.2021
1391 Clouds 21 1013 83 6000 5.14 180 05:24 07.09.2021
1392 Clouds 22 1014 80 10000 7.2 200 02:32 07.09.2021
1393 Clouds 22 1014 75 10000 6.69 200 00:40 07.09.2021
1394 Clear 22 1014 74 10000 6.69 210 23:31 06.09.2021
1395 Clouds 22 1013 75 10000 6.69 210 22:53 06.09.2021
1396 Clouds 22 1013 75 10000 6.17 230 22:32 06.09.2021
1397 Clear 23 1013 71 10000 7.2 220 20:55 06.09.2021
1398 Clouds 24 1012 68 10000 6.69 210 19:22 06.09.2021
1399 Clouds 26 1012 61 10000 6.17 210 18:46 06.09.2021
1400 Clouds 26 1013 61 10000 5.66 210 18:23 06.09.2021
1401 Clouds 26 1013 61 10000 6.17 210 17:36 06.09.2021
1402 Clouds 25 1014 63 10000 5.14 190 15:49 06.09.2021
1403 Clouds 24 1014 69 10000 5.14 190 13:47 06.09.2021
1404 Clouds 23 1014 72 10000 3.6 170 12:47 06.09.2021
1405 Clouds 21 1013 86 9000 2.57 200 10:44 06.09.2021
1406 Clear 20 1012 85 10000 2.57 210 07:59 06.09.2021
1407 Clear 21 1012 78 10000 2.06 160 04:45 06.09.2021
1408 Clear 22 1013 67 10000 2.57 260 23:34 05.09.2021
1409 Clear 22 1013 67 10000 3.09 260 22:48 05.09.2021
1410 Clear 23 1012 67 10000 3.6 290 21:58 05.09.2021
1411 Clear 23 1011 69 10000 3.6 280 21:30 05.09.2021
1412 Clear 23 1011 70 10000 4.12 40 20:33 05.09.2021
1413 Clear 25 1012 66 10000 7.2 220 18:46 05.09.2021
1414 Clear 26 1012 52 10000 7.2 230 17:34 05.09.2021
1415 Clear 28 1013 43 10000 4.12 190 15:28 05.09.2021
1416 Clear 28 1013 45 10000 3.6 150 14:19 05.09.2021
1417 Clear 24 1014 60 10000 2.57 0 12:29 05.09.2021
1418 Fog 20 1014 90 10000 2.06 70 10:55 05.09.2021
1419 Fog 19 1014 91 10000 1.54 90 10:31 05.09.2021
1420 Fog 18 1013 88 10000 1.54 70 09:22 05.09.2021
1421 Fog 19 1013 84 10000 1.03 70 08:21 05.09.2021
1422 Clear 20 1013 72 10000 2.06 50 02:36 05.09.2021
1423 Clear 22 1013 64 10000 0.51 0 00:30 05.09.2021
1424 Clear 22 1013 64 10000 0.51 0 00:30 05.09.2021
1425 Clear 23 1013 59 10000 4.12 310 23:42 04.09.2021
1426 Clear 23 1013 61 10000 4.63 310 22:36 04.09.2021
1427 Clear 24 1013 62 10000 4.12 320 21:58 04.09.2021
1428 Clear 28 1013 39 10000 3.09 230 19:42 04.09.2021
1429 Clear 28 1013 47 10000 3.09 260 18:44 04.09.2021
1430 Clear 27 1014 53 10000 3.6 180 16:23 04.09.2021
1431 Clear 24 1016 66 10000 2.06 0 13:30 04.09.2021
1432 Clouds 22 1016 72 10000 2.06 340 11:20 04.09.2021
1433 Clouds 18 1015 85 10000 1.03 340 09:25 04.09.2021
1434 Clear 19 1016 82 10000 2.57 330 05:53 04.09.2021
1435 Clear 20 1017 75 10000 4.63 320 00:27 04.09.2021
1436 Clear 21 1017 70 10000 5.14 320 23:32 03.09.2021
1437 Clear 21 1017 69 10000 4.63 310 22:39 03.09.2021
1438 Clouds 23 1017 68 10000 4.63 320 21:35 03.09.2021
1439 Clouds 24 1017 63 10000 4.63 320 20:43 03.09.2021
1440 Clouds 24 1017 61 10000 5.14 310 19:55 03.09.2021
1441 Clouds 25 1016 60 10000 4.63 310 19:20 03.09.2021
1442 Clouds 26 1017 56 10000 4.63 310 17:53 03.09.2021
1443 Clouds 26 1017 55 10000 5.14 300 16:38 03.09.2021
1444 Clouds 25 1018 58 10000 3.09 0 14:59 03.09.2021
1445 Clouds 24 1019 70 10000 3.09 0 12:26 03.09.2021
1446 Clouds 21 1018 78 10000 2.57 340 10:32 03.09.2021
1447 Clouds 19 1018 83 10000 2.06 330 08:59 03.09.2021
1448 Clouds 19 1018 81 10000 1.54 320 07:47 03.09.2021
1449 Clouds 19 1018 81 10000 1.54 320 05:24 03.09.2021
1450 Clouds 21 1018 76 10000 5.66 310 23:21 02.09.2021
1451 Clouds 22 1017 70 10000 5.66 310 21:38 02.09.2021
1452 Clouds 24 1017 62 10000 6.17 310 19:56 02.09.2021
1453 Clouds 26 1017 53 10000 5.14 310 17:33 02.09.2021
1454 Clouds 25 1017 60 10000 3.09 320 15:54 02.09.2021
1455 Clouds 25 1018 65 10000 3.09 120 13:59 02.09.2021
1456 Clouds 24 1018 68 10000 1.54 0 12:56 02.09.2021
1457 Clouds 22 1018 73 10000 3.09 10 11:36 02.09.2021
1458 Clouds 20 1017 81 10000 3.09 340 09:47 02.09.2021
1459 Clouds 19 1017 85 10000 3.6 310 08:20 02.09.2021
1460 Clouds 19 1016 83 10000 4.12 310 07:18 02.09.2021
1461 Clouds 20 1016 83 10000 3.09 310 02:57 02.09.2021
1462 Clouds 20 1017 82 10000 4.12 330 02:33 02.09.2021
1463 Clouds 20 1017 81 10000 3.6 320 01:32 02.09.2021
1464 Clouds 21 1016 78 10000 3.6 310 23:40 01.09.2021
1465 Clouds 21 1016 74 10000 3.09 300 22:42 01.09.2021
1466 Clouds 22 1015 71 10000 3.6 310 21:40 01.09.2021
1467 Clouds 23 1015 65 10000 4.12 320 20:45 01.09.2021
1468 Clouds 24 1014 62 10000 4.12 290 19:22 01.09.2021
1469 Clouds 25 1015 63 10000 5.14 230 17:41 01.09.2021
1470 Clouds 24 1014 63 10000 4.12 250 16:47 01.09.2021
1471 Clouds 25 1015 63 10000 4.63 230 15:52 01.09.2021
1472 Clouds 23 1015 74 10000 1.54 0 12:41 01.09.2021
1473 Fog 22 1015 78 10000 3.6 20 11:45 01.09.2021
1474 Clouds 19 1014 86 10000 3.09 240 08:56 01.09.2021
1475 Clouds 19 1014 83 10000 2.57 230 07:52 01.09.2021
1476 Clouds 20 1014 82 10000 0.51 0 05:39 01.09.2021
1477 Clouds 22 1014 76 10000 5.14 300 22:43 31.08.2021
1478 Clouds 22 1013 72 10000 4.63 300 21:40 31.08.2021
1479 Clouds 24 1013 63 10000 4.63 260 19:48 31.08.2021
1480 Clouds 26 1013 58 10000 4.12 280 18:37 31.08.2021
1481 Clouds 26 1014 57 10000 4.12 270 17:38 31.08.2021
1482 Clouds 26 1014 58 10000 4.12 270 17:20 31.08.2021
1483 Clouds 27 1014 60 10000 4.63 290 16:24 31.08.2021
1484 Clouds 27 1014 60 10000 4.63 290 16:24 31.08.2021
1485 Clouds 26 1015 63 10000 2.57 0 13:46 31.08.2021
1486 Clear 23 1015 76 10000 1.54 0 11:36 31.08.2021
1487 Clouds 21 1015 80 10000 1.03 0 10:55 31.08.2021
1488 Clouds 20 1015 86 10000 2.06 330 09:45 31.08.2021
1489 Clouds 19 1015 87 10000 2.06 310 08:40 31.08.2021
1490 Clouds 20 1015 86 10000 0.51 0 07:38 31.08.2021
1491 Clouds 20 1015 83 10000 1.54 350 05:55 31.08.2021
1492 Clouds 21 1015 78 10000 2.06 300 23:35 30.08.2021
1493 Clouds 22 1014 77 10000 5.14 290 21:53 30.08.2021
1494 Clouds 22 1014 75 10000 5.14 300 21:32 30.08.2021
1495 Clear 23 1013 72 10000 6.17 260 20:32 30.08.2021
1496 Clouds 24 1014 66 10000 4.63 310 19:29 30.08.2021
1497 Clouds 25 1014 63 10000 4.63 290 18:44 30.08.2021
1498 Clouds 25 1014 60 10000 4.63 310 17:47 30.08.2021
1499 Clouds 26 1014 62 10000 5.14 200 16:24 30.08.2021
1500 Clouds 26 1014 67 10000 4.12 140 15:39 30.08.2021
1501 Clouds 24 1015 69 10000 3.09 0 13:45 30.08.2021
1502 Clouds 22 1015 76 10000 2.57 300 12:40 30.08.2021
1503 Clouds 20 1015 85 10000 3.09 230 10:34 30.08.2021
1504 Clouds 21 1016 78 10000 4.12 250 23:29 29.08.2021
1505 Clouds 21 1015 70 10000 3.09 290 21:33 29.08.2021
1506 Clouds 22 1015 67 10000 4.12 280 20:27 29.08.2021
1507 Clouds 23 1015 63 10000 4.63 270 19:20 29.08.2021
1508 Clouds 24 1015 59 10000 4.12 280 17:53 29.08.2021
1509 Clouds 24 1016 56 10000 3.6 280 15:49 29.08.2021
1510 Clouds 25 1016 60 10000 3.09 280 14:21 29.08.2021
1511 Clouds 24 1016 61 10000 2.57 320 13:44 29.08.2021
1512 Clouds 22 1017 66 10000 3.09 270 12:40 29.08.2021
1513 Clouds 22 1017 68 10000 3.09 310 11:51 29.08.2021
1514 Clouds 22 1017 72 10000 2.57 330 11:27 29.08.2021
1515 Clouds 21 1017 78 10000 2.06 310 10:46 29.08.2021
1516 Clouds 21 1017 78 10000 2.06 300 10:26 29.08.2021
1517 Clouds 20 1017 84 10000 2.06 280 08:58 29.08.2021
1518 Clouds 20 1018 77 10000 5.66 330 00:37 29.08.2021
1519 Clouds 21 1017 73 10000 4.63 310 21:54 28.08.2021
1520 Clouds 23 1016 68 10000 4.63 220 20:28 28.08.2021
1521 Clouds 24 1016 65 10000 4.63 230 18:43 28.08.2021
1522 Clouds 24 1016 65 10000 4.63 240 18:20 28.08.2021
1523 Clouds 24 1017 69 10000 5.14 220 17:20 28.08.2021
1524 Clouds 24 1017 76 10000 4.12 240 15:46 28.08.2021
1525 Drizzle 23 1018 72 10000 3.6 180 14:26 28.08.2021
1526 Clouds 24 1018 71 10000 4.63 170 13:45 28.08.2021
1527 Clouds 23 1018 71 10000 2.06 0 12:44 28.08.2021
1528 Clouds 22 1018 71 10000 2.57 0 11:55 28.08.2021
1529 Clouds 21 1017 72 10000 2.06 70 10:42 28.08.2021
1530 Clouds 20 1017 75 10000 0 0 08:41 28.08.2021
1531 Clouds 20 1017 75 10000 0.51 0 07:24 28.08.2021
1532 Clear 21 1017 72 10000 2.57 280 22:42 27.08.2021
1533 Clear 21 1017 70 10000 3.6 290 21:19 27.08.2021
1534 Clouds 22 1016 68 10000 4.63 290 20:30 27.08.2021
1535 Clouds 23 1016 68 10000 6.17 230 18:58 27.08.2021
1536 Clouds 23 1016 66 10000 5.66 240 18:37 27.08.2021
1537 Clouds 23 1016 66 10000 7.2 230 17:20 27.08.2021
1538 Clouds 24 1016 62 10000 6.69 230 15:55 27.08.2021
1539 Clouds 24 1016 60 10000 7.2 210 14:43 27.08.2021
1540 Clouds 23 1016 62 10000 2.57 300 12:54 27.08.2021
1541 Clear 22 1016 67 10000 2.06 260 11:26 27.08.2021
1542 Clear 20 1016 68 10000 2.06 320 10:43 27.08.2021
1543 Clear 19 1015 76 10000 1.54 240 09:47 27.08.2021
1544 Clear 17 1015 81 10000 1.03 0 08:46 27.08.2021
1545 Clouds 18 1014 80 10000 3.09 250 06:58 27.08.2021
1546 Clouds 18 1015 79 10000 3.6 260 05:28 27.08.2021
1547 Clear 20 1015 72 10000 3.09 300 00:36 27.08.2021
1548 Clear 20 1014 71 10000 2.57 310 22:49 26.08.2021
1549 Clear 20 1014 71 10000 3.6 300 22:19 26.08.2021
1550 Clear 22 1013 66 10000 4.63 260 20:44 26.08.2021
1551 Clear 25 1013 58 10000 5.14 240 18:53 26.08.2021
1552 Clear 25 1014 60 10000 5.66 230 17:45 26.08.2021
1553 Clear 24 1015 60 10000 3.6 240 16:35 26.08.2021
1554 Clear 24 1015 62 10000 3.6 250 15:55 26.08.2021
1555 Clouds 24 1015 63 10000 3.6 180 13:48 26.08.2021
1556 Clouds 23 1015 65 10000 3.09 190 12:56 26.08.2021
1557 Clouds 22 1015 66 10000 2.57 160 12:30 26.08.2021
1558 Clouds 20 1014 76 10000 2.57 130 10:21 26.08.2021
1559 Clouds 19 1013 84 10000 2.06 210 08:34 26.08.2021
1560 Clouds 19 1013 83 10000 2.06 220 06:34 26.08.2021
1561 Clear 20 1012 80 10000 2.57 240 22:54 25.08.2021
1562 Clear 20 1012 80 10000 3.6 250 22:35 25.08.2021
1563 Clear 20 1012 79 10000 4.12 250 21:54 25.08.2021
1564 Clouds 21 1012 74 10000 5.14 240 20:49 25.08.2021
1565 Clouds 22 1012 72 10000 5.14 220 20:28 25.08.2021
1566 Clouds 23 1012 68 10000 5.66 230 18:45 25.08.2021
1567 Clouds 23 1013 66 10000 5.66 230 17:43 25.08.2021
1568 Clouds 23 1013 66 10000 4.63 210 15:45 25.08.2021
1569 Clouds 23 1013 67 10000 5.14 180 14:48 25.08.2021
1570 Clouds 23 1013 69 10000 5.66 190 14:30 25.08.2021
1571 Clouds 22 1014 73 10000 5.14 190 13:25 25.08.2021
1572 Clouds 20 1013 81 10000 4.63 180 11:28 25.08.2021
1573 Clouds 19 1013 82 10000 4.12 160 10:43 25.08.2021
1574 Clouds 20 1012 87 10000 4.12 190 09:58 25.08.2021
1575 Clouds 20 1012 87 10000 5.14 190 09:18 25.08.2021
1576 Clouds 19 1011 82 9000 4.63 190 08:30 25.08.2021
1577 Clouds 20 1011 81 10000 4.12 210 04:19 25.08.2021
1578 Clouds 20 1012 82 10000 3.09 230 00:53 25.08.2021
1579 Mist 20 1011 83 10000 3.09 250 22:50 24.08.2021
1580 Clouds 22 1011 83 10000 5.66 230 20:48 24.08.2021
1581 Clouds 23 1011 80 10000 5.14 230 19:52 24.08.2021
1582 Clouds 23 1011 79 10000 5.66 220 18:47 24.08.2021
1583 Clouds 24 1012 76 10000 4.63 220 17:46 24.08.2021
1584 Mist 24 1012 76 10000 5.14 220 17:19 24.08.2021
1585 Clouds 24 1013 74 10000 5.14 190 14:30 24.08.2021
1586 Clouds 23 1013 76 10000 3.09 160 13:29 24.08.2021
1587 Clouds 21 1012 84 10000 3.6 90 12:33 24.08.2021
1588 Fog 21 1012 86 10000 0 0 10:48 24.08.2021
1589 Fog 20 1012 85 10000 1.03 0 10:28 24.08.2021
1590 Fog 18 1012 87 10000 0 0 08:59 24.08.2021
1591 Clouds 19 1011 85 10000 2.06 350 06:55 24.08.2021
1592 Clouds 20 1012 79 10000 1.54 300 04:54 24.08.2021
1593 Clear 21 1012 78 10000 2.06 330 00:48 24.08.2021
1594 Clouds 21 1013 75 10000 3.6 320 23:21 23.08.2021
1595 Clouds 22 1012 76 10000 3.6 320 22:40 23.08.2021
1596 Clear 24 1012 63 10000 3.09 0 20:49 23.08.2021
1597 Clear 27 1012 53 10000 6.17 310 19:24 23.08.2021
1598 Clear 28 1013 52 10000 4.12 320 16:41 23.08.2021
1599 Clear 28 1013 52 10000 3.09 0 15:21 23.08.2021
1600 Clear 26 1015 58 10000 2.57 0 13:26 23.08.2021
1601 Clouds 24 1015 63 10000 3.09 320 12:20 23.08.2021
1602 Clouds 20 1015 74 10000 4.12 310 10:39 23.08.2021
1603 Clouds 19 1015 80 10000 5.14 310 09:48 23.08.2021
1604 Clouds 18 1015 85 10000 5.66 310 08:33 23.08.2021
1605 Clouds 18 1015 82 10000 5.66 310 06:51 23.08.2021
1606 Clear 18 1015 82 10000 5.66 310 06:33 23.08.2021
1607 Clear 19 1017 77 10000 6.69 320 00:55 23.08.2021
1608 Clear 20 1017 72 10000 7.2 310 22:46 22.08.2021
1609 Clouds 20 1017 72 10000 7.72 310 22:28 22.08.2021
1610 Clear 23 1017 59 10000 7.72 320 20:23 22.08.2021
1611 Clear 24 1017 53 10000 7.72 320 19:46 22.08.2021
1612 Clear 28 1017 44 10000 6.69 320 17:26 22.08.2021
1613 Clear 28 1018 45 10000 5.14 330 15:32 22.08.2021
1614 Clear 28 1018 44 10000 5.66 340 14:43 22.08.2021
1615 Clear 27 1019 50 10000 5.66 330 13:37 22.08.2021
1616 Clear 26 1019 50 10000 5.66 330 13:18 22.08.2021
1617 Clear 25 1019 56 10000 6.69 350 12:28 22.08.2021
1618 Clear 24 1019 59 10000 8.23 330 11:43 22.08.2021
1619 Clear 21 1019 67 10000 5.66 320 10:32 22.08.2021
1620 Clear 18 1018 72 10000 5.66 310 08:20 22.08.2021
1621 Clouds 20 1019 81 10000 4.12 340 04:58 22.08.2021
1622 Clouds 21 1020 79 10000 3.6 350 00:32 22.08.2021
1623 Clouds 21 1020 75 10000 5.66 340 22:34 21.08.2021
1624 Clear 24 1019 64 10000 6.69 310 20:38 21.08.2021
1625 Clear 27 1019 54 10000 7.2 320 18:46 21.08.2021
1626 Clear 27 1019 49 10000 7.2 330 17:59 21.08.2021
1627 Clear 28 1019 48 10000 6.69 340 16:55 21.08.2021
1628 Clear 28 1019 48 10000 5.14 320 16:28 21.08.2021
1629 Clear 28 1020 48 10000 5.14 330 15:36 21.08.2021
1630 Clear 27 1020 49 10000 5.66 340 14:47 21.08.2021
1631 Clear 26 1020 51 10000 4.63 340 13:32 21.08.2021
1632 Clouds 24 1020 59 10000 4.63 340 12:38 21.08.2021
1633 Clouds 18 1019 79 10000 3.09 330 09:31 21.08.2021
1634 Clouds 18 1018 79 10000 1.03 0 06:19 21.08.2021
1635 Clouds 19 1018 74 10000 3.6 350 23:45 20.08.2021
1636 Clouds 20 1017 70 10000 7.2 310 21:53 20.08.2021
1637 Clear 25 1016 53 10000 5.66 320 18:27 20.08.2021
1638 Clear 26 1016 49 10000 5.14 320 16:21 20.08.2021
1639 Clouds 24 1017 55 10000 5.14 340 13:48 20.08.2021
1640 Clear 21 1016 66 10000 3.6 330 11:41 20.08.2021
1641 Clouds 19 1016 69 10000 4.12 330 10:55 20.08.2021
1642 Clouds 17 1016 75 10000 1.54 330 09:42 20.08.2021
1643 Clouds 17 1015 80 10000 2.06 320 08:46 20.08.2021
1644 Clouds 17 1015 79 10000 3.09 330 07:45 20.08.2021
1645 Clouds 17 1015 78 10000 4.12 320 04:22 20.08.2021
1646 Clouds 18 1015 75 10000 2.06 340 00:20 20.08.2021
1647 Clouds 18 1015 73 10000 4.63 330 23:20 19.08.2021
1648 Clouds 18 1014 73 10000 7.2 320 22:33 19.08.2021
1649 Clear 20 1014 63 10000 9.26 310 20:48 19.08.2021
1650 Clear 23 1014 52 10000 7.72 320 19:44 19.08.2021
1651 Clear 24 1014 49 10000 5.66 330 17:27 19.08.2021
1652 Clear 24 1014 49 10000 6.69 330 16:30 19.08.2021
1653 Clear 24 1015 51 10000 4.12 310 13:58 19.08.2021
1654 Clouds 22 1015 59 10000 5.14 320 12:38 19.08.2021
1655 Clouds 20 1015 66 10000 4.12 320 11:36 19.08.2021
1656 Clouds 18 1015 73 10000 7.2 310 10:24 19.08.2021
1657 Clouds 18 1014 74 10000 8.23 310 09:48 19.08.2021
1658 Clouds 18 1014 77 10000 8.23 320 09:22 19.08.2021
1659 Clouds 17 1014 78 10000 3.09 310 07:40 19.08.2021
1660 Clouds 18 1016 79 10000 4.63 330 02:26 19.08.2021
1661 Clouds 18 1016 79 10000 5.66 330 01:55 19.08.2021
1662 Clouds 19 1015 75 10000 9.26 310 22:56 18.08.2021
1663 Clouds 20 1015 66 10000 5.66 310 21:41 18.08.2021
1664 Clouds 21 1015 60 10000 8.75 310 20:33 18.08.2021
1665 Clouds 22 1016 54 10000 9.26 320 19:51 18.08.2021
1666 Clouds 24 1016 48 10000 8.75 320 18:55 18.08.2021
1667 Clear 25 1016 41 10000 7.2 310 17:57 18.08.2021
1668 Clear 26 1016 38 10000 6.69 310 16:24 18.08.2021
1669 Clear 26 1017 41 10000 6.69 330 15:38 18.08.2021
1670 Clear 26 1017 40 10000 6.69 330 15:20 18.08.2021
1671 Clear 23 1018 52 10000 3.6 300 12:43 18.08.2021
1672 Clear 23 1018 55 10000 3.6 300 12:25 18.08.2021
1673 Clear 20 1017 64 10000 3.6 320 10:50 18.08.2021
1674 Clear 18 1017 72 10000 5.14 320 07:48 18.08.2021
1675 Clear 19 1019 71 10000 8.75 330 00:45 18.08.2021
1676 Clouds 20 1018 66 10000 9.26 320 22:30 17.08.2021
1677 Clear 22 1018 57 10000 5.14 300 21:29 17.08.2021
1678 Clear 24 1018 46 10000 4.12 290 20:45 17.08.2021
1679 Clear 27 1018 41 10000 7.2 320 19:19 17.08.2021
1680 Clear 29 1018 34 10000 7.2 330 17:33 17.08.2021
1681 Clear 30 1019 31 10000 8.75 330 16:40 17.08.2021
1682 Clear 31 1019 33 10000 8.75 340 15:38 17.08.2021
1683 Clear 29 1019 40 10000 6.69 320 14:29 17.08.2021
1684 Clouds 25 1020 50 10000 7.2 320 12:35 17.08.2021
1685 Clouds 18 1019 73 10000 8.23 330 09:22 17.08.2021
1686 Clear 18 1019 71 10000 5.66 340 07:54 17.08.2021
1687 Clear 19 1019 73 10000 7.2 320 05:48 17.08.2021
1688 Clear 20 1020 68 10000 11.32 330 23:18 16.08.2021
1689 Clear 20 1019 68 10000 11.32 330 22:46 16.08.2021
1690 Clear 20 1019 68 10000 11.32 330 22:27 16.08.2021
1691 Clear 22 1019 59 10000 10.8 340 21:36 16.08.2021
1692 Clear 23 1019 52 10000 9.77 320 20:50 16.08.2021
1693 Clear 26 1019 36 10000 9.77 320 19:25 16.08.2021
1694 Clear 28 1019 36 10000 8.75 320 18:25 16.08.2021
1695 Clear 28 1019 37 10000 8.23 330 17:51 16.08.2021
1696 Clear 29 1019 40 10000 8.23 330 15:53 16.08.2021
1697 Clear 28 1019 42 10000 7.72 330 14:57 16.08.2021
1698 Clear 26 1020 47 10000 7.72 340 13:39 16.08.2021
1699 Clear 25 1020 51 10000 7.72 340 12:56 16.08.2021
1700 Clear 23 1019 52 10000 6.69 340 11:29 16.08.2021
1701 Clouds 18 1019 81 10000 6.17 340 08:54 16.08.2021
1702 Clouds 18 1018 80 10000 6.69 340 07:45 16.08.2021
1703 Clouds 18 1018 81 10000 7.2 330 07:26 16.08.2021
1704 Clear 19 1019 77 10000 5.14 310 02:45 16.08.2021
1705 Clear 21 1019 69 10000 6.69 320 23:32 15.08.2021
1706 Clear 26 1018 39 10000 9.26 320 20:51 15.08.2021
1707 Clear 28 1017 36 10000 8.23 340 18:48 15.08.2021
1708 Clear 30 1017 33 10000 8.23 350 18:20 15.08.2021
1709 Clear 30 1018 34 10000 7.72 330 17:41 15.08.2021
1710 Clear 31 1018 35 10000 4.63 320 16:28 15.08.2021
1711 Clear 30 1018 37 10000 6.17 330 15:28 15.08.2021
1712 Clear 29 1018 38 10000 4.63 320 14:30 15.08.2021
1713 Clear 25 1018 53 10000 5.14 330 11:44 15.08.2021
1714 Clear 21 1017 64 10000 4.63 340 09:41 15.08.2021
1715 Clear 20 1017 78 10000 4.12 340 06:31 15.08.2021
1716 Clear 21 1018 70 10000 7.72 320 00:43 15.08.2021
1717 Clear 22 1018 64 10000 7.2 320 23:25 14.08.2021
1718 Clear 25 1017 57 10000 7.72 330 21:20 14.08.2021
1719 Clear 29 1017 47 10000 5.14 320 19:44 14.08.2021
1720 Clear 30 1017 43 10000 5.66 330 19:24 14.08.2021
1721 Clear 34 1017 29 10000 3.09 360 17:31 14.08.2021
1722 Clear 31 1018 42 10000 4.63 340 15:58 14.08.2021
1723 Clear 29 1019 46 10000 4.12 340 14:32 14.08.2021
1724 Clear 25 1019 54 10000 4.12 330 12:33 14.08.2021
1725 Clear 23 1018 63 10000 4.12 320 10:54 14.08.2021
1726 Clear 20 1018 71 10000 4.63 310 07:49 14.08.2021
1727 Clear 24 1018 62 10000 5.14 320 23:54 13.08.2021
1728 Clear 24 1018 63 10000 6.69 330 23:18 13.08.2021
1729 Clear 26 1018 60 10000 6.17 320 21:46 13.08.2021
1730 Clear 31 1018 45 10000 5.14 320 18:53 13.08.2021
1731 Clear 31 1018 44 10000 5.14 310 18:35 13.08.2021
1732 Clear 34 1019 34 10000 3.6 330 16:34 13.08.2021
1733 Clear 32 1019 42 10000 4.12 350 15:41 13.08.2021
1734 Clouds 23 1020 71 10000 4.12 330 11:21 13.08.2021
1735 Clouds 21 1019 77 10000 4.63 330 10:37 13.08.2021
1736 Clouds 19 1019 83 10000 4.12 330 08:37 13.08.2021
1737 Clouds 18 1019 82 10000 3.6 320 07:48 13.08.2021
1738 Clear 19 1019 76 10000 6.69 310 04:59 13.08.2021
1739 Clear 21 1019 65 10000 6.69 320 23:57 12.08.2021
1740 Clear 24 1018 54 10000 6.69 330 21:34 12.08.2021
1741 Clear 27 1018 46 10000 6.69 320 20:25 12.08.2021
1742 Clear 28 1018 43 10000 5.66 320 19:49 12.08.2021
1743 Clear 29 1018 38 10000 6.17 330 17:55 12.08.2021
1744 Clear 29 1019 36 10000 6.17 340 16:50 12.08.2021
1745 Clear 29 1019 41 10000 5.66 340 15:34 12.08.2021
1746 Clear 26 1019 52 10000 4.63 350 13:39 12.08.2021
1747 Clouds 21 1019 67 10000 3.6 330 11:33 12.08.2021
1748 Clouds 19 1018 76 10000 4.12 330 08:30 12.08.2021
1749 Clouds 18 1017 79 10000 4.63 330 06:41 12.08.2021
1750 Clouds 20 1016 76 10000 8.23 310 22:59 11.08.2021
1751 Clouds 20 1016 72 10000 7.2 310 21:37 11.08.2021
1752 Clouds 25 1015 55 10000 6.69 320 18:48 11.08.2021
1753 Clouds 26 1015 55 10000 6.17 320 18:24 11.08.2021
1754 Clouds 27 1016 51 10000 5.14 310 15:21 11.08.2021
1755 Clouds 26 1016 57 10000 5.66 340 14:25 11.08.2021
1756 Clouds 23 1017 67 10000 5.66 340 12:37 11.08.2021
1757 Clouds 22 1016 71 10000 5.14 320 11:57 11.08.2021
1758 Clouds 21 1016 74 10000 6.17 330 11:39 11.08.2021
1759 Clouds 21 1016 75 10000 6.17 330 11:18 11.08.2021
1760 Clouds 19 1015 82 10000 6.17 330 08:50 11.08.2021
1761 Clouds 19 1016 78 10000 6.17 330 02:40 11.08.2021
1762 Clouds 20 1015 75 10000 7.2 310 22:33 10.08.2021
1763 Clouds 21 1015 69 10000 7.72 310 21:38 10.08.2021
1764 Clear 23 1015 62 10000 7.2 310 20:49 10.08.2021
1765 Clear 26 1015 52 10000 6.69 330 19:25 10.08.2021
1766 Clear 28 1016 43 10000 5.14 330 16:51 10.08.2021
1767 Clear 28 1016 44 10000 4.63 350 15:22 10.08.2021
1768 Clear 27 1017 47 10000 4.63 350 14:39 10.08.2021
1769 Clouds 21 1017 69 10000 4.63 330 10:47 10.08.2021
1770 Clouds 17 1016 81 10000 3.09 330 08:41 10.08.2021
1771 Clear 17 1016 80 10000 4.63 320 05:24 10.08.2021
1772 Clear 19 1016 72 10000 6.17 320 00:37 10.08.2021
1773 Clear 19 1016 73 10000 7.2 330 23:24 09.08.2021
1774 Clear 20 1015 68 10000 7.2 320 21:52 09.08.2021
1775 Clear 21 1015 63 10000 7.2 320 21:19 09.08.2021
1776 Clouds 25 1016 48 10000 5.66 330 17:57 09.08.2021
1777 Clear 26 1016 47 10000 3.6 320 15:35 09.08.2021
1778 Clear 26 1016 47 10000 3.6 320 15:35 09.08.2021
1779 Clouds 25 1016 51 10000 3.6 320 14:37 09.08.2021
1780 Clouds 23 1017 56 10000 3.6 320 13:29 09.08.2021
1781 Clouds 21 1016 64 10000 5.14 350 11:48 09.08.2021
1782 Clouds 17 1016 79 10000 4.12 330 09:27 09.08.2021
1783 Clouds 17 1016 81 10000 2.06 320 08:18 09.08.2021
1784 Clouds 20 1015 57 10000 7.2 320 21:32 08.08.2021
1785 Clear 21 1015 51 10000 8.75 330 20:36 08.08.2021
1786 Clear 25 1016 40 10000 7.2 350 17:36 08.08.2021
1787 Clear 25 1016 44 10000 5.66 340 16:38 08.08.2021
1788 Clear 24 1016 44 10000 6.69 340 14:34 08.08.2021
1789 Clouds 23 1017 53 10000 7.72 330 12:47 08.08.2021
1790 Clouds 19 1016 68 10000 6.17 330 10:36 08.08.2021
1791 Clouds 17 1016 76 10000 6.17 330 06:41 08.08.2021
1792 Clouds 18 1017 74 10000 4.63 340 00:53 08.08.2021
1793 Clouds 19 1017 72 10000 4.63 340 00:24 08.08.2021
1794 Clouds 20 1016 67 10000 6.69 330 21:47 07.08.2021
1795 Clouds 20 1016 64 10000 6.17 320 21:47 07.08.2021
1796 Clouds 21 1016 63 10000 6.17 320 21:19 07.08.2021
1797 Clouds 23 1015 50 10000 6.17 300 18:22 07.08.2021
1798 Clouds 24 1015 47 10000 6.17 330 16:52 07.08.2021
1799 Clouds 24 1015 45 10000 5.14 320 15:36 07.08.2021
1800 Clouds 23 1015 49 10000 4.12 310 13:35 07.08.2021
1801 Clouds 22 1015 64 10000 5.66 350 11:37 07.08.2021
1802 Clouds 19 1013 76 10000 2.57 330 07:52 07.08.2021
1803 Clouds 19 1012 85 10000 3.09 250 04:45 07.08.2021
1804 Clouds 20 1012 72 10000 3.6 300 22:51 06.08.2021
1805 Clear 23 1012 56 10000 3.6 300 20:36 06.08.2021
1806 Clear 23 1012 56 10000 3.6 300 20:36 06.08.2021
1807 Clouds 23 1013 56 10000 4.63 310 19:59 06.08.2021
1808 Clear 24 1013 52 10000 4.63 320 19:38 06.08.2021
1809 Clear 24 1013 52 10000 4.63 320 19:38 06.08.2021
1810 Clear 26 1013 50 10000 5.66 350 17:44 06.08.2021
1811 Clear 24 1015 53 10000 4.12 330 13:33 06.08.2021
1812 Clouds 20 1014 64 10000 6.17 340 09:57 06.08.2021
1813 Clouds 19 1014 68 10000 3.6 340 08:29 06.08.2021
1814 Clouds 21 1015 79 10000 4.12 340 00:33 06.08.2021
1815 Clouds 21 1017 79 10000 5.14 330 23:18 05.08.2021
1816 Clouds 22 1015 78 10000 6.69 340 20:48 05.08.2021
1817 Clouds 25 1015 68 10000 6.17 330 19:49 05.08.2021
1818 Clouds 27 1016 60 10000 5.66 320 18:26 05.08.2021
1819 Clouds 27 1017 53 10000 6.17 350 15:43 05.08.2021
1820 Clouds 25 1018 59 10000 5.66 340 12:48 05.08.2021
1821 Clouds 19 1017 83 10000 4.63 340 08:52 05.08.2021
1822 Clouds 18 1018 81 10000 4.63 330 07:50 05.08.2021
1823 Clouds 19 1018 83 10000 4.63 350 02:19 05.08.2021
1824 Clouds 21 1019 79 10000 10.29 330 22:21 04.08.2021
1825 Clouds 22 1018 75 10000 7.72 320 21:26 04.08.2021
1826 Clouds 25 1017 65 10000 7.2 330 19:24 04.08.2021
1827 Clouds 27 1017 57 10000 5.66 330 17:22 04.08.2021
1828 Clouds 26 1018 62 10000 5.14 340 14:45 04.08.2021
1829 Clouds 23 1018 72 10000 4.63 330 12:21 04.08.2021
1830 Clouds 20 1016 85 10000 9.26 330 06:49 04.08.2021
1831 Clouds 20 1016 69 10000 8.23 330 20:58 03.08.2021
1832 Clear 22 1016 66 10000 8.75 320 20:26 03.08.2021
1833 Clouds 25 1016 50 10000 7.2 320 18:37 03.08.2021
1834 Clear 26 1016 48 10000 7.2 330 16:58 03.08.2021
1835 Clouds 25 1018 53 10000 5.14 350 13:57 03.08.2021
1836 Clouds 20 1018 71 10000 5.66 330 10:57 03.08.2021
1837 Clouds 18 1016 81 10000 5.66 330 09:42 03.08.2021
1838 Clouds 20 1015 72 10000 5.66 340 21:55 02.08.2021
1839 Clouds 25 1014 63 10000 4.12 320 16:40 02.08.2021
1840 Clouds 25 1014 61 10000 3.6 320 15:33 02.08.2021
1841 Clouds 22 1016 73 10000 3.6 330 12:40 02.08.2021
1842 Clouds 21 1015 77 10000 2.57 310 11:57 02.08.2021
1843 Fog 20 1015 82 10000 2.57 300 10:25 02.08.2021
1844 Clouds 20 1013 90 10000 1.54 280 06:22 02.08.2021
1845 Clouds 23 1016 71 10000 5.14 300 19:21 01.08.2021
1846 Clouds 23 1018 60 10000 4.12 290 15:44 01.08.2021
1847 Clouds 21 1020 65 10000 3.09 320 11:39 01.08.2021
1848 Clouds 21 1020 65 10000 3.09 320 11:39 01.08.2021
1849 Clouds 18 1019 77 10000 4.63 330 09:50 01.08.2021
1850 Clear 17 1018 80 10000 5.14 320 03:49 01.08.2021
1851 Clear 18 1019 72 10000 7.2 320 23:37 31.07.2021
1852 Clouds 19 1018 68 10000 8.75 330 21:45 31.07.2021
1853 Clouds 22 1018 52 10000 8.23 330 17:53 31.07.2021
1854 Clouds 22 1019 51 10000 9.26 340 16:37 31.07.2021
1855 Clouds 22 1019 52 10000 8.23 340 13:31 31.07.2021
1856 Clouds 19 1018 63 10000 8.23 330 10:28 31.07.2021
1857 Clouds 18 1017 77 10000 6.69 350 02:48 31.07.2021
1858 Clouds 22 1016 62 10000 6.69 330 20:54 30.07.2021
1859 Clouds 23 1016 61 10000 7.72 340 20:22 30.07.2021
1860 Clouds 24 1017 62 10000 7.2 340 14:18 30.07.2021
1861 Clouds 24 1014 58 10000 7.72 320 18:52 29.07.2021
1862 Clouds 17 1014 78 10000 6.69 340 07:41 29.07.2021
1863 Clouds 18 1012 82 10000 7.72 310 04:51 29.07.2021
1864 Clouds 20 1012 71 10000 8.23 320 22:21 28.07.2021
1865 Clear 26 1011 49 10000 7.2 330 17:47 28.07.2021
1866 Clouds 27 1012 52 10000 5.66 310 16:54 28.07.2021
1867 Clouds 19 1012 80 10000 6.17 330 09:29 28.07.2021
1868 Clouds 19 1013 75 10000 7.2 350 23:45 27.07.2021
1869 Clouds 22 1013 66 10000 7.2 320 21:31 27.07.2021
1870 Clear 27 1014 52 10000 6.69 350 14:53 27.07.2021
1871 Clouds 25 1014 58 10000 6.17 350 12:58 27.07.2021
1872 Clouds 20 1014 75 10000 5.66 330 10:20 27.07.2021
1873 Clouds 22 1014 65 10000 8.75 310 20:43 26.07.2021
1874 Clouds 25 1014 53 10000 6.69 330 15:32 26.07.2021
1875 Clouds 19 1014 85 10000 3.09 310 08:28 26.07.2021
1876 Clouds 22 1014 75 10000 4.12 300 20:57 25.07.2021
1877 Clouds 23 1013 73 10000 4.12 300 18:45 25.07.2021
1878 Clouds 23 1014 70 10000 4.63 310 16:22 25.07.2021
1879 Clouds 21 1014 84 10000 4.12 280 10:57 25.07.2021
1880 Clouds 20 1014 86 10000 3.09 300 08:20 25.07.2021
1881 Clouds 19 1015 81 10000 2.06 310 02:34 25.07.2021
1882 Clouds 23 1014 61 10000 6.69 330 20:20 24.07.2021
1883 Clouds 24 1014 55 10000 6.17 320 15:50 24.07.2021
1884 Clouds 18 1014 83 10000 4.63 340 04:21 24.07.2021
1885 Clear 24 1016 48 10000 6.07 309 14:46 23.07.2021
1886 Clouds 23 1017 58 10000 4.63 340 12:43 23.07.2021
1887 Clouds 18 1014 82 10000 2.06 330 07:34 23.07.2021
1888 Clear 20 1014 68 10000 7.72 310 22:44 22.07.2021
1889 Clouds 25 1018 59 10000 2.57 0 13:59 22.07.2021
1890 Clouds 17 1018 83 10000 4.12 330 09:58 22.07.2021
1891 Clouds 16 1016 86 10000 4.12 320 08:23 22.07.2021
1892 Clouds 16 1016 86 10000 4.12 320 08:23 22.07.2021
1893 Clouds 16 1016 86 10000 4.12 320 08:23 22.07.2021
1894 Clouds 18 1016 78 10000 6.17 320 22:33 21.07.2021
1895 Clouds 20 1016 72 10000 6.69 310 21:30 21.07.2021
1896 Clear 25 1016 52 10000 4.12 300 15:20 21.07.2021
1897 Clouds 18 1018 77 10000 6.69 330 09:50 21.07.2021
1898 Clouds 18 1017 79 10000 6.69 330 09:18 21.07.2021
1899 Clouds 19 1018 77 10000 4.63 320 23:55 20.07.2021
1900 Clear 24 1016 58 10000 5.66 310 17:46 20.07.2021
1901 Clear 25 1015 57 10000 5.66 320 16:33 20.07.2021
1902 Clouds 24 1016 58 10000 6.17 330 15:26 20.07.2021
1903 Clouds 20 1016 69 10000 5.14 350 11:18 20.07.2021
1904 Clouds 18 1014 81 10000 3.09 340 07:19 20.07.2021
1905 Clouds 18 1014 78 10000 6.17 340 22:35 19.07.2021
1906 Clouds 22 1016 66 10000 7.72 340 15:39 19.07.2021
1907 Clouds 20 1016 74 10000 5.66 330 12:37 19.07.2021
1908 Clouds 22 1017 67 10000 5.14 330 20:44 18.07.2021
1909 Clouds 25 1017 57 10000 4.63 310 15:20 18.07.2021
1910 Clouds 19 1018 77 10000 3.6 310 10:19 18.07.2021
1911 Clouds 22 1017 68 10000 6.17 300 22:28 17.07.2021
1912 Clear 23 1017 66 10000 5.66 300 21:55 17.07.2021
1913 Clear 24 1017 58 10000 5.14 300 21:37 17.07.2021
1914 Clear 28 1017 47 10000 3.09 310 12:34 17.07.2021
1915 Clouds 23 1015 66 10000 1.54 0 10:21 17.07.2021
1916 Clear 23 1013 58 10000 3.6 320 04:47 17.07.2021
1917 Clear 30 1015 42 10000 3.09 100 14:24 16.07.2021
1918 Clear 26 1015 58 10000 2.57 0 11:42 16.07.2021
1919 Clear 21 1013 60 10000 1.03 0 06:59 16.07.2021
1920 Clear 30 1014 37 10000 7.2 240 17:53 15.07.2021
1921 Clear 29 1015 38 10000 2.06 0 13:49 15.07.2021
1922 Clear 22 1013 62 10000 3.09 340 08:44 15.07.2021
1923 Clear 23 1014 48 10000 5.14 330 00:19 15.07.2021
1924 Clear 31 1015 39 10000 4.12 60 16:48 14.07.2021
1925 Clear 24 1018 59 10000 4.12 350 11:59 14.07.2021
1926 Clouds 17 1019 75 10000 6.69 340 01:18 14.07.2021
1927 Clouds 22 1019 53 10000 9.26 330 20:21 13.07.2021
1928 Clouds 23 1019 49 10000 7.2 330 19:42 13.07.2021
1929 Clouds 23 1019 48 10000 7.2 330 19:21 13.07.2021
1930 Clouds 23 1019 48 10000 7.72 340 18:43 13.07.2021
1931 Clear 23 1019 47 10000 9.26 340 18:23 13.07.2021
1932 Clear 24 1021 48 10000 10.29 330 14:33 13.07.2021
1933 Clouds 17 1022 72 10000 8.23 340 09:38 13.07.2021
1934 Clouds 18 1022 69 10000 5.66 350 22:45 12.07.2021
1935 Clouds 22 1021 55 10000 7.2 340 17:28 12.07.2021
1936 Clouds 22 1021 51 10000 8.23 350 14:50 12.07.2021
1937 Clouds 18 1017 76 10000 6.17 350 00:31 12.07.2021
1938 Clouds 21 1015 71 10000 7.2 330 20:53 11.07.2021
1939 Clear 28 1015 48 10000 8.23 340 15:30 11.07.2021
1940 Clear 24 1011 48 10000 4.63 340 01:27 11.07.2021
1941 Clear 35 1012 33 10000 4.63 350 17:19 10.07.2021
1942 Clear 19 1014 70 10000 4.12 350 07:52 10.07.2021
1943 Clear 20 1015 55 10000 2.57 310 02:27 10.07.2021
1944 Clear 28 1015 44 10000 6.69 320 19:47 09.07.2021
1945 Clear 28 1017 47 10000 5.66 340 14:50 09.07.2021
1946 Clear 25 1018 55 10000 4.63 350 12:48 09.07.2021
1947 Clear 17 1020 73 10000 8.23 320 23:55 08.07.2021
1948 Clear 18 1020 69 10000 8.23 320 22:49 08.07.2021
1949 Clear 23 1019 55 10000 8.75 320 19:49 08.07.2021
1950 Clear 24 1020 50 10000 8.75 330 18:23 08.07.2021
1951 Clouds 24 1021 56 10000 5.14 330 13:50 08.07.2021
1952 Clouds 23 1021 57 10000 5.66 340 13:30 08.07.2021
1953 Clouds 23 1021 57 10000 5.66 340 13:30 08.07.2021
1954 Clouds 23 1022 57 10000 5.14 350 12:34 08.07.2021
1955 Clouds 20 1023 62 10000 6.17 330 11:19 08.07.2021
1956 Clouds 16 1021 81 10000 8.23 340 06:52 08.07.2021
1957 Clear 17 1022 75 10000 6.69 340 03:52 08.07.2021
1958 Clouds 18 1021 72 10000 7.72 340 22:59 07.07.2021
1959 Clouds 19 1021 69 10000 6.17 350 22:20 07.07.2021
1960 Clouds 19 1021 65 10000 7.72 350 21:45 07.07.2021
1961 Clouds 20 1021 63 10000 7.72 350 21:24 07.07.2021
1962 Clouds 22 1021 58 10000 8.75 350 19:59 07.07.2021
1963 Clouds 22 1020 55 10000 8.23 350 19:30 07.07.2021
1964 Clouds 22 1020 55 10000 8.23 350 19:30 07.07.2021
1965 Clouds 22 1020 55 10000 8.23 350 19:30 07.07.2021
1966 Clouds 22 1021 54 10000 8.75 330 18:52 07.07.2021
1967 Clouds 23 1021 52 10000 7.2 360 15:55 07.07.2021
1968 Clouds 23 1021 52 10000 7.2 350 14:58 07.07.2021
1969 Clouds 20 1020 65 10000 5.14 350 11:24 07.07.2021
1970 Clouds 17 1018 83 10000 3.09 330 07:23 07.07.2021
1971 Clouds 17 1019 80 10000 4.12 330 05:51 07.07.2021
1972 Clouds 17 1018 78 10000 1.54 330 02:55 07.07.2021
1973 Clouds 21 1017 54 10000 5.66 320 20:18 06.07.2021
1974 Clouds 21 1017 57 10000 3.6 320 18:57 06.07.2021
1975 Clouds 21 1017 58 10000 3.6 300 18:37 06.07.2021
1976 Rain 21 1017 59 10000 4.12 320 17:43 06.07.2021
1977 Clouds 22 1017 59 10000 5.14 340 13:35 06.07.2021
1978 Clouds 20 1016 79 10000 4.12 310 09:44 06.07.2021
1979 Clouds 19 1015 84 10000 3.6 300 08:36 06.07.2021
1980 Clouds 19 1015 86 10000 3.09 300 07:39 06.07.2021
1981 Clouds 20 1016 85 10000 2.57 260 01:59 06.07.2021
1982 Clouds 20 1016 80 10000 3.09 260 23:57 05.07.2021
1983 Clouds 21 1016 77 10000 4.12 300 21:58 05.07.2021
1984 Clouds 23 1016 70 10000 4.63 280 17:21 05.07.2021
1985 Clouds 22 1018 69 10000 4.63 270 13:30 05.07.2021
1986 Clouds 19 1016 83 10000 3.09 300 05:59 05.07.2021
1987 Clouds 20 1016 83 10000 3.09 300 05:40 05.07.2021
1988 Clouds 20 1019 82 10000 4.12 300 00:32 05.07.2021
1989 Clouds 22 1018 67 10000 5.66 300 21:18 04.07.2021
1990 Clear 25 1018 53 10000 4.12 300 17:35 04.07.2021
1991 Clouds 24 1019 56 10000 3.09 290 15:22 04.07.2021
1992 Clouds 21 1021 68 10000 3.09 320 11:26 04.07.2021
1993 Clouds 18 1019 83 10000 2.06 300 07:34 04.07.2021
1994 Clouds 19 1018 79 10000 4.12 320 23:27 03.07.2021
1995 Clouds 22 1018 67 10000 4.12 300 21:40 03.07.2021
1996 Clouds 22 1019 85 10000 4.12 240 12:51 03.07.2021
1997 Clouds 21 1019 87 10000 3.6 230 11:57 03.07.2021
1998 Drizzle 20 1018 93 10000 3.09 250 09:28 03.07.2021
1999 Drizzle 20 1018 91 2500 2.06 260 08:45 03.07.2021
2000 Clouds 20 1018 81 10000 3.6 290 23:48 02.07.2021
2001 Clear 21 1018 62 10000 3.09 330 10:33 02.07.2021
2002 Clear 16 1016 71 10000 2.57 310 07:29 02.07.2021
2003 Clear 17 1018 73 10000 4.12 330 03:23 02.07.2021
2004 Clouds 18 1017 74 10000 6.69 310 22:32 01.07.2021
2005 Clear 21 1016 63 10000 4.12 300 21:37 01.07.2021
2006 Clear 24 1016 55 10000 4.63 300 20:22 01.07.2021
2007 Clear 25 1016 51 10000 4.12 300 19:21 01.07.2021
2008 Clear 25 1016 48 10000 5.14 310 18:48 01.07.2021
2009 Clear 26 1016 44 10000 4.12 330 17:48 01.07.2021
2010 Clear 25 1016 47 10000 4.12 320 16:43 01.07.2021
2011 Clear 25 1018 48 10000 1.54 0 15:24 01.07.2021
2012 Clear 24 1018 51 10000 2.57 130 14:21 01.07.2021
2013 Clear 19 1018 69 10000 4.63 330 10:55 01.07.2021
2014 Clouds 15 1016 80 10000 5.14 310 05:32 01.07.2021
2015 Clouds 16 1016 78 10000 6.17 330 23:19 30.06.2021
2016 Clouds 17 1016 74 10000 5.14 330 21:59 30.06.2021
2017 Clouds 19 1016 70 10000 6.17 320 21:21 30.06.2021
2018 Clouds 21 1015 64 10000 5.14 310 20:26 30.06.2021
2019 Clouds 24 1016 54 10000 4.12 310 17:21 30.06.2021
2020 Clouds 22 1017 61 10000 5.14 320 14:25 30.06.2021
2021 Clouds 22 1017 61 10000 5.14 320 14:25 30.06.2021
2022 Clouds 21 1017 62 10000 5.14 320 12:59 30.06.2021
2023 Clouds 15 1016 100 10000 5.66 340 07:57 30.06.2021
2024 Clouds 18 1018 67 10000 8.23 330 21:29 29.06.2021
2025 Clouds 21 1018 54 10000 6.69 320 18:36 29.06.2021
2026 Clouds 21 1018 54 10000 6.69 320 18:36 29.06.2021
2027 Clouds 21 1018 53 10000 7.72 330 17:30 29.06.2021
2028 Clear 22 1018 52 10000 7.2 330 15:52 29.06.2021
2029 Clouds 22 1019 49 10000 6.69 340 14:58 29.06.2021
2030 Clear 22 1019 49 10000 6.69 360 13:30 29.06.2021
2031 Clouds 20 1019 55 10000 7.2 340 12:19 29.06.2021
2032 Clouds 17 1022 73 10000 5.14 350 00:41 29.06.2021
2033 Clouds 18 1019 70 10000 7.72 340 21:47 28.06.2021
2034 Clouds 20 1019 57 10000 9.77 330 19:40 28.06.2021
2035 Clouds 22 1020 52 10000 7.72 350 17:29 28.06.2021
2036 Clouds 22 1020 53 10000 8.75 360 15:22 28.06.2021
2037 Clouds 20 1020 57 10000 8.75 350 12:58 28.06.2021
2038 Clouds 15 1019 79 10000 6.17 340 07:50 28.06.2021
2039 Clouds 16 1019 68 10000 4.12 340 23:45 27.06.2021
2040 Clouds 18 1018 66 10000 6.69 330 21:33 27.06.2021
2041 Clouds 21 1017 57 10000 5.66 350 19:40 27.06.2021
2042 Clouds 22 1018 60 10000 6.17 320 16:51 27.06.2021
2043 Clouds 21 1017 66 10000 4.63 330 13:31 27.06.2021
2044 Clouds 16 1015 79 10000 5.66 340 07:38 27.06.2021
2045 Clouds 18 1016 72 10000 4.12 320 22:58 26.06.2021
2046 Clouds 20 1015 68 10000 5.14 300 21:19 26.06.2021
2047 Clouds 21 1015 63 10000 5.14 300 20:40 26.06.2021
2048 Clouds 22 1015 59 10000 5.14 300 19:25 26.06.2021
2049 Clear 24 1015 54 10000 4.63 260 15:29 26.06.2021
2050 Clear 23 1017 59 10000 3.09 330 12:29 26.06.2021
2051 Clouds 18 1017 78 10000 2.57 320 09:29 26.06.2021
2052 Clear 17 1015 80 10000 2.57 270 05:41 26.06.2021
2053 Clear 25 1014 54 10000 6.69 310 21:21 25.06.2021
2054 Clear 28 1014 46 10000 5.66 310 19:44 25.06.2021
2055 Clear 30 1014 39 10000 5.14 320 17:53 25.06.2021
2056 Clear 29 1015 41 10000 3.6 270 16:51 25.06.2021
2057 Clear 29 1015 41 10000 2.06 0 14:59 25.06.2021
2058 Clear 28 1015 39 10000 3.09 110 13:18 25.06.2021
2059 Clear 22 1016 54 10000 1.03 0 09:35 25.06.2021
2060 Clear 20 1014 60 10000 3.09 320 07:21 25.06.2021
2061 Clear 21 1015 53 10000 2.06 330 03:55 25.06.2021
2062 Clear 25 1015 45 10000 5.66 330 22:48 24.06.2021
2063 Clear 25 1015 45 10000 5.66 330 22:48 24.06.2021
2064 Clear 27 1015 45 10000 6.17 330 21:47 24.06.2021
2065 Clear 29 1015 40 10000 4.63 300 20:41 24.06.2021
2066 Clear 30 1015 37 10000 4.12 290 18:51 24.06.2021
2067 Clear 29 1016 32 10000 2.57 0 16:37 24.06.2021
2068 Clear 28 1016 35 10000 3.09 110 15:22 24.06.2021
2069 Clear 28 1016 37 10000 2.57 0 14:49 24.06.2021
2070 Clear 25 1018 44 10000 4.63 60 12:25 24.06.2021
2071 Clouds 18 1017 71 10000 3.6 330 09:36 24.06.2021
2072 Clouds 16 1016 79 10000 4.12 320 08:24 24.06.2021
2073 Clear 16 1015 77 10000 5.14 310 05:41 24.06.2021
2074 Clear 17 1017 68 10000 5.14 320 23:28 23.06.2021
2075 Clear 19 1016 63 10000 6.17 330 21:46 23.06.2021
2076 Clouds 21 1017 55 10000 6.69 330 20:55 23.06.2021
2077 Clouds 23 1016 53 10000 6.69 310 18:40 23.06.2021
2078 Clouds 24 1016 50 10000 5.14 310 17:40 23.06.2021
2079 Clouds 24 1016 50 10000 5.66 330 16:51 23.06.2021
2080 Clear 24 1018 51 10000 3.6 320 14:30 23.06.2021
2081 Clouds 22 1019 57 10000 3.6 330 12:26 23.06.2021
2082 Clouds 19 1019 67 10000 5.14 320 10:39 23.06.2021
2083 Clouds 16 1018 76 10000 5.66 320 08:52 23.06.2021
2084 Clouds 16 1018 78 10000 6.69 320 08:27 23.06.2021
2085 Clouds 16 1016 81 10000 7.2 330 07:48 23.06.2021
2086 Clear 16 1017 80 10000 6.17 320 04:34 23.06.2021
2087 Clouds 17 1020 76 10000 4.12 310 00:47 23.06.2021
2088 Clouds 17 1018 79 10000 2.06 0 23:58 22.06.2021
2089 Clouds 17 1018 76 10000 9.26 340 22:47 22.06.2021
2090 Clouds 17 1017 74 10000 10.29 340 22:29 22.06.2021
2091 Clouds 18 1017 71 10000 9.26 350 21:39 22.06.2021
2092 Clouds 20 1016 67 10000 9.26 330 19:57 22.06.2021
2093 Clouds 21 1016 64 10000 9.77 340 18:57 22.06.2021
2094 Clouds 21 1016 65 10000 10.29 330 18:26 22.06.2021
2095 Clouds 21 1017 64 10000 9.26 340 17:22 22.06.2021
2096 Clouds 22 1017 62 10000 9.26 340 16:38 22.06.2021
2097 Clouds 21 1018 59 10000 7.72 340 14:44 22.06.2021
2098 Clouds 21 1018 58 10000 7.72 340 14:21 22.06.2021
2099 Clouds 21 1018 59 10000 7.72 330 12:59 22.06.2021
2100 Clouds 20 1017 66 10000 6.69 360 11:51 22.06.2021
2101 Clouds 18 1017 72 10000 7.2 350 10:31 22.06.2021
2102 Clouds 17 1018 79 10000 5.66 340 07:56 22.06.2021
2103 Clouds 17 1018 79 10000 4.63 320 00:50 22.06.2021
2104 Clouds 17 1018 78 10000 5.14 320 23:29 21.06.2021
2105 Clouds 17 1017 74 10000 5.66 320 22:29 21.06.2021
2106 Clouds 19 1016 71 10000 4.63 290 21:28 21.06.2021
2107 Clouds 19 1016 69 10000 4.63 300 20:46 21.06.2021
2108 Clouds 20 1016 65 10000 5.14 310 19:55 21.06.2021
2109 Clouds 20 1016 67 10000 4.63 300 18:57 21.06.2021
2110 Clouds 20 1015 67 10000 4.63 300 17:36 21.06.2021
2111 Clouds 20 1015 67 10000 5.66 290 16:46 21.06.2021
2112 Clouds 20 1015 67 10000 4.63 300 16:25 21.06.2021
2113 Clouds 20 1015 69 10000 4.12 300 15:45 21.06.2021
2114 Clouds 20 1016 68 10000 3.6 300 14:18 21.06.2021
2115 Clouds 20 1015 64 10000 4.12 310 13:34 21.06.2021
2116 Clouds 20 1015 64 10000 4.12 310 12:36 21.06.2021
2117 Clouds 20 1015 65 10000 4.12 300 11:52 21.06.2021
2118 Clouds 18 1015 76 10000 3.6 260 10:31 21.06.2021
2119 Clouds 18 1014 79 10000 4.12 270 09:29 21.06.2021
2120 Clouds 17 1014 80 10000 3.09 290 08:22 21.06.2021
2121 Clouds 17 1014 80 10000 3.6 260 07:20 21.06.2021
2122 Clouds 18 1015 74 10000 2.57 270 00:43 21.06.2021
2123 Clouds 18 1015 74 10000 4.12 260 23:35 20.06.2021
2124 Clouds 18 1014 72 10000 4.12 280 22:58 20.06.2021
2125 Clouds 18 1014 71 10000 4.12 270 22:18 20.06.2021
2126 Clouds 19 1014 68 10000 4.63 290 21:28 20.06.2021
2127 Clouds 20 1014 64 10000 6.17 280 19:47 20.06.2021
2128 Clouds 20 1013 67 10000 5.14 240 19:24 20.06.2021
2129 Clouds 21 1014 62 10000 6.17 270 18:21 20.06.2021
2130 Clouds 21 1012 59 10000 4.63 290 16:52 20.06.2021
2131 Clouds 21 1012 59 10000 4.12 290 15:55 20.06.2021
2132 Clouds 21 1012 58 10000 5.14 290 15:33 20.06.2021
2133 Clouds 21 1012 60 10000 5.66 310 14:48 20.06.2021
2134 Clouds 21 1012 61 10000 5.14 290 13:51 20.06.2021
2135 Clouds 20 1012 71 10000 5.14 290 12:58 20.06.2021
2136 Clouds 19 1012 76 10000 3.09 280 11:46 20.06.2021
2137 Clouds 18 1014 84 10000 4.63 300 10:46 20.06.2021
2138 Drizzle 17 1011 91 2500 5.14 250 09:47 20.06.2021
2139 Mist 17 1010 91 1200 7.2 220 07:47 20.06.2021
2140 Clouds 16 1016 74 10000 3.6 250 00:31 20.06.2021
2141 Clear 16 1015 73 10000 4.12 250 23:20 19.06.2021
2142 Clouds 17 1015 68 10000 3.6 280 21:59 19.06.2021
2143 Clouds 17 1016 68 10000 3.6 290 21:39 19.06.2021
2144 Clouds 19 1015 65 10000 6.17 320 18:56 19.06.2021
2145 Clouds 19 1015 65 10000 5.14 300 18:25 19.06.2021
2146 Clouds 20 1015 65 10000 6.17 310 17:27 19.06.2021
2147 Clouds 20 1015 62 10000 4.63 290 16:51 19.06.2021
2148 Clouds 20 1015 62 10000 5.66 300 15:42 19.06.2021
2149 Clouds 19 1016 69 10000 5.66 320 13:36 19.06.2021
2150 Clouds 18 1015 74 10000 5.66 330 12:40 19.06.2021
2151 Drizzle 17 1015 83 10000 3.6 320 10:49 19.06.2021
2152 Drizzle 17 1015 83 10000 3.6 320 10:49 19.06.2021
2153 Drizzle 17 1015 83 10000 3.6 320 10:49 19.06.2021
2154 Drizzle 17 1015 83 10000 3.6 320 10:49 19.06.2021
2155 Drizzle 17 1015 83 10000 3.6 320 10:49 19.06.2021
2156 Drizzle 17 1015 83 10000 3.6 320 10:49 19.06.2021
2157 Drizzle 17 1015 83 10000 3.6 320 10:49 19.06.2021
2158 Clouds 16 1015 85 8000 3.09 310 10:27 19.06.2021
2159 Clouds 16 1017 83 7000 3.09 310 09:59 19.06.2021
2160 Clouds 16 1017 84 7000 2.57 310 08:32 19.06.2021
2161 Drizzle 16 1016 84 10000 4.12 300 07:37 19.06.2021
2162 Drizzle 16 1016 79 10000 4.63 290 04:27 19.06.2021
2163 Mist 16 1014 83 10000 4.63 320 00:24 19.06.2021
2164 Clouds 16 1014 83 10000 4.63 310 23:58 18.06.2021
2165 Clouds 16 1013 83 10000 5.66 300 22:57 18.06.2021
2166 Clouds 16 1013 83 10000 4.63 310 22:36 18.06.2021
2167 Clouds 16 1012 83 10000 5.14 300 21:52 18.06.2021
2168 Clouds 16 1012 82 10000 5.66 310 21:27 18.06.2021
2169 Clouds 17 1011 81 10000 5.66 290 20:33 18.06.2021
2170 Clouds 19 1010 75 10000 5.14 290 18:50 18.06.2021
2171 Clouds 19 1011 74 10000 4.12 290 17:59 18.06.2021
2172 Clouds 20 1010 66 10000 3.6 220 16:48 18.06.2021
2173 Clouds 20 1011 67 10000 4.12 200 15:49 18.06.2021
2174 Clouds 20 1011 68 10000 4.12 210 14:51 18.06.2021
2175 Clouds 18 1011 74 10000 2.06 120 13:56 18.06.2021
2176 Clouds 18 1011 75 10000 3.6 250 13:23 18.06.2021
2177 Clouds 18 1014 73 10000 3.09 250 12:43 18.06.2021
2178 Clouds 17 1011 80 10000 2.57 330 11:48 18.06.2021
2179 Clouds 17 1011 78 10000 3.6 270 11:19 18.06.2021
2180 Clouds 17 1011 78 10000 3.6 320 10:42 18.06.2021
2181 Clouds 17 1011 79 10000 3.6 320 10:19 18.06.2021
2182 Clouds 16 1011 81 10000 2.57 0 09:23 18.06.2021
2183 Clouds 15 1013 88 10000 3.09 300 08:38 18.06.2021
2184 Clouds 16 1010 83 10000 3.09 310 07:43 18.06.2021
2185 Clouds 16 1009 82 10000 3.6 300 06:30 18.06.2021
2186 Clouds 16 1009 82 10000 3.6 300 06:30 18.06.2021
2187 Rain 16 1012 80 10000 6.17 340 00:40 18.06.2021
2188 Clouds 16 1012 81 10000 6.17 330 23:33 17.06.2021
2189 Drizzle 16 1012 82 10000 6.17 330 22:41 17.06.2021
2190 Drizzle 17 1012 82 10000 6.17 330 22:22 17.06.2021
2191 Clouds 17 1011 81 10000 7.2 330 21:37 17.06.2021
2192 Clouds 18 1011 77 10000 5.66 330 20:48 17.06.2021
2193 Clouds 18 1011 77 10000 5.66 330 20:23 17.06.2021
2194 Clouds 18 1011 76 10000 4.63 310 19:45 17.06.2021
2195 Clouds 19 1010 77 10000 6.69 340 18:24 17.06.2021
2196 Clouds 19 1010 76 10000 5.14 320 17:41 17.06.2021
2197 Clouds 19 1012 73 10000 5.14 320 17:18 17.06.2021
2198 Clouds 20 1010 74 10000 6.17 330 16:24 17.06.2021
2199 Clouds 20 1010 78 10000 3.6 320 14:58 17.06.2021
2200 Clouds 19 1010 76 10000 5.14 320 13:59 17.06.2021
2201 Drizzle 19 1009 82 9000 4.63 340 12:41 17.06.2021
2202 Drizzle 19 1009 81 9000 4.63 340 12:22 17.06.2021
2203 Drizzle 18 1010 86 6000 2.06 340 10:54 17.06.2021
2204 Drizzle 18 1009 85 6000 1.54 310 10:30 17.06.2021
2205 Drizzle 18 1009 85 6000 1.54 310 10:30 17.06.2021
2206 Rain 18 1009 86 7000 2.06 310 09:50 17.06.2021
2207 Rain 18 1009 87 7000 1.54 340 09:22 17.06.2021
2208 Clouds 18 1008 86 7000 1.54 90 07:59 17.06.2021
2209 Clouds 18 1008 85 10000 2.06 30 06:49 17.06.2021
2210 Clouds 18 1008 83 10000 1.54 230 03:45 17.06.2021
2211 Clouds 19 1010 81 10000 3.09 250 23:50 16.06.2021
2212 Clouds 19 1010 80 10000 3.09 240 23:27 16.06.2021
2213 Clouds 19 1009 77 10000 2.06 240 22:36 16.06.2021
2214 Clouds 20 1009 74 10000 3.09 230 21:47 16.06.2021
2215 Clouds 20 1009 73 10000 4.12 240 21:22 16.06.2021
2216 Clouds 20 1011 60 10000 4.63 220 20:45 16.06.2021
2217 Clouds 21 1009 68 10000 4.12 210 20:19 16.06.2021
2218 Clouds 22 1009 66 10000 5.14 220 19:43 16.06.2021
2219 Clouds 23 1009 65 10000 5.66 220 18:58 16.06.2021
2220 Clouds 23 1009 64 10000 4.63 240 18:32 16.06.2021
2221 Clouds 23 1009 63 10000 4.12 230 17:53 16.06.2021
2222 Clouds 23 1009 63 10000 4.12 230 17:53 16.06.2021
2223 Clouds 23 1009 63 10000 4.63 240 17:26 16.06.2021
2224 Clouds 22 1010 66 10000 5.14 210 16:44 16.06.2021
2225 Clouds 22 1010 66 10000 5.14 210 16:44 16.06.2021
2226 Clouds 22 1010 66 10000 5.14 210 16:44 16.06.2021
2227 Clouds 22 1010 66 10000 5.14 210 16:44 16.06.2021
2228 Clouds 22 1009 66 10000 5.14 210 16:21 16.06.2021
2229 Clouds 22 1010 69 10000 4.63 220 15:39 16.06.2021
2230 Clouds 22 1012 65 10000 4.12 230 14:51 16.06.2021
2231 Clouds 21 1012 60 10000 3.6 190 14:33 16.06.2021
2232 Clouds 21 1010 69 10000 4.12 170 13:57 16.06.2021
2233 Clouds 21 1010 70 10000 4.63 180 13:39 16.06.2021
2234 Clouds 21 1010 70 10000 4.63 180 13:20 16.06.2021
2235 Clouds 21 1010 70 10000 4.63 180 13:20 16.06.2021
2236 Clouds 21 1010 74 10000 4.12 170 12:33 16.06.2021
2237 Clouds 20 1010 79 10000 4.12 180 11:51 16.06.2021
2238 Clouds 19 1010 81 10000 3.6 160 11:18 16.06.2021
2239 Mist 18 1010 85 8000 3.09 170 10:40 16.06.2021
2240 Mist 18 1010 87 5000 3.09 150 09:43 16.06.2021
2241 Drizzle 17 1010 88 5000 1.54 180 08:44 16.06.2021
2242 Drizzle 17 1009 86 9000 2.57 200 07:49 16.06.2021
2243 Clouds 17 1009 86 10000 2.06 230 07:28 16.06.2021
2244 Clouds 18 1010 87 7000 6.17 210 02:49 16.06.2021
2245 Clouds 19 1012 78 10000 4.12 230 23:51 15.06.2021
2246 Clear 19 1010 79 10000 3.6 240 23:24 15.06.2021
2247 Clear 20 1010 75 10000 2.57 210 22:56 15.06.2021
2248 Clear 20 1010 75 10000 2.57 210 22:56 15.06.2021
2249 Clouds 20 1010 74 10000 0.51 0 22:37 15.06.2021
2250 Clouds 21 1010 70 10000 2.06 310 21:42 15.06.2021
2251 Clouds 23 1011 57 10000 4.12 310 20:48 15.06.2021
2252 Clouds 24 1009 60 10000 5.66 240 19:38 15.06.2021
2253 Clouds 26 1010 56 10000 4.63 230 18:32 15.06.2021
2254 Clear 26 1011 55 10000 5.14 230 16:54 15.06.2021
2255 Clear 27 1011 57 10000 5.14 230 16:25 15.06.2021
2256 Clear 27 1011 55 10000 2.57 90 15:39 15.06.2021
2257 Clear 27 1012 56 10000 2.57 100 14:46 15.06.2021
2258 Clear 27 1012 55 10000 3.6 120 13:45 15.06.2021
2259 Clear 27 1012 55 10000 2.06 230 13:21 15.06.2021
2260 Clear 26 1013 58 10000 2.06 0 12:45 15.06.2021
2261 Clear 25 1013 66 10000 2.06 80 11:51 15.06.2021
2262 Clear 24 1013 68 10000 1.54 0 11:19 15.06.2021
2263 Clear 23 1013 70 10000 2.57 10 10:53 15.06.2021
2264 Clear 21 1013 78 10000 2.57 10 10:34 15.06.2021
2265 Clouds 19 1015 79 10000 4.63 320 09:40 15.06.2021
2266 Fog 17 1013 84 10000 2.57 310 08:29 15.06.2021
2267 Fog 17 1012 82 10000 0 0 07:46 15.06.2021
2268 Clear 17 1012 82 10000 1.03 0 06:38 15.06.2021
2269 Clear 18 1013 80 10000 4.63 310 04:36 15.06.2021
2270 Clear 19 1015 76 10000 3.09 340 00:49 15.06.2021
2271 Clouds 20 1015 75 10000 4.63 320 00:25 15.06.2021
2272 Clouds 20 1015 77 10000 5.14 320 23:28 14.06.2021
2273 Clouds 20 1014 75 10000 6.17 310 22:43 14.06.2021
2274 Clouds 21 1015 70 10000 6.69 310 22:21 14.06.2021
2275 Clear 22 1014 66 10000 6.17 320 21:48 14.06.2021
2276 Clear 23 1015 63 10000 6.17 310 21:25 14.06.2021
2277 Clear 23 1014 61 10000 6.17 310 20:55 14.06.2021
2278 Clear 24 1014 62 10000 6.17 310 20:26 14.06.2021
2279 Clear 25 1015 63 10000 5.14 300 19:40 14.06.2021
2280 Clear 25 1015 62 10000 5.14 300 19:19 14.06.2021
2281 Clouds 26 1015 61 10000 5.14 300 18:43 14.06.2021
2282 Clouds 26 1015 60 10000 4.12 310 18:19 14.06.2021
2283 Clouds 27 1016 56 10000 3.6 180 17:30 14.06.2021
2284 Clouds 27 1016 56 10000 3.6 180 17:30 14.06.2021
2285 Clouds 27 1016 56 10000 3.6 170 16:36 14.06.2021
2286 Clouds 26 1017 57 10000 3.09 0 15:50 14.06.2021
2287 Clouds 26 1017 58 10000 3.6 170 15:31 14.06.2021
2288 Clouds 25 1017 59 10000 4.12 150 14:51 14.06.2021
2289 Clouds 26 1017 60 10000 2.57 0 13:44 14.06.2021
2290 Clouds 25 1017 62 10000 2.57 0 12:55 14.06.2021
2291 Clouds 25 1017 63 10000 2.06 100 12:37 14.06.2021
2292 Clear 24 1019 64 10000 1.03 0 11:51 14.06.2021
2293 Clear 21 1020 72 10000 2.06 150 10:57 14.06.2021
2294 Clear 20 1017 78 10000 0.51 0 09:46 14.06.2021
2295 Clear 19 1017 80 10000 2.06 330 09:25 14.06.2021
2296 Clear 17 1019 94 10000 3.6 310 08:42 14.06.2021
2297 Clouds 17 1016 85 10000 3.6 320 07:52 14.06.2021
2298 Clear 17 1016 85 10000 4.12 310 06:44 14.06.2021
2299 Clear 18 1016 79 10000 0.51 0 04:55 14.06.2021
2300 Clear 20 1017 71 10000 3.09 310 00:53 14.06.2021
2301 Clear 20 1017 72 10000 3.09 310 23:55 13.06.2021
2302 Clouds 21 1017 72 10000 3.6 330 23:23 13.06.2021
2303 Clouds 21 1017 69 10000 3.6 330 22:40 13.06.2021
2304 Clouds 21 1017 69 10000 3.6 330 22:19 13.06.2021
2305 Clear 22 1016 67 10000 4.12 330 21:48 13.06.2021
2306 Clear 22 1016 65 10000 4.12 320 21:30 13.06.2021
2307 Clear 22 1016 65 10000 4.12 320 21:30 13.06.2021
2308 Clear 22 1016 65 10000 4.12 320 21:30 13.06.2021
2309 Clear 22 1016 65 10000 4.12 320 21:30 13.06.2021
2310 Clouds 23 1016 63 10000 3.6 280 20:46 13.06.2021
2311 Clouds 23 1016 63 10000 4.63 260 20:28 13.06.2021
2312 Clouds 23 1016 64 10000 4.12 290 19:44 13.06.2021
2313 Clouds 24 1016 63 10000 4.12 300 19:25 13.06.2021
2314 Clouds 24 1016 62 10000 3.09 280 18:44 13.06.2021
2315 Clouds 24 1015 62 10000 4.12 270 18:20 13.06.2021
2316 Clouds 24 1016 62 10000 6.17 220 17:25 13.06.2021
2317 Clouds 24 1016 62 10000 4.63 230 16:34 13.06.2021
2318 Clouds 24 1016 65 10000 4.63 240 15:36 13.06.2021
2319 Clouds 24 1017 63 10000 3.6 230 14:41 13.06.2021
2320 Clouds 24 1017 64 10000 3.6 220 13:51 13.06.2021
2321 Clouds 24 1017 64 10000 3.09 0 13:24 13.06.2021
2322 Clouds 24 1016 68 10000 3.09 0 12:51 13.06.2021
2323 Clouds 22 1016 69 10000 2.57 0 12:28 13.06.2021
2324 Clouds 22 1017 74 10000 5.14 180 11:41 13.06.2021
2325 Fog 21 1017 79 10000 4.12 190 10:48 13.06.2021
2326 Fog 21 1017 79 10000 4.12 190 10:48 13.06.2021
2327 Mist 19 1017 84 10000 3.09 170 10:21 13.06.2021
2328 Fog 18 1016 88 10000 1.54 150 09:46 13.06.2021
2329 Fog 18 1016 86 10000 1.03 0 09:25 13.06.2021
2330 Clear 17 1018 94 10000 1.54 100 08:49 13.06.2021
2331 Clouds 17 1016 86 10000 1.54 70 08:29 13.06.2021
2332 Clouds 17 1015 86 10000 2.06 20 07:26 13.06.2021
2333 Clouds 19 1013 77 10000 1.54 250 03:31 13.06.2021
2334 Clouds 20 1014 72 10000 4.12 330 23:31 12.06.2021
2335 Clouds 21 1014 72 10000 3.09 320 22:49 12.06.2021
2336 Clouds 21 1014 71 10000 3.09 310 22:22 12.06.2021
2337 Clouds 22 1013 70 10000 3.6 250 21:43 12.06.2021
2338 Clouds 22 1014 71 10000 4.63 240 20:48 12.06.2021
2339 Clouds 22 1014 69 10000 6.17 250 20:20 12.06.2021
2340 Clouds 22 1013 70 10000 7.2 250 19:47 12.06.2021
2341 Clouds 22 1016 72 10000 8.75 210 18:44 12.06.2021
2342 Clouds 26 1015 59 10000 3.09 0 18:00 12.06.2021
2343 Clouds 24 1015 62 10000 2.06 130 17:31 12.06.2021
2344 Clouds 26 1013 57 10000 2.06 0 16:45 12.06.2021
2345 Clouds 27 1014 54 10000 3.09 90 15:39 12.06.2021
2346 Clouds 26 1014 56 10000 2.06 130 14:50 12.06.2021
2347 Clouds 25 1014 59 10000 2.57 120 14:30 12.06.2021
2348 Clouds 25 1014 61 10000 3.09 110 13:26 12.06.2021
2349 Clouds 23 1013 68 10000 3.6 90 12:39 12.06.2021
2350 Clouds 23 1014 70 10000 3.6 90 12:21 12.06.2021
2351 Clouds 22 1014 76 10000 3.09 50 11:31 12.06.2021
2352 Mist 21 1013 74 3000 3.09 70 10:42 12.06.2021
2353 Mist 19 1013 81 5000 3.6 60 10:24 12.06.2021
2354 Fog 18 1015 85 6000 3.09 20 09:40 12.06.2021
2355 Fog 16 1012 87 10000 1.54 0 08:25 12.06.2021
2356 Clouds 16 1011 85 10000 2.06 300 06:52 12.06.2021
2357 Clouds 17 1011 84 10000 3.6 310 03:57 12.06.2021
2358 Clouds 18 1012 82 10000 5.66 310 23:37 11.06.2021
2359 Clouds 18 1012 79 10000 4.63 320 22:25 11.06.2021
2360 Clouds 19 1011 80 10000 4.12 320 21:49 11.06.2021
2361 Clouds 19 1011 78 10000 5.14 310 21:30 11.06.2021
2362 Clouds 20 1011 74 10000 4.63 310 20:50 11.06.2021
2363 Clear 22 1011 69 10000 4.63 310 19:59 11.06.2021
2364 Clear 23 1011 65 10000 4.63 310 18:54 11.06.2021
2365 Clear 23 1012 65 10000 4.12 290 18:32 11.06.2021
2366 Clouds 23 1012 63 10000 4.63 320 17:35 11.06.2021
2367 Clouds 24 1014 62 10000 3.6 300 16:32 11.06.2021
2368 Clouds 23 1013 65 10000 5.14 330 15:24 11.06.2021
2369 Clouds 23 1013 65 10000 4.63 330 14:32 11.06.2021
2370 Clouds 22 1013 67 10000 4.63 330 13:33 11.06.2021
2371 Clouds 20 1013 73 10000 4.63 330 12:27 11.06.2021
2372 Clouds 19 1013 77 10000 2.57 310 11:37 11.06.2021
2373 Clouds 18 1016 80 10000 3.6 320 10:57 11.06.2021
2374 Clouds 17 1015 80 10000 3.6 310 09:33 11.06.2021
2375 Clouds 16 1015 88 10000 3.09 300 08:47 11.06.2021
2376 Clouds 16 1015 82 10000 4.12 330 07:39 11.06.2021
2377 Clouds 17 1016 80 10000 8.23 310 04:27 11.06.2021
2378 Clouds 17 1013 79 10000 8.23 320 23:43 10.06.2021
2379 Clouds 18 1014 77 10000 7.72 330 22:42 10.06.2021
2380 Clear 19 1014 71 10000 8.75 330 21:58 10.06.2021
2381 Clear 20 1014 64 10000 6.69 320 21:22 10.06.2021
2382 Clear 21 1014 63 10000 7.2 310 20:48 10.06.2021
2383 Clear 23 1014 57 10000 7.72 320 19:42 10.06.2021
2384 Clear 24 1014 55 10000 8.23 320 19:18 10.06.2021
2385 Clear 24 1015 52 10000 7.72 320 18:29 10.06.2021
2386 Clear 25 1015 49 10000 8.75 330 17:46 10.06.2021
2387 Clear 26 1017 45 10000 7.2 320 16:54 10.06.2021
2388 Clear 26 1017 47 10000 6.69 320 16:32 10.06.2021
2389 Clear 27 1017 46 10000 5.14 320 15:20 10.06.2021
2390 Clouds 25 1016 60 10000 6.69 340 13:23 10.06.2021
2391 Clouds 22 1016 68 10000 5.66 320 12:26 10.06.2021
2392 Clouds 21 1018 68 10000 3.6 310 11:26 10.06.2021
2393 Clouds 20 1016 75 10000 4.12 320 10:28 10.06.2021
2394 Clear 17 1014 77 10000 6.69 310 06:30 10.06.2021
2395 Clear 19 1018 65 10000 7.2 340 00:25 10.06.2021
2396 Clear 20 1018 64 10000 4.12 340 23:43 09.06.2021
2397 Clear 21 1017 60 10000 8.23 330 22:28 09.06.2021
2398 Clear 22 1017 54 10000 6.69 320 21:43 09.06.2021
2399 Clear 23 1017 54 10000 6.69 320 21:23 09.06.2021
2400 Clear 24 1017 50 10000 6.17 310 20:35 09.06.2021
2401 Clear 25 1017 46 10000 6.69 320 19:48 09.06.2021
2402 Clear 26 1017 44 10000 7.72 330 18:47 09.06.2021
2403 Clear 29 1018 39 10000 5.66 340 15:58 09.06.2021
2404 Clear 29 1018 40 10000 4.63 350 15:32 09.06.2021
2405 Clear 27 1019 41 10000 6.17 330 14:34 09.06.2021
2406 Clear 27 1019 41 10000 5.66 350 13:33 09.06.2021
2407 Clear 26 1019 42 10000 5.66 350 12:54 09.06.2021
2408 Clear 25 1019 43 10000 7.72 350 12:34 09.06.2021
2409 Clear 22 1020 49 10000 6.17 330 10:49 09.06.2021
2410 Clear 22 1020 49 10000 6.17 330 10:49 09.06.2021
2411 Clear 18 1018 66 10000 8.23 330 08:57 09.06.2021
2412 Clear 17 1017 70 10000 5.14 330 08:31 09.06.2021
2413 Clear 17 1017 67 10000 7.2 330 06:38 09.06.2021
2414 Clear 18 1018 57 10000 6.69 350 00:19 09.06.2021
2415 Clear 18 1017 61 10000 6.69 330 22:54 08.06.2021
2416 Clear 18 1017 61 10000 8.23 330 22:29 08.06.2021
2417 Clear 23 1017 45 10000 7.72 330 20:54 08.06.2021
2418 Clear 25 1017 38 10000 6.69 320 19:28 08.06.2021
2419 Clear 26 1017 38 10000 7.72 330 17:51 08.06.2021
2420 Clear 26 1018 38 10000 7.72 330 16:53 08.06.2021
2421 Clear 26 1018 43 10000 6.17 340 15:27 08.06.2021
2422 Clear 26 1018 43 10000 6.17 340 15:27 08.06.2021
2423 Clear 24 1018 47 10000 4.12 330 13:32 08.06.2021
2424 Clear 19 1020 61 10000 6.17 320 10:59 08.06.2021
2425 Clouds 14 1020 79 10000 6.17 320 07:33 08.06.2021
2426 Clear 15 1020 78 10000 5.14 330 04:25 08.06.2021
2427 Clouds 16 1018 77 10000 5.66 330 23:51 07.06.2021
2428 Clear 20 1019 65 10000 6.69 310 20:40 07.06.2021
2429 Clear 22 1019 57 10000 5.66 320 18:50 07.06.2021
2430 Clear 25 1020 48 10000 4.63 310 15:58 07.06.2021
2431 Clear 23 1020 57 10000 4.63 330 13:48 07.06.2021
2432 Clouds 20 1020 66 10000 5.66 340 11:38 07.06.2021
2433 Clouds 18 1020 72 10000 4.63 330 10:23 07.06.2021
2434 Clouds 17 1020 74 10000 4.12 330 09:52 07.06.2021
2435 Clouds 17 1020 75 10000 5.66 320 09:22 07.06.2021
2436 Clear 15 1019 82 10000 5.66 310 07:40 07.06.2021
2437 Clouds 18 1020 71 10000 7.2 310 21:50 06.06.2021
2438 Clouds 21 1020 60 10000 7.2 320 20:40 06.06.2021
2439 Clouds 24 1020 52 10000 6.69 320 18:21 06.06.2021
2440 Clouds 24 1021 51 10000 6.17 320 17:19 06.06.2021
2441 Clear 24 1022 41 10000 6.17 350 14:31 06.06.2021
2442 Clear 21 1023 58 10000 5.14 330 12:28 06.06.2021
2443 Clouds 20 1023 62 10000 4.12 320 11:50 06.06.2021
2444 Clouds 18 1022 71 10000 4.12 330 10:24 06.06.2021
2445 Clouds 17 1022 75 10000 4.12 330 09:29 06.06.2021
2446 Clouds 16 1022 77 10000 3.09 320 08:57 06.06.2021
2447 Clouds 15 1022 81 10000 4.12 340 07:44 06.06.2021
2448 Clouds 16 1022 79 10000 6.17 330 04:24 06.06.2021
2449 Clouds 17 1022 66 10000 6.17 320 23:19 05.06.2021
2450 Clouds 18 1022 67 10000 7.2 330 22:20 05.06.2021
2451 Clear 21 1021 54 10000 7.72 320 20:41 05.06.2021
2452 Clear 22 1021 52 10000 7.2 320 19:37 05.06.2021
2453 Clear 24 1021 51 10000 5.14 310 16:57 05.06.2021
2454 Clear 23 1021 53 10000 5.14 310 15:56 05.06.2021
2455 Clouds 22 1022 58 10000 5.14 320 13:40 05.06.2021
2456 Clouds 20 1022 64 10000 5.14 320 11:43 05.06.2021
2457 Clouds 18 1022 73 10000 5.14 310 10:24 05.06.2021
2458 Clouds 16 1021 76 10000 6.69 320 09:21 05.06.2021
2459 Clouds 15 1021 79 10000 7.2 320 06:27 05.06.2021
2460 Clear 16 1021 64 10000 7.72 320 22:49 04.06.2021
2461 Clear 17 1021 63 10000 9.26 330 22:20 04.06.2021
2462 Clouds 18 1021 59 10000 7.2 320 21:20 04.06.2021
2463 Clouds 20 1021 48 10000 8.75 330 19:41 04.06.2021
2464 Clouds 21 1021 46 10000 7.72 320 18:26 04.06.2021
2465 Clear 22 1021 40 10000 9.26 350 16:50 04.06.2021
2466 Clear 22 1021 40 10000 8.23 330 15:34 04.06.2021
2467 Clouds 19 1023 50 10000 7.2 340 11:50 04.06.2021
2468 Clouds 16 1022 67 10000 6.17 340 09:37 04.06.2021
2469 Clouds 14 1022 76 10000 6.17 330 07:23 04.06.2021
2470 Clouds 14 1022 75 10000 4.12 350 05:53 04.06.2021
2471 Clouds 15 1021 67 10000 6.17 340 23:24 03.06.2021
2472 Clouds 17 1020 57 10000 9.77 340 20:57 03.06.2021
2473 Clouds 18 1020 54 10000 7.2 330 20:23 03.06.2021
2474 Clouds 18 1020 50 10000 9.26 340 19:48 03.06.2021
2475 Clear 20 1019 42 10000 8.23 340 17:41 03.06.2021
2476 Clouds 20 1020 39 10000 8.75 350 15:35 03.06.2021
2477 Clouds 20 1020 43 10000 8.75 350 14:43 03.06.2021
2478 Clouds 18 1020 52 10000 9.26 340 12:44 03.06.2021
2479 Clouds 15 1019 67 10000 6.17 340 09:53 03.06.2021
2480 Clouds 15 1019 68 10000 6.17 350 09:21 03.06.2021
2481 Clouds 14 1018 76 10000 4.63 360 06:48 03.06.2021
2482 Clouds 16 1018 73 10000 5.66 350 23:22 02.06.2021
2483 Clouds 17 1017 71 10000 9.26 350 21:52 02.06.2021
2484 Clouds 18 1017 69 10000 7.2 330 21:20 02.06.2021
2485 Clouds 18 1017 68 10000 8.75 330 20:40 02.06.2021
2486 Clouds 19 1016 66 10000 7.72 330 19:31 02.06.2021
2487 Clouds 20 1016 69 10000 2.57 290 16:40 02.06.2021
2488 Clouds 19 1015 75 6000 5.66 260 15:34 02.06.2021
2489 Clouds 20 1015 68 10000 1.54 0 13:26 02.06.2021
2490 Clouds 19 1015 69 10000 2.57 230 11:50 02.06.2021
2491 Clouds 18 1014 71 10000 1.54 0 10:41 02.06.2021
2492 Clouds 17 1014 76 10000 2.06 210 09:58 02.06.2021
2493 Clouds 17 1014 78 10000 2.06 230 09:38 02.06.2021
2494 Clouds 15 1014 81 10000 1.03 250 08:43 02.06.2021
2495 Clear 14 1013 83 10000 0 0 06:57 02.06.2021
2496 Clear 15 1014 79 10000 0 0 03:50 02.06.2021
2497 Clouds 17 1014 74 10000 3.09 300 23:36 01.06.2021
2498 Clouds 18 1013 67 10000 3.09 300 21:42 01.06.2021
2499 Clouds 19 1013 63 10000 3.09 290 20:42 01.06.2021
2500 Clouds 20 1013 61 10000 3.6 220 18:32 01.06.2021
2501 Clouds 20 1013 60 10000 2.57 290 17:18 01.06.2021
2502 Clouds 19 1013 65 10000 4.12 250 15:18 01.06.2021
2503 Clouds 18 1013 70 10000 3.6 240 13:19 01.06.2021
2504 Clouds 18 1009 70 10000 2.06 280 12:27 01.06.2021
2505 Clouds 18 1009 71 10000 2.57 260 11:26 01.06.2021
2506 Clouds 18 1008 71 10000 2.57 270 10:55 01.06.2021
2507 Clouds 17 1013 73 10000 3.09 260 09:57 01.06.2021
2508 Clouds 17 1013 76 10000 2.57 260 08:41 01.06.2021
2509 Clouds 17 1012 74 10000 2.06 290 07:37 01.06.2021
2510 Clouds 17 1013 77 10000 3.09 260 00:45 01.06.2021
2511 Clouds 17 1012 75 10000 4.12 270 23:39 31.05.2021
2512 Clouds 17 1012 75 10000 4.12 270 23:18 31.05.2021
2513 Clouds 17 1012 75 10000 4.12 270 23:18 31.05.2021
2514 Clouds 18 1012 75 10000 4.12 280 22:22 31.05.2021
2515 Clouds 19 1011 68 10000 4.12 280 20:42 31.05.2021
2516 Clouds 20 1011 69 10000 5.14 260 19:42 31.05.2021
2517 Clouds 21 1011 68 10000 4.12 260 18:37 31.05.2021
2518 Clouds 21 1011 65 10000 5.14 220 17:43 31.05.2021
2519 Clouds 21 1012 66 10000 4.63 210 16:40 31.05.2021
2520 Clouds 21 1012 66 10000 2.57 120 14:48 31.05.2021
2521 Clouds 21 1012 66 10000 4.12 100 13:25 31.05.2021
2522 Clouds 21 1012 69 10000 3.09 100 12:52 31.05.2021
2523 Clouds 20 1012 71 10000 1.54 0 11:56 31.05.2021
2524 Clouds 20 1012 72 10000 1.54 0 11:34 31.05.2021
2525 Clouds 18 1012 76 10000 2.57 330 10:24 31.05.2021
2526 Clouds 17 1012 81 10000 2.06 320 09:19 31.05.2021
2527 Clouds 16 1012 83 10000 1.03 0 08:21 31.05.2021
2528 Clouds 16 1011 83 10000 4.12 330 07:39 31.05.2021
2529 Clear 16 1011 84 10000 5.14 310 06:24 31.05.2021
2530 Clear 19 1013 68 10000 4.63 320 23:36 30.05.2021
2531 Clear 19 1013 66 10000 4.63 320 23:18 30.05.2021
2532 Clear 20 1013 65 10000 5.66 330 22:33 30.05.2021
2533 Clear 21 1013 63 10000 5.66 300 21:44 30.05.2021
2534 Clear 21 1013 63 10000 5.66 300 21:44 30.05.2021
2535 Clear 22 1013 60 10000 6.17 310 21:22 30.05.2021
2536 Clear 22 1013 59 10000 6.69 310 20:49 30.05.2021
2537 Clear 23 1013 58 10000 6.17 310 20:29 30.05.2021
2538 Clear 24 1013 58 10000 5.14 310 19:34 30.05.2021
2539 Clear 26 1014 49 10000 4.12 320 18:41 30.05.2021
2540 Clear 27 1014 48 10000 3.09 300 17:44 30.05.2021
2541 Clear 26 1014 50 10000 4.12 320 16:51 30.05.2021
2542 Clear 26 1014 50 10000 3.6 330 16:30 30.05.2021
2543 Clear 25 1015 52 10000 2.06 0 15:48 30.05.2021
2544 Clear 25 1015 52 10000 2.06 0 15:48 30.05.2021
2545 Clear 24 1016 55 10000 2.57 300 14:20 30.05.2021
2546 Clouds 22 1016 63 10000 2.57 330 12:56 30.05.2021
2547 Clouds 19 1016 70 10000 4.12 320 11:47 30.05.2021
2548 Clouds 18 1016 75 10000 3.6 310 10:56 30.05.2021
2549 Clouds 18 1016 76 10000 4.63 320 10:32 30.05.2021
2550 Clouds 17 1014 80 10000 5.14 330 09:54 30.05.2021
2551 Clouds 16 1014 82 10000 4.63 330 09:35 30.05.2021
2552 Clouds 16 1014 83 10000 4.63 320 08:47 30.05.2021
2553 Clouds 15 1014 83 10000 5.14 320 07:31 30.05.2021
2554 Clouds 15 1015 81 10000 5.14 310 04:21 30.05.2021
2555 Clouds 16 1017 76 10000 7.2 330 00:38 30.05.2021
2556 Clouds 16 1016 77 10000 6.69 320 22:52 29.05.2021
2557 Clouds 17 1016 76 10000 7.72 310 22:24 29.05.2021
2558 Clouds 17 1015 74 10000 7.72 320 21:47 29.05.2021
2559 Clouds 18 1016 72 10000 8.23 320 21:18 29.05.2021
2560 Clouds 19 1015 67 10000 7.72 330 20:41 29.05.2021
2561 Clouds 20 1015 65 10000 7.72 330 20:21 29.05.2021
2562 Clouds 21 1015 61 10000 6.69 320 19:25 29.05.2021
2563 Clear 24 1016 55 10000 6.69 310 17:52 29.05.2021
2564 Clear 24 1016 55 10000 6.69 320 16:53 29.05.2021
2565 Clouds 23 1016 56 10000 5.66 310 15:46 29.05.2021
2566 Clouds 22 1019 60 10000 5.14 310 14:45 29.05.2021
2567 Clouds 22 1017 59 10000 5.14 330 13:42 29.05.2021
2568 Clouds 22 1017 59 10000 5.66 330 12:47 29.05.2021
2569 Clouds 21 1017 63 10000 6.17 320 12:27 29.05.2021
2570 Clouds 21 1017 62 10000 6.17 340 11:46 29.05.2021
2571 Clouds 19 1020 68 10000 6.17 340 11:23 29.05.2021
2572 Clouds 18 1020 69 10000 6.69 330 10:48 29.05.2021
2573 Clouds 17 1017 75 10000 6.17 340 09:47 29.05.2021
2574 Clouds 17 1017 76 10000 5.14 320 09:21 29.05.2021
2575 Clouds 15 1016 80 10000 7.2 320 08:41 29.05.2021
2576 Clouds 15 1016 80 10000 7.2 320 08:41 29.05.2021
2577 Clouds 15 1016 81 10000 6.17 320 06:59 29.05.2021
2578 Clouds 15 1016 80 10000 7.72 330 05:52 29.05.2021
2579 Clear 17 1019 70 10000 6.17 340 00:28 29.05.2021
2580 Clear 18 1016 67 10000 6.17 330 23:18 28.05.2021
2581 Clear 19 1014 65 10000 7.72 310 21:45 28.05.2021
2582 Clear 20 1014 62 10000 7.72 310 21:23 28.05.2021
2583 Clear 22 1014 57 10000 6.17 320 20:25 28.05.2021
2584 Clear 23 1016 54 10000 7.2 330 19:44 28.05.2021
2585 Clear 24 1013 47 10000 6.17 330 19:25 28.05.2021
2586 Clear 26 1016 44 10000 4.63 320 18:39 28.05.2021
2587 Clear 26 1013 43 10000 4.63 320 18:20 28.05.2021
2588 Clear 26 1016 42 10000 4.12 300 17:19 28.05.2021
2589 Clear 26 1013 42 10000 3.6 350 16:25 28.05.2021
2590 Clear 26 1014 41 10000 4.63 350 15:40 28.05.2021
2591 Clear 25 1016 41 10000 3.6 350 14:51 28.05.2021
2592 Clear 25 1014 44 10000 4.12 20 14:31 28.05.2021
2593 Clear 24 1017 48 10000 3.6 10 13:45 28.05.2021
2594 Clear 23 1017 49 10000 4.12 330 12:55 28.05.2021
2595 Clear 23 1017 49 10000 4.12 340 12:20 28.05.2021
2596 Clear 21 1017 54 10000 5.14 360 11:30 28.05.2021
2597 Clear 20 1017 57 10000 3.6 350 10:45 28.05.2021
2598 Clear 18 1017 64 10000 4.63 340 10:20 28.05.2021
2599 Clear 17 1014 66 10000 3.6 330 09:29 28.05.2021
2600 Clear 16 1013 71 10000 3.6 330 08:46 28.05.2021
2601 Clear 16 1012 70 10000 4.63 330 07:58 28.05.2021
2602 Clear 16 1012 70 10000 2.57 340 07:36 28.05.2021
2603 Clear 15 1013 68 10000 1.54 0 06:50 28.05.2021
2604 Clear 15 1016 69 10000 2.57 330 05:43 28.05.2021
2605 Clear 17 1016 58 10000 5.14 320 02:18 28.05.2021
2606 Clear 18 1016 54 10000 3.6 330 23:42 27.05.2021
2607 Clear 18 1016 54 10000 3.6 330 23:42 27.05.2021
2608 Clear 19 1016 56 10000 4.63 320 22:38 27.05.2021
2609 Clear 19 1016 56 10000 4.63 320 22:19 27.05.2021
2610 Clear 21 1015 54 10000 4.63 330 21:42 27.05.2021
2611 Clear 22 1015 50 10000 4.63 330 21:23 27.05.2021
2612 Clear 24 1015 46 10000 4.63 320 20:41 27.05.2021
2613 Clear 24 1015 46 10000 4.63 320 20:18 27.05.2021
2614 Clear 24 1015 47 10000 5.66 330 19:26 27.05.2021
2615 Clear 26 1015 43 10000 5.66 330 18:39 27.05.2021
2616 Clear 26 1015 42 10000 5.66 330 18:18 27.05.2021
2617 Clear 26 1015 36 10000 4.63 300 17:23 27.05.2021
2618 Clear 26 1015 35 10000 3.6 0 16:47 27.05.2021
2619 Clear 26 1015 36 10000 3.09 0 16:26 27.05.2021
2620 Clear 25 1015 42 10000 3.6 350 15:23 27.05.2021
2621 Clear 24 1015 41 10000 4.63 350 14:55 27.05.2021
2622 Clear 24 1015 43 10000 4.12 320 14:27 27.05.2021
2623 Clear 23 1015 46 10000 3.6 0 13:54 27.05.2021
2624 Clear 22 1015 46 10000 3.09 310 13:21 27.05.2021
2625 Clear 22 1016 49 10000 2.57 310 12:58 27.05.2021
2626 Clear 22 1016 48 10000 2.06 310 12:40 27.05.2021
2627 Clear 21 1016 51 10000 2.06 310 12:21 27.05.2021
2628 Clear 19 1016 58 10000 1.54 340 11:29 27.05.2021
2629 Clear 18 1016 61 10000 2.06 310 10:54 27.05.2021
2630 Clear 18 1015 62 10000 1.54 320 10:26 27.05.2021
2631 Clear 18 1013 61 10000 2.06 350 09:53 27.05.2021
2632 Clear 16 1012 67 10000 2.06 40 08:51 27.05.2021
2633 Clear 15 1014 71 10000 2.57 340 08:26 27.05.2021
2634 Clear 16 1012 69 10000 7.2 310 06:21 27.05.2021
2635 Clear 17 1016 53 10000 2.06 290 01:53 27.05.2021
2636 Clear 17 1016 54 10000 4.63 320 00:22 27.05.2021
2637 Clear 18 1014 57 10000 5.14 320 23:28 26.05.2021
2638 Clear 18 1016 59 10000 5.66 320 22:50 26.05.2021
2639 Clear 19 1016 56 10000 5.14 310 22:31 26.05.2021
2640 Clear 20 1016 55 10000 4.12 320 21:42 26.05.2021
2641 Clear 20 1013 55 10000 5.66 320 21:23 26.05.2021
2642 Clear 20 1016 58 10000 5.66 310 20:58 26.05.2021
2643 Clear 22 1016 56 10000 5.66 310 20:39 26.05.2021
2644 Clear 22 1013 56 10000 5.66 310 20:20 26.05.2021
2645 Clear 22 1016 55 10000 6.17 320 19:43 26.05.2021
2646 Clear 24 1013 51 10000 5.14 320 19:20 26.05.2021
2647 Clear 24 1016 50 10000 5.66 320 18:35 26.05.2021
2648 Clear 26 1014 46 10000 5.14 330 17:37 26.05.2021
2649 Clear 26 1014 44 10000 4.63 310 16:56 26.05.2021
2650 Clear 26 1014 44 10000 4.12 340 16:36 26.05.2021
2651 Clear 26 1014 42 10000 4.12 340 16:18 26.05.2021
2652 Clear 26 1017 46 10000 2.57 0 15:41 26.05.2021
2653 Clear 26 1017 47 10000 2.57 0 15:23 26.05.2021
2654 Clear 24 1018 50 10000 3.6 310 14:45 26.05.2021
2655 Clear 24 1018 52 10000 3.6 310 14:19 26.05.2021
2656 Clear 23 1018 53 10000 3.6 340 13:42 26.05.2021
2657 Clear 22 1018 58 10000 2.57 0 12:51 26.05.2021
2658 Clear 21 1018 61 10000 2.57 350 12:28 26.05.2021
2659 Clear 20 1019 65 10000 4.12 340 11:38 26.05.2021
2660 Clear 20 1019 66 10000 4.12 340 11:19 26.05.2021
2661 Clear 20 1019 66 10000 4.12 340 11:19 26.05.2021
2662 Clouds 18 1018 72 10000 4.12 320 10:38 26.05.2021
2663 Clouds 17 1016 75 10000 5.14 320 09:58 26.05.2021
2664 Clouds 17 1016 78 10000 5.66 320 09:40 26.05.2021
2665 Clouds 16 1016 79 10000 6.17 310 08:59 26.05.2021
2666 Clouds 16 1016 81 10000 6.17 310 08:35 26.05.2021
2667 Clear 15 1016 81 10000 6.69 310 07:35 26.05.2021
2668 Clear 15 1016 78 10000 4.63 310 06:24 26.05.2021
2669 Clear 16 1020 69 10000 4.12 320 01:46 26.05.2021
2670 Clear 16 1018 68 10000 7.2 330 23:50 25.05.2021
2671 Clear 17 1017 66 10000 7.2 320 22:55 25.05.2021
2672 Clear 17 1017 64 10000 7.2 320 22:26 25.05.2021
2673 Clear 18 1017 60 10000 6.69 320 21:52 25.05.2021
2674 Clear 18 1019 59 10000 6.69 310 21:29 25.05.2021
2675 Clear 19 1019 52 10000 8.23 320 20:44 25.05.2021
2676 Clear 20 1019 54 10000 7.2 320 20:25 25.05.2021
2677 Clouds 20 1019 52 10000 8.19 335 19:38 25.05.2021
2678 Clear 20 1019 53 10000 7.96 335 19:19 25.05.2021
2679 Clear 22 1020 50 10000 6.17 320 18:41 25.05.2021
2680 Clear 22 1020 49 10000 6.17 320 18:21 25.05.2021
2681 Clear 23 1020 45 10000 4.63 300 16:59 25.05.2021
2682 Clear 23 1020 44 10000 5.66 330 16:38 25.05.2021
2683 Clear 23 1021 42 10000 3.6 30 15:58 25.05.2021
2684 Clear 23 1021 42 10000 3.6 330 15:35 25.05.2021
2685 Clear 23 1021 43 10000 3.6 350 14:58 25.05.2021
2686 Clear 23 1022 43 10000 3.6 360 14:40 25.05.2021
2687 Clear 22 1022 44 10000 4.63 20 13:55 25.05.2021
2688 Clear 22 1022 42 10000 4.63 30 13:35 25.05.2021
2689 Clear 21 1022 41 10000 5.14 30 12:49 25.05.2021
2690 Clear 20 1023 45 10000 5.66 10 12:30 25.05.2021
2691 Clear 19 1023 48 10000 5.66 10 11:44 25.05.2021
2692 Clear 19 1023 50 10000 6.17 360 11:26 25.05.2021
2693 Clear 17 1023 55 10000 6.17 360 10:45 25.05.2021
2694 Clear 17 1023 57 10000 6.69 350 10:20 25.05.2021
2695 Clear 15 1023 67 10000 5.66 340 09:32 25.05.2021
2696 Clear 14 1023 72 10000 4.12 360 08:21 25.05.2021
2697 Clear 14 1023 80 10000 6.69 330 06:54 25.05.2021
2698 Clear 14 1024 74 10000 6.17 350 04:22 25.05.2021
2699 Clear 14 1025 74 10000 7.2 340 02:43 25.05.2021
2700 Clouds 15 1025 70 10000 6.69 350 23:55 24.05.2021
2701 Clouds 15 1025 70 10000 5.14 350 23:28 24.05.2021
2702 Clouds 15 1025 61 10000 6.17 340 22:42 24.05.2021
2703 Clouds 15 1025 59 10000 5.14 350 22:21 24.05.2021
2704 Clear 16 1024 49 10000 8.23 340 21:39 24.05.2021
2705 Clear 16 1024 49 10000 8.23 340 21:18 24.05.2021
2706 Clear 17 1024 45 10000 6.69 320 20:32 24.05.2021
2707 Clouds 18 1024 47 10000 7.72 340 19:54 24.05.2021
2708 Clouds 19 1024 49 10000 7.2 330 19:31 24.05.2021
2709 Clouds 19 1024 48 10000 6.69 330 18:59 24.05.2021
2710 Clouds 19 1024 48 10000 8.75 350 18:35 24.05.2021
2711 Clouds 20 1024 52 10000 7.2 350 17:59 24.05.2021
2712 Clouds 20 1024 47 10000 5.66 320 17:26 24.05.2021
2713 Clouds 20 1024 52 10000 5.66 310 16:49 24.05.2021
2714 Clouds 20 1025 57 10000 6.69 320 15:59 24.05.2021
2715 Clouds 20 1025 59 10000 6.17 310 15:40 24.05.2021
2716 Clouds 19 1025 62 10000 6.69 310 14:54 24.05.2021
2717 Clouds 20 1025 58 10000 5.66 310 14:28 24.05.2021
2718 Clouds 19 1025 67 10000 7.2 330 13:46 24.05.2021
2719 Clouds 19 1025 70 10000 6.69 330 13:25 24.05.2021
2720 Clouds 19 1025 68 10000 4.63 310 12:41 24.05.2021
2721 Clouds 18 1025 68 10000 4.63 310 12:21 24.05.2021
2722 Clouds 17 1025 83 10000 5.14 310 11:28 24.05.2021
2723 Clouds 17 1024 82 10000 3.6 300 10:57 24.05.2021
2724 Clouds 17 1024 80 10000 3.09 300 10:33 24.05.2021
2725 Clouds 17 1024 80 10000 4.12 300 09:45 24.05.2021
2726 Clouds 17 1024 80 10000 4.12 300 09:21 24.05.2021
2727 Clouds 16 1024 85 10000 3.6 310 08:39 24.05.2021
2728 Clouds 16 1023 83 10000 2.57 0 07:41 24.05.2021
2729 Clouds 15 1024 83 10000 2.57 250 05:44 24.05.2021
2730 Clouds 15 1024 82 10000 2.06 250 03:58 24.05.2021
2731 Clouds 15 1025 72 10000 2.06 280 01:28 24.05.2021
2732 Clouds 15 1025 68 10000 1.54 310 23:54 23.05.2021
2733 Clouds 15 1025 68 10000 2.57 310 23:27 23.05.2021
2734 Clouds 15 1025 61 10000 2.57 320 22:42 23.05.2021
2735 Clouds 15 1024 61 10000 4.12 330 22:22 23.05.2021
2736 Clouds 16 1024 53 10000 5.66 310 21:37 23.05.2021
2737 Clouds 16 1024 53 10000 5.66 310 21:18 23.05.2021
2738 Clouds 17 1023 53 10000 8.23 330 20:39 23.05.2021
2739 Clouds 17 1023 53 10000 8.23 330 20:21 23.05.2021
2740 Clouds 17 1023 51 10000 7.2 330 19:41 23.05.2021
2741 Clouds 18 1023 47 10000 8.23 330 18:59 23.05.2021
2742 Clouds 18 1022 47 10000 7.72 330 18:19 23.05.2021
2743 Clouds 18 1022 46 10000 7.72 330 17:43 23.05.2021
2744 Clouds 18 1022 44 10000 8.75 330 17:24 23.05.2021
2745 Clouds 18 1022 42 10000 8.23 310 16:45 23.05.2021
2746 Clouds 18 1022 42 10000 7.2 320 16:24 23.05.2021
2747 Clouds 19 1022 42 10000 8.23 320 15:57 23.05.2021
2748 Clouds 18 1022 39 10000 7.2 330 15:31 23.05.2021
2749 Clouds 18 1022 48 10000 8.23 340 14:51 23.05.2021
2750 Clouds 18 1022 48 10000 7.72 320 14:30 23.05.2021
2751 Clouds 18 1022 44 10000 8.75 350 13:34 23.05.2021
2752 Clouds 18 1022 44 10000 8.23 350 12:47 23.05.2021
2753 Clouds 18 1021 44 10000 8.75 340 12:22 23.05.2021
2754 Clouds 17 1021 57 10000 5.66 330 11:34 23.05.2021
2755 Clouds 16 1021 63 10000 7.2 350 10:53 23.05.2021
2756 Clouds 16 1021 65 10000 8.75 350 10:26 23.05.2021
2757 Clouds 16 1020 72 10000 7.72 350 09:54 23.05.2021
2758 Clouds 15 1020 82 10000 2.57 360 08:55 23.05.2021
2759 Clouds 13 1020 79 10000 3.09 320 07:50 23.05.2021
2760 Clouds 13 1020 79 10000 4.12 330 07:32 23.05.2021
2761 Clouds 13 1019 77 10000 4.12 330 06:48 23.05.2021
2762 Clear 13 1020 67 10000 4.63 330 01:51 23.05.2021
2763 Clear 13 1020 67 10000 4.63 330 01:51 23.05.2021
2764 Clear 14 1021 67 10000 3.6 340 00:33 23.05.2021
2765 Clouds 14 1017 62 10000 4.12 350 23:26 22.05.2021
2766 Clouds 15 1016 59 10000 4.63 350 22:53 22.05.2021
2767 Clouds 15 1016 59 10000 4.12 350 22:34 22.05.2021
2768 Clouds 16 1016 55 10000 5.66 350 21:50 22.05.2021
2769 Clouds 16 1016 54 10000 7.72 350 21:32 22.05.2021
2770 Clouds 16 1014 51 10000 5.66 320 20:55 22.05.2021
2771 Clouds 16 1014 51 10000 5.66 320 20:55 22.05.2021
2772 Clouds 17 1016 50 10000 6.17 310 20:29 22.05.2021
2773 Clouds 17 1019 53 10000 6.17 320 19:43 22.05.2021
2774 Clouds 17 1019 55 10000 6.69 350 19:24 22.05.2021
2775 Clouds 17 1015 52 10000 6.69 350 18:49 22.05.2021
2776 Clouds 17 1015 49 10000 5.66 350 18:21 22.05.2021
2777 Clouds 17 1016 49 10000 6.69 330 17:44 22.05.2021
2778 Clouds 17 1016 49 10000 6.69 330 17:25 22.05.2021
2779 Clouds 18 1016 48 10000 7.2 360 16:27 22.05.2021
2780 Clouds 18 1020 45 10000 6.69 340 15:35 22.05.2021
2781 Clouds 19 1016 42 10000 7.2 330 14:58 22.05.2021
2782 Clouds 18 1020 44 10000 7.2 340 14:28 22.05.2021
2783 Clouds 18 1020 44 10000 6.69 360 13:51 22.05.2021
2784 Clouds 19 1017 45 10000 6.69 350 13:21 22.05.2021
2785 Clouds 18 1016 49 10000 6.69 350 12:33 22.05.2021
2786 Clouds 17 1016 50 10000 7.72 350 11:56 22.05.2021
2787 Clouds 18 1016 52 10000 7.72 340 11:34 22.05.2021
2788 Clouds 16 1016 65 10000 5.14 350 10:38 22.05.2021
2789 Clouds 16 1016 65 10000 5.14 350 10:38 22.05.2021
2790 Clouds 16 1016 69 10000 4.63 350 09:51 22.05.2021
2791 Clear 15 1015 72 10000 3.6 340 08:38 22.05.2021
2792 Clear 15 1015 76 10000 3.09 340 07:59 22.05.2021
2793 Clear 15 1013 72 10000 3.6 340 07:30 22.05.2021
2794 Clear 15 1015 73 10000 3.6 350 05:23 22.05.2021
2795 Clouds 15 1016 78 10000 2.57 350 01:30 22.05.2021
2796 Clouds 16 1016 75 10000 5.14 350 23:40 21.05.2021
2797 Clouds 17 1014 72 10000 6.69 340 22:39 21.05.2021
2798 Clouds 17 1015 69 10000 6.69 340 22:20 21.05.2021
2799 Clouds 18 1014 67 10000 6.17 330 21:45 21.05.2021
2800 Clouds 18 1015 61 10000 7.72 340 21:23 21.05.2021
2801 Clouds 19 1018 58 10000 7.2 350 20:47 21.05.2021
2802 Clouds 19 1018 60 10000 6.69 330 20:26 21.05.2021
2803 Clouds 20 1018 60 10000 8.23 350 19:44 21.05.2021
2804 Clouds 20 1015 61 10000 7.2 330 19:24 21.05.2021
2805 Clouds 21 1015 61 10000 7.72 350 18:45 21.05.2021
2806 Clouds 21 1014 62 10000 6.69 320 17:56 21.05.2021
2807 Clouds 21 1015 60 10000 6.69 320 17:37 21.05.2021
2808 Clouds 22 1015 58 10000 5.14 330 16:54 21.05.2021
2809 Clouds 22 1015 59 10000 5.14 320 16:27 21.05.2021
2810 Clouds 22 1015 59 10000 6.17 340 15:49 21.05.2021
2811 Clouds 23 1015 58 10000 6.69 340 15:30 21.05.2021
2812 Clouds 22 1015 59 10000 6.17 330 14:56 21.05.2021
2813 Clouds 22 1016 59 10000 7.2 350 14:35 21.05.2021
2814 Clouds 22 1016 56 10000 6.17 340 13:41 21.05.2021
2815 Clouds 22 1016 56 10000 6.17 340 13:22 21.05.2021
2816 Clouds 22 1020 62 10000 5.14 350 12:22 21.05.2021
2817 Clouds 20 1020 68 10000 5.66 340 11:37 21.05.2021
2818 Clouds 20 1020 68 10000 5.66 340 11:18 21.05.2021
2819 Clouds 19 1016 66 10000 4.63 330 10:42 21.05.2021
2820 Clouds 17 1016 73 10000 4.12 340 09:38 21.05.2021
2821 Clouds 17 1016 73 10000 4.12 340 09:20 21.05.2021
2822 Clouds 16 1016 78 10000 4.63 340 08:29 21.05.2021
2823 Clouds 16 1016 77 10000 4.12 350 07:50 21.05.2021
2824 Clouds 16 1016 79 10000 5.66 340 06:50 21.05.2021
2825 Clouds 16 1015 83 10000 3.6 330 03:30 21.05.2021
2826 Clear 17 1021 65 10000 7.2 330 00:31 21.05.2021
2827 Clear 17 1017 51 10000 7.72 330 23:52 20.05.2021
2828 Clear 17 1016 58 10000 7.72 330 23:52 20.05.2021
2829 Clear 18 1015 41 10000 8.23 330 23:23 20.05.2021
2830 Clear 18 1017 39 10000 8.23 330 22:54 20.05.2021
2831 Clear 18 1017 39 10000 8.75 330 22:30 20.05.2021
2832 Clear 18 1017 39 10000 8.75 330 22:30 20.05.2021
2833 Clear 19 1015 38 10000 7.2 320 21:55 20.05.2021
2834 Clear 19 1015 38 10000 7.2 320 21:55 20.05.2021
2835 Clear 20 1016 39 10000 7.72 310 21:24 20.05.2021
2836 Clear 21 1015 37 10000 6.69 320 20:53 20.05.2021
2837 Clear 22 1020 36 10000 6.69 310 20:31 20.05.2021
2838 Clear 24 1020 36 10000 6.69 310 19:51 20.05.2021
2839 Clear 24 1016 38 10000 5.66 320 19:28 20.05.2021
2840 Clear 25 1020 44 10000 5.66 320 18:43 20.05.2021
2841 Clear 25 1016 43 10000 5.14 320 18:25 20.05.2021
2842 Clear 26 1016 43 10000 5.66 310 17:46 20.05.2021
2843 Clear 26 1016 42 10000 5.14 310 17:27 20.05.2021
2844 Clear 26 1016 41 10000 4.12 310 16:38 20.05.2021
2845 Clear 26 1016 40 10000 4.12 310 16:18 20.05.2021
2846 Clear 26 1017 38 10000 3.6 330 15:39 20.05.2021
2847 Clear 26 1017 37 10000 3.6 330 15:20 20.05.2021
2848 Clear 25 1021 39 10000 4.63 340 14:25 20.05.2021
2849 Clear 25 1021 40 10000 4.12 340 13:57 20.05.2021
2850 Clear 25 1021 42 10000 4.63 350 13:34 20.05.2021
2851 Clear 23 1022 45 10000 5.14 340 12:48 20.05.2021
2852 Clear 23 1022 45 10000 5.66 340 12:19 20.05.2021
2853 Clear 22 1022 46 10000 5.14 340 11:53 20.05.2021
2854 Clear 21 1022 46 10000 5.66 340 11:20 20.05.2021
2855 Clear 20 1022 54 10000 4.63 340 10:48 20.05.2021
2856 Clear 19 1022 55 10000 4.12 340 10:26 20.05.2021
2857 Clear 19 1022 55 10000 4.12 340 10:26 20.05.2021
2858 Clear 17 1022 61 10000 4.63 340 09:50 20.05.2021
2859 Clear 17 1022 63 10000 4.12 330 09:26 20.05.2021
2860 Clear 16 1022 67 10000 4.63 330 08:58 20.05.2021
2861 Clear 16 1022 69 10000 5.14 320 08:39 20.05.2021
2862 Clear 16 1022 69 10000 5.14 320 08:20 20.05.2021
2863 Clear 15 1021 77 10000 4.12 330 07:41 20.05.2021
2864 Clear 15 1021 74 10000 2.57 340 06:53 20.05.2021
2865 Clear 16 1021 67 10000 5.14 340 05:59 20.05.2021
2866 Clear 16 1021 65 10000 5.66 330 04:55 20.05.2021
2867 Clear 16 1022 61 10000 3.6 320 02:49 20.05.2021
2868 Clear 17 1019 43 10000 6.17 320 00:36 20.05.2021
2869 Clear 17 1019 41 10000 6.69 320 23:54 19.05.2021
2870 Clear 17 1022 40 10000 6.69 330 23:25 19.05.2021
2871 Clear 18 1022 40 10000 7.72 330 22:48 19.05.2021
2872 Clear 18 1022 39 10000 6.17 330 22:29 19.05.2021
2873 Clear 18 1022 32 10000 6.17 340 21:59 19.05.2021
2874 Clear 19 1022 35 10000 6.17 330 21:40 19.05.2021
2875 Clear 19 1018 36 10000 6.17 330 21:21 19.05.2021
2876 Clear 21 1022 36 10000 6.17 330 20:53 19.05.2021
2877 Clear 21 1022 38 10000 5.66 330 20:24 19.05.2021
2878 Clear 22 1022 34 10000 5.66 310 19:48 19.05.2021
2879 Clear 23 1016 32 10000 8.23 340 19:25 19.05.2021
2880 Clear 23 1018 31 10000 8.75 350 18:49 19.05.2021
2881 Clear 23 1018 31 10000 7.72 350 18:26 19.05.2021
2882 Clear 24 1018 32 10000 6.69 340 17:48 19.05.2021
2883 Clear 24 1017 33 10000 6.69 340 17:20 19.05.2021
2884 Clear 24 1022 31 10000 7.72 350 16:38 19.05.2021
2885 Clear 24 1022 31 10000 7.72 350 16:20 19.05.2021
2886 Clear 23 1022 33 10000 6.17 340 15:44 19.05.2021
2887 Clear 23 1023 38 10000 5.66 350 14:57 19.05.2021
2888 Clear 23 1023 38 10000 6.17 350 14:36 19.05.2021
2889 Clear 22 1023 40 10000 4.63 360 13:54 19.05.2021
2890 Clear 22 1023 41 10000 4.63 340 13:34 19.05.2021
2891 Clear 21 1023 47 10000 5.14 330 12:46 19.05.2021
2892 Clear 20 1023 52 10000 5.14 360 12:23 19.05.2021
2893 Clouds 20 1023 54 10000 6.17 360 11:59 19.05.2021
2894 Clouds 19 1024 61 10000 6.17 360 11:41 19.05.2021
2895 Clouds 19 1024 61 10000 6.17 360 11:21 19.05.2021
2896 Clouds 17 1023 70 10000 5.14 350 10:49 19.05.2021
2897 Clouds 17 1024 69 10000 5.14 350 10:30 19.05.2021
2898 Clouds 16 1024 82 10000 5.14 340 09:50 19.05.2021
2899 Clouds 16 1024 79 10000 5.14 360 09:20 19.05.2021
2900 Clouds 15 1023 85 10000 8.75 340 08:39 19.05.2021
2901 Clouds 14 1023 85 10000 8.75 340 08:20 19.05.2021
2902 Clear 14 1023 85 10000 8.75 340 07:31 19.05.2021
2903 Clouds 14 1018 84 10000 6.17 340 06:41 19.05.2021
2904 Clouds 14 1019 82 10000 4.12 360 05:40 19.05.2021
2905 Clear 14 1023 83 10000 5.14 360 03:18 19.05.2021
2906 Clear 15 1020 80 10000 3.09 360 00:35 19.05.2021
2907 Clouds 15 1020 82 10000 3.09 360 23:52 18.05.2021
2908 Clouds 16 1020 81 10000 4.12 350 23:28 18.05.2021
2909 Clouds 16 1019 78 10000 4.12 340 22:46 18.05.2021
2910 Clouds 17 1019 78 10000 4.12 340 22:25 18.05.2021
2911 Clouds 17 1023 77 10000 5.66 340 21:46 18.05.2021
2912 Clouds 18 1023 77 10000 7.2 340 21:28 18.05.2021
2913 Clouds 19 1023 72 10000 6.69 340 20:48 18.05.2021
2914 Clouds 20 1023 77 10000 6.17 340 20:20 18.05.2021
2915 Clouds 21 1023 75 10000 4.12 310 19:51 18.05.2021
2916 Clouds 21 1022 75 10000 4.12 320 19:31 18.05.2021
2917 Clouds 21 1022 76 10000 3.6 310 18:57 18.05.2021
2918 Clouds 21 1022 73 10000 4.63 310 18:37 18.05.2021
2919 Clouds 20 1022 73 10000 4.63 310 18:19 18.05.2021
2920 Clouds 21 1023 73 10000 5.14 300 17:37 18.05.2021
2921 Clouds 21 1013 69 10000 4.12 290 16:46 18.05.2021
2922 Clouds 21 1013 69 10000 4.63 290 16:26 18.05.2021
2923 Clouds 21 1023 69 10000 4.12 310 15:44 18.05.2021
2924 Clouds 21 1023 69 10000 4.63 300 15:22 18.05.2021
2925 Clouds 21 1023 69 10000 4.63 300 15:22 18.05.2021
2926 Clouds 21 1023 67 10000 4.63 310 14:46 18.05.2021
2927 Clouds 21 1023 64 10000 3.09 310 13:57 18.05.2021
2928 Clouds 20 1023 70 10000 4.12 290 12:59 18.05.2021
2929 Clouds 20 1023 70 10000 4.12 320 12:25 18.05.2021
2930 Clouds 19 1023 77 10000 4.12 310 11:44 18.05.2021
2931 Clouds 19 1023 74 10000 3.6 300 11:25 18.05.2021
2932 Clouds 18 1023 80 10000 3.09 310 10:46 18.05.2021
2933 Clouds 18 1023 82 10000 1.54 290 10:27 18.05.2021
2934 Clouds 18 1022 85 10000 1.54 0 09:45 18.05.2021
2935 Clouds 17 1022 94 10000 1.03 0 09:24 18.05.2021
2936 Clouds 16 1022 94 10000 2.06 300 08:20 18.05.2021
2937 Clouds 15 1022 94 10000 3.09 300 07:48 18.05.2021
2938 Clouds 15 1021 94 10000 1.03 0 06:58 18.05.2021
2939 Clear 16 1022 67 10000 1.54 340 02:45 18.05.2021
2940 Clear 16 1022 67 10000 1.54 340 02:45 18.05.2021
2941 Clear 15 1022 72 10000 1.03 0 02:25 18.05.2021
2942 Clear 16 1022 72 10000 0.51 0 00:58 18.05.2021
2943 Clear 16 1022 72 10000 2.06 310 00:27 18.05.2021
2944 Clear 16 1022 67 10000 2.57 320 23:54 17.05.2021
2945 Clear 16 1022 72 10000 2.57 330 23:22 17.05.2021
2946 Clear 17 1022 67 10000 4.12 310 22:56 17.05.2021
2947 Clear 17 1021 59 10000 4.12 310 22:38 17.05.2021
2948 Clear 17 1021 59 10000 4.12 310 22:19 17.05.2021
2949 Clear 19 1021 39 10000 4.63 310 21:23 17.05.2021
2950 Clear 19 1021 37 10000 5.14 310 20:57 17.05.2021
2951 Clear 20 1021 32 10000 4.63 310 20:38 17.05.2021
2952 Clear 20 1021 32 10000 4.63 310 20:18 17.05.2021
2953 Clear 21 1021 33 10000 4.12 310 19:40 17.05.2021
2954 Clear 22 1021 33 10000 4.12 310 19:20 17.05.2021
2955 Clear 23 1021 33 10000 5.14 320 18:44 17.05.2021
2956 Clear 22 1020 37 10000 4.63 320 18:26 17.05.2021
2957 Clear 23 1021 38 10000 5.14 340 17:42 17.05.2021
2958 Clear 22 1021 38 10000 5.14 310 17:21 17.05.2021
2959 Clear 23 1021 33 10000 4.63 340 16:33 17.05.2021
2960 Clear 23 1021 38 10000 4.63 330 15:58 17.05.2021
2961 Clear 23 1021 38 10000 4.63 360 15:25 17.05.2021
2962 Clear 22 1021 43 10000 4.63 330 14:50 17.05.2021
2963 Clear 22 1021 43 10000 6.17 350 14:31 17.05.2021
2964 Clear 22 1022 49 10000 4.12 20 13:57 17.05.2021
2965 Clear 21 1022 52 10000 4.12 20 13:25 17.05.2021
2966 Clouds 20 1022 56 10000 4.63 360 12:41 17.05.2021
2967 Clouds 20 1022 56 10000 4.63 360 12:21 17.05.2021
2968 Clouds 18 1022 67 10000 5.14 360 11:41 17.05.2021
2969 Clouds 18 1022 67 10000 5.14 360 11:41 17.05.2021
2970 Clouds 18 1022 67 10000 5.14 360 11:20 17.05.2021
2971 Clouds 17 1022 77 10000 4.12 10 10:41 17.05.2021
2972 Clear 16 1021 72 10000 4.63 10 10:21 17.05.2021
2973 Clouds 15 1021 88 10000 4.12 340 09:24 17.05.2021
2974 Clear 14 1020 88 10000 3.6 340 08:29 17.05.2021
2975 Clear 14 1020 88 10000 3.09 340 07:51 17.05.2021
2976 Clear 14 1020 88 10000 3.6 350 07:23 17.05.2021
2977 Clear 14 1020 82 10000 3.6 350 06:20 17.05.2021
2978 Clear 15 1020 82 10000 2.06 30 03:38 17.05.2021
2979 Clear 16 1020 82 10000 2.06 350 01:57 17.05.2021
2980 Clouds 16 1020 82 10000 4.63 330 00:43 17.05.2021
2981 Clouds 17 1020 77 10000 4.12 330 23:47 16.05.2021
2982 Clouds 17 1020 82 10000 5.66 330 23:20 16.05.2021
2983 Clouds 17 1019 82 10000 3.6 320 22:41 16.05.2021
2984 Clouds 18 1019 82 10000 3.6 320 22:22 16.05.2021
2985 Clouds 18 1019 82 10000 4.63 340 21:42 16.05.2021
2986 Clouds 18 1018 82 10000 2.06 300 21:22 16.05.2021
2987 Clouds 18 1019 82 10000 3.6 310 20:41 16.05.2021
2988 Clouds 19 1019 82 10000 3.6 310 20:21 16.05.2021
2989 Clouds 19 1019 82 10000 3.09 290 19:49 16.05.2021
2990 Clouds 19 1019 82 10000 4.12 310 19:22 16.05.2021
2991 Clouds 20 1019 77 10000 4.12 290 18:46 16.05.2021
2992 Clouds 20 1019 77 10000 4.63 300 18:27 16.05.2021
2993 Clouds 20 1019 77 10000 4.63 290 17:59 16.05.2021
2994 Clouds 20 1020 77 10000 5.14 300 17:40 16.05.2021
2995 Clouds 20 1020 77 10000 5.14 300 17:20 16.05.2021
2996 Clouds 20 1020 77 10000 4.63 300 16:49 16.05.2021
2997 Clouds 20 1020 77 10000 5.66 310 16:24 16.05.2021
2998 Clouds 20 1020 77 10000 5.66 310 15:48 16.05.2021
2999 Clouds 20 1020 77 10000 5.66 300 15:23 16.05.2021
3000 Clouds 20 1020 77 10000 5.14 300 14:49 16.05.2021
3001 Clouds 20 1020 77 10000 4.63 290 14:21 16.05.2021
3002 Clouds 20 1020 82 10000 3.6 290 13:57 16.05.2021
3003 Clouds 19 1020 82 10000 3.6 290 13:36 16.05.2021
3004 Clouds 19 1020 82 10000 4.12 300 13:18 16.05.2021
3005 Clouds 19 1020 82 10000 4.12 290 12:45 16.05.2021
3006 Clouds 19 1020 82 10000 4.63 270 12:22 16.05.2021
3007 Clouds 19 1019 82 10000 3.6 280 11:45 16.05.2021
3008 Clouds 19 1019 88 10000 3.09 280 10:59 16.05.2021
3009 Clouds 18 1019 82 10000 3.6 270 10:36 16.05.2021
3010 Clouds 18 1019 82 10000 3.6 270 10:18 16.05.2021
3011 Clouds 18 1019 82 10000 4.12 270 09:40 16.05.2021
3012 Clouds 17 1019 88 10000 3.6 270 09:21 16.05.2021
3013 Clouds 17 1019 88 10000 2.57 260 08:27 16.05.2021
3014 Clouds 17 1018 88 10000 2.57 260 07:55 16.05.2021
3015 Clouds 17 1018 82 10000 2.57 240 07:25 16.05.2021
3016 Clouds 17 1018 88 10000 2.57 300 05:38 16.05.2021
3017 Clouds 18 1020 88 10000 3.09 310 00:53 16.05.2021
3018 Clouds 18 1020 88 10000 2.57 320 00:19 16.05.2021
3019 Clouds 18 1020 88 10000 3.6 320 23:23 15.05.2021
3020 Clouds 18 1019 82 10000 4.12 330 22:59 15.05.2021
3021 Clouds 18 1019 82 10000 4.12 310 22:28 15.05.2021
3022 Clouds 18 1019 82 10000 3.6 310 21:43 15.05.2021
3023 Clouds 18 1019 82 10000 3.6 310 21:43 15.05.2021
3024 Clouds 19 1019 77 10000 3.09 310 21:21 15.05.2021
3025 Clouds 20 1019 73 10000 3.09 300 20:45 15.05.2021
3026 Clouds 20 1019 73 10000 4.12 320 20:21 15.05.2021
3027 Clouds 21 1019 68 10000 4.12 310 19:44 15.05.2021
3028 Clouds 21 1019 64 10000 5.14 310 18:50 15.05.2021
3029 Clouds 21 1019 64 10000 5.14 320 18:21 15.05.2021
3030 Clouds 22 1019 60 10000 4.12 300 17:42 15.05.2021
3031 Clouds 22 1019 64 10000 4.63 330 16:51 15.05.2021
3032 Clouds 22 1019 60 10000 3.6 310 16:28 15.05.2021
3033 Clouds 22 1019 64 10000 3.09 310 15:59 15.05.2021
3034 Clouds 21 1020 73 10000 3.6 310 15:24 15.05.2021
3035 Clouds 21 1020 64 10000 3.09 0 14:48 15.05.2021
3036 Clouds 21 1020 68 10000 2.57 320 14:26 15.05.2021
3037 Clouds 20 1020 68 10000 1.54 0 13:37 15.05.2021
3038 Clouds 19 1020 72 10000 2.06 290 12:51 15.05.2021
3039 Clouds 18 1021 77 10000 4.12 320 11:53 15.05.2021
3040 Clouds 18 1020 77 10000 3.6 310 11:18 15.05.2021
3041 Clouds 17 1020 82 10000 2.06 310 10:32 15.05.2021
3042 Clouds 16 1020 88 10000 1.54 280 09:45 15.05.2021
3043 Clouds 15 1019 94 10000 1.54 300 08:38 15.05.2021
3044 Clouds 15 1019 88 10000 0.51 0 07:54 15.05.2021
3045 Clouds 15 1019 94 10000 1.03 0 07:23 15.05.2021
3046 Clouds 15 1019 94 10000 1.54 280 06:51 15.05.2021
3047 Clouds 15 1019 94 10000 1.03 290 05:49 15.05.2021
3048 Clouds 15 1019 94 10000 2.57 240 04:19 15.05.2021
3049 Clear 16 1021 88 10000 3.09 310 00:22 15.05.2021
3050 Clear 16 1020 77 10000 4.12 310 23:36 14.05.2021
3051 Clouds 17 1020 77 10000 3.09 340 22:40 14.05.2021
3052 Clouds 17 1020 77 10000 3.09 340 22:22 14.05.2021
3053 Clouds 17 1019 72 10000 4.12 340 21:31 14.05.2021
3054 Clouds 18 1020 68 10000 4.12 330 20:55 14.05.2021
3055 Clouds 18 1020 68 10000 4.63 320 20:27 14.05.2021
3056 Clouds 19 1020 63 10000 6.69 340 19:48 14.05.2021
3057 Clouds 19 1020 63 10000 4.12 310 19:27 14.05.2021
3058 Clouds 19 1020 63 10000 4.12 310 18:47 14.05.2021
3059 Clouds 19 1020 63 10000 5.14 320 18:25 14.05.2021
3060 Clouds 20 1020 60 10000 4.63 310 17:43 14.05.2021
3061 Clouds 20 1020 56 10000 4.63 340 17:24 14.05.2021
3062 Clouds 21 1020 56 10000 4.12 340 16:44 14.05.2021
3063 Clouds 21 1020 52 10000 4.12 330 16:26 14.05.2021
3064 Clouds 20 1021 60 10000 4.63 320 15:31 14.05.2021
3065 Clouds 20 1021 60 10000 4.63 330 14:41 14.05.2021
3066 Clouds 19 1021 63 10000 3.6 330 13:55 14.05.2021
3067 Clouds 19 1021 68 10000 4.63 350 13:31 14.05.2021
3068 Clouds 18 1021 68 10000 4.63 350 12:51 14.05.2021
3069 Clouds 18 1021 72 10000 4.12 340 12:30 14.05.2021
3070 Clouds 17 1021 72 10000 4.12 330 11:49 14.05.2021
3071 Clouds 17 1021 82 10000 4.63 350 11:22 14.05.2021
3072 Clouds 16 1021 82 10000 3.09 330 10:38 14.05.2021
3073 Clouds 16 1021 88 10000 1.54 320 09:53 14.05.2021
3074 Clouds 16 1021 88 10000 1.54 320 09:53 14.05.2021
3075 Clouds 15 1021 94 10000 1.54 330 09:31 14.05.2021
3076 Clouds 14 1020 94 10000 3.96 338 08:48 14.05.2021
3077 Clouds 14 1020 94 10000 2.06 310 07:53 14.05.2021
3078 Clouds 14 1020 94 10000 1.54 270 06:47 14.05.2021
3079 Clouds 15 1021 88 10000 1.54 290 03:36 14.05.2021
3080 Clouds 15 1021 94 10000 0.51 0 02:31 14.05.2021
3081 Clouds 16 1021 82 10000 2.57 310 00:37 14.05.2021
3082 Clouds 16 1021 82 10000 2.57 290 23:48 13.05.2021
3083 Clouds 16 1021 88 10000 4.12 330 23:20 13.05.2021
3084 Clouds 16 1020 82 10000 3.09 310 22:48 13.05.2021
3085 Clouds 16 1020 82 10000 3.09 300 22:29 13.05.2021
3086 Clouds 17 1020 82 10000 4.12 300 21:47 13.05.2021
3087 Clouds 17 1019 68 10000 3.6 290 21:28 13.05.2021
3088 Clouds 18 1019 72 10000 4.63 300 20:53 13.05.2021
3089 Clouds 18 1019 72 10000 4.63 300 20:33 13.05.2021
3090 Clouds 18 1019 82 10000 5.66 300 19:45 13.05.2021
3091 Clouds 18 1020 85 5000 5.14 280 19:22 13.05.2021
3092 Clouds 18 1020 83 10000 5.14 280 18:56 13.05.2021
3093 Clouds 18 1020 83 10000 5.14 280 18:56 13.05.2021
3094 Clouds 18 1020 83 5000 4.12 280 18:31 13.05.2021
3095 Clouds 19 1020 80 10000 5.66 270 17:59 13.05.2021
3096 Clouds 19 1020 77 10000 4.63 290 17:39 13.05.2021
3097 Clouds 19 1020 77 10000 4.63 290 17:20 13.05.2021
3098 Clouds 19 1020 82 10000 4.63 280 16:37 13.05.2021
3099 Clouds 19 1020 82 10000 4.63 280 16:18 13.05.2021
3100 Clouds 19 1020 77 10000 4.12 280 15:45 13.05.2021
3101 Drizzle 17 1021 88 10000 5.14 260 15:21 13.05.2021
3102 Clouds 18 1021 77 10000 5.14 270 14:47 13.05.2021
3103 Clouds 18 1021 77 10000 5.14 270 14:28 13.05.2021
3104 Clouds 18 1021 72 10000 4.63 270 13:47 13.05.2021
3105 Clouds 19 1021 72 10000 4.12 270 13:29 13.05.2021
3106 Clouds 19 1021 70 10000 4.63 260 12:58 13.05.2021
3107 Clouds 19 1021 68 10000 4.12 280 12:39 13.05.2021
3108 Clouds 18 1022 73 10000 4.63 270 11:56 13.05.2021
3109 Clouds 18 1022 70 10000 5.14 260 11:35 13.05.2021
3110 Clouds 18 1021 65 10000 4.47 286 10:54 13.05.2021
3111 Clouds 17 1021 80 10000 4.63 270 10:33 13.05.2021
3112 Clouds 16 1021 85 10000 3.09 250 09:41 13.05.2021
3113 Clouds 16 1021 85 10000 3.09 250 09:20 13.05.2021
3114 Clouds 14 1021 91 10000 2.57 240 08:29 13.05.2021
3115 Clouds 14 1021 91 10000 2.57 230 07:55 13.05.2021
3116 Clouds 14 1021 94 10000 2.57 210 06:45 13.05.2021
3117 Clouds 14 1022 91 10000 2.06 250 05:48 13.05.2021
3118 Clouds 14 1023 85 10000 1.03 240 02:38 13.05.2021
3119 Clear 15 1024 80 10000 1.54 330 00:27 13.05.2021
3120 Clear 15 1024 75 10000 2.57 310 23:37 12.05.2021
3121 Clear 15 1024 72 10000 3.09 310 22:54 12.05.2021
3122 Clouds 15 1023 70 10000 3.09 290 22:18 12.05.2021
3123 Clouds 16 1023 65 10000 3.6 300 21:48 12.05.2021
3124 Clouds 17 1023 63 10000 4.12 300 20:57 12.05.2021
3125 Clouds 17 1023 55 10000 5.14 300 20:31 12.05.2021
3126 Clouds 17 1023 55 10000 5.14 300 19:49 12.05.2021
3127 Clouds 18 1022 52 10000 4.63 310 18:51 12.05.2021
3128 Clouds 18 1022 52 10000 5.14 300 18:24 12.05.2021
3129 Clouds 19 1022 51 10000 6.17 340 17:51 12.05.2021
3130 Clouds 19 1022 51 10000 5.14 300 17:33 12.05.2021
3131 Clouds 19 1022 52 10000 5.14 300 16:44 12.05.2021
3132 Clouds 19 1023 54 10000 4.63 300 16:21 12.05.2021
3133 Clouds 19 1023 72 10000 5.14 300 15:40 12.05.2021
3134 Clouds 19 1022 59 10000 5.14 310 14:57 12.05.2021
3135 Clouds 19 1022 55 10000 5.66 300 14:34 12.05.2021
3136 Clouds 19 1022 55 10000 5.66 300 14:34 12.05.2021
3137 Clouds 19 1022 59 10000 4.63 290 13:48 12.05.2021
3138 Clouds 19 1022 55 10000 4.63 310 13:26 12.05.2021
3139 Clouds 18 1022 67 10000 4.63 310 12:35 12.05.2021
3140 Clouds 18 1022 63 10000 4.63 310 11:47 12.05.2021
3141 Clouds 17 1022 67 10000 4.12 300 11:24 12.05.2021
3142 Clouds 17 1022 77 10000 4.12 290 10:58 12.05.2021
3143 Clouds 17 1022 77 10000 4.12 290 10:58 12.05.2021
3144 Clouds 17 1021 82 10000 3.6 310 10:28 12.05.2021
3145 Clouds 16 1021 82 10000 2.57 290 09:44 12.05.2021
3146 Clouds 16 1021 88 10000 3.09 300 09:26 12.05.2021
3147 Clouds 15 1021 88 10000 4.63 300 08:46 12.05.2021
3148 Clouds 15 1020 88 10000 4.63 310 08:27 12.05.2021
3149 Clouds 16 1020 100 7000 4.12 250 07:28 12.05.2021
3150 Clouds 15 1020 100 6000 4.12 230 05:43 12.05.2021
3151 Clouds 16 1023 72 10000 3.6 230 00:46 12.05.2021
3152 Clouds 16 1023 67 10000 4.12 240 00:28 12.05.2021
3153 Clouds 16 1023 67 10000 4.12 230 23:46 11.05.2021
3154 Clouds 16 1023 67 10000 4.12 230 23:28 11.05.2021
3155 Clouds 16 1023 67 10000 4.12 230 22:47 11.05.2021
3156 Clouds 16 1023 67 10000 5.14 230 22:20 11.05.2021
3157 Clouds 16 1023 63 10000 5.14 230 21:52 11.05.2021
3158 Clouds 16 1022 63 10000 4.63 240 21:33 11.05.2021
3159 Clouds 16 1022 63 10000 4.63 240 21:33 11.05.2021
3160 Clouds 16 1022 59 10000 5.14 230 20:56 11.05.2021
3161 Clouds 16 1022 59 10000 5.66 240 20:37 11.05.2021
3162 Clouds 17 1022 59 10000 5.66 240 20:19 11.05.2021
3163 Clouds 17 1022 59 10000 5.66 220 19:40 11.05.2021
3164 Clouds 17 1022 59 10000 5.66 220 19:21 11.05.2021
3165 Clouds 17 1022 55 10000 5.14 240 18:43 11.05.2021
3166 Clouds 18 1022 52 10000 6.69 230 18:24 11.05.2021
3167 Clouds 17 1022 55 10000 5.14 250 17:38 11.05.2021
3168 Clouds 17 1022 55 10000 5.14 250 17:19 11.05.2021
3169 Clear 18 1023 45 10000 4.12 260 16:41 11.05.2021
3170 Clear 18 1023 45 10000 4.12 260 16:20 11.05.2021
3171 Clouds 18 1023 45 10000 4.12 0 15:42 11.05.2021
3172 Clouds 18 1023 45 10000 4.12 290 15:19 11.05.2021
3173 Clouds 17 1023 48 10000 3.09 270 14:43 11.05.2021
3174 Clouds 18 1023 48 10000 4.63 270 14:22 11.05.2021
3175 Clouds 17 1024 55 10000 4.63 260 13:46 11.05.2021
3176 Clouds 17 1024 59 10000 3.6 280 13:22 11.05.2021
3177 Clouds 16 1023 63 10000 3.09 270 12:51 11.05.2021
3178 Clouds 17 1023 63 10000 3.09 270 12:31 11.05.2021
3179 Clouds 16 1023 63 10000 3.09 270 11:49 11.05.2021
3180 Clouds 17 1023 59 10000 2.06 290 11:27 11.05.2021
3181 Clouds 16 1023 67 10000 1.54 0 10:54 11.05.2021
3182 Clouds 15 1023 72 10000 1.54 310 10:32 11.05.2021
3183 Clouds 15 1022 72 10000 1.03 0 09:58 11.05.2021
3184 Clouds 15 1022 76 10000 1.54 190 09:39 11.05.2021
3185 Clouds 14 1022 76 10000 1.54 190 09:21 11.05.2021
3186 Clouds 13 1022 87 10000 2.06 240 08:47 11.05.2021
3187 Clouds 13 1021 87 10000 2.06 250 08:29 11.05.2021
3188 Clouds 12 1021 87 10000 2.57 240 07:53 11.05.2021
3189 Clouds 12 1021 87 10000 1.54 250 07:24 11.05.2021
3190 Clouds 12 1021 87 9000 3.09 250 05:42 11.05.2021
3191 Clouds 14 1019 67 10000 2.06 290 00:55 11.05.2021
3192 Clouds 14 1019 67 10000 2.57 300 00:36 11.05.2021
3193 Clouds 14 1019 67 10000 2.57 290 23:46 10.05.2021
3194 Clouds 14 1018 67 10000 3.09 300 23:21 10.05.2021
3195 Clouds 14 1017 67 10000 3.6 300 22:43 10.05.2021
3196 Clouds 14 1017 67 10000 3.6 300 22:19 10.05.2021
3197 Clouds 15 1017 67 10000 3.6 300 21:47 10.05.2021
3198 Clouds 15 1016 58 10000 5.14 300 21:26 10.05.2021
3199 Clouds 15 1015 63 10000 4.63 300 20:43 10.05.2021
3200 Clouds 16 1015 58 10000 6.17 310 20:20 10.05.2021
3201 Clouds 16 1015 63 10000 5.66 300 19:45 10.05.2021
3202 Clouds 16 1014 63 10000 6.17 300 19:24 10.05.2021
3203 Clouds 16 1014 59 10000 7.2 270 18:55 10.05.2021
3204 Clouds 17 1014 55 10000 6.17 300 18:26 10.05.2021
3205 Clouds 17 1013 59 10000 7.2 270 17:48 10.05.2021
3206 Clouds 17 1013 59 10000 7.2 280 17:30 10.05.2021
3207 Clouds 16 1013 72 10000 7.72 270 16:52 10.05.2021
3208 Clouds 16 1013 59 10000 7.2 270 16:26 10.05.2021
3209 Clouds 17 1013 63 10000 6.69 260 15:44 10.05.2021
3210 Clouds 16 1013 72 10000 6.69 270 15:25 10.05.2021
3211 Clouds 16 1013 67 10000 6.69 260 14:54 10.05.2021
3212 Clouds 16 1013 77 10000 6.17 260 14:25 10.05.2021
3213 Clouds 16 1013 88 10000 5.66 290 13:49 10.05.2021
3214 Clouds 17 1012 63 10000 5.66 250 12:54 10.05.2021
3215 Clouds 17 1012 63 10000 4.12 250 12:31 10.05.2021
3216 Clouds 15 1012 82 10000 3.09 210 11:51 10.05.2021
3217 Clouds 15 1012 94 10000 3.09 220 11:29 10.05.2021
3218 Clouds 15 1012 77 10000 3.6 220 10:59 10.05.2021
3219 Clouds 15 1012 82 10000 3.09 220 10:40 10.05.2021
3220 Clouds 15 1012 77 10000 2.57 220 09:54 10.05.2021
3221 Clouds 14 1012 88 10000 2.06 240 09:35 10.05.2021
3222 Clouds 13 1012 87 10000 3.6 230 08:42 10.05.2021
3223 Clouds 13 1012 88 8000 3.09 240 08:19 10.05.2021
3224 Clouds 13 1011 87 10000 2.06 230 07:48 10.05.2021
3225 Clouds 13 1011 82 10000 3.6 220 07:27 10.05.2021
3226 Clouds 14 1012 76 10000 2.57 230 06:47 10.05.2021
3227 Clouds 14 1013 82 10000 3.09 240 02:20 10.05.2021
3228 Clouds 15 1013 72 10000 2.57 240 00:29 10.05.2021
3229 Clouds 15 1012 67 10000 4.63 260 22:47 09.05.2021
3230 Clouds 16 1012 67 10000 3.6 270 22:22 09.05.2021
3231 Clouds 16 1011 63 10000 4.12 270 21:57 09.05.2021
3232 Clouds 16 1011 63 10000 5.14 260 21:39 09.05.2021
3233 Clouds 16 1011 63 10000 4.63 270 20:55 09.05.2021
3234 Clouds 17 1010 59 10000 4.63 290 20:35 09.05.2021
3235 Clouds 17 1010 55 10000 4.63 280 19:52 09.05.2021
3236 Clouds 17 1010 55 10000 6.17 270 19:28 09.05.2021
3237 Clouds 18 1010 45 10000 6.17 270 18:52 09.05.2021
3238 Clouds 18 1009 52 10000 6.17 280 18:29 09.05.2021
3239 Clouds 18 1009 52 10000 6.69 270 17:47 09.05.2021
3240 Clouds 18 1009 55 10000 6.17 270 16:45 09.05.2021
3241 Clouds 18 1009 55 10000 6.17 280 16:24 09.05.2021
3242 Clouds 18 1009 52 10000 5.66 290 15:49 09.05.2021
3243 Clouds 18 1009 55 10000 5.66 270 15:18 09.05.2021
3244 Clouds 18 1009 55 10000 5.66 270 15:18 09.05.2021
3245 Clouds 18 1008 63 10000 5.14 300 14:36 09.05.2021
3246 Clouds 17 1008 67 10000 4.63 290 13:46 09.05.2021
3247 Clouds 17 1008 67 10000 5.66 290 13:21 09.05.2021
3248 Clouds 17 1007 67 10000 4.63 280 12:30 09.05.2021
3249 Clouds 16 1007 72 10000 3.6 300 11:43 09.05.2021
3250 Clouds 16 1006 82 10000 4.63 300 11:20 09.05.2021
3251 Clouds 15 1005 94 10000 5.66 320 10:41 09.05.2021
3252 Clouds 15 1004 94 10000 5.66 300 09:49 09.05.2021
3253 Clouds 15 1003 100 1500 10.8 200 09:29 09.05.2021
3254 Clouds 16 1003 94 6000 9.26 190 08:54 09.05.2021
3255 Clouds 16 1004 94 10000 10.29 180 08:32 09.05.2021
3256 Clouds 16 1004 94 10000 8.75 180 07:56 09.05.2021
3257 Rain 16 1004 94 10000 8.23 180 07:24 09.05.2021
3258 Clouds 16 1005 88 10000 8.75 190 06:34 09.05.2021
3259 Clouds 16 1010 82 10000 4.63 230 00:52 09.05.2021
3260 Clouds 16 1010 82 10000 4.12 220 23:44 08.05.2021
3261 Clouds 16 1010 82 10000 4.63 240 23:26 08.05.2021
3262 Clouds 16 1010 77 10000 4.12 230 22:47 08.05.2021
3263 Clouds 17 1010 72 10000 4.12 260 22:20 08.05.2021
3264 Clouds 17 1010 72 10000 4.63 260 21:49 08.05.2021
3265 Clouds 17 1011 63 10000 5.14 250 21:19 08.05.2021
3266 Clouds 18 1011 63 10000 5.66 250 20:49 08.05.2021
3267 Clouds 18 1011 55 10000 5.66 240 20:21 08.05.2021
3268 Clouds 19 1011 46 10000 5.14 240 19:24 08.05.2021
3269 Clouds 19 1011 49 10000 5.14 230 18:54 08.05.2021
3270 Clouds 21 1011 49 10000 4.12 270 18:36 08.05.2021
3271 Clouds 21 1012 49 10000 3.6 270 17:54 08.05.2021
3272 Clouds 20 1012 49 10000 5.66 260 17:25 08.05.2021
3273 Clouds 21 1013 49 10000 4.12 250 16:31 08.05.2021
3274 Clouds 21 1013 53 10000 3.09 260 15:52 08.05.2021
3275 Clouds 21 1013 46 10000 5.14 210 15:31 08.05.2021
3276 Clouds 21 1013 49 10000 4.63 220 14:49 08.05.2021
3277 Clouds 21 1014 56 10000 4.12 230 14:24 08.05.2021
3278 Clouds 20 1014 60 10000 3.6 230 13:53 08.05.2021
3279 Clouds 20 1014 60 10000 3.09 310 13:22 08.05.2021
3280 Clouds 19 1014 63 10000 2.57 0 12:35 08.05.2021
3281 Clouds 18 1015 63 10000 1.54 270 11:45 08.05.2021
3282 Clouds 18 1015 72 10000 2.06 0 11:27 08.05.2021
3283 Clouds 17 1015 77 10000 2.06 310 10:42 08.05.2021
3284 Clouds 16 1015 77 10000 2.06 330 10:22 08.05.2021
3285 Clouds 16 1015 82 10000 1.54 320 09:50 08.05.2021
3286 Clouds 15 1015 88 10000 1.54 340 09:32 08.05.2021
3287 Clouds 13 1015 94 10000 2.57 330 08:30 08.05.2021
3288 Clear 14 1015 94 10000 2.57 330 07:41 08.05.2021
3289 Clear 14 1015 94 10000 2.57 330 07:21 08.05.2021
3290 Clear 14 1015 88 10000 3.09 320 06:38 08.05.2021
3291 Clear 16 1017 82 10000 5.14 320 01:55 08.05.2021
3292 Clear 16 1018 82 10000 5.14 320 00:51 08.05.2021
3293 Clear 16 1018 77 10000 6.17 310 00:30 08.05.2021
3294 Clear 17 1018 82 10000 6.17 310 23:31 07.05.2021
3295 Clear 17 1018 82 10000 6.17 310 22:51 07.05.2021
3296 Clear 17 1017 77 10000 5.66 310 22:24 07.05.2021
3297 Clear 18 1017 72 10000 4.63 310 21:43 07.05.2021
3298 Clouds 18 1017 72 10000 5.14 320 21:24 07.05.2021
3299 Clouds 19 1017 68 10000 5.14 310 20:48 07.05.2021
3300 Clouds 19 1017 68 10000 5.14 310 20:48 07.05.2021
3301 Clouds 20 1017 64 10000 5.66 310 20:28 07.05.2021
3302 Clouds 21 1017 60 10000 5.14 320 19:49 07.05.2021
3303 Clouds 21 1018 60 10000 5.14 310 19:27 07.05.2021
3304 Clouds 22 1017 56 10000 5.66 330 18:47 07.05.2021
3305 Clouds 22 1018 56 10000 5.66 330 18:28 07.05.2021
3306 Clouds 23 1018 56 10000 5.14 330 17:42 07.05.2021
3307 Clouds 23 1018 56 10000 4.12 350 17:20 07.05.2021
3308 Clouds 23 1019 56 10000 4.12 320 16:41 07.05.2021
3309 Clouds 23 1019 56 10000 4.12 320 16:22 07.05.2021
3310 Clouds 23 1019 53 10000 3.09 290 15:44 07.05.2021
3311 Clouds 23 1019 53 10000 3.6 0 15:26 07.05.2021
3312 Clouds 22 1020 53 10000 3.09 290 14:38 07.05.2021
3313 Clouds 22 1020 53 10000 3.09 290 14:20 07.05.2021
3314 Clouds 20 1020 60 10000 4.12 350 13:31 07.05.2021
3315 Clouds 20 1020 60 10000 3.6 290 12:52 07.05.2021
3316 Clouds 20 1020 60 10000 3.6 300 12:33 07.05.2021
3317 Clouds 19 1020 63 10000 3.6 310 11:52 07.05.2021
3318 Clouds 18 1020 72 10000 4.12 320 11:31 07.05.2021
3319 Clouds 17 1020 77 10000 5.14 340 10:52 07.05.2021
3320 Clouds 17 1020 77 10000 5.14 350 10:25 07.05.2021
3321 Clouds 17 1020 82 10000 5.14 330 09:59 07.05.2021
3322 Clouds 15 1019 88 10000 4.12 330 08:58 07.05.2021
3323 Clouds 15 1019 94 10000 4.12 330 08:40 07.05.2021
3324 Clouds 15 1019 94 10000 4.63 340 07:53 07.05.2021
3325 Clouds 15 1019 94 10000 4.12 340 06:46 07.05.2021
3326 Clouds 14 1020 88 10000 3.09 320 05:44 07.05.2021
3327 Clouds 15 1021 88 10000 4.63 330 01:54 07.05.2021
3328 Clouds 16 1020 82 10000 6.17 340 23:34 06.05.2021
3329 Clouds 16 1020 77 10000 5.66 340 22:38 06.05.2021
3330 Clouds 17 1020 77 10000 5.14 330 21:45 06.05.2021
3331 Clouds 17 1020 77 10000 5.14 330 21:45 06.05.2021
3332 Clouds 17 1019 68 10000 6.17 310 20:49 06.05.2021
3333 Clouds 17 1019 68 10000 6.17 310 20:49 06.05.2021
3334 Clouds 17 1019 68 10000 6.17 310 20:49 06.05.2021
3335 Clouds 18 1019 63 10000 6.17 310 20:26 06.05.2021
3336 Clouds 19 1019 63 10000 7.2 320 19:56 06.05.2021
3337 Clouds 19 1019 60 10000 5.66 310 19:36 06.05.2021
3338 Clouds 19 1019 60 10000 5.66 310 19:18 06.05.2021
3339 Clouds 21 1019 56 10000 5.66 310 18:36 06.05.2021
3340 Clouds 21 1019 52 10000 5.14 300 17:58 06.05.2021
3341 Clouds 21 1019 53 10000 5.66 330 17:39 06.05.2021
3342 Clouds 22 1019 53 10000 5.66 330 17:18 06.05.2021
3343 Clouds 21 1019 49 10000 5.66 340 16:46 06.05.2021
3344 Clouds 21 1019 53 10000 4.63 300 16:23 06.05.2021
3345 Clouds 22 1019 49 10000 4.12 320 15:42 06.05.2021
3346 Clouds 22 1019 53 10000 3.09 300 15:22 06.05.2021
3347 Clouds 21 1019 60 10000 2.06 300 14:27 06.05.2021
3348 Clouds 21 1020 64 10000 2.57 290 13:55 06.05.2021
3349 Clouds 21 1020 64 10000 2.57 290 13:55 06.05.2021
3350 Clouds 20 1020 63 10000 4.63 350 13:27 06.05.2021
3351 Clouds 19 1020 63 10000 4.12 340 12:55 06.05.2021
3352 Clouds 19 1020 68 10000 5.14 340 12:33 06.05.2021
3353 Clouds 18 1020 68 10000 5.66 360 11:49 06.05.2021
3354 Clouds 18 1020 68 10000 5.66 340 11:25 06.05.2021
3355 Clouds 17 1020 72 10000 6.17 350 10:52 06.05.2021
3356 Clouds 17 1019 77 10000 5.66 340 10:27 06.05.2021
3357 Clouds 16 1019 82 10000 5.66 340 09:52 06.05.2021
3358 Clouds 16 1019 88 10000 5.14 350 09:32 06.05.2021
3359 Clouds 15 1019 82 10000 3.09 350 08:54 06.05.2021
3360 Clouds 15 1018 88 10000 4.12 350 08:24 06.05.2021
3361 Clouds 15 1018 94 10000 5.14 340 07:54 06.05.2021
3362 Clouds 15 1018 88 10000 5.14 340 07:31 06.05.2021
3363 Clouds 15 1018 88 10000 4.63 330 06:28 06.05.2021
3364 Clouds 15 1018 88 10000 3.6 340 05:50 06.05.2021
3365 Clouds 15 1019 88 10000 4.63 350 04:36 06.05.2021
3366 Clouds 15 1019 88 10000 4.12 350 02:35 06.05.2021
3367 Clouds 15 1019 82 10000 6.17 340 00:46 06.05.2021
3368 Clouds 16 1019 72 10000 7.72 340 22:49 05.05.2021
3369 Clouds 16 1018 72 10000 7.72 330 22:24 05.05.2021
3370 Clouds 16 1018 72 10000 7.72 330 21:43 05.05.2021
3371 Clouds 17 1018 72 10000 7.2 330 21:21 05.05.2021
3372 Clouds 17 1017 68 10000 7.72 320 20:36 05.05.2021
3373 Clouds 18 1018 63 10000 7.2 320 19:56 05.05.2021
3374 Clouds 19 1018 60 10000 7.2 320 19:37 05.05.2021
3375 Clouds 19 1018 60 10000 7.2 320 19:18 05.05.2021
3376 Clouds 21 1017 53 10000 7.72 350 18:23 05.05.2021
3377 Clouds 21 1017 52 10000 7.72 330 17:54 05.05.2021
3378 Clouds 21 1018 49 10000 7.72 340 17:28 05.05.2021
3379 Clouds 21 1018 49 10000 7.72 340 16:55 05.05.2021
3380 Clouds 21 1018 52 10000 7.2 340 16:32 05.05.2021
3381 Clouds 21 1018 52 10000 8.75 340 15:55 05.05.2021
3382 Clouds 21 1018 49 10000 6.17 330 15:22 05.05.2021
3383 Clouds 21 1018 46 10000 5.66 340 14:44 05.05.2021
3384 Clouds 21 1018 49 10000 5.14 340 14:25 05.05.2021
3385 Clouds 20 1019 52 10000 5.66 340 13:48 05.05.2021
3386 Clouds 20 1019 52 10000 5.66 340 13:25 05.05.2021
3387 Clouds 19 1019 59 10000 7.2 340 12:37 05.05.2021
3388 Clear 18 1018 59 10000 6.69 10 12:18 05.05.2021
3389 Clouds 18 1019 67 10000 7.72 350 11:41 05.05.2021
3390 Clouds 17 1019 67 10000 7.72 350 11:18 05.05.2021
3391 Clouds 16 1019 67 10000 8.75 360 10:43 05.05.2021
3392 Clouds 15 1019 77 10000 7.2 350 09:54 05.05.2021
3393 Clouds 15 1019 82 10000 6.17 350 09:31 05.05.2021
3394 Clouds 14 1018 82 10000 5.66 350 08:43 05.05.2021
3395 Clouds 14 1018 88 10000 7.2 340 08:24 05.05.2021
3396 Clouds 14 1018 88 10000 7.2 340 07:48 05.05.2021
3397 Clouds 14 1018 88 10000 5.14 340 07:22 05.05.2021
3398 Clouds 14 1018 88 10000 7.72 340 06:37 05.05.2021
3399 Clear 13 1019 76 10000 3.09 10 02:21 05.05.2021
3400 Clouds 14 1019 76 10000 6.69 350 00:50 05.05.2021
3401 Clouds 14 1019 72 10000 7.2 330 23:39 04.05.2021
3402 Clouds 15 1019 72 10000 6.69 320 22:57 04.05.2021
3403 Clouds 15 1018 67 10000 7.2 320 22:39 04.05.2021
3404 Clouds 15 1018 67 10000 7.2 320 22:18 04.05.2021
3405 Clouds 16 1018 59 10000 7.2 310 21:42 04.05.2021
3406 Clouds 16 1018 55 10000 7.72 320 21:20 04.05.2021
3407 Clouds 18 1017 52 10000 8.23 320 20:45 04.05.2021
3408 Clear 19 1017 45 10000 8.23 320 20:23 04.05.2021
3409 Clear 19 1017 42 10000 7.2 320 19:44 04.05.2021
3410 Clouds 20 1018 35 10000 6.69 320 19:26 04.05.2021
3411 Clouds 21 1018 40 10000 6.69 320 18:53 04.05.2021
3412 Clouds 22 1018 40 10000 5.66 320 18:34 04.05.2021
3413 Clouds 22 1018 43 10000 5.66 320 17:51 04.05.2021
3414 Clouds 22 1018 43 10000 5.66 310 17:26 04.05.2021
3415 Clouds 22 1018 40 10000 5.14 320 16:48 04.05.2021
3416 Clouds 23 1018 40 10000 4.63 340 16:24 04.05.2021
3417 Clouds 22 1019 40 10000 4.12 320 15:46 04.05.2021
3418 Clouds 22 1019 46 10000 4.63 320 15:21 04.05.2021
3419 Clear 21 1019 52 10000 5.14 330 14:30 04.05.2021
3420 Clouds 20 1020 56 10000 4.12 340 13:42 04.05.2021
3421 Clouds 20 1020 56 10000 4.12 340 13:21 04.05.2021
3422 Clouds 20 1020 56 10000 4.12 320 12:53 04.05.2021
3423 Clouds 19 1019 55 10000 4.63 330 12:28 04.05.2021
3424 Clouds 18 1019 63 10000 4.12 320 11:45 04.05.2021
3425 Clouds 17 1019 67 10000 5.66 330 11:24 04.05.2021
3426 Clouds 16 1019 67 10000 6.17 330 10:44 04.05.2021
3427 Clouds 16 1019 67 10000 4.63 310 10:23 04.05.2021
3428 Clouds 14 1019 77 10000 5.14 320 09:42 04.05.2021
3429 Clouds 14 1019 77 10000 6.17 320 09:20 04.05.2021
3430 Clouds 14 1018 76 10000 5.66 310 08:48 04.05.2021
3431 Clouds 13 1018 71 10000 6.17 310 08:19 04.05.2021
3432 Clear 13 1018 67 10000 4.63 320 07:47 04.05.2021
3433 Clear 13 1018 67 10000 4.63 320 07:47 04.05.2021
3434 Clear 13 1018 76 10000 2.57 320 06:47 04.05.2021
3435 Clear 14 1018 71 10000 4.63 310 06:21 04.05.2021
3436 Clear 14 1018 54 10000 3.6 330 03:58 04.05.2021
3437 Clear 15 1019 58 10000 6.17 330 01:43 04.05.2021
3438 Clear 16 1019 58 10000 7.72 340 00:19 04.05.2021
3439 Clear 16 1018 51 10000 8.23 340 23:31 03.05.2021
3440 Clear 17 1018 42 10000 7.2 330 22:42 03.05.2021
3441 Clear 17 1018 42 10000 7.2 330 22:23 03.05.2021
3442 Clear 18 1017 42 10000 6.69 330 21:46 03.05.2021
3443 Clear 18 1017 42 10000 6.69 330 21:25 03.05.2021
3444 Clear 19 1017 42 10000 7.72 340 20:56 03.05.2021
3445 Clear 20 1017 42 10000 7.72 340 20:38 03.05.2021
3446 Clear 21 1016 43 10000 7.2 330 19:53 03.05.2021
3447 Clear 21 1016 40 10000 8.23 350 19:34 03.05.2021
3448 Clear 22 1016 43 10000 7.2 340 18:42 03.05.2021
3449 Clear 21 1016 46 10000 5.14 350 17:57 03.05.2021
3450 Clear 22 1016 27 10000 3.6 110 17:34 03.05.2021
3451 Clear 22 1016 25 10000 4.12 90 16:53 03.05.2021
3452 Clouds 22 1017 25 10000 2.57 0 16:32 03.05.2021
3453 Clouds 21 1017 28 10000 5.14 80 15:51 03.05.2021
3454 Clouds 21 1017 30 10000 4.63 90 15:31 03.05.2021
3455 Clouds 20 1017 40 10000 3.6 90 14:38 03.05.2021
3456 Clouds 20 1018 37 10000 4.12 70 14:18 03.05.2021
3457 Clouds 20 1018 45 10000 4.63 80 13:38 03.05.2021
3458 Clouds 20 1018 45 10000 4.63 80 13:20 03.05.2021
3459 Clouds 19 1018 55 10000 3.09 90 12:39 03.05.2021
3460 Clouds 19 1018 55 10000 3.09 90 12:19 03.05.2021
3461 Clear 17 1018 59 10000 3.6 10 11:38 03.05.2021
3462 Clouds 17 1018 63 10000 4.63 330 10:57 03.05.2021
3463 Clouds 16 1018 67 10000 5.14 340 10:38 03.05.2021
3464 Clouds 16 1018 67 10000 5.14 340 10:18 03.05.2021
3465 Clear 14 1017 67 10000 5.14 330 09:40 03.05.2021
3466 Clear 14 1017 71 10000 5.66 330 08:46 03.05.2021
3467 Clear 12 1017 71 10000 5.66 330 08:24 03.05.2021
3468 Clear 13 1017 71 10000 5.14 330 07:55 03.05.2021
3469 Clear 12 1017 71 10000 5.66 330 06:39 03.05.2021
3470 Clear 13 1017 71 10000 5.66 330 06:19 03.05.2021
3471 Clear 13 1017 71 10000 5.66 330 06:19 03.05.2021
3472 Clear 12 1017 71 10000 5.14 330 05:42 03.05.2021
3473 Clear 13 1018 71 10000 6.17 330 00:46 03.05.2021
3474 Clear 13 1018 67 10000 7.2 330 23:57 02.05.2021
3475 Clear 14 1018 67 10000 7.2 330 23:21 02.05.2021
3476 Clouds 13 1017 62 10000 6.17 330 22:41 02.05.2021
3477 Clouds 13 1017 62 10000 6.17 330 22:18 02.05.2021
3478 Clouds 14 1017 58 10000 7.2 330 21:44 02.05.2021
3479 Clouds 15 1017 54 10000 7.72 330 21:24 02.05.2021
3480 Clouds 16 1017 55 10000 6.17 320 20:26 02.05.2021
3481 Clouds 16 1017 51 10000 5.66 320 19:50 02.05.2021
3482 Clouds 16 1017 51 10000 6.69 320 19:23 02.05.2021
3483 Clouds 16 1017 48 10000 6.17 320 18:55 02.05.2021
3484 Clouds 17 1017 45 10000 6.69 330 18:37 02.05.2021
3485 Clouds 17 1017 45 10000 6.69 330 18:18 02.05.2021
3486 Clouds 17 1017 48 10000 6.17 320 17:44 02.05.2021
3487 Clouds 17 1018 48 10000 5.66 330 17:23 02.05.2021
3488 Clouds 17 1018 48 10000 6.17 330 16:46 02.05.2021
3489 Clouds 17 1018 48 10000 6.17 330 16:27 02.05.2021
3490 Clear 18 1018 42 10000 6.69 340 15:44 02.05.2021
3491 Clear 17 1018 45 10000 5.66 350 15:24 02.05.2021
3492 Clear 17 1018 42 10000 4.63 330 14:45 02.05.2021
3493 Clouds 18 1018 39 10000 4.63 360 14:26 02.05.2021
3494 Clouds 17 1019 45 10000 3.6 350 13:46 02.05.2021
3495 Clouds 17 1019 48 10000 5.14 340 13:23 02.05.2021
3496 Clouds 16 1019 55 10000 5.66 350 12:55 02.05.2021
3497 Clouds 16 1019 55 10000 5.66 350 12:37 02.05.2021
3498 Clouds 16 1019 55 10000 5.66 350 12:19 02.05.2021
3499 Clouds 15 1019 67 10000 4.63 350 11:39 02.05.2021
3500 Clouds 15 1019 67 10000 4.63 350 11:21 02.05.2021
3501 Clouds 14 1019 71 10000 2.57 20 10:22 02.05.2021
3502 Clouds 13 1019 71 10000 3.09 330 09:50 02.05.2021
3503 Clouds 13 1019 76 10000 2.06 310 09:30 02.05.2021
3504 Clouds 13 1019 76 10000 2.06 310 09:30 02.05.2021
3505 Clouds 10 1019 81 10000 2.06 320 08:58 02.05.2021
3506 Clouds 9 1019 81 10000 2.57 340 08:34 02.05.2021
3507 Clouds 9 1019 81 10000 2.57 340 08:34 02.05.2021
3508 Clouds 10 1018 81 10000 2.06 320 07:56 02.05.2021
3509 Clouds 10 1018 81 10000 1.54 280 07:24 02.05.2021
3510 Clouds 10 1019 81 10000 1.03 280 05:32 02.05.2021
3511 Clouds 10 1019 81 10000 0.51 0 03:56 02.05.2021
3512 Clouds 12 1019 71 10000 1.54 310 00:26 02.05.2021
3513 Clouds 13 1019 66 10000 2.57 320 23:37 01.05.2021
3514 Clouds 13 1019 66 10000 2.57 320 23:19 01.05.2021
3515 Clouds 13 1019 62 10000 3.09 320 22:39 01.05.2021
3516 Clouds 13 1019 62 10000 3.09 320 22:18 01.05.2021
3517 Clouds 14 1019 58 10000 4.12 320 21:42 01.05.2021
3518 Clouds 14 1018 54 10000 4.12 330 21:23 01.05.2021
3519 Clouds 15 1018 51 10000 5.66 330 20:52 01.05.2021
3520 Clouds 15 1018 51 10000 5.66 320 20:29 01.05.2021
3521 Clouds 16 1018 47 10000 6.69 330 19:56 01.05.2021
3522 Clouds 16 1018 51 10000 7.2 330 19:31 01.05.2021
3523 Clouds 16 1017 48 10000 6.17 310 18:55 01.05.2021
3524 Clouds 16 1017 44 10000 6.69 320 18:35 01.05.2021
3525 Clouds 16 1017 41 10000 6.17 330 17:54 01.05.2021
3526 Clouds 16 1017 41 10000 5.66 330 17:28 01.05.2021
3527 Clouds 17 1017 48 10000 6.69 330 16:47 01.05.2021
3528 Clouds 17 1017 48 10000 6.17 340 16:29 01.05.2021
3529 Clouds 16 1017 44 10000 6.17 330 15:49 01.05.2021
3530 Clouds 16 1017 44 10000 6.17 330 14:53 01.05.2021
3531 Clouds 16 1017 47 10000 5.14 310 13:41 01.05.2021
3532 Clouds 16 1017 47 10000 5.14 310 13:23 01.05.2021
3533 Clouds 16 1017 47 10000 5.14 300 12:39 01.05.2021
3534 Clouds 16 1017 47 10000 5.14 300 12:19 01.05.2021
3535 Clouds 15 1017 62 10000 3.09 300 11:42 01.05.2021
3536 Clouds 15 1017 62 10000 3.09 300 11:23 01.05.2021
3537 Clouds 14 1017 66 10000 4.63 300 10:54 01.05.2021
3538 Clouds 13 1017 62 10000 1.54 310 09:58 01.05.2021
3539 Clouds 13 1016 62 10000 3.6 310 09:39 01.05.2021
3540 Clouds 13 1016 62 10000 3.6 310 09:20 01.05.2021
3541 Clouds 12 1016 76 10000 1.03 0 08:18 01.05.2021
3542 Clouds 11 1015 76 10000 1.54 250 07:27 01.05.2021
3543 Clouds 11 1015 76 10000 1.03 0 05:33 01.05.2021
3544 Clouds 13 1015 76 10000 2.06 300 01:38 01.05.2021
3545 Clouds 13 1015 66 10000 2.06 300 00:28 01.05.2021
3546 Clouds 13 1015 66 10000 2.06 310 23:43 30.04.2021
3547 Clouds 13 1015 66 10000 2.57 310 22:47 30.04.2021
3548 Clouds 13 1014 62 10000 3.09 320 22:20 30.04.2021
3549 Clouds 14 1014 58 10000 4.63 320 21:46 30.04.2021
3550 Clouds 14 1014 62 10000 5.66 330 21:27 30.04.2021
3551 Clouds 15 1013 58 10000 4.63 310 20:51 30.04.2021
3552 Clouds 15 1013 51 10000 5.66 320 20:31 30.04.2021
3553 Clouds 16 1013 44 10000 5.66 310 19:47 30.04.2021
3554 Clouds 16 1013 44 10000 6.17 330 18:49 30.04.2021
3555 Clouds 16 1012 44 10000 6.69 330 18:29 30.04.2021
3556 Clouds 17 1013 42 10000 5.66 310 17:56 30.04.2021
3557 Clouds 17 1013 42 10000 6.69 340 17:33 30.04.2021
3558 Clouds 17 1013 45 10000 7.2 330 16:54 30.04.2021
3559 Clouds 17 1013 42 10000 6.17 310 16:33 30.04.2021
3560 Clouds 17 1013 42 10000 5.14 310 15:44 30.04.2021
3561 Clouds 17 1013 42 10000 6.17 320 15:26 30.04.2021
3562 Clouds 17 1013 39 10000 6.17 330 14:59 30.04.2021
3563 Clouds 17 1013 48 10000 5.66 340 14:40 30.04.2021
3564 Clouds 17 1013 55 10000 4.63 330 14:19 30.04.2021
3565 Clouds 17 1013 63 10000 4.63 350 13:41 30.04.2021
3566 Clouds 16 1013 63 10000 4.63 350 13:22 30.04.2021
3567 Clouds 16 1013 55 10000 5.66 360 12:38 30.04.2021
3568 Clouds 16 1013 55 10000 5.66 350 11:56 30.04.2021
3569 Clouds 16 1013 58 10000 5.66 340 11:23 30.04.2021
3570 Clouds 15 1013 58 10000 6.17 340 10:51 30.04.2021
3571 Clouds 14 1013 67 10000 3.6 330 10:33 30.04.2021
3572 Clouds 14 1012 71 10000 3.09 300 09:49 30.04.2021
3573 Clouds 13 1012 71 10000 2.57 300 09:21 30.04.2021
3574 Clouds 12 1012 76 10000 2.57 300 08:40 30.04.2021
3575 Clouds 12 1012 76 10000 2.57 300 07:43 30.04.2021
3576 Clear 12 1011 76 10000 3.09 310 07:21 30.04.2021
3577 Clear 11 1011 76 10000 2.57 320 06:45 30.04.2021
3578 Clear 11 1011 76 10000 2.06 310 06:23 30.04.2021
3579 Clear 12 1012 76 10000 2.06 310 03:50 30.04.2021
3580 Clear 12 1013 76 10000 0.51 0 01:56 30.04.2021
3581 Clear 12 1013 71 10000 2.06 320 01:38 30.04.2021
3582 Clouds 13 1012 71 10000 4.63 330 23:33 29.04.2021
3583 Clouds 14 1012 71 10000 4.63 330 22:59 29.04.2021
3584 Clouds 13 1011 71 10000 4.63 330 22:41 29.04.2021
3585 Clouds 14 1011 71 10000 4.63 330 22:21 29.04.2021
3586 Clouds 14 1011 62 10000 5.66 330 21:43 29.04.2021
3587 Clouds 14 1011 62 10000 5.14 330 21:22 29.04.2021
3588 Clouds 15 1011 58 10000 5.14 320 20:45 29.04.2021
3589 Clouds 15 1011 58 10000 5.14 320 20:27 29.04.2021
3590 Clouds 16 1011 55 10000 4.63 310 19:57 29.04.2021
3591 Clouds 16 1011 55 10000 6.17 320 19:38 29.04.2021
3592 Clouds 16 1011 55 10000 6.17 320 19:19 29.04.2021
3593 Clouds 17 1011 45 10000 5.14 310 18:41 29.04.2021
3594 Clouds 17 1011 48 10000 5.14 310 17:48 29.04.2021
3595 Clouds 17 1011 51 10000 5.66 320 17:27 29.04.2021
3596 Clouds 17 1011 45 10000 4.12 290 16:54 29.04.2021
3597 Clouds 17 1011 51 10000 5.66 320 16:27 29.04.2021
3598 Clouds 17 1011 48 10000 5.14 320 15:57 29.04.2021
3599 Clouds 17 1012 45 10000 4.63 300 15:28 29.04.2021
3600 Clouds 17 1012 39 10000 5.14 320 14:53 29.04.2021
3601 Clouds 17 1012 45 10000 5.14 310 14:28 29.04.2021
3602 Clouds 17 1012 48 10000 3.09 300 13:56 29.04.2021
3603 Clouds 16 1012 58 10000 4.12 310 13:35 29.04.2021
3604 Clouds 16 1012 58 10000 2.57 310 12:52 29.04.2021
3605 Clouds 16 1012 58 10000 4.63 310 12:31 29.04.2021
3606 Clouds 16 1012 62 10000 5.14 330 11:57 29.04.2021
3607 Clouds 15 1011 55 10000 4.63 300 11:37 29.04.2021
3608 Clouds 15 1011 62 10000 3.6 310 11:18 29.04.2021
3609 Clouds 15 1011 67 10000 3.09 310 10:40 29.04.2021
3610 Clouds 14 1011 71 10000 2.06 300 09:59 29.04.2021
3611 Clouds 14 1011 71 10000 2.06 300 09:59 29.04.2021
3612 Clouds 14 1011 67 10000 1.54 300 09:36 29.04.2021
3613 Clouds 13 1011 67 10000 1.54 300 09:18 29.04.2021
3614 Clouds 13 1010 71 10000 3.09 310 08:34 29.04.2021
3615 Clouds 12 1010 81 10000 1.54 240 07:54 29.04.2021
3616 Clouds 12 1010 71 10000 2.06 280 07:29 29.04.2021
3617 Clouds 13 1010 76 10000 1.54 270 06:36 29.04.2021
3618 Clouds 13 1011 76 10000 1.54 320 05:21 29.04.2021
3619 Clouds 13 1011 71 10000 1.54 300 00:27 29.04.2021
3620 Clouds 14 1011 71 10000 2.06 330 23:22 28.04.2021
3621 Clouds 14 1010 71 10000 3.09 330 22:53 28.04.2021
3622 Clouds 14 1010 71 10000 3.09 320 22:26 28.04.2021
3623 Clouds 14 1009 67 10000 5.66 330 21:51 28.04.2021
3624 Clouds 14 1009 72 10000 5.14 320 21:24 28.04.2021
3625 Clouds 15 1009 63 10000 6.17 330 20:57 28.04.2021
3626 Clouds 16 1009 63 10000 6.17 320 20:38 28.04.2021
3627 Clouds 16 1009 63 10000 6.17 320 20:38 28.04.2021
3628 Clouds 16 1009 63 10000 6.17 320 20:20 28.04.2021
3629 Clouds 16 1008 77 10000 5.66 300 19:32 28.04.2021
3630 Clouds 16 1008 77 10000 5.66 310 18:56 28.04.2021
3631 Clouds 16 1008 72 10000 6.17 300 18:38 28.04.2021
3632 Clouds 16 1008 72 10000 6.17 300 18:19 28.04.2021
3633 Clouds 16 1008 72 10000 6.17 300 17:44 28.04.2021
3634 Clouds 17 1008 68 10000 5.66 310 17:24 28.04.2021
3635 Clouds 17 1008 72 10000 5.14 300 16:22 28.04.2021
3636 Clouds 17 1008 72 10000 6.17 300 15:48 28.04.2021
3637 Clouds 17 1008 63 10000 4.63 290 15:30 28.04.2021
3638 Clouds 18 1008 59 10000 4.12 280 14:44 28.04.2021
3639 Clouds 17 1008 63 10000 5.14 280 14:21 28.04.2021
3640 Clouds 17 1008 67 10000 5.14 270 13:56 28.04.2021
3641 Clouds 17 1008 72 10000 4.12 280 13:24 28.04.2021
3642 Clouds 17 1008 72 10000 4.12 280 12:54 28.04.2021
3643 Clouds 17 1008 72 10000 3.09 290 12:28 28.04.2021
3644 Clouds 17 1008 77 10000 3.6 300 11:46 28.04.2021
3645 Clouds 16 1007 77 10000 3.6 290 11:26 28.04.2021
3646 Clouds 16 1007 82 10000 3.09 290 10:42 28.04.2021
3647 Clouds 16 1007 82 10000 3.09 290 10:42 28.04.2021
3648 Clouds 16 1007 88 10000 3.09 280 10:21 28.04.2021
3649 Clouds 15 1007 88 10000 4.12 250 09:56 28.04.2021
3650 Clouds 15 1006 88 10000 3.6 260 09:32 28.04.2021
3651 Clouds 15 1006 94 10000 3.09 260 08:53 28.04.2021
3652 Clouds 14 1006 88 10000 3.6 260 07:52 28.04.2021
3653 Clouds 14 1006 94 10000 2.06 250 07:25 28.04.2021
3654 Clouds 14 1007 94 10000 2.06 220 05:38 28.04.2021
3655 Clouds 14 1007 88 10000 2.57 250 03:45 28.04.2021
3656 Clouds 14 1008 82 10000 2.06 230 02:34 28.04.2021
3657 Clouds 15 1009 82 10000 2.06 240 00:43 28.04.2021
3658 Clouds 15 1009 82 10000 2.57 260 23:49 27.04.2021
3659 Clouds 15 1009 77 10000 3.09 270 23:27 27.04.2021
3660 Clouds 15 1009 77 10000 2.06 290 22:48 27.04.2021
3661 Clouds 15 1008 77 10000 2.57 290 22:29 27.04.2021
3662 Clouds 16 1008 77 10000 3.6 290 21:48 27.04.2021
3663 Clouds 16 1008 72 10000 3.09 300 21:29 27.04.2021
3664 Clouds 16 1007 72 10000 5.14 300 20:56 27.04.2021
3665 Clouds 17 1007 63 10000 5.14 300 20:38 27.04.2021
3666 Clouds 17 1007 67 10000 4.63 300 19:51 27.04.2021
3667 Clouds 18 1007 72 10000 4.12 300 19:26 27.04.2021
3668 Clouds 18 1007 72 10000 5.66 310 18:57 27.04.2021
3669 Clouds 18 1007 72 10000 5.14 320 18:39 27.04.2021
3670 Clouds 18 1007 72 10000 5.14 320 18:21 27.04.2021
3671 Clouds 19 1007 60 10000 4.63 280 17:30 27.04.2021
3672 Clouds 19 1007 60 10000 5.14 270 16:49 27.04.2021
3673 Clouds 19 1007 60 10000 5.66 270 16:31 27.04.2021
3674 Clouds 19 1007 59 10000 4.12 310 15:57 27.04.2021
3675 Clouds 19 1007 63 10000 3.09 310 15:37 27.04.2021
3676 Clouds 19 1007 63 10000 3.09 310 15:19 27.04.2021
3677 Clouds 19 1008 59 10000 3.09 310 14:41 27.04.2021
3678 Clouds 19 1008 59 10000 3.09 310 14:20 27.04.2021
3679 Clouds 19 1008 63 10000 3.6 330 13:43 27.04.2021
3680 Clouds 19 1008 68 10000 2.57 350 13:24 27.04.2021
3681 Clouds 18 1008 72 10000 4.12 340 12:30 27.04.2021
3682 Clouds 17 1008 72 10000 4.12 320 11:55 27.04.2021
3683 Clouds 17 1007 72 10000 4.12 330 11:26 27.04.2021
3684 Clouds 16 1007 77 10000 5.66 330 10:49 27.04.2021
3685 Clouds 16 1007 88 10000 4.63 310 10:23 27.04.2021
3686 Clouds 16 1007 82 10000 6.17 330 09:45 27.04.2021
3687 Clouds 15 1006 88 10000 4.12 310 08:54 27.04.2021
3688 Clouds 15 1006 88 10000 4.12 320 08:20 27.04.2021
3689 Clouds 15 1006 88 10000 4.12 320 07:42 27.04.2021
3690 Clouds 15 1006 94 10000 3.6 330 06:50 27.04.2021
3691 Clouds 15 1006 88 10000 3.6 320 06:20 27.04.2021
3692 Clouds 15 1006 94 10000 3.09 310 05:30 27.04.2021
3693 Clouds 16 1007 94 10000 1.54 30 01:56 27.04.2021
3694 Clouds 16 1006 94 10000 3.6 70 00:27 27.04.2021
3695 Clouds 16 1006 94 10000 2.06 40 23:43 26.04.2021
3696 Clouds 16 1006 94 10000 2.57 10 23:19 26.04.2021
3697 Clouds 16 1006 88 10000 3.6 20 22:50 26.04.2021
3698 Clouds 16 1006 88 10000 4.12 30 22:20 26.04.2021
3699 Clouds 17 1005 82 10000 3.6 80 21:42 26.04.2021
3700 Clouds 17 1005 82 10000 3.6 80 21:22 26.04.2021
3701 Clouds 18 1005 82 10000 2.57 40 20:41 26.04.2021
3702 Clouds 18 1005 82 10000 2.57 40 20:23 26.04.2021
3703 Clouds 18 1005 82 10000 2.57 350 19:45 26.04.2021
3704 Clouds 17 1005 88 10000 3.09 350 19:23 26.04.2021
3705 Clouds 17 1005 82 10000 3.6 340 18:43 26.04.2021
3706 Clouds 18 1005 77 10000 3.6 330 18:22 26.04.2021
3707 Rain 18 1005 77 10000 1.54 290 17:49 26.04.2021
3708 Rain 18 1005 82 10000 2.57 300 17:21 26.04.2021
3709 Clouds 18 1005 88 10000 2.06 310 16:46 26.04.2021
3710 Rain 18 1006 88 10000 4.12 210 16:25 26.04.2021
3711 Rain 19 1006 82 10000 4.63 110 15:44 26.04.2021
3712 Rain 19 1005 68 10000 3.09 130 15:22 26.04.2021
3713 Clouds 20 1005 68 10000 2.06 130 14:54 26.04.2021
3714 Clouds 19 1006 64 10000 3.6 110 14:34 26.04.2021
3715 Clouds 19 1006 72 10000 3.09 140 13:52 26.04.2021
3716 Clouds 19 1006 77 10000 2.57 130 13:28 26.04.2021
3717 Clouds 18 1006 82 10000 2.57 80 12:52 26.04.2021
3718 Clouds 16 1007 94 8000 3.09 0 11:55 26.04.2021
3719 Clouds 16 1007 100 8000 3.09 80 11:36 26.04.2021
3720 Clouds 16 1007 94 10000 3.6 70 10:50 26.04.2021
3721 Clouds 15 1007 94 10000 3.6 70 10:24 26.04.2021
3722 Clouds 15 1006 94 10000 3.6 70 09:48 26.04.2021
3723 Clouds 14 1006 94 8000 3.6 70 09:25 26.04.2021
3724 Clouds 14 1006 94 10000 3.09 70 08:55 26.04.2021
3725 Clouds 14 1006 94 10000 3.6 60 08:22 26.04.2021
3726 Clouds 14 1006 94 10000 3.6 60 07:53 26.04.2021
3727 Clouds 14 1006 94 10000 3.09 60 07:22 26.04.2021
3728 Clouds 14 1006 94 10000 3.09 60 07:22 26.04.2021
3729 Clouds 14 1006 94 10000 2.57 70 06:38 26.04.2021
3730 Clouds 15 1006 100 10000 2.06 70 05:37 26.04.2021
3731 Clouds 15 1007 100 10000 2.06 30 04:37 26.04.2021
3732 Clouds 16 1007 94 10000 2.06 100 02:51 26.04.2021
3733 Clouds 16 1008 94 10000 1.54 70 01:19 26.04.2021
3734 Clouds 17 1008 88 10000 2.06 120 00:44 26.04.2021
3735 Clouds 17 1007 82 10000 2.06 140 23:48 25.04.2021
3736 Clouds 17 1007 82 10000 2.57 170 23:26 25.04.2021
3737 Clouds 17 1007 82 10000 2.06 210 22:50 25.04.2021
3738 Clouds 17 1007 77 10000 3.09 220 22:22 25.04.2021
3739 Clouds 17 1007 77 10000 3.6 220 21:59 25.04.2021
3740 Clouds 18 1006 68 10000 4.12 210 21:41 25.04.2021
3741 Clouds 18 1006 72 10000 4.12 220 21:22 25.04.2021
3742 Clouds 18 1006 72 10000 4.12 220 20:47 25.04.2021
3743 Clouds 19 1006 63 10000 4.63 230 20:25 25.04.2021
3744 Clouds 19 1006 63 10000 5.66 210 19:46 25.04.2021
3745 Clouds 20 1006 60 10000 5.66 220 19:28 25.04.2021
3746 Clouds 20 1006 64 10000 5.66 220 18:51 25.04.2021
3747 Clouds 20 1006 60 10000 6.17 230 18:29 25.04.2021
3748 Clouds 20 1006 52 10000 5.66 210 17:48 25.04.2021
3749 Clouds 20 1006 60 10000 8.23 220 17:26 25.04.2021
3750 Clouds 20 1006 60 10000 6.69 210 16:58 25.04.2021
3751 Clouds 20 1006 68 10000 6.69 210 16:39 25.04.2021
3752 Clouds 20 1006 68 10000 6.69 210 16:21 25.04.2021
3753 Clouds 20 1006 56 10000 6.17 200 15:27 25.04.2021
3754 Clouds 19 1006 60 10000 5.14 220 14:50 25.04.2021
3755 Clouds 20 1006 56 10000 5.14 170 14:20 25.04.2021
3756 Clouds 19 1007 68 10000 5.66 180 13:50 25.04.2021
3757 Clouds 19 1007 68 10000 4.63 140 13:21 25.04.2021
3758 Clouds 19 1007 72 10000 3.6 120 12:49 25.04.2021
3759 Clouds 18 1007 82 10000 4.12 140 12:26 25.04.2021
3760 Clouds 18 1007 77 10000 3.09 110 11:47 25.04.2021
3761 Clouds 17 1007 82 10000 3.6 120 11:25 25.04.2021
3762 Clouds 16 1007 82 10000 3.09 100 10:46 25.04.2021
3763 Clouds 16 1007 82 10000 2.57 100 10:20 25.04.2021
3764 Clouds 15 1007 82 10000 2.57 80 09:46 25.04.2021
3765 Clouds 14 1007 94 10000 3.09 80 09:24 25.04.2021
3766 Clouds 14 1007 88 10000 2.57 90 08:20 25.04.2021
3767 Clear 15 1007 88 10000 2.06 120 07:38 25.04.2021
3768 Clear 15 1007 88 10000 2.06 120 07:19 25.04.2021
3769 Clear 15 1007 82 10000 2.57 210 06:30 25.04.2021
3770 Clouds 15 1007 88 10000 3.6 200 04:52 25.04.2021
3771 Clouds 15 1008 94 10000 3.09 150 04:34 25.04.2021
3772 Clouds 17 1009 94 10000 3.09 130 01:43 25.04.2021
3773 Clouds 17 1009 88 10000 5.14 170 00:58 25.04.2021
3774 Clouds 17 1009 82 10000 5.14 200 23:53 24.04.2021
3775 Clouds 17 1009 68 10000 3.09 180 23:35 24.04.2021
3776 Clouds 17 1009 68 10000 2.57 180 22:58 24.04.2021
3777 Clouds 17 1009 77 10000 3.6 200 22:36 24.04.2021
3778 Clouds 17 1009 77 10000 3.09 200 21:53 24.04.2021
3779 Clouds 18 1009 77 10000 5.66 210 21:27 24.04.2021
3780 Clouds 18 1008 68 10000 5.14 210 20:50 24.04.2021
3781 Clouds 18 1008 68 10000 5.14 210 20:30 24.04.2021
3782 Clouds 18 1009 63 10000 5.14 210 19:54 24.04.2021
3783 Clouds 19 1008 63 10000 6.17 190 19:25 24.04.2021
3784 Clouds 19 1008 63 10000 6.17 200 18:58 24.04.2021
3785 Clouds 19 1008 60 10000 6.17 200 18:29 24.04.2021
3786 Clouds 20 1009 68 10000 7.72 200 17:53 24.04.2021
3787 Clouds 20 1009 60 10000 7.72 210 17:26 24.04.2021
3788 Clouds 20 1009 60 10000 7.2 210 16:47 24.04.2021
3789 Clouds 20 1009 60 10000 7.72 210 16:27 24.04.2021
3790 Clouds 20 1009 52 10000 5.66 170 15:35 24.04.2021
3791 Clouds 20 1009 52 10000 5.66 170 15:35 24.04.2021
3792 Clouds 20 1009 60 10000 6.69 180 14:54 24.04.2021
3793 Clouds 20 1009 68 10000 6.69 170 14:29 24.04.2021
3794 Clouds 19 1009 68 10000 7.2 180 13:51 24.04.2021
3795 Clouds 19 1010 68 10000 6.69 180 13:25 24.04.2021
3796 Clouds 18 1010 88 10000 5.66 160 12:38 24.04.2021
3797 Clouds 18 1010 88 10000 5.66 160 12:18 24.04.2021
3798 Clouds 17 1010 94 10000 4.12 140 11:40 24.04.2021
3799 Clouds 16 1010 94 10000 4.12 150 10:52 24.04.2021
3800 Clouds 16 1010 94 10000 2.57 150 10:32 24.04.2021
3801 Clouds 16 1010 94 10000 3.09 150 09:56 24.04.2021
3802 Clouds 16 1009 94 10000 3.09 130 09:27 24.04.2021
3803 Clouds 16 1009 94 10000 3.09 120 07:44 24.04.2021
3804 Clouds 16 1009 94 10000 3.6 110 06:29 24.04.2021
3805 Clouds 16 1010 94 10000 3.09 150 03:24 24.04.2021
3806 Clouds 16 1011 94 10000 4.63 190 00:35 24.04.2021
3807 Clouds 16 1011 94 10000 3.09 210 23:30 23.04.2021
3808 Clouds 16 1011 94 10000 4.63 220 22:46 23.04.2021
3809 Clouds 16 1011 94 10000 5.66 210 22:20 23.04.2021
3810 Clouds 16 1011 88 10000 5.66 220 21:44 23.04.2021
3811 Clouds 16 1010 94 10000 7.2 200 21:25 23.04.2021
3812 Clouds 16 1010 88 10000 7.2 220 20:41 23.04.2021
3813 Rain 16 1010 88 10000 7.2 220 20:20 23.04.2021
3814 Clouds 16 1010 88 6000 7.72 210 19:52 23.04.2021
3815 Rain 16 1010 100 4000 7.72 220 19:27 23.04.2021
3816 Rain 16 1010 94 4000 8.23 220 18:50 23.04.2021
3817 Rain 16 1010 88 10000 8.23 230 18:28 23.04.2021
3818 Clouds 16 1010 88 10000 7.72 230 17:51 23.04.2021
3819 Clouds 16 1011 82 10000 6.69 220 17:28 23.04.2021
3820 Clouds 16 1011 82 10000 7.2 230 16:59 23.04.2021
3821 Clouds 16 1011 72 10000 8.75 220 16:33 23.04.2021
3822 Clouds 17 1011 77 10000 9.26 210 15:53 23.04.2021
3823 Clouds 17 1011 63 10000 9.77 190 15:34 23.04.2021
3824 Clouds 17 1011 72 10000 7.72 180 14:34 23.04.2021
3825 Clouds 17 1012 68 10000 6.17 170 13:39 23.04.2021
3826 Clouds 18 1011 63 10000 7.2 160 12:48 23.04.2021
3827 Clouds 18 1011 63 10000 7.72 160 12:23 23.04.2021
3828 Clouds 17 1011 72 10000 4.12 150 11:46 23.04.2021
3829 Clouds 17 1011 77 10000 3.6 180 11:27 23.04.2021
3830 Clouds 16 1011 77 10000 4.12 130 10:47 23.04.2021
3831 Clouds 16 1011 88 10000 5.14 110 10:22 23.04.2021
3832 Clouds 16 1011 88 10000 2.57 140 09:42 23.04.2021
3833 Clouds 15 1011 88 10000 2.06 140 08:49 23.04.2021
3834 Rain 15 1011 88 10000 2.06 130 08:29 23.04.2021
3835 Rain 15 1011 88 10000 3.6 140 07:39 23.04.2021
3836 Clouds 15 1011 94 10000 2.57 120 06:50 23.04.2021
3837 Clear 16 1011 88 10000 2.06 140 05:27 23.04.2021
3838 Clouds 16 1013 88 10000 2.57 150 02:59 23.04.2021
3839 Rain 16 1014 82 10000 3.09 230 00:49 23.04.2021
3840 Clear 16 1014 88 10000 2.06 220 23:52 22.04.2021
3841 Clear 16 1014 77 10000 2.57 250 22:46 22.04.2021
3842 Clear 16 1014 72 10000 2.57 220 22:21 22.04.2021
3843 Clear 17 1013 72 10000 2.06 230 21:54 22.04.2021
3844 Clouds 17 1013 67 10000 3.09 250 21:36 22.04.2021
3845 Clouds 17 1013 67 10000 3.09 250 21:18 22.04.2021
3846 Clouds 17 1013 63 10000 5.14 230 20:42 22.04.2021
3847 Clouds 17 1013 63 10000 5.14 230 20:23 22.04.2021
3848 Clouds 17 1013 52 10000 5.14 230 19:49 22.04.2021
3849 Clouds 17 1013 52 10000 5.14 230 19:49 22.04.2021
3850 Clouds 18 1013 52 10000 3.6 230 19:30 22.04.2021
3851 Clouds 19 1013 52 10000 5.14 210 18:43 22.04.2021
3852 Clouds 19 1013 52 10000 5.14 220 18:19 22.04.2021
3853 Clouds 19 1013 56 10000 3.09 210 17:40 22.04.2021
3854 Clouds 19 1013 56 10000 3.09 210 17:40 22.04.2021
3855 Clouds 20 1013 56 10000 3.09 210 17:19 22.04.2021
3856 Clouds 19 1014 56 10000 4.12 210 16:46 22.04.2021
3857 Clouds 19 1014 56 10000 4.12 210 16:46 22.04.2021
3858 Clouds 20 1014 59 10000 5.14 210 16:26 22.04.2021
3859 Clouds 20 1014 63 10000 3.09 220 15:48 22.04.2021
3860 Clouds 19 1014 63 10000 3.09 130 15:23 22.04.2021
3861 Clouds 19 1014 59 10000 3.6 140 14:45 22.04.2021
3862 Clouds 19 1014 63 10000 1.54 0 14:27 22.04.2021
3863 Clouds 18 1015 72 10000 3.09 120 13:42 22.04.2021
3864 Clouds 18 1014 55 10000 2.06 160 13:22 22.04.2021
3865 Clouds 18 1015 55 10000 2.06 0 12:52 22.04.2021
3866 Clouds 18 1015 67 10000 2.57 290 12:31 22.04.2021
3867 Clouds 17 1014 67 10000 2.57 320 11:50 22.04.2021
3868 Clouds 17 1014 77 10000 3.09 310 11:27 22.04.2021
3869 Clouds 16 1014 77 10000 3.09 300 10:59 22.04.2021
3870 Clouds 16 1014 88 10000 2.57 290 10:40 22.04.2021
3871 Clouds 16 1014 88 10000 2.57 290 10:19 22.04.2021
3872 Clouds 15 1013 94 10000 1.54 230 09:36 22.04.2021
3873 Clouds 14 1013 94 10000 1.54 250 08:51 22.04.2021
3874 Clouds 13 1013 94 10000 1.54 280 08:23 22.04.2021
3875 Clouds 14 1013 100 9000 2.57 260 07:49 22.04.2021
3876 Clouds 14 1012 94 10000 1.54 260 07:31 22.04.2021
3877 Clouds 14 1012 94 10000 1.54 250 06:46 22.04.2021
3878 Clouds 14 1012 88 10000 2.06 300 06:18 22.04.2021
3879 Clouds 14 1012 94 10000 2.06 270 05:23 22.04.2021
3880 Clouds 15 1012 88 10000 3.09 280 02:25 22.04.2021
3881 Clouds 15 1012 94 10000 5.14 260 00:23 22.04.2021
3882 Clouds 16 1012 94 10000 4.63 260 23:41 21.04.2021
3883 Clouds 16 1012 94 10000 4.63 260 23:20 21.04.2021
3884 Clouds 16 1011 88 10000 4.12 270 22:40 21.04.2021
3885 Clouds 16 1011 88 10000 4.12 270 22:20 21.04.2021
3886 Clouds 16 1010 94 10000 4.12 250 21:41 21.04.2021
3887 Clouds 16 1010 94 10000 4.12 250 21:22 21.04.2021
3888 Clouds 16 1010 94 8000 5.66 240 20:32 21.04.2021
3889 Clouds 16 1010 94 8000 5.66 240 20:32 21.04.2021
3890 Rain 16 1010 100 4000 5.66 230 19:57 21.04.2021
3891 Rain 16 1010 100 10000 7.2 230 19:38 21.04.2021
3892 Rain 16 1010 100 10000 7.2 230 19:18 21.04.2021
3893 Mist 16 1010 100 2000 4.63 220 18:42 21.04.2021
3894 Clouds 16 1011 94 6000 5.66 200 18:22 21.04.2021
3895 Rain 16 1011 94 4000 6.17 210 17:45 21.04.2021
3896 Rain 15 1011 94 10000 7.2 210 17:22 21.04.2021
3897 Rain 16 1012 82 10000 6.17 220 16:41 21.04.2021
3898 Clouds 16 1012 82 8000 7.2 210 15:52 21.04.2021
3899 Clouds 16 1012 77 10000 6.17 210 15:28 21.04.2021
3900 Clouds 17 1013 72 10000 7.72 210 14:46 21.04.2021
3901 Clouds 17 1013 77 10000 7.2 220 14:27 21.04.2021
3902 Clouds 17 1013 72 10000 6.17 210 13:50 21.04.2021
3903 Clouds 17 1013 72 10000 5.66 220 13:23 21.04.2021
3904 Clouds 17 1014 72 10000 5.66 210 12:48 21.04.2021
3905 Clouds 17 1014 67 10000 3.09 210 12:25 21.04.2021
3906 Clouds 17 1014 67 10000 3.6 240 11:46 21.04.2021
3907 Clouds 17 1014 77 10000 2.06 210 11:25 21.04.2021
3908 Clouds 16 1014 82 10000 0.51 0 10:40 21.04.2021
3909 Clouds 15 1014 88 10000 2.06 260 09:58 21.04.2021
3910 Clouds 15 1014 88 10000 3.09 240 09:33 21.04.2021
3911 Clouds 14 1014 94 10000 0.51 0 08:53 21.04.2021
3912 Clouds 14 1013 94 10000 2.57 330 08:27 21.04.2021
3913 Rain 14 1013 88 10000 2.57 280 07:58 21.04.2021
3914 Rain 14 1013 88 10000 1.03 0 07:29 21.04.2021
3915 Rain 15 1014 82 10000 2.57 270 06:23 21.04.2021
3916 Clouds 15 1014 82 10000 2.06 260 04:18 21.04.2021
3917 Clouds 15 1016 82 10000 2.06 300 00:49 21.04.2021
3918 Clouds 15 1016 82 10000 2.57 310 23:48 20.04.2021
3919 Clouds 15 1016 82 10000 3.09 320 22:56 20.04.2021
3920 Clouds 15 1016 82 10000 3.09 300 22:36 20.04.2021
3921 Clouds 15 1016 82 10000 3.09 300 22:18 20.04.2021
3922 Clouds 15 1015 77 10000 3.6 300 21:44 20.04.2021
3923 Clouds 16 1016 77 10000 4.63 310 21:23 20.04.2021
3924 Clouds 16 1016 67 10000 4.12 300 20:42 20.04.2021
3925 Clouds 16 1015 67 10000 5.14 320 20:22 20.04.2021
3926 Clouds 17 1015 67 10000 4.63 300 19:52 20.04.2021
3927 Clouds 17 1015 63 10000 4.63 300 19:33 20.04.2021
3928 Clouds 17 1015 59 10000 4.63 290 18:54 20.04.2021
3929 Clouds 17 1015 59 10000 6.17 300 18:35 20.04.2021
3930 Clouds 17 1016 59 10000 5.14 300 17:43 20.04.2021
3931 Clouds 18 1016 63 10000 5.14 300 17:18 20.04.2021
3932 Clouds 19 1016 48 10000 4.63 300 16:43 20.04.2021
3933 Clouds 18 1016 52 10000 4.63 310 15:43 20.04.2021
3934 Clouds 18 1016 59 10000 5.14 310 15:25 20.04.2021
3935 Clouds 18 1017 59 10000 4.63 300 14:57 20.04.2021
3936 Clouds 18 1017 63 10000 4.63 310 14:28 20.04.2021
3937 Clouds 17 1017 77 10000 4.63 310 13:32 20.04.2021
3938 Clouds 17 1017 72 10000 3.6 310 12:57 20.04.2021
3939 Clouds 17 1017 72 10000 3.6 300 12:34 20.04.2021
3940 Clouds 17 1017 88 10000 1.03 0 11:58 20.04.2021
3941 Clouds 16 1017 77 10000 2.06 320 11:39 20.04.2021
3942 Clouds 16 1017 94 6000 3.6 320 11:19 20.04.2021
3943 Clouds 16 1017 82 10000 2.57 310 10:42 20.04.2021
3944 Clouds 16 1017 88 10000 4.63 310 10:22 20.04.2021
3945 Clouds 15 1017 94 10000 1.54 300 09:20 20.04.2021
3946 Clouds 15 1017 94 10000 1.54 280 08:54 20.04.2021
3947 Clouds 14 1016 94 10000 2.06 290 08:19 20.04.2021
3948 Clouds 14 1017 94 10000 2.06 270 07:39 20.04.2021
3949 Clouds 15 1017 88 10000 1.54 280 06:35 20.04.2021
3950 Clouds 15 1017 88 10000 2.06 290 05:37 20.04.2021
3951 Clouds 15 1018 88 10000 2.57 290 04:41 20.04.2021
3952 Clouds 16 1019 88 10000 2.06 300 00:53 20.04.2021
3953 Clouds 16 1019 88 10000 2.06 290 00:27 20.04.2021
3954 Clouds 16 1019 82 10000 3.09 310 23:33 19.04.2021
3955 Clouds 16 1019 82 10000 2.57 300 22:51 19.04.2021
3956 Clouds 16 1019 82 10000 2.57 300 22:29 19.04.2021
3957 Clouds 17 1018 82 10000 3.09 290 21:47 19.04.2021
3958 Clouds 17 1018 77 10000 4.12 310 21:22 19.04.2021
3959 Clouds 17 1018 72 10000 4.12 300 20:42 19.04.2021
3960 Clouds 17 1018 72 10000 4.63 300 20:22 19.04.2021
3961 Clouds 18 1018 72 10000 5.66 300 19:50 19.04.2021
3962 Clouds 18 1018 68 10000 5.14 300 19:28 19.04.2021
3963 Clouds 18 1018 63 10000 5.66 300 18:59 19.04.2021
3964 Clouds 18 1018 59 10000 5.14 280 18:41 19.04.2021
3965 Clouds 18 1018 59 10000 5.14 280 18:19 19.04.2021
3966 Clouds 18 1018 59 10000 5.14 280 18:19 19.04.2021
3967 Clouds 19 1018 59 10000 4.12 300 17:44 19.04.2021
3968 Clouds 19 1018 59 10000 4.12 300 17:24 19.04.2021
3969 Clouds 19 1019 56 10000 3.6 300 16:45 19.04.2021
3970 Clouds 19 1019 49 10000 5.14 290 16:25 19.04.2021
3971 Clouds 20 1019 30 10000 5.14 300 15:43 19.04.2021
3972 Clouds 20 1019 35 10000 4.63 320 15:24 19.04.2021
3973 Clear 20 1019 37 10000 2.57 0 14:52 19.04.2021
3974 Clear 20 1019 40 10000 2.57 290 14:31 19.04.2021
3975 Clear 19 1019 42 10000 3.09 0 13:52 19.04.2021
3976 Clouds 19 1019 48 10000 2.57 0 13:28 19.04.2021
3977 Clouds 19 1020 55 10000 2.57 330 12:48 19.04.2021
3978 Clouds 19 1020 55 10000 2.57 330 12:48 19.04.2021
3979 Clouds 18 1020 63 10000 3.6 330 12:27 19.04.2021
3980 Clouds 17 1019 63 10000 3.09 310 11:59 19.04.2021
3981 Clouds 17 1019 67 10000 3.09 310 11:27 19.04.2021
3982 Clouds 16 1019 77 10000 3.6 320 10:55 19.04.2021
3983 Clouds 16 1019 82 10000 2.57 310 10:36 19.04.2021
3984 Clouds 16 1019 82 10000 2.57 310 10:18 19.04.2021
3985 Clouds 15 1019 88 10000 2.57 310 09:39 19.04.2021
3986 Clouds 15 1019 88 10000 2.57 310 09:20 19.04.2021
3987 Clouds 14 1019 94 10000 2.06 280 08:32 19.04.2021
3988 Clouds 14 1019 94 10000 1.82 327 07:49 19.04.2021
3989 Clear 14 1019 88 10000 2.09 321 07:21 19.04.2021
3990 Clear 14 1019 94 10000 2.09 321 06:45 19.04.2021
3991 Clear 15 1020 82 10000 2.06 260 02:41 19.04.2021
3992 Clear 15 1020 88 10000 2.57 310 01:40 19.04.2021
3993 Clear 15 1020 88 10000 3.6 310 00:33 19.04.2021
3994 Clear 15 1021 82 10000 5.14 310 23:19 18.04.2021
3995 Clear 15 1020 77 10000 4.63 310 22:53 18.04.2021
3996 Clear 15 1020 82 10000 5.14 310 22:31 18.04.2021
3997 Clear 16 1020 77 10000 3.6 310 21:45 18.04.2021
3998 Clear 17 1020 63 10000 3.6 310 21:23 18.04.2021
3999 Clear 18 1020 42 10000 4.63 240 20:41 18.04.2021
4000 Clear 18 1020 42 10000 4.63 240 20:21 18.04.2021
4001 Clear 20 1019 49 10000 4.12 240 19:56 18.04.2021
4002 Clear 20 1019 46 10000 5.14 240 19:36 18.04.2021
4003 Clouds 21 1019 46 10000 5.66 240 18:59 18.04.2021
4004 Clouds 21 1019 43 10000 5.14 230 18:38 18.04.2021
4005 Clouds 21 1019 43 10000 5.14 230 18:20 18.04.2021
4006 Clouds 21 1019 43 10000 5.66 220 17:42 18.04.2021
4007 Clouds 22 1019 40 10000 5.66 180 17:24 18.04.2021
4008 Clouds 21 1019 40 10000 5.14 190 16:45 18.04.2021
4009 Clouds 21 1020 43 10000 5.14 210 16:19 18.04.2021
4010 Clouds 21 1020 43 10000 4.12 220 15:41 18.04.2021
4011 Clouds 20 1020 40 10000 3.6 210 15:23 18.04.2021
4012 Clouds 20 1020 40 10000 3.6 210 14:42 18.04.2021
4013 Clouds 20 1020 46 10000 3.09 100 14:20 18.04.2021
4014 Clouds 20 1020 46 10000 1.54 0 13:54 18.04.2021
4015 Clear 19 1020 52 10000 2.06 80 13:32 18.04.2021
4016 Clear 19 1020 55 10000 2.06 100 12:44 18.04.2021
4017 Clear 19 1020 55 10000 2.06 100 12:44 18.04.2021
4018 Clear 18 1020 63 10000 2.57 60 12:24 18.04.2021
4019 Clear 16 1020 82 10000 2.57 80 11:41 18.04.2021
4020 Clear 16 1020 77 10000 2.06 100 11:20 18.04.2021
4021 Clear 16 1020 77 10000 2.06 100 10:46 18.04.2021
4022 Clouds 15 1020 82 10000 1.03 0 10:21 18.04.2021
4023 Fog 14 1020 94 10000 1.69 60 09:45 18.04.2021
4024 Fog 13 1019 93 10000 1.54 50 09:26 18.04.2021
4025 Clear 12 1019 82 10000 1.29 28 08:54 18.04.2021
4026 Clear 12 1019 76 10000 0.51 0 08:29 18.04.2021
4027 Clear 12 1019 82 10000 1.03 0 07:55 18.04.2021
4028 Clear 13 1019 82 10000 1.03 0 07:36 18.04.2021
4029 Clear 13 1018 82 10000 2.06 320 05:40 18.04.2021
4030 Clear 13 1018 82 10000 2.06 320 05:22 18.04.2021
4031 Clear 15 1019 77 10000 1.54 40 02:25 18.04.2021
4032 Clear 15 1019 77 10000 2.57 30 01:48 18.04.2021
4033 Clear 16 1019 77 10000 5.14 300 00:36 18.04.2021
4034 Clear 16 1019 77 10000 5.14 300 23:31 17.04.2021
4035 Clear 17 1018 63 10000 5.66 300 22:51 17.04.2021
4036 Clear 17 1018 59 10000 4.63 300 22:30 17.04.2021
4037 Clear 17 1018 59 10000 4.63 300 22:30 17.04.2021
4038 Clear 17 1018 55 10000 5.14 310 21:46 17.04.2021
4039 Clear 18 1018 52 10000 3.6 310 21:28 17.04.2021
4040 Clear 19 1018 42 10000 4.12 330 20:43 17.04.2021
4041 Clear 20 1017 49 10000 4.12 340 20:24 17.04.2021
4042 Clear 20 1017 46 10000 4.12 340 19:43 17.04.2021
4043 Clear 22 1017 43 10000 3.09 310 19:20 17.04.2021
4044 Clear 22 1017 43 10000 3.09 310 19:20 17.04.2021
4045 Clear 22 1017 49 10000 4.12 330 18:53 17.04.2021
4046 Clear 22 1017 53 10000 5.14 330 18:25 17.04.2021
4047 Clear 21 1017 31 10000 2.57 0 17:49 17.04.2021
4048 Clear 22 1018 25 10000 1.03 0 17:30 17.04.2021
4049 Clear 22 1018 27 10000 1.54 0 16:42 17.04.2021
4050 Clear 22 1018 28 10000 1.03 0 16:23 17.04.2021
4051 Clear 21 1018 32 10000 2.06 130 15:38 17.04.2021
4052 Clouds 20 1018 37 10000 2.57 50 14:44 17.04.2021
4053 Clouds 20 1019 45 10000 3.6 60 14:20 17.04.2021
4054 Clouds 20 1019 45 10000 4.12 90 13:44 17.04.2021
4055 Clear 19 1019 52 10000 4.63 70 13:18 17.04.2021
4056 Clear 17 1019 55 10000 5.14 50 12:35 17.04.2021
4057 Clear 17 1019 48 10000 4.63 60 11:58 17.04.2021
4058 Clear 17 1018 48 10000 5.14 50 11:38 17.04.2021
4059 Clear 16 1018 48 10000 5.14 50 11:19 17.04.2021
4060 Clear 16 1019 58 10000 4.12 50 10:39 17.04.2021
4061 Clear 15 1018 67 10000 3.6 40 09:51 17.04.2021
4062 Clouds 13 1018 87 10000 2.57 10 08:55 17.04.2021
4063 Clouds 12 1018 87 10000 1.03 320 08:33 17.04.2021
4064 Clouds 12 1018 87 10000 1.03 320 08:33 17.04.2021
4065 Clear 12 1017 87 10000 3.23 44 07:54 17.04.2021
4066 Clear 12 1017 82 10000 1.54 350 06:34 17.04.2021
4067 Clear 13 1017 82 10000 3.09 320 03:48 17.04.2021
4068 Clear 14 1017 72 10000 3.09 300 01:35 17.04.2021
4069 Clouds 14 1017 82 10000 3.6 310 00:40 17.04.2021
4070 Clouds 13 1017 88 10000 3.6 320 00:19 17.04.2021
4071 Clouds 13 1017 88 10000 2.06 320 23:35 16.04.2021
4072 Clouds 14 1017 82 10000 4.12 320 22:52 16.04.2021
4073 Clouds 14 1016 82 10000 5.14 320 22:25 16.04.2021
4074 Clouds 15 1016 77 10000 6.17 310 21:58 16.04.2021
4075 Clouds 15 1015 82 10000 6.17 310 21:40 16.04.2021
4076 Clouds 15 1015 82 10000 6.17 310 21:21 16.04.2021
4077 Clouds 16 1015 77 10000 5.66 300 20:45 16.04.2021
4078 Clouds 17 1015 68 10000 5.14 310 20:18 16.04.2021
4079 Clouds 18 1015 68 10000 5.14 310 19:47 16.04.2021
4080 Clouds 19 1015 63 10000 3.6 290 19:20 16.04.2021
4081 Clouds 20 1015 64 10000 5.14 320 18:28 16.04.2021
4082 Clouds 20 1015 60 10000 4.12 310 17:51 16.04.2021
4083 Clouds 21 1015 60 10000 3.6 320 17:20 16.04.2021
4084 Clouds 21 1015 64 10000 3.09 20 16:56 16.04.2021
4085 Clouds 21 1015 64 10000 2.57 300 16:38 16.04.2021
4086 Clouds 21 1015 64 10000 2.57 300 16:19 16.04.2021
4087 Clouds 20 1016 64 10000 3.09 160 15:39 16.04.2021
4088 Clouds 20 1016 64 10000 2.57 120 14:47 16.04.2021
4089 Clouds 20 1016 64 10000 2.06 140 14:28 16.04.2021
4090 Clouds 20 1016 60 10000 1.54 60 13:58 16.04.2021
4091 Clouds 20 1016 72 10000 2.06 0 13:36 16.04.2021
4092 Clouds 19 1016 72 10000 2.06 0 13:18 16.04.2021
4093 Clouds 19 1016 72 10000 2.06 30 12:42 16.04.2021
4094 Clouds 18 1016 77 10000 2.06 0 12:21 16.04.2021
4095 Clouds 18 1016 82 10000 3.6 340 11:42 16.04.2021
4096 Clouds 17 1016 88 10000 3.6 320 11:21 16.04.2021
4097 Clouds 16 1016 88 10000 3.09 330 10:42 16.04.2021
4098 Clouds 16 1016 88 10000 3.09 320 10:23 16.04.2021
4099 Clouds 16 1016 82 10000 3.6 310 09:44 16.04.2021
4100 Clouds 15 1015 88 10000 1.03 0 09:22 16.04.2021
4101 Clear 14 1015 82 10000 1.54 40 08:45 16.04.2021
4102 Clear 14 1015 82 10000 2.06 0 08:24 16.04.2021
4103 Clear 15 1015 82 10000 1.54 340 07:45 16.04.2021
4104 Clear 15 1014 77 10000 3.09 320 07:25 16.04.2021
4105 Clear 15 1014 82 10000 2.06 300 06:41 16.04.2021
4106 Clear 15 1014 82 10000 3.09 320 05:32 16.04.2021
4107 Clear 15 1015 88 10000 3.09 320 03:31 16.04.2021
4108 Clear 16 1015 88 10000 4.12 320 00:46 16.04.2021
4109 Clear 16 1015 88 10000 3.6 320 00:22 16.04.2021
4110 Clear 16 1015 94 10000 4.12 310 23:57 15.04.2021
4111 Clear 16 1015 94 10000 3.6 320 23:34 15.04.2021
4112 Clouds 16 1015 94 10000 4.12 320 22:50 15.04.2021
4113 Clouds 17 1014 88 10000 3.6 310 22:24 15.04.2021
4114 Clouds 17 1014 88 10000 3.09 330 21:47 15.04.2021
4115 Clouds 18 1014 82 10000 2.57 320 21:29 15.04.2021
4116 Clouds 18 1013 82 10000 2.57 320 20:56 15.04.2021
4117 Clouds 18 1013 82 10000 3.6 320 20:37 15.04.2021
4118 Clouds 18 1013 82 10000 3.6 320 20:18 15.04.2021
4119 Clouds 18 1013 82 10000 3.09 300 19:41 15.04.2021
4120 Clouds 18 1013 82 10000 3.09 300 19:21 15.04.2021
4121 Clouds 19 1013 82 10000 1.03 0 18:41 15.04.2021
4122 Clouds 19 1013 82 10000 1.03 0 18:19 15.04.2021
4123 Clouds 19 1013 77 10000 2.06 30 17:54 15.04.2021
4124 Clouds 19 1013 72 10000 2.06 60 17:31 15.04.2021
4125 Clouds 19 1013 68 10000 1.54 0 16:44 15.04.2021
4126 Clouds 18 1013 77 10000 2.06 0 16:25 15.04.2021
4127 Clouds 18 1014 77 10000 1.54 0 15:51 15.04.2021
4128 Clouds 17 1014 88 10000 1.54 70 15:28 15.04.2021
4129 Clouds 18 1014 88 10000 2.57 50 14:45 15.04.2021
4130 Clouds 18 1014 88 10000 2.57 70 14:27 15.04.2021
4131 Clouds 18 1014 94 10000 2.06 60 13:57 15.04.2021
4132 Clouds 18 1014 94 10000 2.06 40 13:39 15.04.2021
4133 Clouds 17 1014 100 10000 2.06 60 12:54 15.04.2021
4134 Clouds 17 1013 88 10000 2.06 310 12:27 15.04.2021
4135 Clouds 16 1014 100 8000 2.57 70 11:59 15.04.2021
4136 Clouds 16 1013 100 7000 2.57 60 11:39 15.04.2021
4137 Clouds 16 1013 100 7000 2.57 60 11:21 15.04.2021
4138 Clouds 16 1013 100 7000 2.57 60 11:21 15.04.2021
4139 Drizzle 16 1013 100 7000 2.57 70 10:43 15.04.2021
4140 Clouds 15 1013 100 6000 2.57 60 10:25 15.04.2021
4141 Rain 15 1013 100 6000 3.09 50 09:35 15.04.2021
4142 Rain 15 1012 100 10000 2.06 50 08:54 15.04.2021
4143 Rain 15 1012 100 7000 2.06 50 08:36 15.04.2021
4144 Rain 15 1012 94 10000 2.06 60 07:48 15.04.2021
4145 Clouds 15 1012 100 10000 1.54 80 07:22 15.04.2021
4146 Drizzle 15 1012 100 6000 1.54 70 06:37 15.04.2021
4147 Drizzle 15 1012 100 6000 1.54 70 06:19 15.04.2021
4148 Clouds 15 1012 100 10000 1.54 90 04:49 15.04.2021
4149 Clouds 15 1013 94 10000 1.03 240 00:24 15.04.2021
4150 Clouds 15 1013 100 10000 1.54 260 23:37 14.04.2021
4151 Clouds 15 1013 100 10000 1.54 260 23:18 14.04.2021
4152 Rain 15 1013 100 10000 2.06 220 22:43 14.04.2021
4153 Rain 15 1012 94 10000 3.09 230 22:22 14.04.2021
4154 Rain 15 1012 100 9000 3.6 230 21:43 14.04.2021
4155 Rain 15 1012 100 8000 4.12 220 21:23 14.04.2021
4156 Rain 16 1012 94 10000 5.14 200 20:55 14.04.2021
4157 Rain 16 1012 94 8000 4.12 210 20:32 14.04.2021
4158 Rain 16 1012 94 7000 3.09 130 19:51 14.04.2021
4159 Rain 17 1012 88 10000 3.09 50 19:20 14.04.2021
4160 Rain 17 1012 88 10000 3.09 50 18:56 14.04.2021
4161 Rain 17 1012 82 10000 2.57 70 18:21 14.04.2021
4162 Rain 17 1012 82 10000 1.54 90 17:58 14.04.2021
4163 Clouds 18 1012 88 10000 2.57 70 17:25 14.04.2021
4164 Clouds 18 1013 88 10000 2.57 80 16:54 14.04.2021
4165 Rain 18 1013 82 10000 2.57 90 16:25 14.04.2021
4166 Clouds 18 1013 82 10000 3.09 80 15:42 14.04.2021
4167 Clouds 18 1013 88 10000 3.6 70 15:24 14.04.2021
4168 Clouds 17 1013 88 10000 3.09 70 14:49 14.04.2021
4169 Clouds 17 1014 88 10000 3.09 40 14:25 14.04.2021
4170 Clouds 17 1014 88 10000 3.09 40 14:25 14.04.2021
4171 Clouds 17 1014 94 10000 2.57 50 13:57 14.04.2021
4172 Rain 17 1014 94 10000 2.57 50 13:36 14.04.2021
4173 Clouds 17 1015 94 10000 3.09 30 12:39 14.04.2021
4174 Rain 16 1015 94 8000 3.6 70 11:43 14.04.2021
4175 Rain 16 1015 94 8000 3.6 70 11:25 14.04.2021
4176 Clouds 16 1015 100 8000 2.57 70 10:55 14.04.2021
4177 Clouds 16 1015 94 7000 2.06 30 10:33 14.04.2021
4178 Clouds 16 1015 100 6000 2.06 20 09:42 14.04.2021
4179 Rain 16 1015 100 5000 1.54 40 09:21 14.04.2021
4180 Mist 16 1015 100 4500 2.06 40 08:46 14.04.2021
4181 Mist 16 1015 100 4500 2.57 60 08:22 14.04.2021
4182 Rain 16 1015 100 8000 1.03 0 07:25 14.04.2021
4183 Rain 16 1016 100 9000 1.54 30 06:26 14.04.2021
4184 Clouds 16 1016 100 10000 1.54 10 05:20 14.04.2021
4185 Clouds 16 1018 94 10000 1.54 20 01:54 14.04.2021
4186 Clouds 16 1018 94 10000 1.54 230 00:47 14.04.2021
4187 Clouds 16 1018 94 10000 1.54 300 23:59 13.04.2021
4188 Clouds 16 1018 94 10000 2.06 320 23:30 13.04.2021
4189 Clouds 16 1018 94 10000 1.54 290 22:44 13.04.2021
4190 Clouds 16 1018 94 10000 2.57 290 22:19 13.04.2021
4191 Clouds 16 1018 94 8000 3.6 270 21:47 13.04.2021
4192 Clouds 17 1018 82 10000 3.09 260 21:29 13.04.2021
4193 Clouds 17 1018 82 10000 3.6 250 20:43 13.04.2021
4194 Clouds 17 1018 77 10000 3.6 230 20:24 13.04.2021
4195 Clouds 17 1018 77 10000 4.63 230 19:50 13.04.2021
4196 Clouds 18 1018 68 10000 4.12 230 19:25 13.04.2021
4197 Clouds 18 1018 68 10000 4.12 230 19:25 13.04.2021
4198 Clouds 18 1018 68 10000 3.6 220 18:44 13.04.2021
4199 Clouds 18 1018 72 10000 4.12 250 18:25 13.04.2021
4200 Clouds 18 1019 72 10000 4.12 210 17:40 13.04.2021
4201 Clouds 18 1019 72 10000 4.12 210 17:18 13.04.2021
4202 Clouds 18 1019 77 10000 3.6 220 16:45 13.04.2021
4203 Clouds 18 1019 82 10000 3.09 190 16:23 13.04.2021
4204 Clouds 18 1019 82 10000 3.6 190 15:53 13.04.2021
4205 Clouds 17 1019 72 10000 3.6 170 15:34 13.04.2021
4206 Clouds 17 1019 72 10000 3.6 170 15:34 13.04.2021
4207 Clouds 17 1020 82 10000 2.57 170 14:47 13.04.2021
4208 Clouds 16 1020 82 10000 3.6 170 14:22 13.04.2021
4209 Clouds 16 1020 88 10000 2.57 0 13:45 13.04.2021
4210 Clouds 16 1020 94 10000 2.06 100 13:26 13.04.2021
4211 Clouds 16 1020 94 10000 2.57 110 12:58 13.04.2021
4212 Clouds 16 1020 100 10000 2.06 90 12:31 13.04.2021
4213 Clouds 15 1020 94 10000 1.54 110 11:59 13.04.2021
4214 Rain 15 1020 100 3500 1.54 110 11:31 13.04.2021
4215 Rain 14 1020 94 8000 1.54 120 10:56 13.04.2021
4216 Clouds 14 1020 94 4000 1.03 0 10:37 13.04.2021
4217 Clouds 14 1020 94 4000 1.03 0 10:18 13.04.2021
4218 Clouds 15 1020 88 10000 1.54 0 09:40 13.04.2021
4219 Clouds 15 1020 88 10000 1.54 0 09:18 13.04.2021
4220 Clouds 14 1019 94 10000 1.49 111 08:41 13.04.2021
4221 Clouds 14 1019 94 10000 1.36 135 08:20 13.04.2021
4222 Clouds 14 1019 94 10000 0.51 0 07:36 13.04.2021
4223 Clouds 14 1019 88 10000 1.03 0 06:51 13.04.2021
4224 Clouds 14 1019 88 10000 1.4 142 05:53 13.04.2021
4225 Clear 14 1020 88 10000 1.54 350 02:47 13.04.2021
4226 Rain 16 1020 82 10000 1.54 270 01:27 13.04.2021
4227 Clear 16 1020 77 10000 2.06 240 23:49 12.04.2021
4228 Clear 16 1020 77 10000 0.69 69 23:27 12.04.2021
4229 Clear 16 1020 77 10000 1.54 230 22:43 12.04.2021
4230 Clouds 16 1020 77 10000 2.57 200 22:23 12.04.2021
4231 Clouds 16 1020 77 10000 2.57 200 22:23 12.04.2021
4232 Clear 16 1020 82 10000 2.06 200 21:46 12.04.2021
4233 Clear 16 1020 82 10000 2.06 200 21:46 12.04.2021
4234 Clouds 16 1019 88 10000 3.09 340 21:21 12.04.2021
4235 Clouds 17 1020 72 10000 3.09 320 20:41 12.04.2021
4236 Rain 16 1020 72 10000 3.09 320 20:23 12.04.2021
4237 Clouds 17 1020 63 10000 2.06 260 19:57 12.04.2021
4238 Clouds 17 1020 63 10000 3.6 230 19:38 12.04.2021
4239 Clouds 18 1020 63 10000 3.6 230 19:19 12.04.2021
4240 Clouds 18 1020 63 10000 3.6 260 18:44 12.04.2021
4241 Clouds 17 1020 63 10000 3.09 260 18:25 12.04.2021
4242 Clouds 18 1020 55 10000 2.57 0 17:45 12.04.2021
4243 Clouds 18 1020 55 10000 2.57 0 17:24 12.04.2021
4244 Clouds 18 1020 55 10000 3.09 120 16:47 12.04.2021
4245 Clouds 18 1020 68 10000 2.57 190 16:27 12.04.2021
4246 Clouds 17 1021 67 10000 2.06 0 15:49 12.04.2021
4247 Clouds 17 1021 67 10000 1.54 0 15:31 12.04.2021
4248 Clouds 17 1021 72 10000 1.03 0 14:53 12.04.2021
4249 Clouds 16 1021 82 10000 2.57 90 14:35 12.04.2021
4250 Rain 16 1021 82 10000 2.06 70 13:49 12.04.2021
4251 Rain 15 1021 82 10000 1.03 0 13:30 12.04.2021
4252 Clouds 15 1021 88 10000 2.06 80 12:51 12.04.2021
4253 Clouds 15 1021 88 10000 2.57 60 12:27 12.04.2021
4254 Clouds 14 1021 94 10000 2.06 80 11:59 12.04.2021
4255 Clouds 13 1021 94 10000 1.54 70 11:24 12.04.2021
4256 Clouds 13 1020 93 10000 1.54 60 10:47 12.04.2021
4257 Clouds 12 1020 93 10000 1.54 60 10:27 12.04.2021
4258 Clouds 12 1020 93 10000 1.54 70 09:50 12.04.2021
4259 Clouds 11 1020 93 10000 1.54 60 09:21 12.04.2021
4260 Clouds 10 1019 93 10000 2.15 48 08:39 12.04.2021
4261 Clear 10 1019 93 10000 1.78 72 07:42 12.04.2021
4262 Clear 11 1019 93 10000 1.03 0 07:21 12.04.2021
4263 Clear 11 1019 87 10000 1.54 280 06:25 12.04.2021
4264 Clear 11 1019 87 10000 1.95 79 05:41 12.04.2021
4265 Clear 12 1019 76 10000 3.09 320 01:40 12.04.2021
4266 Clear 12 1019 76 10000 3.09 320 01:40 12.04.2021
4267 Clear 13 1019 82 10000 3.09 310 00:26 12.04.2021
4268 Clear 13 1019 82 10000 3.6 310 23:49 11.04.2021
4269 Clear 13 1019 82 10000 4.12 310 23:30 11.04.2021
4270 Clear 13 1019 76 10000 3.6 320 22:48 11.04.2021
4271 Clouds 14 1018 76 10000 4.12 320 22:26 11.04.2021
4272 Clouds 14 1018 76 10000 4.12 310 21:52 11.04.2021
4273 Clouds 14 1018 72 10000 5.14 310 21:30 11.04.2021
4274 Clouds 14 1018 72 10000 5.14 310 21:30 11.04.2021
4275 Clouds 15 1018 67 10000 5.14 310 20:58 11.04.2021
4276 Clouds 15 1017 67 10000 5.66 320 20:37 11.04.2021
4277 Clouds 15 1017 67 10000 5.66 320 20:18 11.04.2021
4278 Clouds 16 1017 59 10000 5.66 310 19:39 11.04.2021
4279 Clouds 17 1017 59 10000 5.66 310 19:19 11.04.2021
4280 Clouds 17 1017 63 10000 5.14 300 18:46 11.04.2021
4281 Clouds 17 1017 59 10000 5.14 310 18:26 11.04.2021
4282 Clouds 18 1016 59 10000 6.17 330 17:49 11.04.2021
4283 Clouds 18 1016 59 10000 4.63 320 17:29 11.04.2021
4284 Clouds 18 1017 59 10000 5.14 330 16:53 11.04.2021
4285 Clouds 18 1017 59 10000 4.12 340 16:27 11.04.2021
4286 Clouds 19 1017 55 10000 3.09 310 15:59 11.04.2021
4287 Clouds 18 1017 59 10000 3.09 310 15:40 11.04.2021
4288 Clouds 18 1017 59 10000 3.09 310 15:22 11.04.2021
4289 Clouds 18 1017 55 10000 4.12 310 14:47 11.04.2021
4290 Clouds 18 1017 59 10000 4.12 310 14:18 11.04.2021
4291 Clouds 17 1016 72 10000 5.14 330 13:39 11.04.2021
4292 Clouds 17 1016 72 10000 5.14 330 13:21 11.04.2021
4293 Clouds 16 1016 82 10000 6.69 340 12:25 11.04.2021
4294 Clouds 16 1016 88 10000 6.17 340 11:53 11.04.2021
4295 Clouds 16 1016 88 10000 5.66 340 11:33 11.04.2021
4296 Clouds 16 1015 88 10000 5.14 330 10:56 11.04.2021
4297 Clouds 15 1015 88 10000 5.14 330 10:38 11.04.2021
4298 Clouds 15 1015 88 10000 5.14 330 10:20 11.04.2021
4299 Clouds 15 1014 88 10000 3.09 320 09:38 11.04.2021
4300 Clouds 14 1014 88 10000 3.09 320 09:20 11.04.2021
4301 Clouds 14 1014 94 10000 3.09 310 08:38 11.04.2021
4302 Clouds 14 1013 94 10000 2.57 310 07:37 11.04.2021
4303 Clouds 14 1013 94 10000 2.57 310 07:18 11.04.2021
4304 Clouds 14 1012 94 10000 3.09 300 05:46 11.04.2021
4305 Clouds 14 1012 94 10000 2.57 300 05:22 11.04.2021
4306 Clouds 14 1012 94 10000 1.54 270 04:35 11.04.2021
4307 Clouds 14 1012 94 10000 1.54 280 03:20 11.04.2021
4308 Clouds 15 1012 94 10000 1.54 290 00:49 11.04.2021
4309 Clouds 15 1012 100 10000 2.06 280 00:25 11.04.2021
4310 Clouds 15 1011 94 10000 2.06 250 23:33 10.04.2021
4311 Clouds 15 1011 100 10000 2.57 250 22:54 10.04.2021
4312 Clouds 15 1011 94 10000 3.09 250 22:26 10.04.2021
4313 Clouds 15 1010 94 10000 3.09 240 21:52 10.04.2021
4314 Clouds 15 1010 94 9000 3.09 230 21:24 10.04.2021
4315 Clouds 16 1010 88 10000 4.12 230 20:53 10.04.2021
4316 Clouds 16 1010 88 10000 5.14 230 20:32 10.04.2021
4317 Clouds 17 1010 88 10000 5.14 230 19:49 10.04.2021
4318 Clouds 17 1010 88 10000 5.66 230 19:30 10.04.2021
4319 Clouds 17 1010 88 10000 7.2 220 18:57 10.04.2021
4320 Clouds 17 1010 88 10000 7.2 220 18:39 10.04.2021
4321 Clouds 17 1010 88 10000 7.2 220 18:20 10.04.2021
4322 Rain 18 1010 77 10000 7.72 220 17:34 10.04.2021
4323 Clouds 18 1010 77 10000 8.75 210 16:37 10.04.2021
4324 Clouds 18 1010 77 10000 8.75 210 16:19 10.04.2021
4325 Clouds 18 1011 72 10000 8.23 210 15:43 10.04.2021
4326 Clouds 18 1011 72 10000 7.72 210 14:52 10.04.2021
4327 Clouds 18 1011 72 10000 7.72 210 14:30 10.04.2021
4328 Clouds 18 1011 77 10000 7.2 200 13:54 10.04.2021
4329 Clouds 18 1011 77 10000 6.17 210 13:34 10.04.2021
4330 Clouds 18 1012 77 10000 4.12 220 12:39 10.04.2021
4331 Clouds 17 1012 77 10000 4.12 220 12:18 10.04.2021
4332 Clouds 17 1012 82 10000 2.06 200 11:44 10.04.2021
4333 Clouds 17 1012 88 10000 2.57 210 11:20 10.04.2021
4334 Clouds 16 1011 94 10000 1.54 200 10:44 10.04.2021
4335 Clouds 15 1011 94 10000 2.06 220 10:26 10.04.2021
4336 Clouds 15 1011 88 10000 5.66 190 09:37 10.04.2021
4337 Rain 15 1011 88 10000 5.66 190 09:18 10.04.2021
4338 Rain 16 1010 94 9000 4.63 160 08:33 10.04.2021
4339 Clouds 16 1011 94 10000 4.63 160 07:55 10.04.2021
4340 Clouds 16 1011 94 10000 3.6 170 07:25 10.04.2021
4341 Clouds 16 1011 94 10000 3.6 160 06:27 10.04.2021
4342 Clouds 16 1012 94 10000 3.09 160 05:28 10.04.2021
4343 Clouds 16 1013 88 10000 2.57 160 03:36 10.04.2021
4344 Clouds 16 1013 88 10000 3.09 180 02:42 10.04.2021
4345 Clouds 16 1014 88 10000 3.09 180 01:27 10.04.2021
4346 Clouds 16 1014 88 10000 2.57 150 00:31 10.04.2021
4347 Clouds 16 1014 88 10000 1.54 200 23:51 09.04.2021
4348 Clouds 16 1014 88 10000 1.54 230 23:30 09.04.2021
4349 Clouds 16 1014 88 10000 2.06 220 22:53 09.04.2021
4350 Clouds 16 1014 88 10000 2.06 220 22:34 09.04.2021
4351 Clouds 16 1014 82 10000 3.09 240 21:40 09.04.2021
4352 Clouds 16 1014 82 10000 3.09 240 21:21 09.04.2021
4353 Clouds 17 1013 82 10000 4.63 210 20:46 09.04.2021
4354 Clouds 17 1013 77 10000 5.14 220 20:24 09.04.2021
4355 Clouds 18 1013 68 10000 5.66 230 19:58 09.04.2021
4356 Clouds 18 1013 63 10000 5.14 230 19:40 09.04.2021
4357 Clouds 19 1013 63 10000 5.14 230 19:22 09.04.2021
4358 Clouds 19 1013 63 10000 5.14 230 19:22 09.04.2021
4359 Clouds 19 1014 63 10000 5.66 230 18:42 09.04.2021
4360 Clouds 19 1014 63 10000 5.66 230 18:23 09.04.2021
4361 Clouds 19 1014 63 10000 6.17 230 17:48 09.04.2021
4362 Clouds 19 1014 68 10000 5.14 220 17:29 09.04.2021
4363 Clouds 19 1014 68 10000 6.17 220 16:47 09.04.2021
4364 Clouds 19 1015 64 10000 5.66 220 16:28 09.04.2021
4365 Clouds 19 1015 68 10000 6.17 230 15:44 09.04.2021
4366 Clouds 19 1015 68 10000 6.69 230 15:24 09.04.2021
4367 Clouds 18 1015 72 10000 6.69 210 14:46 09.04.2021
4368 Clouds 18 1015 72 10000 5.66 220 14:22 09.04.2021
4369 Clouds 19 1016 68 10000 5.14 190 13:45 09.04.2021
4370 Clouds 18 1016 68 10000 5.66 200 13:22 09.04.2021
4371 Clouds 18 1016 68 10000 6.17 190 12:47 09.04.2021
4372 Clouds 18 1016 68 10000 6.17 190 12:47 09.04.2021
4373 Clouds 18 1016 68 10000 6.17 190 12:47 09.04.2021
4374 Clouds 17 1016 72 10000 5.66 220 12:23 09.04.2021
4375 Clouds 17 1016 72 10000 5.14 180 11:43 09.04.2021
4376 Clouds 17 1016 77 10000 5.14 180 11:20 09.04.2021
4377 Clouds 16 1015 88 10000 3.09 180 10:37 09.04.2021
4378 Clouds 16 1015 94 10000 2.06 170 09:58 09.04.2021
4379 Clouds 15 1015 88 10000 2.57 170 09:27 09.04.2021
4380 Clouds 15 1015 88 10000 2.57 140 08:56 09.04.2021
4381 Clouds 15 1015 94 10000 1.54 140 08:31 09.04.2021
4382 Clouds 15 1015 94 10000 3.6 170 07:22 09.04.2021
4383 Clouds 16 1015 88 10000 4.63 200 06:28 09.04.2021
4384 Clouds 16 1016 94 10000 4.63 200 05:36 09.04.2021
4385 Clouds 16 1016 88 10000 4.12 180 03:42 09.04.2021
4386 Clouds 16 1018 82 10000 3.09 250 00:39 09.04.2021
4387 Clouds 16 1018 82 10000 3.09 250 00:21 09.04.2021
4388 Clouds 16 1018 82 10000 3.09 250 00:21 09.04.2021
4389 Clouds 16 1017 88 10000 4.12 240 23:38 08.04.2021
4390 Clouds 16 1017 82 10000 3.09 260 22:56 08.04.2021
4391 Clouds 16 1017 82 10000 4.63 250 22:31 08.04.2021
4392 Clouds 16 1017 82 10000 4.12 240 21:59 08.04.2021
4393 Clouds 16 1017 77 10000 4.63 240 21:41 08.04.2021
4394 Clouds 17 1017 77 10000 4.63 240 21:22 08.04.2021
4395 Clouds 17 1017 77 10000 5.14 240 20:59 08.04.2021
4396 Clouds 17 1017 72 10000 5.14 240 20:40 08.04.2021
4397 Clouds 17 1017 72 10000 5.14 240 20:19 08.04.2021
4398 Clouds 18 1017 63 10000 4.12 240 19:40 08.04.2021
4399 Clouds 18 1017 63 10000 4.12 240 19:19 08.04.2021
4400 Clouds 19 1017 60 10000 5.14 230 18:42 08.04.2021
4401 Clouds 19 1017 56 10000 3.6 230 18:19 08.04.2021
4402 Clouds 19 1017 56 10000 3.6 240 17:42 08.04.2021
4403 Clouds 20 1017 56 10000 4.12 230 17:21 08.04.2021
4404 Clouds 20 1017 60 10000 4.63 270 16:45 08.04.2021
4405 Clouds 20 1018 68 10000 5.14 240 16:23 08.04.2021
4406 Clouds 20 1018 52 10000 3.6 260 15:46 08.04.2021
4407 Clouds 20 1018 59 10000 4.12 240 15:28 08.04.2021
4408 Clouds 19 1019 56 10000 3.6 230 14:43 08.04.2021
4409 Clouds 19 1019 63 10000 2.57 0 14:22 08.04.2021
4410 Clouds 18 1019 77 10000 2.57 80 13:49 08.04.2021
4411 Clouds 17 1019 82 10000 2.06 100 13:25 08.04.2021
4412 Clouds 16 1019 88 9000 2.57 80 12:58 08.04.2021
4413 Fog 17 1020 88 8000 2.06 50 12:34 08.04.2021
4414 Mist 16 1019 88 4500 2.57 70 11:57 08.04.2021
4415 Mist 15 1019 94 4500 2.06 70 11:29 08.04.2021
4416 Fog 15 1019 94 6000 2.57 60 10:56 08.04.2021
4417 Mist 13 1019 100 4000 1.54 50 10:26 08.04.2021
4418 Mist 13 1019 100 4000 1.54 50 10:26 08.04.2021
4419 Mist 13 1019 100 4000 1.54 50 10:26 08.04.2021
4420 Fog 12 1019 93 4500 1.54 50 09:49 08.04.2021
4421 Fog 11 1019 93 10000 1.54 50 09:30 08.04.2021
4422 Clouds 11 1018 93 10000 1.38 141 08:45 08.04.2021
4423 Clouds 11 1018 93 10000 1.31 160 08:22 08.04.2021
4424 Clouds 11 1018 93 10000 1.03 290 07:47 08.04.2021
4425 Clouds 11 1018 100 10000 1.54 280 06:46 08.04.2021
4426 Clear 13 1017 88 10000 3.6 290 01:28 08.04.2021
4427 Clear 14 1017 88 10000 3.09 290 00:32 08.04.2021
4428 Clear 14 1017 88 10000 3.6 300 23:50 07.04.2021
4429 Clear 14 1016 88 10000 3.09 300 23:27 07.04.2021
4430 Clear 14 1016 82 10000 4.12 300 22:58 07.04.2021
4431 Clear 14 1015 82 10000 4.63 310 22:39 07.04.2021
4432 Clear 15 1015 82 10000 4.63 310 22:21 07.04.2021
4433 Clear 16 1015 67 10000 3.6 310 21:35 07.04.2021
4434 Clear 17 1014 63 10000 4.12 310 20:59 07.04.2021
4435 Clear 18 1014 59 10000 4.12 310 20:40 07.04.2021
4436 Clear 18 1014 59 10000 4.12 310 20:19 07.04.2021
4437 Clear 18 1014 45 10000 4.12 300 19:41 07.04.2021
4438 Clear 19 1014 45 10000 4.12 300 19:22 07.04.2021
4439 Clouds 20 1014 33 10000 4.12 230 18:42 07.04.2021
4440 Clouds 20 1014 33 10000 4.12 230 18:18 07.04.2021
4441 Clouds 20 1014 30 10000 4.63 230 17:48 07.04.2021
4442 Clouds 20 1014 30 10000 5.14 200 17:30 07.04.2021
4443 Clouds 20 1014 30 10000 3.6 220 16:47 07.04.2021
4444 Clear 21 1014 30 10000 4.12 0 16:22 07.04.2021
4445 Clear 21 1014 52 10000 2.57 100 15:56 07.04.2021
4446 Clear 20 1014 52 10000 3.09 70 15:38 07.04.2021
4447 Clear 19 1014 56 10000 2.57 100 14:50 07.04.2021
4448 Clear 19 1014 63 10000 2.06 90 14:25 07.04.2021
4449 Clear 18 1015 72 10000 2.06 80 13:46 07.04.2021
4450 Clear 17 1015 72 10000 2.57 100 13:21 07.04.2021
4451 Clear 17 1015 77 10000 2.57 70 12:48 07.04.2021
4452 Clear 17 1014 77 10000 2.06 100 12:22 07.04.2021
4453 Clear 16 1014 77 10000 2.57 90 11:48 07.04.2021
4454 Clear 16 1014 63 10000 0.51 0 11:25 07.04.2021
4455 Clear 16 1014 72 10000 1.54 280 10:51 07.04.2021
4456 Clear 13 1013 82 10000 2.57 310 09:56 07.04.2021
4457 Fog 13 1013 87 10000 3.09 320 09:37 07.04.2021
4458 Fog 12 1013 87 10000 3.09 320 09:19 07.04.2021
4459 Clear 12 1012 87 10000 3.6 320 08:33 07.04.2021
4460 Clear 12 1012 82 10000 3.6 320 07:57 07.04.2021
4461 Clouds 12 1012 82 10000 4.12 310 07:29 07.04.2021
4462 Clear 12 1012 87 10000 4.12 320 06:59 07.04.2021
4463 Clear 12 1012 87 10000 4.12 320 06:18 07.04.2021
4464 Clear 13 1012 82 10000 1.54 0 03:35 07.04.2021
4465 Clear 16 1013 44 10000 4.12 300 23:52 06.04.2021
4466 Clear 16 1013 41 10000 4.63 310 23:23 06.04.2021
4467 Clear 16 1012 51 10000 5.14 310 22:59 06.04.2021
4468 Clear 16 1012 59 10000 5.66 310 22:22 06.04.2021
4469 Clear 17 1012 55 10000 5.66 310 21:59 06.04.2021
4470 Clear 17 1012 55 10000 5.66 310 21:59 06.04.2021
4471 Clear 17 1012 52 10000 4.12 310 21:39 06.04.2021
4472 Clear 17 1012 52 10000 4.12 310 21:21 06.04.2021
4473 Clear 19 1012 52 10000 4.63 310 20:51 06.04.2021
4474 Clear 20 1012 46 10000 3.6 300 20:21 06.04.2021
4475 Clear 20 1012 46 10000 4.63 310 19:49 06.04.2021
4476 Clear 21 1012 43 10000 4.63 320 19:31 06.04.2021
4477 Clear 22 1012 43 10000 3.6 300 18:48 06.04.2021
4478 Clear 23 1012 40 10000 3.6 310 18:24 06.04.2021
4479 Clear 23 1012 40 10000 4.12 320 17:52 06.04.2021
4480 Clear 23 1013 38 10000 2.57 280 17:30 06.04.2021
4481 Clear 23 1013 40 10000 3.09 280 16:59 06.04.2021
4482 Clear 23 1013 43 10000 3.6 280 16:39 06.04.2021
4483 Clear 22 1014 46 10000 4.12 260 15:44 06.04.2021
4484 Clear 21 1014 38 10000 3.6 190 15:22 06.04.2021
4485 Clear 20 1014 53 10000 2.57 100 14:39 06.04.2021
4486 Clear 20 1014 53 10000 2.57 100 14:19 06.04.2021
4487 Clear 20 1014 53 10000 2.06 80 13:44 06.04.2021
4488 Clear 19 1015 60 10000 2.06 90 13:25 06.04.2021
4489 Clear 19 1015 56 10000 1.54 90 12:42 06.04.2021
4490 Clear 18 1015 63 10000 2.06 100 12:22 06.04.2021
4491 Clear 18 1015 55 10000 2.06 110 11:52 06.04.2021
4492 Clear 18 1015 48 10000 1.54 220 11:21 06.04.2021
4493 Clear 17 1015 55 10000 1.03 110 10:48 06.04.2021
4494 Clear 16 1015 59 10000 0.9 48 10:29 06.04.2021
4495 Clear 15 1015 72 10000 0.9 48 09:57 06.04.2021
4496 Clear 14 1015 71 10000 0.51 0 09:36 06.04.2021
4497 Clear 12 1015 76 10000 1.03 280 08:45 06.04.2021
4498 Clear 12 1015 71 10000 1.13 29 08:19 06.04.2021
4499 Clear 13 1015 66 10000 1.03 0 06:56 06.04.2021
4500 Clear 13 1015 66 10000 0.51 0 06:20 06.04.2021
4501 Clear 15 1017 51 10000 2.06 310 02:59 06.04.2021
4502 Clear 15 1017 63 10000 1.54 300 00:46 06.04.2021
4503 Clear 16 1017 59 10000 3.6 320 00:21 06.04.2021
4504 Clear 15 1017 67 10000 4.12 320 23:44 05.04.2021
4505 Clear 15 1017 72 10000 4.63 310 23:22 05.04.2021
4506 Clear 16 1017 77 10000 5.14 330 22:48 05.04.2021
4507 Clear 16 1017 72 10000 6.17 310 22:27 05.04.2021
4508 Clear 17 1017 59 10000 4.12 300 21:45 05.04.2021
4509 Clear 17 1016 63 10000 3.6 310 21:22 05.04.2021
4510 Clear 18 1016 63 10000 4.12 250 20:45 05.04.2021
4511 Clear 19 1016 60 10000 4.12 240 20:27 05.04.2021
4512 Clear 19 1016 60 10000 4.63 240 19:44 05.04.2021
4513 Clear 19 1016 60 10000 4.63 240 19:24 05.04.2021
4514 Clouds 19 1016 56 10000 5.66 230 18:55 05.04.2021
4515 Clouds 20 1016 52 10000 5.14 220 18:36 05.04.2021
4516 Clouds 20 1016 52 10000 5.14 220 18:18 05.04.2021
4517 Clouds 20 1016 46 10000 4.63 210 17:43 05.04.2021
4518 Clouds 20 1017 52 10000 4.12 230 17:20 05.04.2021
4519 Clouds 20 1017 52 10000 4.12 230 16:44 05.04.2021
4520 Clouds 20 1017 49 10000 2.06 100 16:21 05.04.2021
4521 Clouds 21 1017 52 10000 2.06 0 15:52 05.04.2021
4522 Clouds 20 1017 52 10000 2.57 100 15:30 05.04.2021
4523 Clouds 19 1017 52 10000 2.57 80 14:54 05.04.2021
4524 Clear 18 1017 59 10000 2.06 90 14:34 05.04.2021
4525 Fog 18 1018 72 10000 1.54 0 13:32 05.04.2021
4526 Fog 18 1018 82 10000 2.06 90 12:51 05.04.2021
4527 Fog 16 1018 94 10000 2.06 80 12:28 05.04.2021
4528 Fog 17 1017 88 10000 2.57 70 11:56 05.04.2021
4529 Fog 17 1017 82 10000 1.54 90 11:36 05.04.2021
4530 Fog 17 1017 82 10000 1.54 90 11:18 05.04.2021
4531 Fog 16 1017 88 10000 1.54 60 10:45 05.04.2021
4532 Fog 15 1017 94 10000 1.03 0 10:26 05.04.2021
4533 Fog 13 1017 87 10000 1.03 60 09:47 05.04.2021
4534 Fog 12 1017 93 300 1.31 64 09:22 05.04.2021
4535 Fog 11 1016 87 10000 1.03 0 08:45 05.04.2021
4536 Fog 11 1016 81 10000 1.03 0 08:25 05.04.2021
4537 Clear 12 1016 82 10000 1.03 0 07:36 05.04.2021
4538 Clear 13 1015 93 10000 1.54 100 06:20 05.04.2021
4539 Clear 15 1017 72 10000 3.09 320 01:41 05.04.2021
4540 Clear 15 1016 67 10000 3.09 310 00:49 05.04.2021
4541 Clear 15 1016 72 10000 3.6 310 23:51 04.04.2021
4542 Clear 15 1016 72 10000 4.63 320 23:24 04.04.2021
4543 Clear 15 1016 77 10000 4.12 320 22:51 04.04.2021
4544 Clear 15 1015 72 10000 4.12 320 22:30 04.04.2021
4545 Clear 17 1015 72 10000 2.57 300 21:28 04.04.2021
4546 Clouds 18 1015 72 10000 3.09 320 20:57 04.04.2021
4547 Clouds 18 1014 64 10000 3.09 310 20:30 04.04.2021
4548 Clouds 19 1014 56 10000 3.6 310 19:57 04.04.2021
4549 Clouds 20 1014 60 10000 4.12 310 19:36 04.04.2021
4550 Clouds 20 1014 60 10000 4.12 310 19:18 04.04.2021
4551 Clouds 20 1014 60 10000 4.12 310 19:18 04.04.2021
4552 Clouds 20 1014 60 10000 4.63 320 18:42 04.04.2021
4553 Clouds 21 1014 56 10000 4.12 260 18:21 04.04.2021
4554 Clouds 21 1014 56 10000 4.12 260 18:21 04.04.2021
4555 Clouds 21 1014 56 10000 5.66 240 17:44 04.04.2021
4556 Clouds 21 1014 60 10000 5.66 230 17:23 04.04.2021
4557 Clouds 21 1014 60 10000 5.14 220 16:44 04.04.2021
4558 Clouds 21 1014 60 10000 4.12 210 16:19 04.04.2021
4559 Clouds 20 1015 64 10000 2.06 0 15:34 04.04.2021
4560 Clouds 19 1015 68 10000 2.57 110 14:46 04.04.2021
4561 Clear 18 1015 72 10000 1.54 0 14:27 04.04.2021
4562 Clouds 18 1016 77 10000 2.06 100 13:50 04.04.2021
4563 Clouds 18 1016 77 10000 2.06 100 13:24 04.04.2021
4564 Clouds 17 1016 82 10000 3.6 60 12:43 04.04.2021
4565 Clouds 17 1015 82 10000 3.09 70 12:24 04.04.2021
4566 Clouds 17 1015 77 10000 0.51 0 11:42 04.04.2021
4567 Clouds 16 1015 88 10000 2.57 330 11:23 04.04.2021
4568 Clouds 15 1015 94 10000 1.54 310 10:45 04.04.2021
4569 Clouds 13 1015 94 8000 3.09 300 09:57 04.04.2021
4570 Clouds 13 1015 100 7000 2.57 320 09:26 04.04.2021
4571 Clouds 13 1015 100 7000 2.57 320 09:26 04.04.2021
4572 Clouds 12 1015 94 7000 3.09 320 08:55 04.04.2021
4573 Clouds 12 1014 94 8000 3.09 320 08:37 04.04.2021
4574 Clouds 12 1014 94 8000 3.09 320 08:19 04.04.2021
4575 Clouds 12 1014 94 10000 3.6 310 06:38 04.04.2021
4576 Clouds 13 1014 94 10000 3.6 310 05:33 04.04.2021
4577 Clear 13 1015 88 10000 3.09 310 01:30 04.04.2021
4578 Clear 14 1015 88 10000 3.6 320 00:23 04.04.2021
4579 Clouds 14 1015 94 10000 3.6 310 23:51 03.04.2021
4580 Clouds 14 1015 88 10000 4.12 320 23:32 03.04.2021
4581 Clouds 14 1015 82 10000 4.12 300 22:53 03.04.2021
4582 Clouds 14 1014 82 10000 4.12 320 22:22 03.04.2021
4583 Clouds 14 1014 88 10000 5.66 330 21:55 03.04.2021
4584 Clouds 14 1014 82 10000 5.14 310 21:25 03.04.2021
4585 Clouds 15 1014 77 10000 6.17 310 20:59 03.04.2021
4586 Clouds 16 1014 82 10000 6.69 310 20:29 03.04.2021
4587 Clouds 16 1014 82 10000 7.2 310 19:51 03.04.2021
4588 Clouds 16 1014 77 10000 6.17 310 19:29 03.04.2021
4589 Clouds 16 1014 72 10000 6.17 310 18:54 03.04.2021
4590 Clouds 17 1014 72 10000 6.17 320 18:36 03.04.2021
4591 Clouds 17 1014 72 10000 6.69 310 17:57 03.04.2021
4592 Clouds 17 1014 77 10000 5.66 300 17:27 03.04.2021
4593 Clouds 17 1014 72 10000 5.14 310 16:58 03.04.2021
4594 Clouds 18 1014 68 10000 4.12 300 16:31 03.04.2021
4595 Clouds 18 1015 63 10000 3.09 300 15:53 03.04.2021
4596 Clouds 18 1015 63 10000 3.09 300 15:53 03.04.2021
4597 Clouds 18 1015 68 10000 2.57 320 15:32 03.04.2021
4598 Clouds 18 1015 72 10000 3.09 340 14:54 03.04.2021
4599 Clouds 18 1015 72 10000 3.6 330 14:27 03.04.2021
4600 Clouds 18 1015 72 10000 3.6 330 14:27 03.04.2021
4601 Clouds 17 1016 72 10000 4.12 330 13:59 03.04.2021
4602 Clouds 17 1016 72 10000 3.09 360 13:36 03.04.2021
4603 Clouds 17 1016 72 10000 3.09 360 13:18 03.04.2021
4604 Clouds 16 1016 82 10000 4.12 360 12:40 03.04.2021
4605 Clouds 16 1016 88 10000 4.12 340 12:19 03.04.2021
4606 Clouds 16 1016 82 10000 4.12 350 11:32 03.04.2021
4607 Clouds 15 1016 94 10000 3.6 350 10:49 03.04.2021
4608 Clouds 14 1016 88 10000 4.12 340 10:29 03.04.2021
4609 Clouds 14 1016 94 10000 4.12 340 09:50 03.04.2021
4610 Clouds 13 1016 88 10000 1.54 330 09:27 03.04.2021
4611 Clouds 13 1016 94 10000 2.57 320 08:38 03.04.2021
4612 Clouds 13 1015 88 10000 1.54 320 08:19 03.04.2021
4613 Clouds 13 1015 94 10000 3.09 310 07:27 03.04.2021
4614 Clouds 13 1016 88 10000 3.09 330 05:33 03.04.2021
4615 Clouds 14 1017 94 10000 1.03 0 03:18 03.04.2021
4616 Clouds 14 1017 88 10000 2.06 330 02:35 03.04.2021
4617 Clouds 14 1018 88 10000 2.06 320 01:44 03.04.2021
4618 Clouds 15 1018 88 10000 2.57 300 00:19 03.04.2021
4619 Clouds 15 1018 88 10000 1.03 0 23:46 02.04.2021
4620 Clouds 15 1018 88 10000 2.57 280 23:21 02.04.2021
4621 Clouds 15 1018 82 10000 2.06 290 22:50 02.04.2021
4622 Clouds 15 1018 82 10000 3.09 290 22:30 02.04.2021
4623 Clouds 15 1018 77 10000 3.6 290 21:42 02.04.2021
4624 Clouds 15 1018 82 10000 3.09 290 21:20 02.04.2021
4625 Clouds 15 1018 82 10000 3.6 270 20:48 02.04.2021
4626 Clouds 16 1018 77 10000 4.63 270 20:26 02.04.2021
4627 Clouds 16 1018 72 10000 4.12 290 19:43 02.04.2021
4628 Clouds 17 1018 63 10000 4.12 280 19:24 02.04.2021
4629 Clouds 17 1017 55 10000 4.63 260 18:56 02.04.2021
4630 Clouds 18 1017 59 10000 4.12 250 18:38 02.04.2021
4631 Clouds 18 1017 59 10000 4.12 250 18:19 02.04.2021
4632 Clouds 19 1018 55 10000 3.09 270 17:36 02.04.2021
4633 Clouds 18 1018 55 10000 3.09 230 16:44 02.04.2021
4634 Clouds 18 1018 55 10000 3.09 290 15:51 02.04.2021
4635 Clouds 18 1019 55 10000 3.6 280 15:32 02.04.2021
4636 Clouds 18 1019 63 10000 3.09 280 14:45 02.04.2021
4637 Clouds 17 1019 63 10000 4.12 280 14:21 02.04.2021
4638 Clouds 17 1019 63 10000 3.6 290 13:41 02.04.2021
4639 Clouds 17 1019 63 10000 3.6 290 13:19 02.04.2021
4640 Clouds 17 1019 63 10000 1.54 0 12:40 02.04.2021
4641 Clouds 16 1019 63 10000 1.54 0 12:20 02.04.2021
4642 Clouds 16 1019 67 10000 1.03 0 11:53 02.04.2021
4643 Clouds 16 1019 77 10000 0.51 0 11:20 02.04.2021
4644 Clouds 16 1019 77 10000 0.51 0 11:20 02.04.2021
4645 Clouds 15 1019 88 10000 1.54 150 10:45 02.04.2021
4646 Clouds 14 1019 94 10000 1.03 0 10:27 02.04.2021
4647 Clouds 14 1018 100 10000 2.06 330 09:52 02.04.2021
4648 Clouds 13 1018 94 10000 1.03 0 09:26 02.04.2021
4649 Clouds 13 1018 94 10000 1.54 250 08:51 02.04.2021
4650 Clouds 13 1017 94 10000 1.03 300 08:29 02.04.2021
4651 Clouds 13 1017 94 10000 1.03 30 07:23 02.04.2021
4652 Clouds 13 1017 94 10000 2.2 291 06:47 02.04.2021
4653 Clouds 13 1017 94 10000 2.2 291 06:47 02.04.2021
4654 Clouds 14 1017 94 10000 2.06 270 04:49 02.04.2021
4655 Clouds 14 1017 94 10000 2.57 250 02:27 02.04.2021
4656 Clouds 15 1017 94 10000 3.09 260 00:50 02.04.2021
4657 Clouds 15 1016 94 10000 2.06 240 00:18 02.04.2021
4658 Clouds 15 1016 94 10000 2.06 240 00:18 02.04.2021
4659 Clouds 15 1016 94 10000 2.06 250 23:35 01.04.2021
4660 Clouds 15 1015 88 10000 2.06 250 22:55 01.04.2021
4661 Clouds 15 1015 82 10000 2.57 260 22:19 01.04.2021
4662 Clouds 16 1015 82 10000 2.06 290 21:49 01.04.2021
4663 Clouds 16 1014 77 10000 2.57 270 21:26 01.04.2021
4664 Clouds 17 1014 82 10000 3.6 250 20:45 01.04.2021
4665 Clouds 16 1014 82 10000 4.12 240 20:24 01.04.2021
4666 Clouds 17 1013 77 10000 4.63 240 19:54 01.04.2021
4667 Clouds 17 1013 77 10000 6.69 230 19:35 01.04.2021
4668 Clouds 17 1013 77 10000 6.69 230 19:35 01.04.2021
4669 Clouds 17 1013 72 10000 6.69 240 18:45 01.04.2021
4670 Clouds 17 1013 77 10000 6.17 240 18:18 01.04.2021
4671 Clouds 18 1013 77 10000 6.69 230 17:51 01.04.2021
4672 Clouds 17 1013 82 10000 6.17 230 17:32 01.04.2021
4673 Clouds 17 1012 88 5000 6.17 230 16:51 01.04.2021
4674 Clouds 17 1012 82 10000 6.17 200 16:28 01.04.2021
4675 Clouds 18 1012 77 10000 6.69 200 15:47 01.04.2021
4676 Clouds 18 1012 77 10000 6.17 200 15:20 01.04.2021
4677 Clouds 18 1012 82 10000 6.17 200 14:45 01.04.2021
4678 Clouds 17 1012 82 10000 6.69 200 14:26 01.04.2021
4679 Clouds 17 1012 82 10000 6.69 200 13:56 01.04.2021
4680 Clouds 17 1012 94 10000 6.17 190 13:31 01.04.2021
4681 Clouds 17 1012 88 10000 4.63 170 12:54 01.04.2021
4682 Clouds 16 1012 94 10000 4.12 160 12:32 01.04.2021
4683 Clouds 16 1012 94 10000 3.6 180 11:55 01.04.2021
4684 Clouds 16 1011 88 6000 3.09 160 11:37 01.04.2021
4685 Clouds 16 1011 88 6000 3.09 160 11:18 01.04.2021
4686 Rain 16 1011 94 8000 4.12 160 10:42 01.04.2021
4687 Rain 15 1011 94 8000 4.12 160 10:22 01.04.2021
4688 Clouds 15 1011 94 9000 4.63 190 09:30 01.04.2021
4689 Clouds 15 1011 94 9000 4.63 190 09:30 01.04.2021
4690 Clouds 15 1010 94 10000 4.63 180 08:40 01.04.2021
4691 Clouds 15 1010 94 10000 4.63 180 08:19 01.04.2021
4692 Clouds 16 1010 94 10000 6.17 160 07:21 01.04.2021
4693 Clouds 16 1010 82 10000 5.66 170 06:54 01.04.2021
4694 Clouds 16 1010 82 10000 7.2 180 04:56 01.04.2021
4695 Clouds 16 1010 88 10000 9.26 190 02:29 01.04.2021
4696 Clouds 16 1009 72 10000 4.63 200 23:52 31.03.2021
4697 Clouds 17 1008 68 10000 2.57 170 23:32 31.03.2021
4698 Clear 17 1007 77 10000 5.25 169 22:43 31.03.2021
4699 Clear 17 1008 77 10000 1.54 210 22:21 31.03.2021
4700 Clear 17 1008 72 10000 4.12 210 21:47 31.03.2021
4701 Clear 17 1008 68 10000 5.14 200 21:24 31.03.2021
4702 Clear 18 1009 68 10000 6.17 220 20:58 31.03.2021
4703 Clear 18 1009 63 10000 6.17 230 20:40 31.03.2021
4704 Clear 18 1009 63 10000 6.17 230 20:19 31.03.2021
4705 Clear 19 1008 56 10000 5.66 240 19:42 31.03.2021
4706 Clear 19 1008 56 10000 5.66 240 19:42 31.03.2021
4707 Clear 19 1008 52 10000 6.69 240 19:19 31.03.2021
4708 Clear 20 1008 43 10000 6.17 240 18:52 31.03.2021
4709 Clear 21 1008 35 10000 5.66 230 18:26 31.03.2021
4710 Clear 24 1008 29 10000 6.17 150 17:38 31.03.2021
4711 Clear 24 1008 29 10000 6.17 150 17:19 31.03.2021
4712 Clear 26 1009 27 10000 6.69 150 16:50 31.03.2021
4713 Clear 26 1009 26 10000 6.17 140 16:30 31.03.2021
4714 Clear 26 1009 29 10000 4.63 100 15:52 31.03.2021
4715 Clear 25 1010 31 10000 5.14 110 15:20 31.03.2021
4716 Clear 24 1010 38 10000 3.6 100 14:49 31.03.2021
4717 Clear 23 1011 40 10000 3.6 70 14:24 31.03.2021
4718 Clear 22 1011 43 10000 4.63 80 13:53 31.03.2021
4719 Clear 21 1012 46 10000 5.14 70 13:22 31.03.2021
4720 Clear 20 1012 59 10000 5.66 70 12:40 31.03.2021
4721 Clear 20 1012 59 10000 5.66 70 12:18 31.03.2021
4722 Clear 17 1012 63 10000 5.66 60 11:22 31.03.2021
4723 Clear 17 1012 63 10000 5.66 60 11:22 31.03.2021
4724 Clear 17 1013 63 10000 5.14 60 10:50 31.03.2021
4725 Clear 16 1013 67 10000 5.14 60 10:27 31.03.2021
4726 Clear 16 1013 67 10000 4.12 60 09:54 31.03.2021
4727 Clear 15 1013 72 10000 3.09 50 09:29 31.03.2021
4728 Clear 15 1013 72 10000 3.09 50 08:46 31.03.2021
4729 Clear 15 1013 76 10000 2.57 40 08:26 31.03.2021
4730 Clear 14 1013 76 10000 0.51 0 07:36 31.03.2021
4731 Clear 15 1014 67 10000 2.06 50 04:46 31.03.2021
4732 Clear 18 1015 55 10000 4.12 70 02:37 31.03.2021
4733 Clear 19 1015 52 10000 4.63 60 00:54 31.03.2021
4734 Clear 19 1016 52 10000 5.14 50 00:25 31.03.2021
4735 Clear 18 1015 49 10000 5.14 50 23:57 30.03.2021
4736 Clear 19 1016 52 10000 4.63 50 23:25 30.03.2021
4737 Clear 20 1016 52 10000 4.63 60 22:50 30.03.2021
4738 Clear 20 1016 49 10000 5.14 60 22:30 30.03.2021
4739 Clouds 21 1016 49 10000 5.66 60 21:57 30.03.2021
4740 Clouds 21 1016 49 10000 5.66 60 21:31 30.03.2021
4741 Clouds 22 1015 46 10000 5.66 60 20:59 30.03.2021
4742 Clouds 22 1016 49 10000 4.63 50 20:40 30.03.2021
4743 Clouds 22 1016 49 10000 4.63 50 20:20 30.03.2021
4744 Clear 22 1016 49 10000 5.14 50 19:43 30.03.2021
4745 Clear 22 1016 53 10000 4.63 70 18:58 30.03.2021
4746 Clear 22 1016 53 10000 4.63 50 18:30 30.03.2021
4747 Clear 22 1017 52 10000 4.63 50 17:48 30.03.2021
4748 Clear 22 1017 56 10000 4.63 50 17:30 30.03.2021
4749 Clear 22 1017 52 10000 4.63 50 16:47 30.03.2021
4750 Clear 21 1018 56 10000 4.63 60 16:28 30.03.2021
4751 Clear 21 1018 56 10000 5.66 60 15:39 30.03.2021
4752 Clear 20 1018 56 10000 5.66 60 15:19 30.03.2021
4753 Clear 19 1019 68 10000 5.14 50 14:45 30.03.2021
4754 Clear 19 1019 68 10000 5.14 50 14:21 30.03.2021
4755 Clear 18 1019 68 10000 5.14 50 13:49 30.03.2021
4756 Clear 18 1019 68 10000 4.63 40 13:26 30.03.2021
4757 Clear 17 1020 77 10000 2.57 10 12:41 30.03.2021
4758 Clear 17 1020 77 10000 2.57 10 12:21 30.03.2021
4759 Clear 17 1020 72 10000 3.6 20 11:47 30.03.2021
4760 Clear 17 1020 77 10000 3.6 60 11:19 30.03.2021
4761 Clear 16 1020 77 10000 4.63 40 10:42 30.03.2021
4762 Clear 16 1020 77 10000 3.09 70 10:19 30.03.2021
4763 Clear 16 1019 72 10000 4.14 34 09:41 30.03.2021
4764 Clear 16 1019 82 10000 2.06 90 09:21 30.03.2021
4765 Clear 16 1019 77 10000 0.51 0 08:43 30.03.2021
4766 Rain 16 1019 72 10000 1.54 0 08:21 30.03.2021
4767 Clear 15 1019 82 10000 2.57 340 07:42 30.03.2021
4768 Clear 15 1019 88 10000 1.03 350 06:53 30.03.2021
4769 Clear 16 1019 82 10000 1.54 50 05:25 30.03.2021
4770 Clear 16 1021 77 10000 1.03 70 01:57 30.03.2021
4771 Clear 17 1020 72 10000 1.03 0 23:55 29.03.2021
4772 Clear 18 1020 63 10000 1.54 60 23:27 29.03.2021
4773 Clear 18 1020 63 10000 2.06 50 22:43 29.03.2021
4774 Clear 18 1019 63 10000 1.03 20 21:58 29.03.2021
4775 Clear 18 1020 59 10000 1.54 70 21:37 29.03.2021
4776 Clear 20 1019 56 10000 2.06 60 20:57 29.03.2021
4777 Clear 20 1019 56 10000 2.06 50 20:37 29.03.2021
4778 Rain 20 1019 56 10000 2.57 90 19:56 29.03.2021
4779 Clouds 19 1019 56 10000 2.57 0 19:32 29.03.2021
4780 Clouds 20 1020 56 10000 3.09 100 18:57 29.03.2021
4781 Clear 21 1020 52 10000 2.57 110 18:39 29.03.2021
4782 Clear 20 1020 52 10000 2.57 110 18:20 29.03.2021
4783 Clear 20 1020 52 10000 2.57 110 18:20 29.03.2021
4784 Clouds 21 1020 52 10000 3.6 150 17:38 29.03.2021
4785 Clouds 21 1020 52 10000 4.63 140 16:55 29.03.2021
4786 Clouds 21 1020 52 10000 3.09 130 16:34 29.03.2021
4787 Clouds 21 1020 56 10000 3.6 70 15:49 29.03.2021
4788 Clouds 21 1021 56 10000 3.09 70 15:31 29.03.2021
4789 Clear 21 1021 64 10000 3.6 70 14:54 29.03.2021
4790 Clear 21 1021 68 10000 5.14 50 14:31 29.03.2021
4791 Clear 20 1021 68 10000 4.63 60 13:47 29.03.2021
4792 Clear 20 1021 63 10000 4.63 70 13:24 29.03.2021
4793 Clear 18 1021 72 10000 4.63 60 12:50 29.03.2021
4794 Clear 16 1021 82 10000 4.12 50 11:50 29.03.2021
4795 Clouds 16 1021 82 10000 4.12 40 11:30 29.03.2021
4796 Clouds 15 1021 88 10000 2.57 60 10:59 29.03.2021
4797 Clouds 15 1021 82 10000 4.63 60 10:36 29.03.2021
4798 Clear 15 1021 82 10000 3.09 50 09:42 29.03.2021
4799 Clear 14 1020 82 10000 1.54 40 08:58 29.03.2021
4800 Clear 13 1020 87 10000 2.06 60 08:28 29.03.2021
4801 Rain 13 1020 88 10000 2.57 40 07:41 29.03.2021
4802 Clear 15 1019 88 10000 1.03 0 06:27 29.03.2021
4803 Clear 17 1020 59 10000 2.06 70 03:59 29.03.2021
4804 Clear 17 1020 59 10000 2.06 70 03:59 29.03.2021
4805 Clear 17 1021 55 10000 3.6 320 01:54 29.03.2021
4806 Clear 17 1021 48 10000 4.63 310 00:23 29.03.2021
4807 Clear 17 1021 52 10000 5.14 310 23:50 28.03.2021
4808 Clear 17 1021 52 10000 5.66 320 23:19 28.03.2021
4809 Clear 17 1021 52 10000 4.63 320 22:41 28.03.2021
4810 Clear 17 1021 52 10000 4.63 320 22:21 28.03.2021
4811 Clear 18 1021 45 10000 5.14 330 21:42 28.03.2021
4812 Clear 19 1021 52 10000 3.09 280 21:23 28.03.2021
4813 Clear 19 1021 49 10000 2.06 240 20:50 28.03.2021
4814 Clear 21 1021 46 10000 2.06 340 20:31 28.03.2021
4815 Clear 23 1021 43 10000 2.06 40 19:46 28.03.2021
4816 Clear 23 1021 40 10000 1.54 30 19:23 28.03.2021
4817 Clear 23 1021 46 10000 3.09 50 18:58 28.03.2021
4818 Clear 23 1021 43 10000 3.09 50 18:32 28.03.2021
4819 Clear 23 1021 43 10000 2.57 30 17:55 28.03.2021
4820 Clear 23 1021 46 10000 2.06 0 17:32 28.03.2021
4821 Clear 23 1021 43 10000 3.09 70 16:46 28.03.2021
4822 Clear 23 1021 43 10000 3.09 70 16:46 28.03.2021
4823 Clear 22 1022 46 10000 3.09 70 16:23 28.03.2021
4824 Clear 22 1022 52 10000 3.6 70 15:43 28.03.2021
4825 Clear 21 1023 56 10000 3.6 70 15:22 28.03.2021
4826 Clear 19 1023 63 10000 3.6 60 14:37 28.03.2021
4827 Clear 18 1023 63 10000 5.14 50 13:52 28.03.2021
4828 Clear 18 1024 63 10000 4.12 50 13:33 28.03.2021
4829 Clear 17 1024 67 10000 4.63 60 12:53 28.03.2021
4830 Clear 16 1024 67 10000 5.14 50 12:33 28.03.2021
4831 Clear 15 1024 67 10000 6.69 50 11:49 28.03.2021
4832 Clear 15 1023 67 10000 6.17 50 11:26 28.03.2021
4833 Clear 15 1023 67 10000 4.63 40 10:45 28.03.2021
4834 Clear 13 1023 67 10000 3.6 40 10:27 28.03.2021
4835 Clear 13 1022 71 10000 3.09 30 09:49 28.03.2021
4836 Clear 13 1022 82 10000 2.57 40 09:25 28.03.2021
4837 Clear 12 1022 82 10000 2.57 50 08:47 28.03.2021
4838 Clear 13 1022 71 10000 1.54 70 07:52 28.03.2021
4839 Clear 13 1022 62 10000 2.57 50 07:33 28.03.2021
4840 Clear 14 1022 58 10000 3.09 30 04:54 28.03.2021
4841 Clear 15 1023 58 10000 3.09 350 01:38 28.03.2021
4842 Clear 16 1023 58 10000 2.57 340 00:22 28.03.2021
4843 Clear 16 1023 58 10000 3.09 350 23:44 27.03.2021
4844 Clear 16 1022 58 10000 3.09 350 23:21 27.03.2021
4845 Clear 16 1022 63 10000 3.6 350 22:38 27.03.2021
4846 Clear 16 1022 63 10000 3.6 350 22:18 27.03.2021
4847 Clear 17 1022 59 10000 3.6 340 21:41 27.03.2021
4848 Clear 16 1022 59 10000 3.6 340 21:20 27.03.2021
4849 Clear 17 1021 55 10000 3.6 360 20:50 27.03.2021
4850 Clear 17 1021 48 10000 4.12 30 20:31 27.03.2021
4851 Clear 18 1021 45 10000 4.12 20 19:45 27.03.2021
4852 Clear 19 1021 45 10000 3.6 20 19:23 27.03.2021
4853 Clear 20 1021 42 10000 3.6 20 18:50 27.03.2021
4854 Clear 21 1021 37 10000 3.6 20 18:32 27.03.2021
4855 Clear 21 1021 35 10000 4.12 50 17:56 27.03.2021
4856 Clear 21 1021 32 10000 3.6 50 17:26 27.03.2021
4857 Clear 21 1021 32 10000 4.12 50 16:53 27.03.2021
4858 Clear 21 1021 28 10000 4.12 70 16:30 27.03.2021
4859 Clear 21 1021 26 10000 4.12 50 15:58 27.03.2021
4860 Clear 21 1022 32 10000 4.63 60 15:36 27.03.2021
4861 Clear 20 1022 34 10000 4.63 60 14:54 27.03.2021
4862 Clear 19 1022 48 10000 4.12 60 14:19 27.03.2021
4863 Clear 18 1023 55 10000 4.12 60 13:27 27.03.2021
4864 Clear 18 1023 55 10000 4.12 40 12:59 27.03.2021
4865 Clear 17 1023 59 10000 4.63 70 12:33 27.03.2021
4866 Clear 16 1023 58 10000 4.12 50 11:47 27.03.2021
4867 Clear 16 1023 58 10000 5.14 60 11:27 27.03.2021
4868 Clear 15 1023 62 10000 5.14 50 10:48 27.03.2021
4869 Clear 13 1023 71 10000 3.6 50 10:28 27.03.2021
4870 Clear 13 1023 82 10000 2.57 60 09:41 27.03.2021
4871 Clear 11 1023 82 10000 2.57 60 09:18 27.03.2021
4872 Clear 12 1022 81 10000 2.06 30 08:33 27.03.2021
4873 Clear 11 1022 76 10000 2.06 20 07:36 27.03.2021
4874 Clear 12 1022 76 10000 1.54 360 06:58 27.03.2021
4875 Clear 12 1022 76 10000 2.57 360 06:37 27.03.2021
4876 Clear 12 1023 76 10000 2.06 320 04:41 27.03.2021
4877 Clear 12 1024 82 10000 3.6 330 01:28 27.03.2021
4878 Clear 12 1025 71 10000 1.54 340 00:32 27.03.2021
4879 Clear 12 1024 66 10000 4.63 360 23:59 26.03.2021
4880 Clear 13 1024 66 10000 6.69 340 23:23 26.03.2021
4881 Clear 13 1025 76 10000 6.17 330 22:37 26.03.2021
4882 Clear 13 1025 71 10000 5.66 340 21:42 26.03.2021
4883 Clear 14 1024 71 10000 6.17 340 21:22 26.03.2021
4884 Clear 14 1024 71 10000 5.14 330 20:49 26.03.2021
4885 Clear 14 1024 67 10000 5.14 330 20:31 26.03.2021
4886 Clear 15 1024 58 10000 6.17 340 19:51 26.03.2021
4887 Clear 16 1024 55 10000 6.17 340 19:32 26.03.2021
4888 Clear 17 1024 55 10000 5.66 340 18:49 26.03.2021
4889 Clear 17 1024 51 10000 6.69 350 18:30 26.03.2021
4890 Clouds 17 1024 51 10000 6.69 350 17:50 26.03.2021
4891 Clouds 17 1024 55 10000 6.69 350 17:23 26.03.2021
4892 Clouds 18 1024 55 10000 5.66 360 16:36 26.03.2021
4893 Clouds 18 1024 52 10000 5.14 360 15:59 26.03.2021
4894 Clouds 18 1024 55 10000 4.12 350 15:35 26.03.2021
4895 Clouds 18 1024 55 10000 4.63 360 14:44 26.03.2021
4896 Clouds 17 1025 55 10000 4.12 10 13:51 26.03.2021
4897 Clouds 17 1025 63 10000 3.6 100 13:22 26.03.2021
4898 Clouds 16 1025 72 10000 3.6 90 12:35 26.03.2021
4899 Clouds 16 1025 72 10000 3.6 90 11:48 26.03.2021
4900 Clouds 15 1025 77 10000 3.6 50 11:29 26.03.2021
4901 Clouds 15 1025 72 10000 3.09 0 10:43 26.03.2021
4902 Clouds 14 1025 76 10000 2.06 60 10:19 26.03.2021
4903 Clear 12 1024 82 10000 3.6 350 09:41 26.03.2021
4904 Clear 11 1024 87 10000 2.57 360 08:49 26.03.2021
4905 Clear 10 1023 87 10000 1.54 360 08:30 26.03.2021
4906 Clear 10 1023 93 10000 2.06 360 07:56 26.03.2021
4907 Clear 10 1023 87 10000 3.09 10 07:22 26.03.2021
4908 Clear 11 1023 87 10000 2.06 360 06:56 26.03.2021
4909 Clear 11 1023 81 10000 3.6 340 05:32 26.03.2021
4910 Clear 11 1023 81 10000 3.09 350 04:18 26.03.2021
4911 Clear 12 1024 82 10000 2.57 330 00:52 26.03.2021
4912 Clear 12 1024 76 10000 4.12 330 23:53 25.03.2021
4913 Clear 12 1024 76 10000 5.14 330 23:33 25.03.2021
4914 Clear 13 1024 76 10000 5.14 330 22:41 25.03.2021
4915 Clear 13 1024 76 10000 5.14 330 22:20 25.03.2021
4916 Clear 13 1024 76 10000 5.14 330 21:47 25.03.2021
4917 Clear 13 1023 71 10000 5.66 330 21:29 25.03.2021
4918 Clear 14 1023 67 10000 4.63 320 20:41 25.03.2021
4919 Clear 14 1023 67 10000 4.63 320 20:23 25.03.2021
4920 Clear 15 1023 67 10000 4.12 310 19:40 25.03.2021
4921 Clear 15 1023 67 10000 4.12 310 19:22 25.03.2021
4922 Clouds 16 1023 63 10000 6.17 340 18:46 25.03.2021
4923 Clouds 16 1023 59 10000 4.63 330 18:26 25.03.2021
4924 Clouds 17 1023 59 10000 4.63 330 17:42 25.03.2021
4925 Clouds 18 1023 55 10000 2.06 0 17:23 25.03.2021
4926 Clouds 18 1023 55 10000 2.06 0 16:39 25.03.2021
4927 Clouds 18 1023 55 10000 2.06 0 16:20 25.03.2021
4928 Clouds 18 1024 48 10000 2.57 260 15:42 25.03.2021
4929 Clouds 18 1024 48 10000 2.57 260 15:19 25.03.2021
4930 Clouds 17 1024 52 10000 2.06 0 14:42 25.03.2021
4931 Clouds 16 1025 67 10000 2.06 0 13:41 25.03.2021
4932 Clouds 16 1025 67 10000 2.06 0 13:23 25.03.2021
4933 Clouds 15 1025 67 10000 2.57 110 12:41 25.03.2021
4934 Clouds 15 1025 67 10000 2.57 110 12:20 25.03.2021
4935 Clouds 15 1025 67 10000 2.57 100 11:48 25.03.2021
4936 Clouds 14 1025 67 10000 2.06 70 11:26 25.03.2021
4937 Clouds 14 1025 71 10000 2.57 20 10:52 25.03.2021
4938 Clouds 13 1025 82 10000 2.57 20 10:24 25.03.2021
4939 Clear 13 1025 82 10000 2.57 20 09:56 25.03.2021
4940 Clear 12 1025 82 10000 1.03 0 09:38 25.03.2021
4941 Clear 10 1025 93 10000 1.41 39 08:54 25.03.2021
4942 Clouds 9 1024 93 10000 1.45 35 08:21 25.03.2021
4943 Clear 9 1024 87 10000 1.03 310 07:19 25.03.2021
4944 Clear 9 1024 93 10000 2.06 340 06:25 25.03.2021
4945 Clear 9 1024 87 10000 1.54 330 05:49 25.03.2021
4946 Clear 11 1025 76 10000 4.63 330 02:48 25.03.2021
4947 Clear 11 1026 76 10000 5.66 330 00:34 25.03.2021
4948 Clear 11 1026 71 10000 5.66 330 23:53 24.03.2021
4949 Clear 11 1026 71 10000 5.66 330 23:29 24.03.2021
4950 Clear 12 1026 71 10000 6.69 330 22:50 24.03.2021
4951 Clear 12 1026 71 10000 6.69 330 22:28 24.03.2021
4952 Clear 12 1026 66 10000 6.17 330 21:46 24.03.2021
4953 Clouds 12 1026 71 10000 6.17 330 21:24 24.03.2021
4954 Clouds 13 1026 67 10000 5.14 320 20:45 24.03.2021
4955 Clouds 13 1025 71 10000 5.14 310 20:20 24.03.2021
4956 Clear 14 1025 62 10000 6.17 320 19:49 24.03.2021
4957 Clear 15 1025 58 10000 5.14 320 19:29 24.03.2021
4958 Clear 15 1025 58 10000 5.14 320 19:29 24.03.2021
4959 Clouds 15 1025 58 10000 5.66 320 18:51 24.03.2021
4960 Clouds 16 1025 55 10000 5.14 310 18:24 24.03.2021
4961 Clouds 16 1025 55 10000 5.66 330 17:52 24.03.2021
4962 Clouds 16 1025 55 10000 5.14 310 17:32 24.03.2021
4963 Clouds 17 1025 55 10000 4.63 330 16:53 24.03.2021
4964 Clouds 17 1025 55 10000 4.63 320 16:31 24.03.2021
4965 Clouds 17 1025 52 10000 3.09 0 15:55 24.03.2021
4966 Clouds 17 1025 48 10000 3.09 30 15:33 24.03.2021
4967 Clouds 17 1026 52 10000 2.57 350 14:48 24.03.2021
4968 Clouds 17 1026 55 10000 2.57 350 14:27 24.03.2021
4969 Clouds 17 1026 55 10000 2.57 310 13:57 24.03.2021
4970 Clouds 17 1026 59 10000 3.6 320 13:28 24.03.2021
4971 Clouds 16 1027 58 10000 3.09 10 12:45 24.03.2021
4972 Clouds 16 1027 63 10000 3.6 340 12:23 24.03.2021
4973 Clouds 15 1027 67 10000 3.6 350 11:49 24.03.2021
4974 Clouds 14 1026 71 10000 5.66 350 10:59 24.03.2021
4975 Clouds 13 1026 76 10000 5.66 340 10:41 24.03.2021
4976 Clouds 13 1026 76 10000 5.66 340 10:22 24.03.2021
4977 Clouds 12 1026 82 10000 3.6 340 09:53 24.03.2021
4978 Clouds 11 1026 82 10000 3.09 340 09:23 24.03.2021
4979 Clouds 11 1025 81 10000 1.54 340 08:55 24.03.2021
4980 Clouds 9 1025 87 10000 1.03 10 08:29 24.03.2021
4981 Clear 9 1025 87 10000 2.57 330 07:42 24.03.2021
4982 Clear 9 1024 87 10000 2.04 352 06:54 24.03.2021
4983 Clear 10 1024 87 10000 2.57 340 05:52 24.03.2021
4984 Clear 12 1025 82 10000 4.63 330 00:56 24.03.2021
4985 Clear 12 1025 82 10000 5.14 340 00:32 24.03.2021
4986 Clear 12 1025 87 10000 5.66 320 23:23 23.03.2021
4987 Clear 12 1024 82 10000 7.2 310 22:58 23.03.2021
4988 Clear 12 1024 82 10000 6.69 310 22:40 23.03.2021
4989 Clear 12 1024 82 10000 6.69 310 21:59 23.03.2021
4990 Clear 12 1023 82 10000 6.17 300 21:40 23.03.2021
4991 Clear 12 1023 82 10000 6.17 300 21:19 23.03.2021
4992 Clouds 13 1023 76 10000 6.69 310 20:42 23.03.2021
4993 Clouds 14 1023 72 10000 6.17 310 20:23 23.03.2021
4994 Clouds 16 1023 67 10000 6.17 320 19:45 23.03.2021
4995 Clouds 15 1023 67 10000 6.17 320 19:25 23.03.2021
4996 Clouds 16 1022 63 10000 5.66 330 18:43 23.03.2021
4997 Clouds 16 1022 63 10000 5.66 330 18:21 23.03.2021
4998 Clouds 17 1022 59 10000 4.63 320 17:44 23.03.2021
4999 Clouds 18 1022 55 10000 5.14 330 17:21 23.03.2021
5000 Clouds 19 1022 55 10000 4.63 330 16:26 23.03.2021
5001 Clouds 19 1023 55 10000 3.6 330 15:59 23.03.2021
5002 Clouds 19 1023 52 10000 2.06 30 15:38 23.03.2021
5003 Clouds 19 1023 52 10000 3.09 0 14:51 23.03.2021
5004 Clouds 18 1023 49 10000 1.54 0 14:21 23.03.2021
5005 Clouds 18 1023 52 10000 2.57 330 13:49 23.03.2021
5006 Clouds 18 1023 55 10000 1.54 0 13:25 23.03.2021
5007 Clouds 17 1024 59 10000 2.06 0 12:47 23.03.2021
5008 Clouds 17 1024 59 10000 2.06 0 12:27 23.03.2021
5009 Clouds 16 1024 59 10000 2.06 360 11:51 23.03.2021
5010 Clouds 16 1024 67 10000 3.09 330 11:33 23.03.2021
5011 Clouds 14 1024 72 10000 4.12 310 10:44 23.03.2021
5012 Clouds 14 1023 72 10000 4.63 310 10:22 23.03.2021
5013 Clouds 13 1023 82 10000 4.12 310 09:55 23.03.2021
5014 Clouds 12 1022 82 10000 3.6 310 09:29 23.03.2021
5015 Clouds 12 1022 82 10000 3.6 310 09:29 23.03.2021
5016 Clouds 12 1022 87 10000 3.6 310 08:58 23.03.2021
5017 Clouds 11 1022 93 10000 3.09 310 08:39 23.03.2021
5018 Clouds 11 1022 93 10000 3.09 310 08:20 23.03.2021
5019 Clear 11 1021 82 10000 3.6 310 07:28 23.03.2021
5020 Clear 11 1021 93 10000 3.6 300 06:57 23.03.2021
5021 Clear 11 1021 93 10000 3.6 300 06:57 23.03.2021
5022 Clear 11 1021 82 10000 4.63 320 06:18 23.03.2021
5023 Clear 12 1021 66 10000 4.63 320 03:20 23.03.2021
5024 Clear 13 1021 71 10000 4.63 330 00:42 23.03.2021
5025 Clear 13 1020 58 10000 5.66 310 23:33 22.03.2021
5026 Clear 13 1020 54 10000 5.14 300 22:46 22.03.2021
5027 Clear 14 1020 54 10000 5.14 300 22:23 22.03.2021
5028 Clear 14 1020 58 10000 5.14 300 21:52 22.03.2021
5029 Clear 14 1020 58 10000 5.66 310 21:29 22.03.2021
5030 Clear 15 1019 55 10000 5.14 300 20:57 22.03.2021
5031 Clear 16 1019 44 10000 5.14 310 20:37 22.03.2021
5032 Clear 15 1019 44 10000 5.14 310 20:18 22.03.2021
5033 Clear 18 1019 42 10000 4.12 310 19:40 22.03.2021
5034 Clear 17 1019 42 10000 4.12 310 19:21 22.03.2021
5035 Clear 18 1019 42 10000 5.66 330 18:45 22.03.2021
5036 Clear 18 1018 42 10000 4.63 320 18:27 22.03.2021
5037 Clear 19 1018 32 10000 1.54 0 17:51 22.03.2021
5038 Clear 20 1018 46 10000 1.54 0 17:24 22.03.2021
5039 Clear 19 1018 32 10000 1.54 90 16:59 22.03.2021
5040 Clear 19 1019 32 10000 3.09 140 16:40 22.03.2021
5041 Clear 19 1019 37 10000 2.57 160 15:58 22.03.2021
5042 Clear 19 1019 37 10000 3.09 110 15:37 22.03.2021
5043 Clear 18 1019 37 10000 3.09 110 15:18 22.03.2021
5044 Clear 18 1019 37 10000 2.06 0 14:49 22.03.2021
5045 Clear 17 1020 39 10000 2.06 80 14:29 22.03.2021
5046 Clear 17 1020 44 10000 3.09 80 13:39 22.03.2021
5047 Clear 16 1020 44 10000 3.09 80 13:19 22.03.2021
5048 Clear 15 1021 55 10000 2.57 100 12:45 22.03.2021
5049 Clear 15 1021 55 10000 2.57 100 12:22 22.03.2021
5050 Clear 15 1021 58 10000 2.57 60 11:46 22.03.2021
5051 Clear 14 1021 58 10000 2.57 60 11:22 22.03.2021
5052 Clear 15 1020 67 10000 0.51 0 10:43 22.03.2021
5053 Clear 12 1020 71 10000 1.03 0 10:24 22.03.2021
5054 Clear 12 1020 71 10000 0.51 0 09:39 22.03.2021
5055 Clear 12 1020 71 10000 0.51 0 09:21 22.03.2021
5056 Clear 11 1020 81 10000 2.06 60 08:43 22.03.2021
5057 Clear 10 1020 71 10000 2.57 310 08:24 22.03.2021
5058 Clear 10 1020 71 10000 3.6 310 07:44 22.03.2021
5059 Clear 9 1020 81 10000 2.06 340 06:52 22.03.2021
5060 Clear 10 1020 76 10000 2.57 320 06:27 22.03.2021
5061 Clear 11 1021 62 10000 4.12 310 02:32 22.03.2021
5062 Clear 11 1022 71 10000 4.12 310 00:29 22.03.2021
5063 Clear 11 1022 66 10000 4.12 310 23:54 21.03.2021
5064 Clear 12 1022 66 10000 3.6 300 23:19 21.03.2021
5065 Clear 12 1022 66 10000 4.63 310 22:56 21.03.2021
5066 Clear 12 1022 58 10000 5.66 330 21:59 21.03.2021
5067 Clear 13 1021 58 10000 4.12 320 21:40 21.03.2021
5068 Clear 13 1021 58 10000 4.12 320 21:22 21.03.2021
5069 Clear 13 1021 50 10000 4.12 320 20:43 21.03.2021
5070 Clear 13 1021 50 10000 4.12 320 20:43 21.03.2021
5071 Clear 13 1021 47 10000 3.6 300 20:24 21.03.2021
5072 Clear 15 1021 41 10000 4.63 330 19:53 21.03.2021
5073 Clear 15 1021 47 10000 4.63 340 19:21 21.03.2021
5074 Clear 16 1021 31 10000 1.03 0 18:48 21.03.2021
5075 Clear 17 1021 34 10000 1.54 0 18:27 21.03.2021
5076 Clear 17 1021 32 10000 1.54 0 17:48 21.03.2021
5077 Clear 17 1021 34 10000 2.57 70 17:21 21.03.2021
5078 Clear 17 1021 31 10000 2.57 80 16:59 21.03.2021
5079 Clear 17 1022 34 10000 2.57 0 16:40 21.03.2021
5080 Clear 17 1022 34 10000 2.57 0 16:21 21.03.2021
5081 Clear 16 1022 31 10000 2.06 0 15:41 21.03.2021
5082 Clear 16 1022 31 10000 2.06 0 15:20 21.03.2021
5083 Clear 16 1023 39 10000 2.57 0 14:46 21.03.2021
5084 Clear 16 1023 38 10000 2.06 30 14:26 21.03.2021
5085 Clear 15 1023 44 10000 3.6 40 13:54 21.03.2021
5086 Clear 14 1024 47 10000 3.6 70 13:25 21.03.2021
5087 Clear 13 1024 50 10000 4.12 70 12:42 21.03.2021
5088 Clear 12 1024 46 10000 5.66 80 12:23 21.03.2021
5089 Clear 12 1024 46 10000 5.66 80 12:23 21.03.2021
5090 Clear 11 1024 46 10000 6.17 60 11:37 21.03.2021
5091 Clear 10 1024 46 10000 6.17 60 11:19 21.03.2021
5092 Clear 10 1024 43 10000 5.14 60 10:43 21.03.2021
5093 Clear 10 1024 46 10000 5.14 50 10:23 21.03.2021
5094 Clear 9 1024 43 10000 6.17 40 09:46 21.03.2021
5095 Clear 9 1024 46 10000 6.17 40 09:28 21.03.2021
5096 Clear 8 1023 46 10000 5.14 50 08:44 21.03.2021
5097 Clear 8 1023 45 10000 4.63 40 08:26 21.03.2021
5098 Clear 8 1023 53 10000 4.63 50 07:39 21.03.2021
5099 Clear 8 1022 46 10000 4.12 50 06:56 21.03.2021
5100 Clear 10 1022 43 10000 4.12 50 05:54 21.03.2021
5101 Clear 10 1022 57 10000 3.09 350 02:34 21.03.2021
5102 Clear 11 1022 66 10000 4.12 330 00:43 21.03.2021
5103 Clear 11 1021 66 10000 4.12 330 00:24 21.03.2021
5104 Clear 11 1021 62 10000 4.63 330 23:50 20.03.2021
5105 Clear 11 1021 66 10000 4.12 330 23:24 20.03.2021
5106 Clear 12 1021 66 10000 4.63 320 22:57 20.03.2021
5107 Clear 12 1021 66 10000 5.14 320 22:24 20.03.2021
5108 Clear 12 1020 66 10000 5.14 340 21:47 20.03.2021
5109 Clear 12 1020 66 10000 5.66 340 21:25 20.03.2021
5110 Clear 13 1019 62 10000 4.63 330 20:48 20.03.2021
5111 Clear 13 1019 54 10000 3.6 360 20:23 20.03.2021
5112 Clear 14 1019 31 10000 4.63 50 19:51 20.03.2021
5113 Clear 15 1018 29 10000 5.66 50 19:29 20.03.2021
5114 Clear 16 1018 27 10000 7.2 50 18:51 20.03.2021
5115 Clear 16 1018 25 10000 7.2 50 18:28 20.03.2021
5116 Clear 16 1018 27 10000 6.17 50 17:58 20.03.2021
5117 Clear 17 1018 27 10000 7.72 60 17:40 20.03.2021
5118 Clear 16 1018 27 10000 7.72 60 17:20 20.03.2021
5119 Clear 16 1018 31 10000 7.2 30 16:39 20.03.2021
5120 Clear 16 1018 31 10000 7.2 30 16:18 20.03.2021
5121 Clear 16 1018 33 10000 7.2 40 15:40 20.03.2021
5122 Clear 16 1018 33 10000 7.2 40 15:22 20.03.2021
5123 Clear 15 1019 33 10000 7.72 60 14:32 20.03.2021
5124 Clear 15 1019 35 10000 8.23 50 13:59 20.03.2021
5125 Clear 14 1019 33 10000 8.23 50 13:30 20.03.2021
5126 Clear 14 1019 33 10000 9.77 50 12:39 20.03.2021
5127 Clear 13 1019 33 10000 9.77 50 12:20 20.03.2021
5128 Clear 13 1019 37 10000 10.29 40 11:43 20.03.2021
5129 Clear 12 1019 37 10000 10.29 50 11:21 20.03.2021
5130 Clear 12 1018 40 10000 9.26 40 10:45 20.03.2021
5131 Clear 11 1018 50 10000 7.72 40 10:23 20.03.2021
5132 Clear 10 1018 46 10000 8.75 50 09:48 20.03.2021
5133 Clear 10 1018 49 10000 8.23 40 09:22 20.03.2021
5134 Clear 9 1017 49 10000 8.23 50 08:53 20.03.2021
5135 Clear 10 1017 53 10000 8.23 40 08:19 20.03.2021
5136 Clear 10 1016 61 10000 7.2 50 07:48 20.03.2021
5137 Clear 10 1016 61 10000 8.75 50 07:29 20.03.2021
5138 Clear 10 1015 66 10000 7.2 50 06:41 20.03.2021
5139 Clear 12 1014 62 10000 6.17 50 05:29 20.03.2021
5140 Clear 12 1014 71 10000 4.12 350 03:45 20.03.2021
5141 Clear 13 1014 71 10000 4.63 330 01:43 20.03.2021
5142 Clear 13 1014 76 10000 8.23 330 23:48 19.03.2021
5143 Clear 13 1014 82 10000 6.69 330 23:21 19.03.2021
5144 Clouds 13 1014 87 10000 5.66 330 22:45 19.03.2021
5145 Clouds 13 1014 82 10000 6.17 330 22:24 19.03.2021
5146 Clouds 13 1014 82 10000 7.2 330 21:51 19.03.2021
5147 Clouds 13 1014 76 10000 4.63 300 21:21 19.03.2021
5148 Clouds 13 1014 71 10000 5.14 310 20:46 19.03.2021
5149 Clouds 13 1014 62 10000 5.14 310 20:27 19.03.2021
5150 Clear 13 1014 58 10000 3.6 290 19:52 19.03.2021
5151 Clear 14 1015 54 10000 6.69 330 19:24 19.03.2021
5152 Clear 15 1015 55 10000 6.69 340 18:56 19.03.2021
5153 Clear 15 1015 51 10000 7.2 340 18:36 19.03.2021
5154 Clear 15 1015 51 10000 7.2 340 18:18 19.03.2021
5155 Clear 16 1015 48 10000 6.69 340 17:42 19.03.2021
5156 Clear 16 1015 48 10000 6.17 330 17:22 19.03.2021
5157 Clear 17 1015 36 10000 4.63 330 16:44 19.03.2021
5158 Clear 18 1015 39 10000 3.09 320 16:26 19.03.2021
5159 Clear 17 1016 42 10000 4.63 90 15:34 19.03.2021
5160 Clear 17 1016 39 10000 4.12 70 14:54 19.03.2021
5161 Clear 16 1017 39 10000 4.12 50 14:35 19.03.2021
5162 Clear 16 1017 41 10000 4.63 50 13:54 19.03.2021
5163 Clear 16 1017 51 10000 4.63 40 13:21 19.03.2021
5164 Clear 15 1018 44 10000 5.66 50 12:48 19.03.2021
5165 Clear 14 1018 47 10000 6.69 50 12:29 19.03.2021
5166 Clear 14 1018 41 10000 7.2 40 11:36 19.03.2021
5167 Clear 13 1018 40 10000 5.66 30 10:53 19.03.2021
5168 Clear 11 1018 46 10000 5.14 30 10:26 19.03.2021
5169 Clear 12 1018 46 10000 4.12 40 09:47 19.03.2021
5170 Clear 11 1018 53 10000 3.6 30 09:27 19.03.2021
5171 Clear 9 1018 66 10000 2.57 50 08:53 19.03.2021
5172 Clear 10 1017 57 10000 4.12 40 08:30 19.03.2021
5173 Clear 11 1017 46 10000 4.12 40 07:52 19.03.2021
5174 Clear 9 1017 53 10000 3.6 10 07:34 19.03.2021
5175 Clear 10 1017 57 10000 3.09 360 06:36 19.03.2021
5176 Clear 13 1017 41 10000 5.66 30 02:45 19.03.2021
5177 Clear 14 1017 44 10000 4.63 30 23:58 18.03.2021
5178 Clear 14 1017 41 10000 5.14 20 23:30 18.03.2021
5179 Clear 15 1017 41 10000 5.14 30 22:58 18.03.2021
5180 Clear 15 1017 44 10000 5.66 10 22:38 18.03.2021
5181 Clear 14 1017 44 10000 5.66 10 22:18 18.03.2021
5182 Clear 14 1016 58 10000 5.66 350 21:39 18.03.2021
5183 Clear 15 1016 58 10000 5.66 340 20:44 18.03.2021
5184 Clear 15 1016 55 10000 5.14 340 20:25 18.03.2021
5185 Clear 16 1016 48 10000 5.66 340 19:45 18.03.2021
5186 Clear 17 1016 44 10000 7.2 340 19:25 18.03.2021
5187 Clear 18 1016 30 10000 4.63 60 18:57 18.03.2021
5188 Clear 18 1016 24 10000 5.14 40 18:33 18.03.2021
5189 Clear 19 1016 27 10000 6.17 50 17:50 18.03.2021
5190 Clear 19 1016 26 10000 6.69 50 17:25 18.03.2021
5191 Clear 19 1016 27 10000 6.69 40 16:48 18.03.2021
5192 Clear 19 1017 24 10000 7.2 40 16:29 18.03.2021
5193 Clear 19 1017 26 10000 7.72 40 15:47 18.03.2021
5194 Clear 19 1017 27 10000 7.72 40 15:26 18.03.2021
5195 Clear 19 1018 27 10000 7.72 40 14:55 18.03.2021
5196 Clear 19 1018 32 10000 7.2 40 14:32 18.03.2021
5197 Clear 18 1019 29 10000 7.2 40 13:53 18.03.2021
5198 Clear 18 1019 34 10000 7.72 40 13:26 18.03.2021
5199 Clear 17 1019 36 10000 8.23 30 12:45 18.03.2021
5200 Clear 17 1019 39 10000 8.75 50 12:26 18.03.2021
5201 Clear 16 1019 41 10000 7.72 40 11:55 18.03.2021
5202 Clear 16 1019 41 10000 7.2 50 11:34 18.03.2021
5203 Clear 15 1019 44 10000 8.23 40 10:49 18.03.2021
5204 Clear 14 1019 41 10000 6.69 40 10:28 18.03.2021
5205 Clear 14 1019 38 10000 7.72 50 09:58 18.03.2021
5206 Clear 13 1019 38 10000 8.23 40 09:30 18.03.2021
5207 Clear 14 1019 35 10000 7.72 50 08:57 18.03.2021
5208 Clear 13 1019 35 10000 7.72 40 08:33 18.03.2021
5209 Clear 13 1019 38 10000 6.69 40 07:57 18.03.2021
5210 Clear 13 1019 38 10000 7.2 40 07:39 18.03.2021
5211 Clear 13 1018 41 10000 5.14 40 06:40 18.03.2021
5212 Clear 13 1018 41 10000 5.14 40 06:19 18.03.2021
5213 Clear 14 1018 41 10000 8.23 40 04:42 18.03.2021
5214 Clear 16 1019 42 10000 6.17 30 00:39 18.03.2021
5215 Clear 17 1019 48 10000 3.6 340 23:18 17.03.2021
5216 Clear 17 1019 45 10000 2.57 10 22:38 17.03.2021
5217 Clear 17 1019 45 10000 2.57 10 22:19 17.03.2021
5218 Clear 17 1019 42 10000 3.6 30 21:48 17.03.2021
5219 Clear 18 1019 39 10000 5.14 30 21:30 17.03.2021
5220 Clear 18 1018 39 10000 5.14 30 20:45 17.03.2021
5221 Clear 19 1018 42 10000 4.63 20 20:26 17.03.2021
5222 Clear 20 1018 37 10000 5.66 30 19:57 17.03.2021
5223 Clear 20 1018 37 10000 6.69 40 19:25 17.03.2021
5224 Clear 22 1018 40 10000 6.69 40 18:59 17.03.2021
5225 Clear 22 1018 37 10000 7.2 40 18:40 17.03.2021
5226 Clear 22 1018 37 10000 6.69 40 17:59 17.03.2021
5227 Clear 22 1019 43 10000 6.69 30 17:32 17.03.2021
5228 Clear 22 1019 40 10000 6.69 40 16:57 17.03.2021
5229 Clear 22 1019 43 10000 6.69 40 16:38 17.03.2021
5230 Clear 22 1019 43 10000 6.69 40 16:19 17.03.2021
5231 Clear 22 1020 43 10000 6.17 40 15:40 17.03.2021
5232 Clear 21 1020 42 10000 6.69 60 14:46 17.03.2021
5233 Clear 21 1021 45 10000 6.17 60 14:28 17.03.2021
5234 Clear 21 1021 42 10000 6.69 60 13:58 17.03.2021
5235 Clear 20 1021 42 10000 7.2 70 13:40 17.03.2021
5236 Clear 19 1021 42 10000 7.2 70 13:18 17.03.2021
5237 Clear 19 1022 45 10000 7.2 60 12:36 17.03.2021
5238 Clear 18 1022 51 10000 7.2 70 12:18 17.03.2021
5239 Clear 18 1022 51 10000 7.2 70 12:18 17.03.2021
5240 Clear 17 1022 55 10000 5.66 40 11:37 17.03.2021
5241 Clear 16 1022 55 10000 8.23 60 11:18 17.03.2021
5242 Clear 15 1022 54 10000 6.69 50 10:40 17.03.2021
5243 Clear 15 1022 54 10000 6.69 50 10:19 17.03.2021
5244 Clear 14 1022 54 10000 6.17 40 09:42 17.03.2021
5245 Clear 13 1022 58 10000 6.69 40 09:20 17.03.2021
5246 Clear 14 1021 58 10000 4.63 40 08:45 17.03.2021
5247 Clear 13 1021 62 10000 4.63 40 08:25 17.03.2021
5248 Clear 12 1021 58 10000 5.14 40 07:38 17.03.2021
5249 Clear 12 1021 58 10000 4.12 50 06:48 17.03.2021
5250 Clear 13 1021 58 10000 4.12 50 06:27 17.03.2021
5251 Clear 15 1021 51 10000 4.12 50 03:32 17.03.2021
5252 Clear 16 1022 48 10000 5.14 40 01:58 17.03.2021
5253 Clear 16 1023 42 10000 5.66 30 00:33 17.03.2021
5254 Clear 16 1022 51 10000 3.6 340 23:27 16.03.2021
5255 Clear 17 1022 51 10000 3.09 330 22:45 16.03.2021
5256 Clear 17 1022 48 10000 3.6 330 22:26 16.03.2021
5257 Clear 17 1022 51 10000 2.57 330 21:44 16.03.2021
5258 Clear 18 1022 48 10000 3.6 340 21:26 16.03.2021
5259 Clear 18 1021 45 10000 4.12 340 20:57 16.03.2021
5260 Clear 18 1021 36 10000 3.6 20 20:20 16.03.2021
5261 Clear 20 1021 32 10000 5.14 30 19:51 16.03.2021
5262 Clear 21 1021 30 10000 4.63 40 19:29 16.03.2021
5263 Clear 21 1021 30 10000 5.66 30 18:58 16.03.2021
5264 Clear 22 1021 28 10000 6.69 50 18:39 16.03.2021
5265 Clear 23 1021 28 10000 6.69 50 18:20 16.03.2021
5266 Clear 23 1021 31 10000 5.66 30 17:41 16.03.2021
5267 Clear 23 1021 31 10000 5.66 30 17:22 16.03.2021
5268 Clear 23 1021 33 10000 5.66 30 16:49 16.03.2021
5269 Clear 23 1021 31 10000 5.66 40 16:25 16.03.2021
5270 Clear 23 1022 31 10000 6.17 60 15:46 16.03.2021
5271 Clear 23 1022 35 10000 5.66 60 15:21 16.03.2021
5272 Clear 22 1022 35 10000 6.17 40 14:57 16.03.2021
5273 Clear 22 1023 46 10000 6.17 40 14:39 16.03.2021
5274 Clear 22 1023 46 10000 6.17 40 14:19 16.03.2021
5275 Clear 21 1023 49 10000 5.14 50 13:46 16.03.2021
5276 Clear 19 1023 48 10000 4.63 50 13:23 16.03.2021
5277 Clear 19 1024 52 10000 5.66 40 12:48 16.03.2021
5278 Clear 18 1024 48 10000 6.17 50 12:29 16.03.2021
5279 Clear 17 1024 45 10000 5.14 50 11:41 16.03.2021
5280 Clear 17 1024 45 10000 5.14 50 11:21 16.03.2021
5281 Clear 15 1024 47 10000 6.69 40 10:27 16.03.2021
5282 Clear 15 1024 51 10000 5.14 50 09:49 16.03.2021
5283 Clear 14 1023 51 10000 5.14 40 09:30 16.03.2021
5284 Clear 13 1023 54 10000 4.12 40 08:59 16.03.2021
5285 Clear 13 1023 54 10000 4.12 50 08:40 16.03.2021
5286 Clear 13 1023 54 10000 4.12 50 08:20 16.03.2021
5287 Clear 13 1023 54 10000 4.12 40 07:36 16.03.2021
5288 Clear 13 1022 51 10000 3.6 50 06:39 16.03.2021
5289 Clear 13 1022 58 10000 4.12 30 05:52 16.03.2021
5290 Clear 12 1022 62 10000 3.09 10 05:34 16.03.2021
5291 Clear 14 1023 54 10000 2.57 20 02:45 16.03.2021
5292 Clear 14 1023 62 10000 3.09 10 02:24 16.03.2021
5293 Clear 15 1023 58 10000 3.6 330 23:58 15.03.2021
5294 Clear 15 1023 55 10000 4.63 330 23:29 15.03.2021
5295 Clear 15 1023 55 10000 4.63 330 23:29 15.03.2021
5296 Clear 15 1023 55 10000 5.14 330 22:53 15.03.2021
5297 Clear 15 1023 55 10000 5.66 330 22:34 15.03.2021
5298 Clear 16 1023 55 10000 6.69 330 21:55 15.03.2021
5299 Clear 16 1023 51 10000 6.69 330 21:36 15.03.2021
5300 Clear 16 1023 51 10000 6.69 330 21:18 15.03.2021
5301 Clear 17 1023 51 10000 5.66 330 20:40 15.03.2021
5302 Clear 17 1023 51 10000 5.66 330 20:22 15.03.2021
5303 Clear 18 1022 52 10000 5.14 350 19:51 15.03.2021
5304 Clear 19 1022 45 10000 4.63 10 19:33 15.03.2021
5305 Clear 20 1022 42 10000 4.12 40 18:57 15.03.2021
5306 Clear 21 1022 42 10000 4.63 30 18:32 15.03.2021
5307 Clear 21 1022 42 10000 5.14 40 17:56 15.03.2021
5308 Clear 21 1022 40 10000 5.14 30 17:33 15.03.2021
5309 Clear 21 1022 37 10000 4.63 50 16:56 15.03.2021
5310 Clear 21 1023 42 10000 5.14 60 16:35 15.03.2021
5311 Clear 20 1023 45 10000 5.66 30 15:47 15.03.2021
5312 Clear 20 1023 49 10000 5.14 30 15:27 15.03.2021
5313 Clear 20 1024 52 10000 4.12 40 14:45 15.03.2021
5314 Clear 19 1024 52 10000 4.12 40 14:27 15.03.2021
5315 Clear 18 1024 55 10000 4.63 60 13:55 15.03.2021
5316 Clear 18 1024 55 10000 4.12 60 13:34 15.03.2021
5317 Clear 17 1024 55 10000 4.63 50 12:51 15.03.2021
5318 Clear 16 1025 55 10000 5.66 60 12:20 15.03.2021
5319 Clear 16 1025 63 10000 4.63 60 11:57 15.03.2021
5320 Clear 16 1025 58 10000 5.14 60 11:38 15.03.2021
5321 Clear 15 1025 58 10000 5.14 60 11:18 15.03.2021
5322 Clear 14 1025 62 10000 4.63 40 10:34 15.03.2021
5323 Clear 14 1024 76 10000 3.09 50 09:59 15.03.2021
5324 Clear 13 1024 76 10000 3.6 30 09:40 15.03.2021
5325 Clear 13 1024 76 10000 3.6 30 09:20 15.03.2021
5326 Clear 12 1024 81 10000 2.06 30 08:41 15.03.2021
5327 Clear 12 1024 81 10000 2.06 30 08:19 15.03.2021
5328 Clear 11 1023 81 10000 2.06 350 07:33 15.03.2021
5329 Clear 11 1023 87 10000 1.54 360 06:45 15.03.2021
5330 Clear 11 1023 82 10000 2.06 10 05:35 15.03.2021
5331 Clear 12 1024 82 10000 2.57 320 03:19 15.03.2021
5332 Clear 13 1025 82 10000 4.63 330 00:21 15.03.2021
5333 Clear 13 1025 87 10000 5.14 320 23:23 14.03.2021
5334 Clear 13 1025 87 10000 4.63 320 22:49 14.03.2021
5335 Clear 13 1025 87 10000 4.12 320 22:28 14.03.2021
5336 Clear 13 1025 76 10000 4.63 320 21:52 14.03.2021
5337 Clear 13 1025 82 10000 5.14 330 21:23 14.03.2021
5338 Clear 13 1025 82 10000 5.14 330 20:52 14.03.2021
5339 Clear 14 1025 77 10000 5.66 340 20:29 14.03.2021
5340 Clear 14 1025 77 10000 6.17 330 19:58 14.03.2021
5341 Clear 15 1024 67 10000 6.17 330 19:40 14.03.2021
5342 Clear 15 1024 67 10000 6.17 330 19:18 14.03.2021
5343 Clear 16 1024 63 10000 7.2 330 18:36 14.03.2021
5344 Clear 18 1025 55 10000 4.63 360 17:54 14.03.2021
5345 Clear 18 1025 52 10000 5.14 350 17:36 14.03.2021
5346 Clear 18 1025 52 10000 5.14 350 17:18 14.03.2021
5347 Clear 19 1025 48 10000 5.14 20 16:40 14.03.2021
5348 Clear 19 1025 48 10000 5.14 20 16:19 14.03.2021
5349 Clear 19 1025 48 10000 4.63 10 15:42 14.03.2021
5350 Clear 19 1027 48 10000 4.12 50 14:51 14.03.2021
5351 Clear 18 1027 48 10000 5.66 20 14:30 14.03.2021
5352 Clear 18 1027 48 10000 6.17 40 13:53 14.03.2021
5353 Clear 18 1028 51 10000 6.17 30 13:34 14.03.2021
5354 Clear 17 1028 51 10000 6.69 30 12:58 14.03.2021
5355 Clear 17 1028 48 10000 7.72 30 12:40 14.03.2021
5356 Clear 17 1028 48 10000 7.72 30 12:22 14.03.2021
5357 Clear 15 1028 51 10000 6.17 30 11:38 14.03.2021
5358 Clear 15 1028 51 10000 6.17 30 11:19 14.03.2021
5359 Clear 14 1028 67 10000 5.14 360 10:38 14.03.2021
5360 Clear 14 1028 67 10000 5.14 360 10:19 14.03.2021
5361 Clear 13 1028 71 10000 5.14 360 09:56 14.03.2021
5362 Clear 12 1027 76 10000 5.14 350 09:38 14.03.2021
5363 Clear 12 1027 76 10000 5.14 350 09:20 14.03.2021
5364 Clear 11 1027 87 10000 4.12 360 08:36 14.03.2021
5365 Clear 10 1027 87 10000 4.12 360 07:56 14.03.2021
5366 Clear 10 1027 81 10000 5.66 350 07:27 14.03.2021
5367 Clear 11 1027 81 10000 5.66 360 05:34 14.03.2021
5368 Clear 11 1028 82 10000 6.17 340 01:26 14.03.2021
5369 Clear 11 1028 82 10000 6.17 340 00:20 14.03.2021
5370 Clear 12 1028 82 10000 6.17 340 23:59 13.03.2021
5371 Clear 12 1028 76 10000 6.69 340 23:40 13.03.2021
5372 Clear 12 1028 76 10000 6.69 340 23:18 13.03.2021
5373 Clear 12 1028 81 10000 4.12 350 22:46 13.03.2021
5374 Clear 12 1028 76 10000 3.09 350 22:21 13.03.2021
5375 Clear 13 1027 66 10000 6.69 340 21:35 13.03.2021
5376 Clear 13 1027 66 10000 5.66 350 20:59 13.03.2021
5377 Clear 13 1027 62 10000 7.72 350 20:41 13.03.2021
5378 Clear 13 1027 62 10000 7.72 350 20:23 13.03.2021
5379 Clear 13 1026 58 10000 7.2 350 19:40 13.03.2021
5380 Clear 14 1026 58 10000 7.2 350 19:22 13.03.2021
5381 Clouds 14 1026 58 10000 6.69 340 18:42 13.03.2021
5382 Clouds 15 1026 51 10000 6.69 350 18:20 13.03.2021
5383 Clouds 15 1026 51 10000 7.2 360 17:51 13.03.2021
5384 Clouds 16 1026 58 10000 6.69 340 17:31 13.03.2021
5385 Clouds 16 1026 63 10000 6.69 340 16:53 13.03.2021
5386 Clouds 16 1026 55 10000 7.2 330 16:35 13.03.2021
5387 Clouds 16 1026 51 10000 6.17 350 15:56 13.03.2021
5388 Clouds 16 1026 51 10000 7.2 340 15:18 13.03.2021
5389 Clouds 16 1027 58 10000 5.14 350 14:41 13.03.2021
5390 Clouds 15 1027 58 10000 5.14 350 14:21 13.03.2021
5391 Clouds 15 1027 58 10000 6.17 360 13:28 13.03.2021
5392 Clouds 15 1027 62 10000 6.69 20 12:53 13.03.2021
5393 Clouds 15 1027 58 10000 7.2 360 12:35 13.03.2021
5394 Clouds 14 1027 67 10000 6.17 360 11:57 13.03.2021
5395 Clouds 13 1027 71 10000 6.17 350 11:38 13.03.2021
5396 Clouds 13 1027 67 10000 5.66 20 11:19 13.03.2021
5397 Clouds 13 1027 71 10000 4.63 10 10:31 13.03.2021
5398 Clouds 11 1027 81 10000 3.09 350 09:59 13.03.2021
5399 Clouds 11 1026 81 10000 2.06 340 09:33 13.03.2021
5400 Clouds 10 1026 81 10000 2.06 330 08:54 13.03.2021
5401 Clouds 10 1026 81 10000 2.06 330 08:54 13.03.2021
5402 Clouds 10 1026 81 10000 1.54 320 08:26 13.03.2021
5403 Clouds 10 1025 87 10000 1.54 330 07:57 13.03.2021
5404 Clouds 10 1025 87 10000 2.06 310 07:38 13.03.2021
5405 Clouds 10 1025 87 10000 2.06 310 05:30 13.03.2021
5406 Clouds 11 1025 81 10000 4.63 320 02:42 13.03.2021
5407 Clouds 11 1026 82 10000 4.12 310 00:36 13.03.2021
5408 Clouds 11 1026 82 10000 4.12 310 23:46 12.03.2021
5409 Clouds 11 1026 82 10000 4.12 310 23:28 12.03.2021
5410 Clouds 12 1026 82 10000 5.66 320 22:41 12.03.2021
5411 Clouds 12 1026 82 10000 5.66 320 22:21 12.03.2021
5412 Clouds 12 1026 82 10000 4.63 310 21:39 12.03.2021
5413 Clouds 12 1026 82 10000 4.63 310 21:21 12.03.2021
5414 Clouds 12 1025 76 10000 5.14 310 20:55 12.03.2021
5415 Clouds 13 1025 76 10000 4.12 310 20:31 12.03.2021
5416 Clouds 13 1025 71 10000 4.63 320 19:54 12.03.2021
5417 Clouds 13 1025 71 10000 4.63 310 19:34 12.03.2021
5418 Clouds 13 1025 71 10000 5.14 310 18:54 12.03.2021
5419 Clouds 14 1025 67 10000 5.14 320 18:33 12.03.2021
5420 Clouds 14 1025 67 10000 5.14 320 17:47 12.03.2021
5421 Clouds 15 1025 63 10000 5.66 340 17:29 12.03.2021
5422 Clouds 15 1025 63 10000 6.17 340 16:54 12.03.2021
5423 Clouds 15 1025 58 10000 5.14 330 16:33 12.03.2021
5424 Clouds 16 1025 58 10000 5.66 340 15:51 12.03.2021
5425 Clouds 16 1026 55 10000 5.14 350 15:25 12.03.2021
5426 Clouds 16 1026 51 10000 5.14 320 14:47 12.03.2021
5427 Clouds 16 1027 51 10000 5.14 310 14:20 12.03.2021
5428 Clouds 16 1027 55 10000 6.69 330 13:42 12.03.2021
5429 Clouds 15 1027 58 10000 5.66 330 13:21 12.03.2021
5430 Clouds 16 1027 72 10000 6.17 360 12:56 12.03.2021
5431 Clouds 15 1028 82 10000 4.12 330 12:36 12.03.2021
5432 Clouds 15 1028 82 10000 4.12 330 12:18 12.03.2021
5433 Clouds 14 1028 88 10000 3.6 330 11:47 12.03.2021
5434 Clouds 14 1028 77 10000 4.63 330 11:19 12.03.2021
5435 Clouds 14 1027 82 10000 4.12 340 10:45 12.03.2021
5436 Clouds 14 1027 94 10000 2.57 340 10:22 12.03.2021
5437 Clouds 13 1027 94 10000 3.09 340 09:48 12.03.2021
5438 Clouds 13 1026 88 10000 2.06 360 09:19 12.03.2021
5439 Clouds 12 1026 94 10000 3.09 340 08:40 12.03.2021
5440 Clouds 13 1026 94 10000 3.6 340 07:51 12.03.2021
5441 Clouds 13 1026 94 10000 3.6 340 07:29 12.03.2021
5442 Clouds 13 1025 94 10000 3.09 340 06:44 12.03.2021
5443 Clouds 14 1025 100 10000 3.09 330 05:52 12.03.2021
5444 Clouds 13 1027 100 10000 2.06 290 00:59 12.03.2021
5445 Clouds 13 1028 94 10000 2.57 300 23:56 11.03.2021
5446 Clouds 13 1028 88 10000 3.09 300 22:59 11.03.2021
5447 Clouds 13 1028 88 10000 3.09 300 22:39 11.03.2021
5448 Clouds 13 1028 88 10000 3.09 300 22:20 11.03.2021
5449 Clouds 14 1027 88 10000 3.09 310 21:46 11.03.2021
5450 Clouds 14 1027 88 10000 3.6 310 21:25 11.03.2021
5451 Clouds 14 1027 82 10000 2.57 300 20:49 11.03.2021
5452 Clouds 14 1027 82 10000 3.09 300 20:23 11.03.2021
5453 Clouds 15 1027 72 10000 3.6 300 19:56 11.03.2021
5454 Clouds 15 1026 63 10000 2.57 300 19:36 11.03.2021
5455 Clouds 16 1026 63 10000 3.09 310 18:54 11.03.2021
5456 Clouds 16 1026 67 10000 3.6 350 18:35 11.03.2021
5457 Clouds 16 1026 67 10000 4.12 330 17:54 11.03.2021
5458 Clouds 16 1026 63 10000 3.6 340 17:36 11.03.2021
5459 Clouds 17 1026 63 10000 4.63 330 16:42 11.03.2021
5460 Clouds 17 1027 63 10000 3.6 320 16:24 11.03.2021
5461 Clouds 16 1027 67 10000 3.6 310 15:44 11.03.2021
5462 Clouds 16 1027 72 10000 1.54 0 15:21 11.03.2021
5463 Clouds 16 1028 88 10000 2.06 200 14:45 11.03.2021
5464 Clouds 16 1028 82 10000 1.03 0 14:19 11.03.2021
5465 Clouds 15 1028 82 10000 1.54 310 13:46 11.03.2021
5466 Clouds 15 1028 82 10000 2.06 310 13:22 11.03.2021
5467 Clouds 16 1028 77 10000 2.06 290 12:56 11.03.2021
5468 Clouds 15 1029 77 10000 1.03 0 12:30 11.03.2021
5469 Clouds 15 1029 77 10000 2.57 240 11:49 11.03.2021
5470 Clouds 15 1029 77 10000 2.06 280 11:31 11.03.2021
5471 Clouds 15 1028 77 10000 1.54 260 10:57 11.03.2021
5472 Clouds 14 1028 82 10000 2.06 320 10:28 11.03.2021
5473 Clouds 14 1028 94 10000 1.54 310 09:53 11.03.2021
5474 Clouds 13 1027 100 10000 2.06 320 09:34 11.03.2021
5475 Clouds 13 1027 100 10000 2.57 340 08:59 11.03.2021
5476 Clouds 13 1027 100 10000 2.06 270 08:40 11.03.2021
5477 Clouds 13 1027 100 10000 2.06 280 07:59 11.03.2021
5478 Clouds 13 1026 100 10000 1.54 280 07:21 11.03.2021
5479 Clouds 13 1026 88 10000 1.03 0 06:48 11.03.2021
5480 Clouds 13 1026 88 10000 1.54 230 06:23 11.03.2021
5481 Clouds 13 1027 94 10000 2.57 290 02:48 11.03.2021
5482 -273 0 0 0 0 0 00:45 11.03.2021
5483 Clear 13 1027 87 10000 3.09 310 23:23 10.03.2021
5484 Clear 13 1026 87 10000 2.57 290 22:43 10.03.2021
5485 Clear 13 1026 87 10000 3.09 300 22:23 10.03.2021
5486 Clouds 13 1026 82 10000 4.63 300 21:45 10.03.2021
5487 Clear 13 1026 82 10000 3.6 300 21:44 10.03.2021
5488 Clear 13 1026 82 10000 3.6 300 21:44 10.03.2021
5489 Clouds 13 1026 82 10000 4.63 300 21:21 10.03.2021
5490 Clouds 13 1026 82 10000 5.14 310 20:45 10.03.2021
5491 Clouds 13 1025 82 10000 4.63 310 20:27 10.03.2021
5492 Clouds 14 1025 77 10000 4.63 310 19:43 10.03.2021
5493 Clouds 15 1025 72 10000 4.12 310 19:24 10.03.2021
5494 Clouds 15 1025 67 10000 4.63 320 18:44 10.03.2021
5495 Clouds 15 1024 67 10000 5.14 320 18:24 10.03.2021
5496 Clouds 16 1024 67 10000 4.63 330 17:55 10.03.2021
5497 Clouds 16 1024 63 10000 3.09 300 17:36 10.03.2021
5498 Clouds 17 1024 63 10000 3.09 300 17:18 10.03.2021
5499 Clouds 17 1024 63 10000 3.09 350 16:41 10.03.2021
5500 Clouds 17 1024 63 10000 3.09 350 16:22 10.03.2021
5501 Clouds 16 1024 59 10000 2.57 300 15:44 10.03.2021
5502 Clouds 17 1025 63 10000 3.6 310 15:22 10.03.2021
5503 Clouds 17 1025 67 10000 2.57 10 14:46 10.03.2021
5504 Clouds 16 1025 67 10000 2.06 0 14:20 10.03.2021
5505 Clouds 16 1025 67 10000 2.06 0 14:20 10.03.2021
5506 Clouds 16 1025 63 10000 2.06 0 13:51 10.03.2021
5507 Clouds 16 1025 67 10000 2.57 110 13:27 10.03.2021
5508 Clouds 15 1025 63 10000 2.06 0 12:45 10.03.2021
5509 Clouds 15 1025 63 10000 4.12 20 12:19 10.03.2021
5510 Clouds 14 1026 71 10000 4.12 350 11:43 10.03.2021
5511 Clouds 14 1026 71 10000 4.12 360 11:19 10.03.2021
5512 Clouds 13 1025 76 10000 4.63 350 10:46 10.03.2021
5513 Clouds 12 1025 82 10000 4.12 340 10:28 10.03.2021
5514 Clouds 11 1025 76 10000 3.09 340 09:45 10.03.2021
5515 Clouds 11 1024 81 10000 3.6 330 09:24 10.03.2021
5516 Clouds 11 1024 81 10000 3.6 330 09:24 10.03.2021
5517 Clouds 11 1024 81 10000 3.6 330 09:24 10.03.2021
5518 Clouds 10 1024 81 10000 3.6 330 09:24 10.03.2021
5519 Clouds 10 1024 81 10000 3.09 320 08:57 10.03.2021
5520 Clear 9 1024 87 10000 2.57 320 08:39 10.03.2021
5521 Clear 9 1024 87 10000 2.57 320 08:20 10.03.2021
5522 Clear 9 1023 87 10000 2.06 310 07:33 10.03.2021
5523 Clear 9 1023 87 10000 3.09 320 06:57 10.03.2021
5524 Clear 9 1023 87 10000 3.09 340 06:32 10.03.2021
5525 Clear 10 1023 87 10000 3.6 330 02:42 10.03.2021
5526 Clear 11 1022 87 10000 6.17 330 23:52 09.03.2021
5527 Clear 11 1022 87 10000 5.66 320 23:25 09.03.2021
5528 Clear 11 1022 82 10000 6.17 320 22:44 09.03.2021
5529 Clear 12 1022 76 10000 6.17 320 22:26 09.03.2021
5530 Clear 12 1021 76 10000 6.17 320 21:55 09.03.2021
5531 Clear 12 1021 71 10000 7.2 330 21:36 09.03.2021
5532 Clear 12 1021 71 10000 7.2 330 21:18 09.03.2021
5533 Clear 12 1021 71 10000 5.66 320 20:43 09.03.2021
5534 Clear 13 1020 58 10000 4.63 310 20:21 09.03.2021
5535 Clear 13 1020 51 10000 6.17 330 19:53 09.03.2021
5536 Clear 14 1019 54 10000 7.2 330 19:27 09.03.2021
5537 Clear 15 1019 55 10000 5.66 320 18:51 09.03.2021
5538 Clear 16 1019 51 10000 6.17 330 18:28 09.03.2021
5539 Clear 16 1019 42 10000 4.12 310 17:54 09.03.2021
5540 Clear 17 1019 42 10000 3.6 360 17:34 09.03.2021
5541 Clouds 17 1019 45 10000 4.12 350 16:55 09.03.2021
5542 Clouds 17 1019 45 10000 2.57 70 16:37 09.03.2021
5543 Clouds 17 1019 45 10000 2.57 70 16:19 09.03.2021
5544 Clouds 17 1019 45 10000 3.6 110 15:44 09.03.2021
5545 Clouds 17 1019 44 10000 3.6 70 15:22 09.03.2021
5546 Clouds 16 1020 44 10000 5.14 90 14:36 09.03.2021
5547 Clouds 16 1020 44 10000 5.14 90 14:18 09.03.2021
5548 Clouds 16 1020 47 10000 3.6 60 13:38 09.03.2021
5549 Clouds 16 1020 47 10000 3.6 60 13:20 09.03.2021
5550 Clouds 15 1020 55 10000 3.09 70 12:40 09.03.2021
5551 Clouds 15 1020 55 10000 3.09 70 12:21 09.03.2021
5552 Clouds 14 1020 54 10000 3.09 10 11:42 09.03.2021
5553 Clouds 14 1020 62 10000 3.09 360 11:21 09.03.2021
5554 Clouds 13 1020 66 10000 2.57 360 10:56 09.03.2021
5555 Clouds 13 1020 71 10000 2.57 10 10:38 09.03.2021
5556 Clouds 13 1020 71 10000 2.57 10 10:19 09.03.2021
5557 Clouds 12 1020 76 10000 3.09 340 09:43 09.03.2021
5558 Clouds 11 1019 81 10000 3.09 330 09:24 09.03.2021
5559 Clouds 10 1019 87 10000 3.09 330 08:48 09.03.2021
5560 Clouds 11 1019 87 10000 3.6 330 08:28 09.03.2021
5561 Clear 11 1018 81 10000 2.57 310 07:40 09.03.2021
5562 Clear 10 1018 81 10000 2.57 310 07:21 09.03.2021
5563 Clear 11 1018 87 10000 3.09 310 06:18 09.03.2021
5564 Clear 11 1017 87 10000 3.09 320 05:46 09.03.2021
5565 Clouds 13 1018 82 10000 5.14 310 00:34 09.03.2021
5566 Clouds 12 1018 76 10000 5.66 310 23:45 08.03.2021
5567 Clouds 12 1018 82 10000 5.66 310 23:27 08.03.2021
5568 Clouds 12 1018 82 10000 6.17 320 22:51 08.03.2021
5569 Clouds 12 1017 82 10000 6.17 330 22:32 08.03.2021
5570 Clouds 12 1017 82 10000 5.66 320 21:57 08.03.2021
5571 Clouds 12 1017 82 10000 5.14 320 21:35 08.03.2021
5572 Clouds 12 1016 82 10000 5.14 320 20:48 08.03.2021
5573 Clouds 12 1016 82 10000 5.14 320 20:28 08.03.2021
5574 Clouds 12 1016 82 10000 5.14 320 20:28 08.03.2021
5575 Clouds 12 1016 76 10000 5.66 320 19:59 08.03.2021
5576 Clouds 12 1015 71 10000 5.66 310 19:37 08.03.2021
5577 Clouds 13 1015 67 10000 7.2 330 18:44 08.03.2021
5578 Clouds 13 1015 67 10000 7.2 330 18:23 08.03.2021
5579 Clouds 13 1015 71 10000 6.69 330 17:56 08.03.2021
5580 Clouds 13 1015 71 10000 5.66 330 17:38 08.03.2021
5581 Clouds 14 1015 71 10000 5.66 320 16:56 08.03.2021
5582 Clouds 14 1015 71 10000 6.17 340 16:33 08.03.2021
5583 Clouds 14 1015 71 10000 6.17 330 15:57 08.03.2021
5584 Clouds 14 1016 67 10000 6.69 330 15:31 08.03.2021
5585 Clouds 14 1016 62 10000 6.17 320 14:59 08.03.2021
5586 Clouds 14 1016 67 10000 5.66 310 14:21 08.03.2021
5587 Clouds 14 1017 67 10000 6.17 330 13:44 08.03.2021
5588 Clouds 14 1017 66 10000 6.69 340 13:22 08.03.2021
5589 Clouds 13 1017 58 10000 6.17 330 12:49 08.03.2021
5590 Clouds 13 1017 62 10000 8.23 340 12:29 08.03.2021
5591 Clouds 13 1017 62 10000 7.2 330 11:45 08.03.2021
5592 Clouds 13 1017 62 10000 8.23 330 11:20 08.03.2021
5593 Clouds 12 1017 62 10000 6.69 320 10:47 08.03.2021
5594 Clouds 12 1017 66 10000 5.14 330 10:28 08.03.2021
5595 Clouds 11 1016 66 10000 5.66 320 09:45 08.03.2021
5596 Clouds 11 1016 71 10000 3.6 330 09:25 08.03.2021
5597 Clouds 10 1016 71 10000 2.06 40 08:31 08.03.2021
5598 Clouds 9 1016 71 10000 1.54 0 07:49 08.03.2021
5599 Clouds 9 1016 71 10000 1.54 0 07:21 08.03.2021
5600 Clouds 10 1016 71 10000 3.09 310 05:19 08.03.2021
5601 Clouds 11 1017 76 10000 4.63 340 01:28 08.03.2021
5602 Clouds 11 1018 76 10000 4.63 340 00:41 08.03.2021
5603 Clouds 11 1018 76 10000 5.14 340 23:53 07.03.2021
5604 Clouds 12 1018 76 10000 4.12 330 23:20 07.03.2021
5605 Clouds 12 1018 76 10000 7.2 340 22:45 07.03.2021
5606 Clouds 12 1017 82 10000 4.63 330 22:26 07.03.2021
5607 Clouds 12 1017 82 10000 3.6 320 21:49 07.03.2021
5608 Clouds 12 1017 82 10000 4.12 330 21:31 07.03.2021
5609 Clouds 12 1017 76 10000 3.6 310 20:56 07.03.2021
5610 Clouds 12 1017 76 10000 4.63 330 20:37 07.03.2021
5611 Clouds 12 1017 76 10000 4.63 330 20:18 07.03.2021
5612 Clouds 13 1016 71 10000 5.14 320 19:39 07.03.2021
5613 Clouds 13 1016 71 10000 5.14 320 19:21 07.03.2021
5614 Clouds 14 1016 71 10000 5.14 320 18:50 07.03.2021
5615 Clouds 14 1016 67 10000 6.17 320 18:20 07.03.2021
5616 Clouds 14 1016 72 10000 6.17 330 17:56 07.03.2021
5617 Clouds 15 1016 67 10000 5.14 310 17:37 07.03.2021
5618 Clouds 15 1016 67 10000 5.14 310 17:18 07.03.2021
5619 Clouds 15 1016 67 10000 5.14 310 17:18 07.03.2021
5620 Clouds 16 1017 67 10000 4.63 310 16:42 07.03.2021
5621 Clouds 16 1017 67 10000 5.14 330 16:20 07.03.2021
5622 Clouds 16 1017 72 10000 5.14 330 15:46 07.03.2021
5623 Clouds 16 1017 67 10000 4.12 310 15:28 07.03.2021
5624 Clouds 16 1018 72 10000 3.6 300 14:46 07.03.2021
5625 Clouds 16 1018 77 10000 3.6 300 14:28 07.03.2021
5626 Clouds 16 1018 72 10000 3.6 310 13:44 07.03.2021
5627 Clouds 16 1019 72 10000 3.09 340 13:24 07.03.2021
5628 Clouds 15 1019 72 10000 3.6 330 12:47 07.03.2021
5629 Clouds 15 1019 77 10000 4.63 320 12:29 07.03.2021
5630 Clouds 15 1019 82 10000 5.14 340 11:52 07.03.2021
5631 Clouds 14 1019 77 10000 4.63 320 11:23 07.03.2021
5632 Clouds 14 1019 82 10000 4.63 310 10:50 07.03.2021
5633 Clouds 14 1019 88 10000 3.6 310 10:31 07.03.2021
5634 Clouds 13 1019 87 10000 4.12 310 09:51 07.03.2021
5635 Clouds 12 1018 87 10000 4.63 310 09:26 07.03.2021
5636 Clouds 12 1018 93 10000 5.14 310 08:48 07.03.2021
5637 Clouds 12 1018 93 10000 4.63 310 08:25 07.03.2021
5638 Clear 12 1018 93 10000 4.12 320 07:51 07.03.2021
5639 Clouds 13 1018 82 10000 5.14 310 02:44 07.03.2021
5640 Clear 14 1019 71 10000 4.63 310 01:45 07.03.2021
5641 Clear 14 1019 62 10000 3.09 320 23:56 06.03.2021
5642 Clear 14 1019 67 10000 3.09 320 23:37 06.03.2021
5643 Clear 14 1019 76 10000 3.09 320 22:57 06.03.2021
5644 Clear 14 1019 72 10000 3.09 310 22:38 06.03.2021
5645 Clear 14 1019 72 10000 3.09 310 22:19 06.03.2021
5646 Clear 14 1018 77 10000 4.12 310 21:25 06.03.2021
5647 Clear 14 1018 77 10000 3.6 320 20:59 06.03.2021
5648 Clear 14 1018 72 10000 3.6 320 20:40 06.03.2021
5649 Clouds 15 1018 67 10000 4.12 310 19:51 06.03.2021
5650 Clouds 16 1018 63 10000 4.12 310 19:23 06.03.2021
5651 Clouds 17 1017 63 10000 5.66 330 18:57 06.03.2021
5652 Clouds 18 1017 55 10000 3.6 10 18:38 06.03.2021
5653 Clouds 18 1017 55 10000 3.6 10 18:19 06.03.2021
5654 Clouds 19 1017 55 10000 4.12 70 17:47 06.03.2021
5655 Clouds 19 1017 59 10000 3.09 100 17:26 06.03.2021
5656 Clouds 20 1017 59 10000 3.09 110 16:53 06.03.2021
5657 Clouds 19 1017 59 10000 3.6 100 16:30 06.03.2021
5658 Clouds 19 1018 55 10000 2.57 70 15:55 06.03.2021
5659 Clouds 18 1018 55 10000 3.09 100 15:34 06.03.2021
5660 Clear 19 1018 59 10000 3.09 80 14:55 06.03.2021
5661 Clear 18 1018 55 10000 3.09 70 14:31 06.03.2021
5662 Clear 18 1019 59 10000 3.6 90 13:46 06.03.2021
5663 Clear 18 1019 59 10000 3.09 60 13:24 06.03.2021
5664 Clear 17 1019 63 10000 3.6 40 12:49 06.03.2021
5665 Clear 15 1019 67 10000 4.63 60 12:20 06.03.2021
5666 Clear 16 1019 67 10000 4.63 50 11:59 06.03.2021
5667 Clear 15 1019 72 10000 4.12 40 11:27 06.03.2021
5668 Clear 15 1019 72 10000 4.12 40 10:54 06.03.2021
5669 Clear 14 1019 76 10000 3.6 40 10:36 06.03.2021
5670 Clear 13 1018 76 10000 3.09 40 09:56 06.03.2021
5671 Clear 13 1018 76 10000 3.09 360 09:24 06.03.2021
5672 Clear 12 1018 87 10000 2.06 340 08:54 06.03.2021
5673 Clear 11 1018 82 10000 1.54 20 08:30 06.03.2021
5674 Clear 12 1017 82 10000 2.57 10 07:54 06.03.2021
5675 Clear 12 1017 82 10000 2.57 340 07:22 06.03.2021
5676 Clear 12 1017 76 10000 2.06 320 06:27 06.03.2021
5677 Clear 13 1017 82 10000 2.57 360 03:47 06.03.2021
5678 Clouds 13 1017 76 10000 3.6 330 01:42 06.03.2021
5679 Clouds 14 1017 82 10000 3.09 360 00:46 06.03.2021
5680 Clouds 14 1017 77 10000 4.63 20 23:49 05.03.2021
5681 Clouds 14 1017 77 10000 5.14 30 23:19 05.03.2021
5682 Clouds 14 1017 77 10000 5.14 30 23:19 05.03.2021
5683 Clouds 14 1016 77 10000 5.14 30 22:44 05.03.2021
5684 Clouds 14 1016 82 10000 4.12 30 22:22 05.03.2021
5685 Clouds 14 1016 82 10000 5.14 40 21:51 05.03.2021
5686 Clouds 14 1015 82 10000 5.66 40 21:31 05.03.2021
5687 Clouds 14 1015 82 10000 5.14 30 20:50 05.03.2021
5688 Clouds 14 1015 82 10000 5.14 30 20:26 05.03.2021
5689 Clouds 14 1014 88 10000 4.63 40 19:54 05.03.2021
5690 Clouds 14 1014 82 10000 5.66 60 19:26 05.03.2021
5691 Clouds 15 1014 82 10000 5.14 50 18:55 05.03.2021
5692 Clouds 15 1013 82 10000 6.69 60 18:36 05.03.2021
5693 Clouds 15 1013 82 10000 6.69 60 18:18 05.03.2021
5694 Clouds 15 1013 82 10000 6.69 60 17:33 05.03.2021
5695 Clouds 15 1013 82 10000 6.69 60 16:45 05.03.2021
5696 Clouds 15 1013 82 10000 7.2 60 16:24 05.03.2021
5697 Clouds 15 1013 77 10000 7.72 50 15:56 05.03.2021
5698 Clouds 15 1013 82 10000 6.69 50 15:29 05.03.2021
5699 Clouds 16 1013 82 10000 7.2 60 14:58 05.03.2021
5700 Clouds 16 1013 82 10000 4.63 70 14:38 05.03.2021
5701 Clouds 15 1013 88 10000 4.63 70 13:46 05.03.2021
5702 Clouds 15 1013 88 10000 5.66 70 13:22 05.03.2021
5703 Clouds 14 1013 94 10000 4.63 60 12:49 05.03.2021
5704 Clouds 12 1013 94 10000 4.63 70 11:54 05.03.2021
5705 Clouds 12 1013 100 10000 4.12 60 11:36 05.03.2021
5706 Clouds 12 1013 100 10000 4.12 60 11:18 05.03.2021
5707 Clouds 11 1012 100 10000 4.12 70 10:40 05.03.2021
5708 Clouds 12 1012 100 10000 4.12 70 10:21 05.03.2021
5709 Clouds 12 1012 100 10000 4.63 70 09:47 05.03.2021
5710 Rain 12 1012 100 10000 3.6 60 09:26 05.03.2021
5711 Clouds 11 1011 100 9000 3.6 100 08:40 05.03.2021
5712 Clouds 11 1011 100 9000 3.6 100 08:22 05.03.2021
5713 Clouds 11 1011 100 10000 4.12 40 07:39 05.03.2021
5714 Clouds 11 1011 100 10000 4.12 50 06:50 05.03.2021
5715 Clouds 11 1011 100 10000 4.63 40 06:30 05.03.2021
5716 Clouds 12 1013 100 10000 3.6 60 01:47 05.03.2021
5717 Clouds 12 1013 100 10000 3.09 40 00:34 05.03.2021
5718 Clouds 12 1013 100 9000 3.6 100 23:31 04.03.2021
5719 Clouds 12 1013 100 10000 4.12 90 22:38 04.03.2021
5720 Clouds 12 1013 94 9000 3.6 60 22:19 04.03.2021
5721 Clouds 12 1014 94 9000 3.6 70 21:42 04.03.2021
5722 Clouds 12 1014 94 9000 3.6 70 21:23 04.03.2021
5723 Rain 12 1014 100 10000 3.09 70 20:41 04.03.2021
5724 Rain 12 1014 100 10000 3.09 70 20:21 04.03.2021
5725 Rain 12 1013 100 10000 2.57 70 19:54 04.03.2021
5726 Rain 12 1014 100 10000 1.54 80 19:30 04.03.2021
5727 Rain 12 1014 94 8000 2.06 320 18:59 04.03.2021
5728 Rain 12 1014 100 10000 1.03 0 18:38 04.03.2021
5729 Rain 12 1014 100 7000 4.12 270 17:59 04.03.2021
5730 Rain 12 1015 94 2500 6.17 220 17:40 04.03.2021
5731 Rain 12 1015 94 2500 6.17 220 17:20 04.03.2021
5732 Rain 14 1014 82 9000 3.09 130 16:44 04.03.2021
5733 Rain 14 1014 82 9000 3.09 130 16:44 04.03.2021
5734 Rain 16 1015 77 10000 4.63 130 16:24 04.03.2021
5735 Rain 15 1015 77 10000 3.6 130 15:48 04.03.2021
5736 Rain 15 1016 77 10000 4.63 140 15:29 04.03.2021
5737 Clouds 16 1016 77 10000 5.14 130 14:44 04.03.2021
5738 Clouds 16 1016 77 10000 5.14 120 14:18 04.03.2021
5739 Clouds 15 1017 77 10000 5.14 130 13:42 04.03.2021
5740 Clouds 15 1017 82 10000 4.63 140 13:22 04.03.2021
5741 Clouds 15 1017 82 10000 5.66 130 12:42 04.03.2021
5742 Clouds 15 1018 82 10000 3.6 120 12:18 04.03.2021
5743 Rain 14 1018 88 10000 3.6 110 11:40 04.03.2021
5744 Rain 14 1018 88 10000 3.6 110 11:20 04.03.2021
5745 Clouds 14 1018 88 9000 3.6 110 10:37 04.03.2021
5746 Clouds 14 1018 88 9000 3.6 110 10:18 04.03.2021
5747 Clouds 13 1018 100 8000 3.6 120 09:32 04.03.2021
5748 Clouds 13 1018 94 7000 3.6 120 08:56 04.03.2021
5749 Clouds 13 1019 94 7000 3.09 120 08:32 04.03.2021
5750 Rain 14 1019 94 10000 3.09 120 07:49 04.03.2021
5751 Clouds 14 1019 100 9000 2.57 100 06:52 04.03.2021
5752 Clouds 14 1019 100 9000 2.06 90 06:23 04.03.2021
5753 Clouds 14 1022 88 10000 3.09 220 02:39 04.03.2021
5754 Clouds 14 1022 88 10000 2.57 240 01:24 04.03.2021
5755 Clouds 14 1023 88 10000 2.06 270 22:43 03.03.2021
5756 Clouds 15 1023 88 10000 1.54 270 22:25 03.03.2021
5757 Clear 15 1023 88 10000 1.54 230 21:43 03.03.2021
5758 Clear 15 1023 88 10000 1.54 230 21:24 03.03.2021
5759 Clear 15 1023 82 10000 2.06 230 20:56 03.03.2021
5760 Clouds 15 1023 82 10000 3.09 230 20:38 03.03.2021
5761 Clouds 16 1023 77 10000 3.6 230 19:57 03.03.2021
5762 Clouds 16 1023 77 10000 4.12 230 19:39 03.03.2021
5763 Clouds 16 1023 77 10000 4.12 230 19:19 03.03.2021
5764 Clear 17 1023 72 10000 4.12 220 18:45 03.03.2021
5765 Clear 17 1023 72 10000 4.12 220 18:45 03.03.2021
5766 Clouds 17 1023 72 10000 3.6 230 18:20 03.03.2021
5767 Clouds 18 1023 68 10000 4.63 220 17:42 03.03.2021
5768 Clouds 18 1023 68 10000 3.6 230 17:18 03.03.2021
5769 Clouds 18 1024 59 10000 4.12 160 16:40 03.03.2021
5770 Clouds 19 1024 59 10000 4.12 160 16:21 03.03.2021
5771 Clouds 19 1024 63 10000 3.09 0 15:33 03.03.2021
5772 Clear 18 1025 72 10000 2.57 90 14:54 03.03.2021
5773 Clear 18 1025 72 10000 2.57 90 14:29 03.03.2021
5774 Clear 17 1025 77 10000 2.57 90 13:52 03.03.2021
5775 Clear 17 1025 77 10000 2.57 90 13:52 03.03.2021
5776 Clear 17 1025 72 10000 2.06 100 13:31 03.03.2021
5777 Clear 16 1026 82 10000 3.6 90 12:44 03.03.2021
5778 Clear 15 1026 77 10000 3.6 80 12:26 03.03.2021
5779 Clouds 14 1026 82 10000 4.12 70 11:48 03.03.2021
5780 Clear 14 1026 82 10000 5.14 70 11:28 03.03.2021
5781 Clear 14 1026 82 10000 4.63 60 10:50 03.03.2021
5782 Clear 13 1026 87 10000 3.6 60 10:30 03.03.2021
5783 Clear 13 1026 82 10000 3.09 50 09:48 03.03.2021
5784 Clear 12 1026 87 10000 2.57 20 09:26 03.03.2021
5785 Clear 11 1025 81 10000 2.06 30 08:41 03.03.2021
5786 Clear 11 1025 81 10000 2.06 30 08:21 03.03.2021
5787 Clear 10 1025 87 10000 1.54 340 07:41 03.03.2021
5788 Clear 10 1025 81 10000 1.54 60 06:51 03.03.2021
5789 Clear 11 1025 81 10000 1.54 360 05:46 03.03.2021
5790 Clear 11 1026 81 10000 2.06 10 04:58 03.03.2021
5791 Clear 11 1026 81 10000 1.54 360 04:26 03.03.2021
5792 Clear 12 1026 82 10000 1.54 310 01:54 03.03.2021
5793 Clear 12 1027 87 10000 1.03 0 23:57 02.03.2021
5794 Clear 12 1027 82 10000 3.09 330 23:22 02.03.2021
5795 Clear 13 1026 82 10000 3.09 320 22:41 02.03.2021
5796 Clear 13 1026 82 10000 3.09 320 22:18 02.03.2021
5797 Clear 13 1026 82 10000 3.6 310 21:40 02.03.2021
5798 Clear 13 1026 82 10000 3.6 310 21:21 02.03.2021
5799 Clear 14 1026 76 10000 4.12 330 20:46 02.03.2021
5800 Clouds 14 1026 72 10000 3.6 330 20:22 02.03.2021
5801 Clouds 15 1025 67 10000 3.09 320 19:53 02.03.2021
5802 Clouds 15 1025 67 10000 4.12 360 19:33 02.03.2021
5803 Clouds 16 1025 63 10000 3.6 350 18:58 02.03.2021
5804 Clouds 16 1025 63 10000 3.6 350 18:40 02.03.2021
5805 Clouds 16 1025 63 10000 3.6 350 18:21 02.03.2021
5806 Clouds 17 1025 67 10000 3.6 350 17:49 02.03.2021
5807 Clouds 17 1025 59 10000 3.09 330 17:29 02.03.2021
5808 Clouds 17 1024 59 10000 2.06 360 16:54 02.03.2021
5809 Clouds 17 1024 55 10000 3.09 0 16:22 02.03.2021
5810 Clouds 17 1024 55 10000 2.06 130 15:49 02.03.2021
5811 Clouds 17 1024 55 10000 1.54 0 15:22 02.03.2021
5812 Clouds 16 1025 59 10000 2.57 50 14:23 02.03.2021
5813 Clouds 16 1025 55 10000 2.06 0 13:49 02.03.2021
5814 Clouds 16 1025 59 10000 2.57 120 13:31 02.03.2021
5815 Clouds 16 1025 67 10000 2.57 90 12:55 02.03.2021
5816 Clouds 16 1025 77 10000 2.57 110 12:29 02.03.2021
5817 Clouds 15 1025 77 10000 2.06 120 11:54 02.03.2021
5818 Clouds 15 1025 77 10000 2.06 120 11:54 02.03.2021
5819 Clouds 14 1025 88 10000 1.54 110 11:34 02.03.2021
5820 Clouds 13 1025 88 10000 1.54 100 10:58 02.03.2021
5821 Clouds 13 1024 94 10000 0.39 91 10:32 02.03.2021
5822 Clouds 12 1024 94 10000 0.78 97 09:57 02.03.2021
5823 Clouds 12 1023 93 10000 0.51 300 09:39 02.03.2021
5824 Clouds 12 1023 93 10000 0.51 300 09:18 02.03.2021
5825 Clouds 11 1023 100 10000 0.85 75 08:38 02.03.2021
5826 Clouds 11 1023 100 9000 0.61 29 07:53 02.03.2021
5827 Clouds 11 1022 93 10000 0.68 2 07:26 02.03.2021
5828 Clouds 11 1022 100 10000 0.51 0 06:32 02.03.2021
5829 Clouds 11 1022 93 10000 0.61 335 05:44 02.03.2021
5830 Clear 11 1021 93 10000 0.51 0 05:24 02.03.2021
5831 Clear 12 1021 87 10000 1.54 250 01:44 02.03.2021
5832 Clear 12 1021 87 10000 1.54 250 01:44 02.03.2021
5833 Clear 12 1021 87 10000 1.54 270 01:25 02.03.2021
5834 Clear 12 1021 87 10000 1.03 270 00:21 02.03.2021
5835 Clear 12 1021 87 10000 2.06 230 23:22 01.03.2021
5836 Clear 13 1020 87 10000 1.03 270 22:40 01.03.2021
5837 Clear 13 1020 87 10000 1.03 270 22:21 01.03.2021
5838 Clear 13 1020 87 10000 3.02 284 21:45 01.03.2021
5839 Clear 13 1020 87 10000 3.7 291 21:23 01.03.2021
5840 Clear 14 1019 82 10000 1.54 290 20:47 01.03.2021
5841 Clear 14 1019 82 10000 2.57 290 20:27 01.03.2021
5842 Clouds 14 1019 77 10000 3.6 280 19:53 01.03.2021
5843 Clouds 15 1018 72 10000 3.6 290 19:33 01.03.2021
5844 Clouds 16 1018 77 10000 4.12 280 18:46 01.03.2021
5845 Clouds 16 1018 72 10000 4.12 300 18:24 01.03.2021
5846 Clouds 17 1017 67 10000 2.06 300 17:52 01.03.2021
5847 Clouds 17 1017 72 10000 1.54 50 17:28 01.03.2021
5848 Clouds 17 1017 77 10000 2.06 60 16:59 01.03.2021
5849 Clouds 17 1017 77 10000 2.57 60 16:40 01.03.2021
5850 Clouds 17 1017 77 10000 2.57 60 16:22 01.03.2021
5851 Clouds 16 1018 82 10000 3.09 90 15:39 01.03.2021
5852 Clouds 16 1018 82 10000 3.09 90 15:18 01.03.2021
5853 Clouds 16 1018 72 10000 1.54 290 14:43 01.03.2021
5854 Clouds 16 1018 72 10000 2.06 240 14:25 01.03.2021
5855 Clouds 16 1018 77 10000 3.6 270 13:39 01.03.2021
5856 Clouds 16 1018 77 10000 3.6 270 13:20 01.03.2021
5857 Clouds 16 1018 77 10000 3.6 270 13:20 01.03.2021
5858 Clouds 14 1018 82 10000 3.09 290 12:44 01.03.2021
5859 Clouds 14 1019 88 10000 2.06 290 12:26 01.03.2021
5860 Clouds 13 1019 100 6000 1.54 260 11:58 01.03.2021
5861 Mist 13 1018 100 5000 1.03 141 11:32 01.03.2021
5862 Mist 12 1018 100 5000 1.03 0 10:44 01.03.2021
5863 Mist 11 1018 100 4000 1.03 0 10:22 01.03.2021
5864 Mist 11 1018 100 2500 1.03 0 09:56 01.03.2021
5865 Mist 11 1017 100 2000 1.54 80 09:37 01.03.2021
5866 Mist 11 1017 100 2000 1.54 80 09:19 01.03.2021
5867 Mist 10 1017 100 4000 1.54 60 08:41 01.03.2021
5868 Mist 11 1017 100 4000 1.03 0 07:34 01.03.2021
5869 Clear 11 1016 100 6000 1.03 0 06:31 01.03.2021
5870 Clouds 12 1017 100 10000 0.51 300 02:40 01.03.2021
5871 Clouds 13 1017 88 10000 2.06 280 23:58 28.02.2021
5872 Clouds 13 1017 88 10000 2.06 280 23:22 28.02.2021
5873 Clouds 13 1017 82 10000 1.54 290 22:45 28.02.2021
5874 Clouds 14 1016 82 10000 2.06 310 22:21 28.02.2021
5875 Clear 14 1016 82 10000 1.54 290 21:47 28.02.2021
5876 Clear 14 1016 82 10000 2.57 280 21:24 28.02.2021
5877 Clear 14 1016 82 10000 3.6 270 20:49 28.02.2021
5878 Clear 14 1016 82 10000 3.6 260 20:30 28.02.2021
5879 Clear 15 1016 77 10000 3.6 250 19:47 28.02.2021
5880 Clouds 15 1016 72 10000 3.6 240 19:27 28.02.2021
5881 Clouds 16 1015 72 10000 4.12 240 18:47 28.02.2021
5882 Clouds 16 1015 67 10000 4.12 250 18:28 28.02.2021
5883 Clouds 17 1016 67 10000 4.12 230 17:58 28.02.2021
5884 Clouds 17 1016 67 10000 3.6 210 17:38 28.02.2021
5885 Clouds 17 1016 67 10000 3.6 210 17:20 28.02.2021
5886 Clouds 17 1016 68 10000 3.09 210 16:48 28.02.2021
5887 Clouds 17 1016 68 10000 3.09 220 16:29 28.02.2021
5888 Clouds 17 1016 68 10000 3.09 220 15:52 28.02.2021
5889 Clouds 17 1017 72 10000 4.12 210 15:28 28.02.2021
5890 Clouds 17 1017 68 10000 3.09 180 14:58 28.02.2021
5891 Clouds 17 1017 72 10000 2.57 100 14:35 28.02.2021
5892 Clouds 17 1018 72 10000 1.03 0 13:59 28.02.2021
5893 Clouds 16 1018 72 10000 1.54 0 13:38 28.02.2021
5894 Clouds 16 1018 72 10000 1.54 0 13:19 28.02.2021
5895 Clouds 16 1018 77 10000 1.54 110 12:53 28.02.2021
5896 Clear 15 1018 88 10000 1.54 40 12:35 28.02.2021
5897 Clear 14 1018 87 10000 2.06 60 11:58 28.02.2021
5898 Clouds 14 1018 94 10000 2.06 60 11:40 28.02.2021
5899 Clouds 13 1018 94 10000 2.06 60 11:21 28.02.2021
5900 Clouds 13 1018 93 10000 2.57 80 10:43 28.02.2021
5901 Clouds 12 1018 100 10000 4.12 70 10:25 28.02.2021
5902 Clouds 11 1018 100 9000 2.57 50 09:40 28.02.2021
5903 Clouds 10 1018 100 9000 2.57 50 09:20 28.02.2021
5904 Clouds 10 1017 100 7000 2.06 50 08:45 28.02.2021
5905 Clouds 10 1018 100 6000 2.57 50 08:25 28.02.2021
5906 Clear 11 1017 100 10000 2.06 60 07:46 28.02.2021
5907 Clear 11 1017 93 10000 2.06 30 07:25 28.02.2021
5908 Clear 11 1017 93 10000 2.87 55 06:24 28.02.2021
5909 Clear 11 1018 93 10000 2.49 68 05:21 28.02.2021
5910 Clear 14 1019 76 10000 1.03 0 02:29 28.02.2021
5911 Clear 14 1019 76 10000 1.03 0 01:35 28.02.2021
5912 Clear 15 1019 77 10000 1.54 310 00:42 28.02.2021
5913 Clear 15 1019 72 10000 1.03 0 00:21 28.02.2021
5914 Clear 15 1020 77 10000 1.03 0 23:44 27.02.2021
5915 Clear 15 1020 72 10000 0.51 330 23:18 27.02.2021
5916 Clear 16 1020 67 10000 1.54 320 22:42 27.02.2021
5917 Clear 16 1019 72 10000 2.06 330 22:18 27.02.2021
5918 Clear 16 1020 63 10000 2.57 310 21:38 27.02.2021
5919 Clear 16 1020 63 10000 2.57 310 21:20 27.02.2021
5920 Clear 16 1020 72 10000 1.03 350 20:46 27.02.2021
5921 Clear 17 1019 77 10000 0.51 0 20:26 27.02.2021
5922 Clear 17 1020 63 10000 2.04 47 19:45 27.02.2021
5923 Clear 18 1020 45 10000 1.03 50 19:25 27.02.2021
5924 Clear 19 1020 45 10000 1.54 0 18:43 27.02.2021
5925 Clear 19 1020 48 10000 3.09 100 18:21 27.02.2021
5926 Clear 19 1020 49 10000 4.12 70 17:54 27.02.2021
5927 Clear 19 1020 55 10000 3.6 70 17:36 27.02.2021
5928 Clear 19 1020 55 10000 3.6 70 17:18 27.02.2021
5929 Clear 19 1020 55 10000 4.12 60 16:44 27.02.2021
5930 Clear 19 1021 59 10000 3.6 40 16:25 27.02.2021
5931 Clear 19 1021 63 10000 3.6 70 15:41 27.02.2021
5932 Clear 18 1022 67 10000 4.63 40 14:56 27.02.2021
5933 Clear 18 1022 63 10000 4.12 70 14:37 27.02.2021
5934 Clear 18 1023 72 10000 4.63 60 13:56 27.02.2021
5935 Clear 17 1023 67 10000 5.14 50 13:37 27.02.2021
5936 Clear 17 1023 72 10000 5.14 40 12:58 27.02.2021
5937 Clear 16 1024 77 10000 5.66 60 12:38 27.02.2021
5938 Clear 16 1024 77 10000 5.66 60 12:19 27.02.2021
5939 Clear 16 1024 82 10000 5.66 40 11:42 27.02.2021
5940 Clear 16 1024 82 10000 5.66 40 11:24 27.02.2021
5941 Clear 15 1024 82 10000 3.6 60 10:47 27.02.2021
5942 Clear 14 1024 88 10000 3.09 40 10:28 27.02.2021
5943 Clear 13 1024 94 10000 3.09 40 09:51 27.02.2021
5944 Clear 12 1024 100 10000 2.57 40 09:26 27.02.2021
5945 Clear 12 1023 93 10000 1.03 0 08:42 27.02.2021
5946 Clear 12 1023 87 10000 2.57 360 08:21 27.02.2021
5947 Clear 13 1023 82 10000 2.57 330 07:42 27.02.2021
5948 Clear 13 1023 82 10000 3.09 330 06:21 27.02.2021
5949 Clear 14 1025 88 10000 1.54 330 01:18 27.02.2021
5950 Clear 14 1026 88 10000 1.03 340 23:58 26.02.2021
5951 Clear 14 1026 94 10000 2.06 360 23:40 26.02.2021
5952 Clear 14 1026 94 10000 2.06 360 23:18 26.02.2021
5953 Clear 14 1026 88 10000 2.06 30 22:30 26.02.2021
5954 Clear 14 1025 88 10000 3.09 20 21:49 26.02.2021
5955 Clear 14 1025 88 10000 2.06 30 21:30 26.02.2021
5956 Clouds 14 1025 88 10000 3.6 20 20:45 26.02.2021
5957 Clouds 14 1025 88 10000 3.6 20 20:24 26.02.2021
5958 Clouds 14 1025 94 10000 2.57 20 19:52 26.02.2021
5959 Clouds 14 1025 94 10000 2.57 20 19:25 26.02.2021
5960 Clouds 14 1025 94 10000 2.57 30 18:48 26.02.2021
5961 Clouds 14 1025 94 10000 3.09 60 18:24 26.02.2021
5962 Clouds 14 1025 94 10000 3.09 50 17:48 26.02.2021
5963 Clouds 14 1025 94 10000 2.06 50 17:29 26.02.2021
5964 Clouds 14 1025 94 10000 2.57 90 16:57 26.02.2021
5965 Clouds 14 1025 88 10000 3.09 100 16:38 26.02.2021
5966 Clouds 14 1025 88 10000 3.09 100 16:20 26.02.2021
5967 Clouds 14 1025 94 10000 3.6 100 15:43 26.02.2021
5968 Clouds 14 1025 94 10000 3.6 90 15:23 26.02.2021
5969 Clouds 14 1025 100 10000 3.09 80 14:51 26.02.2021
5970 Clouds 14 1025 100 10000 3.6 60 14:32 26.02.2021
5971 Clouds 14 1026 100 7000 4.12 50 13:49 26.02.2021
5972 Clouds 13 1026 100 6000 4.12 60 13:30 26.02.2021
5973 Drizzle 13 1026 100 4500 4.12 70 12:48 26.02.2021
5974 Clouds 13 1026 100 6000 4.12 70 12:26 26.02.2021
5975 Rain 12 1026 100 7000 4.12 50 11:40 26.02.2021
5976 Rain 12 1026 94 8000 3.6 60 10:55 26.02.2021
5977 Rain 12 1025 94 10000 2.57 30 10:25 26.02.2021
5978 Rain 12 1024 94 10000 4.12 20 09:47 26.02.2021
5979 Rain 12 1024 94 10000 4.12 20 09:27 26.02.2021
5980 Rain 12 1024 100 10000 2.57 10 08:35 26.02.2021
5981 Rain 12 1024 94 10000 3.09 30 07:57 26.02.2021
5982 Rain 12 1024 94 10000 3.09 30 07:22 26.02.2021
5983 Clouds 12 1024 100 10000 3.6 30 06:31 26.02.2021
5984 Rain 12 1024 93 10000 2.57 350 05:18 26.02.2021
5985 Clouds 12 1025 93 10000 3.6 340 02:38 26.02.2021
5986 Clouds 12 1026 93 10000 3.6 330 00:33 26.02.2021
5987 Clouds 12 1026 87 10000 4.12 340 23:39 25.02.2021
5988 Clouds 12 1026 87 10000 4.12 340 23:19 25.02.2021
5989 Clouds 12 1026 87 10000 4.63 330 22:38 25.02.2021
5990 Clouds 12 1026 87 10000 5.14 340 21:53 25.02.2021
5991 Clouds 12 1026 82 10000 5.66 340 21:33 25.02.2021
5992 Clouds 13 1026 87 10000 6.17 340 20:56 25.02.2021
5993 Clouds 13 1025 82 10000 5.66 340 20:37 25.02.2021
5994 Clouds 13 1025 82 10000 5.66 340 20:18 25.02.2021
5995 Clouds 13 1025 82 10000 5.66 340 19:47 25.02.2021
5996 Clouds 14 1025 77 10000 6.17 340 19:19 25.02.2021
5997 Clouds 14 1025 77 10000 5.66 350 18:44 25.02.2021
5998 Clouds 15 1024 77 10000 5.66 10 18:18 25.02.2021
5999 Clouds 16 1024 77 10000 3.09 70 17:42 25.02.2021
6000 Clouds 16 1024 77 10000 3.09 70 17:22 25.02.2021
6001 Clouds 16 1025 77 10000 3.6 40 16:34 25.02.2021
6002 Clouds 15 1025 72 10000 4.63 330 15:51 25.02.2021
6003 Clouds 15 1025 67 10000 6.17 350 15:28 25.02.2021
6004 Clouds 15 1026 72 10000 6.17 340 14:40 25.02.2021
6005 Clouds 15 1026 72 10000 6.17 340 14:21 25.02.2021
6006 Clouds 15 1026 72 10000 5.14 360 13:44 25.02.2021
6007 Clouds 15 1026 82 10000 4.12 0 13:23 25.02.2021
6008 Clouds 15 1027 88 10000 2.57 60 12:40 25.02.2021
6009 Clouds 14 1027 88 10000 2.57 60 12:20 25.02.2021
6010 Clouds 14 1027 88 10000 3.6 30 11:43 25.02.2021
6011 Clouds 13 1026 87 10000 4.12 360 10:54 25.02.2021
6012 Clouds 12 1026 94 10000 4.12 360 10:36 25.02.2021
6013 Clouds 12 1026 100 10000 3.6 340 09:53 25.02.2021
6014 Clouds 12 1026 100 10000 3.09 350 09:34 25.02.2021
6015 Clouds 12 1025 100 10000 2.57 350 08:46 25.02.2021
6016 Clouds 12 1025 100 10000 1.54 350 08:21 25.02.2021
6017 Clouds 12 1024 94 10000 2.57 40 07:42 25.02.2021
6018 Clouds 12 1024 94 10000 2.57 40 07:18 25.02.2021
6019 Clouds 12 1024 100 10000 1.54 20 05:55 25.02.2021
6020 Clouds 14 1024 94 10000 4.12 210 01:52 25.02.2021
6021 Rain 14 1025 94 10000 5.14 220 01:33 25.02.2021
6022 Clouds 15 1025 94 10000 5.66 210 00:37 25.02.2021
6023 Clouds 15 1025 94 10000 6.17 210 23:40 24.02.2021
6024 Clouds 15 1025 94 10000 5.66 220 22:58 24.02.2021
6025 Clouds 15 1024 82 10000 3.09 200 22:30 24.02.2021
6026 Clouds 15 1024 77 10000 3.09 210 21:56 24.02.2021
6027 Clouds 15 1024 77 10000 3.09 210 21:34 24.02.2021
6028 Clouds 15 1025 82 10000 5.14 210 20:51 24.02.2021
6029 Clouds 15 1024 82 10000 5.14 200 20:29 24.02.2021
6030 Clouds 16 1024 82 10000 5.66 210 19:51 24.02.2021
6031 Clouds 16 1024 82 10000 6.17 210 19:24 24.02.2021
6032 Clouds 16 1024 77 10000 6.69 210 18:54 24.02.2021
6033 Clouds 17 1024 77 10000 7.2 210 18:33 24.02.2021
6034 Clouds 17 1024 72 10000 7.2 210 17:45 24.02.2021
6035 Clouds 17 1024 72 10000 6.69 210 17:25 24.02.2021
6036 Clouds 17 1024 68 10000 5.66 210 16:49 24.02.2021
6037 Clouds 17 1025 59 10000 7.2 170 16:22 24.02.2021
6038 Clouds 17 1025 63 10000 6.17 160 15:56 24.02.2021
6039 Clouds 17 1025 63 10000 5.66 170 15:35 24.02.2021
6040 Clouds 17 1026 67 10000 6.17 160 14:52 24.02.2021
6041 Clouds 17 1026 67 10000 5.14 160 14:30 24.02.2021
6042 Clouds 17 1027 72 10000 4.63 150 13:55 24.02.2021
6043 Clouds 16 1027 72 10000 4.12 120 13:37 24.02.2021
6044 Clouds 16 1027 72 10000 4.12 120 13:19 24.02.2021
6045 Clouds 15 1028 72 10000 4.12 140 12:42 24.02.2021
6046 Clouds 15 1028 72 10000 4.12 140 12:23 24.02.2021
6047 Clouds 15 1028 72 10000 4.12 140 12:23 24.02.2021
6048 Clouds 13 1028 76 10000 2.57 130 11:39 24.02.2021
6049 Clouds 12 1028 82 10000 2.57 90 10:47 24.02.2021
6050 Clear 12 1027 76 10000 4.63 110 10:26 24.02.2021
6051 Clear 11 1027 87 10000 4.12 100 09:33 24.02.2021
6052 Clear 10 1027 87 10000 3.6 100 08:58 24.02.2021
6053 Clear 10 1027 81 10000 4.12 110 08:33 24.02.2021
6054 Clear 10 1027 87 10000 3.6 110 07:47 24.02.2021
6055 Clear 10 1028 87 10000 2.57 100 07:19 24.02.2021
6056 Clear 10 1028 87 10000 3.6 120 06:20 24.02.2021
6057 Clear 12 1029 76 10000 2.57 130 02:44 24.02.2021
6058 Clear 13 1029 76 10000 3.09 160 23:55 23.02.2021
6059 Clear 13 1029 76 10000 3.09 160 23:20 23.02.2021
6060 Clear 14 1029 76 10000 3.09 180 22:37 23.02.2021
6061 Clear 14 1029 76 10000 3.09 180 22:18 23.02.2021
6062 Clear 14 1029 87 10000 2.57 220 21:40 23.02.2021
6063 Clear 14 1029 87 10000 2.57 220 21:22 23.02.2021
6064 Clouds 14 1029 82 10000 2.57 220 20:46 23.02.2021
6065 Clear 14 1028 77 10000 3.71 157 20:28 23.02.2021
6066 Clouds 15 1028 88 10000 3.6 220 19:47 23.02.2021
6067 Clouds 16 1028 77 10000 4.63 200 19:27 23.02.2021
6068 Clouds 16 1028 77 10000 4.12 180 18:50 23.02.2021
6069 Clouds 16 1028 82 10000 4.12 190 18:29 23.02.2021
6070 Clouds 16 1028 82 10000 4.63 180 17:54 23.02.2021
6071 Clouds 16 1028 82 10000 4.63 180 17:29 23.02.2021
6072 Clouds 16 1028 77 10000 4.63 150 16:47 23.02.2021
6073 Clouds 17 1028 72 10000 5.14 140 16:25 23.02.2021
6074 Clouds 17 1028 72 10000 4.63 150 15:52 23.02.2021
6075 Clouds 17 1028 77 10000 5.14 140 15:34 23.02.2021
6076 Clouds 17 1028 82 10000 5.14 140 14:59 23.02.2021
6077 Clouds 17 1028 82 10000 5.14 140 14:40 23.02.2021
6078 Clouds 17 1028 82 10000 5.14 140 14:20 23.02.2021
6079 Clouds 16 1029 82 10000 5.66 130 13:43 23.02.2021
6080 Clouds 16 1029 88 10000 5.14 130 13:23 23.02.2021
6081 Clouds 15 1029 88 10000 4.63 130 12:51 23.02.2021
6082 Clouds 15 1029 94 10000 4.63 120 12:20 23.02.2021
6083 Clouds 14 1029 88 10000 4.63 120 11:46 23.02.2021
6084 Clouds 14 1029 94 10000 4.63 120 11:21 23.02.2021
6085 Clouds 13 1028 100 10000 3.09 120 10:40 23.02.2021
6086 Clouds 13 1028 100 10000 3.09 120 10:21 23.02.2021
6087 Clouds 13 1027 100 9000 3.6 110 09:42 23.02.2021
6088 Clouds 13 1027 100 7000 4.12 110 09:22 23.02.2021
6089 Clouds 12 1027 100 7000 4.12 110 08:48 23.02.2021
6090 Drizzle 13 1026 100 8000 3.09 110 08:21 23.02.2021
6091 Drizzle 13 1026 100 10000 3.6 110 07:49 23.02.2021
6092 Clouds 13 1025 94 10000 3.6 130 05:31 23.02.2021
6093 Clouds 13 1025 94 10000 3.6 140 04:32 23.02.2021
6094 Clouds 13 1025 94 5000 6.69 170 02:34 23.02.2021
6095 Clouds 14 1024 82 10000 3.6 150 00:20 23.02.2021
6096 Clouds 14 1024 82 10000 4.63 170 23:47 22.02.2021
6097 Clouds 14 1024 82 10000 4.63 180 23:20 22.02.2021
6098 Clouds 14 1023 88 10000 5.14 180 22:40 22.02.2021
6099 Clouds 14 1023 88 10000 5.14 180 22:20 22.02.2021
6100 Clouds 14 1022 82 10000 4.12 180 21:40 22.02.2021
6101 Clouds 14 1022 82 10000 4.12 180 21:22 22.02.2021
6102 Clouds 14 1022 82 10000 4.63 180 20:51 22.02.2021
6103 Clouds 14 1022 82 10000 4.12 170 20:27 22.02.2021
6104 Clouds 14 1022 82 10000 4.63 170 19:51 22.02.2021
6105 Clouds 15 1021 77 10000 5.66 170 19:31 22.02.2021
6106 Clouds 15 1021 72 10000 5.66 170 18:56 22.02.2021
6107 Clouds 15 1021 72 10000 4.63 180 18:37 22.02.2021
6108 Clouds 15 1021 72 10000 4.63 180 18:18 22.02.2021
6109 Clouds 16 1021 67 10000 5.66 180 17:24 22.02.2021
6110 Clouds 16 1021 63 10000 5.14 170 16:54 22.02.2021
6111 Clouds 16 1021 63 10000 5.14 170 16:54 22.02.2021
6112 Clouds 16 1020 67 10000 5.66 200 16:32 22.02.2021
6113 Clouds 15 1020 67 10000 6.17 170 15:44 22.02.2021
6114 Clouds 15 1020 67 10000 4.12 150 15:25 22.02.2021
6115 Clouds 16 1020 72 10000 4.12 160 14:47 22.02.2021
6116 Clouds 16 1021 72 10000 4.63 160 14:23 22.02.2021
6117 Clouds 16 1021 72 10000 3.6 140 13:46 22.02.2021
6118 Clouds 14 1021 82 10000 2.06 100 12:56 22.02.2021
6119 Clouds 14 1021 87 10000 1.54 100 12:23 22.02.2021
6120 Clouds 12 1021 87 10000 2.06 90 11:57 22.02.2021
6121 Clouds 12 1020 93 10000 2.06 80 11:38 22.02.2021
6122 Clouds 12 1020 93 10000 2.06 80 11:20 22.02.2021
6123 Clouds 11 1020 100 10000 1.54 0 10:45 22.02.2021
6124 Clouds 10 1020 100 10000 2.57 40 10:22 22.02.2021
6125 Clouds 8 1019 100 10000 1.54 40 09:41 22.02.2021
6126 Clouds 8 1019 100 10000 1.54 40 09:22 22.02.2021
6127 Clouds 7 1018 100 10000 1.96 134 08:49 22.02.2021
6128 Clouds 8 1018 100 10000 1.03 0 08:23 22.02.2021
6129 Clouds 7 1018 100 10000 1.61 144 07:50 22.02.2021
6130 Clouds 8 1018 93 10000 1.03 350 07:23 22.02.2021
6131 Clouds 7 1017 100 10000 1.13 236 06:28 22.02.2021
6132 Clouds 8 1017 93 10000 1.54 230 05:21 22.02.2021
6133 Clouds 9 1017 87 10000 1.54 270 03:24 22.02.2021
6134 Clouds 9 1017 81 10000 2.06 270 02:31 22.02.2021
6135 Clear 10 1016 81 10000 2.06 280 00:44 22.02.2021
6136 Clouds 10 1016 81 10000 1.54 260 00:19 22.02.2021
6137 Clouds 11 1016 81 10000 1.03 0 23:27 21.02.2021
6138 Clouds 11 1015 76 10000 1.54 250 22:40 21.02.2021
6139 Clouds 11 1015 76 10000 1.54 250 22:21 21.02.2021
6140 Clouds 11 1014 76 10000 1.54 250 21:37 21.02.2021
6141 Clouds 11 1014 71 10000 2.06 280 20:58 21.02.2021
6142 Clouds 11 1013 71 10000 2.06 280 20:39 21.02.2021
6143 Clouds 12 1013 71 10000 2.06 280 20:19 21.02.2021
6144 Clouds 12 1012 66 10000 2.57 290 19:50 21.02.2021
6145 Clouds 12 1012 66 10000 3.09 300 19:32 21.02.2021
6146 Clouds 13 1011 62 10000 4.63 300 18:43 21.02.2021
6147 Clouds 13 1011 62 10000 4.63 300 18:24 21.02.2021
6148 Clouds 14 1010 58 10000 3.6 300 17:29 21.02.2021
6149 Clouds 14 1010 58 10000 5.66 330 16:57 21.02.2021
6150 Clouds 13 1009 62 10000 5.14 300 16:34 21.02.2021
6151 Clouds 14 1009 67 10000 4.63 300 15:54 21.02.2021
6152 Clouds 14 1009 67 10000 4.63 300 15:54 21.02.2021
6153 Clouds 14 1009 71 10000 3.6 310 15:22 21.02.2021
6154 Clouds 13 1009 76 10000 4.63 330 14:51 21.02.2021
6155 Clouds 13 1009 82 10000 2.57 300 14:30 21.02.2021
6156 Clouds 13 1009 82 10000 3.6 310 13:47 21.02.2021
6157 Clouds 12 1010 87 10000 4.63 350 13:23 21.02.2021
6158 Clouds 13 1009 87 10000 7.2 350 12:32 21.02.2021
6159 Clouds 12 1008 82 10000 3.09 320 11:56 21.02.2021
6160 Clouds 12 1008 87 10000 2.06 310 11:36 21.02.2021
6161 Clouds 11 1007 93 10000 5.73 338 10:40 21.02.2021
6162 Clouds 10 1007 93 10000 5.68 333 10:21 21.02.2021
6163 Clouds 9 1006 93 10000 1.54 270 09:42 21.02.2021
6164 Clouds 9 1006 93 10000 1.54 270 09:23 21.02.2021
6165 Clear 9 1005 87 10000 1.54 290 08:33 21.02.2021
6166 Clear 9 1005 93 10000 1.54 280 07:44 21.02.2021
6167 Clear 9 1005 93 10000 1.54 260 07:21 21.02.2021
6168 Rain 9 1004 100 10000 1.03 0 05:28 21.02.2021
6169 Rain 10 1003 93 10000 3.09 290 02:40 21.02.2021
6170 Rain 10 1003 100 10000 3.09 320 00:55 21.02.2021
6171 Rain 10 1003 100 9000 2.57 320 00:20 21.02.2021
6172 Rain 11 1004 100 8000 2.57 10 23:31 20.02.2021
6173 Rain 11 1004 100 8000 2.57 50 22:55 20.02.2021
6174 Rain 11 1004 100 8000 2.57 60 22:31 20.02.2021
6175 Rain 11 1004 100 8000 2.57 80 21:47 20.02.2021
6176 Rain 11 1004 100 8000 2.57 90 21:29 20.02.2021
6177 Rain 12 1005 100 7000 0.51 0 20:56 20.02.2021
6178 Rain 12 1005 100 7000 1.54 140 20:36 20.02.2021
6179 Rain 12 1004 100 8000 2.06 70 19:59 20.02.2021
6180 Rain 12 1004 100 8000 2.06 120 19:40 20.02.2021
6181 Rain 12 1004 100 6000 1.54 130 18:48 20.02.2021
6182 Rain 12 1005 100 10000 2.57 80 18:29 20.02.2021
6183 Rain 12 1005 100 10000 7.14 224 17:47 20.02.2021
6184 Rain 11 1005 100 9000 1.03 0 17:28 20.02.2021
6185 Rain 12 1005 94 8000 2.06 220 16:48 20.02.2021
6186 Rain 11 1005 100 8000 2.06 270 16:23 20.02.2021
6187 Rain 12 1006 94 4000 4.63 280 15:41 20.02.2021
6188 Rain 13 1005 100 4500 10.29 180 14:52 20.02.2021
6189 Rain 14 1005 100 4000 10.8 170 14:25 20.02.2021
6190 Rain 14 1006 100 3000 10.29 170 13:58 20.02.2021
6191 Rain 14 1007 100 4000 10.8 170 13:38 20.02.2021
6192 Rain 14 1007 100 4000 10.8 170 13:19 20.02.2021
6193 Rain 14 1007 100 5000 10.8 170 12:35 20.02.2021
6194 Rain 14 1007 100 4000 10.29 170 11:51 20.02.2021
6195 Rain 14 1007 100 6000 10.8 170 11:31 20.02.2021
6196 Rain 14 1007 94 5000 10.8 170 10:50 20.02.2021
6197 Rain 14 1008 94 3500 9.26 170 10:24 20.02.2021
6198 Rain 14 1008 94 4000 10.8 170 09:47 20.02.2021
6199 Rain 15 1007 88 10000 11.32 170 08:56 20.02.2021
6200 Clouds 15 1007 88 10000 10.29 170 08:25 20.02.2021
6201 Clouds 15 1008 88 10000 9.26 170 07:19 20.02.2021
6202 Clouds 15 1011 88 10000 9.26 180 02:32 20.02.2021
6203 Clouds 15 1011 88 10000 9.77 170 01:58 20.02.2021
6204 Clouds 15 1011 94 10000 9.26 170 01:18 20.02.2021
6205 Clouds 15 1011 94 10000 9.26 170 01:18 20.02.2021
6206 Clouds 15 1012 88 10000 9.77 170 00:37 20.02.2021
6207 Clouds 15 1012 88 10000 8.75 170 23:41 19.02.2021
6208 Clouds 15 1013 88 10000 8.23 170 22:48 19.02.2021
6209 Clouds 15 1013 88 10000 8.75 170 22:25 19.02.2021
6210 Clouds 15 1013 88 10000 9.26 180 21:47 19.02.2021
6211 Clouds 15 1013 88 10000 9.26 180 21:25 19.02.2021
6212 Clouds 15 1013 88 10000 8.75 180 20:44 19.02.2021
6213 Clouds 15 1013 88 10000 8.75 180 20:26 19.02.2021
6214 Clouds 15 1013 88 8000 9.77 180 19:50 19.02.2021
6215 Clouds 15 1013 88 8000 9.26 180 19:20 19.02.2021
6216 Clouds 15 1013 88 9000 9.77 180 18:53 19.02.2021
6217 Clouds 15 1013 82 9000 8.75 180 18:30 19.02.2021
6218 Clouds 15 1014 82 10000 9.26 180 17:45 19.02.2021
6219 Clouds 16 1014 82 10000 8.75 190 16:46 19.02.2021
6220 Clouds 17 1014 77 10000 8.75 180 16:23 19.02.2021
6221 Clouds 17 1015 77 10000 8.23 190 15:56 19.02.2021
6222 Clouds 16 1015 88 10000 8.75 200 15:30 19.02.2021
6223 Clouds 16 1016 94 10000 8.75 200 14:55 19.02.2021
6224 Clouds 16 1016 82 9000 8.75 190 14:35 19.02.2021
6225 Clouds 16 1016 82 10000 8.75 190 13:56 19.02.2021
6226 Clouds 16 1016 82 10000 8.75 190 13:56 19.02.2021
6227 Clouds 16 1016 82 10000 8.23 180 13:36 19.02.2021
6228 Clouds 15 1016 88 10000 8.23 170 12:58 19.02.2021
6229 Clouds 15 1016 88 10000 7.2 170 12:38 19.02.2021
6230 Clouds 15 1016 88 10000 7.2 170 12:20 19.02.2021
6231 Clouds 15 1016 88 10000 7.2 170 12:20 19.02.2021
6232 Clouds 15 1016 94 10000 4.63 150 11:41 19.02.2021
6233 Clouds 14 1016 94 10000 4.63 150 11:18 19.02.2021
6234 Clouds 14 1016 94 10000 4.12 150 10:34 19.02.2021
6235 Clouds 14 1016 100 10000 4.12 140 09:59 19.02.2021
6236 Clouds 14 1016 94 10000 5.66 150 09:29 19.02.2021
6237 Clouds 14 1016 94 10000 6.17 160 08:58 19.02.2021
6238 Clouds 14 1016 94 10000 5.66 170 08:40 19.02.2021
6239 Clouds 14 1016 94 10000 5.66 170 08:21 19.02.2021
6240 Clouds 14 1016 94 10000 5.66 170 08:21 19.02.2021
6241 Clouds 14 1016 94 10000 5.66 180 07:43 19.02.2021
6242 Clouds 14 1016 94 10000 5.66 180 07:25 19.02.2021
6243 Clouds 14 1016 94 10000 5.66 180 06:44 19.02.2021
6244 Clouds 14 1016 94 10000 6.17 180 04:42 19.02.2021
6245 Clouds 14 1017 100 10000 6.17 180 02:50 19.02.2021
6246 Clouds 14 1017 100 10000 7.2 190 01:46 19.02.2021
6247 Clouds 14 1018 94 9000 3.09 220 00:36 19.02.2021
6248 Clouds 14 1018 100 10000 3.09 220 23:48 18.02.2021
6249 Clouds 14 1018 94 10000 2.57 220 23:30 18.02.2021
6250 Clouds 14 1018 94 10000 2.06 230 22:42 18.02.2021
6251 Clouds 14 1018 94 10000 3.6 220 22:24 18.02.2021
6252 Clouds 14 1018 100 10000 3.6 220 21:42 18.02.2021
6253 Clouds 14 1018 94 10000 3.6 220 21:24 18.02.2021
6254 Clouds 15 1017 94 10000 4.63 220 20:40 18.02.2021
6255 Clouds 15 1017 94 10000 4.63 220 20:21 18.02.2021
6256 Clouds 15 1017 94 9000 5.66 210 19:46 18.02.2021
6257 Clouds 15 1017 94 9000 6.17 210 19:22 18.02.2021
6258 Clouds 15 1017 94 9000 5.66 210 18:51 18.02.2021
6259 Rain 16 1017 88 9000 6.69 210 18:27 18.02.2021
6260 Clouds 16 1017 88 9000 7.2 210 17:52 18.02.2021
6261 Clouds 16 1017 88 9000 6.69 210 17:25 18.02.2021
6262 Clouds 16 1017 88 9000 6.69 210 16:52 18.02.2021
6263 Clouds 16 1017 88 10000 7.2 210 16:33 18.02.2021
6264 Clouds 17 1017 88 10000 7.2 210 15:44 18.02.2021
6265 Clouds 17 1017 88 10000 5.66 210 15:24 18.02.2021
6266 Clouds 17 1017 88 10000 6.69 210 14:58 18.02.2021
6267 Clouds 17 1018 88 10000 7.2 200 14:36 18.02.2021
6268 Clouds 17 1018 88 10000 5.66 210 13:50 18.02.2021
6269 Clouds 16 1018 88 10000 5.66 210 13:23 18.02.2021
6270 Clouds 16 1018 88 10000 6.17 210 12:57 18.02.2021
6271 Clouds 16 1018 88 10000 6.69 210 12:36 18.02.2021
6272 Clouds 16 1018 88 10000 6.17 210 11:48 18.02.2021
6273 Clouds 16 1018 94 10000 5.66 200 11:28 18.02.2021
6274 Clouds 15 1018 94 10000 5.14 210 10:59 18.02.2021
6275 Clouds 15 1018 94 10000 4.12 210 10:41 18.02.2021
6276 Clouds 15 1018 94 10000 4.12 210 10:23 18.02.2021
6277 Clouds 14 1017 94 10000 4.63 200 09:39 18.02.2021
6278 Clouds 14 1017 94 10000 4.63 200 09:20 18.02.2021
6279 Clouds 14 1017 100 10000 3.6 210 08:37 18.02.2021
6280 Clouds 14 1017 100 10000 3.6 210 08:19 18.02.2021
6281 Clouds 14 1017 94 10000 4.12 220 07:30 18.02.2021
6282 Clouds 14 1017 100 10000 4.63 210 06:40 18.02.2021
6283 Clouds 14 1018 100 10000 5.14 210 02:21 18.02.2021
6284 Clouds 14 1019 94 10000 5.66 210 23:49 17.02.2021
6285 Clouds 14 1019 100 10000 5.14 220 23:20 17.02.2021
6286 Clouds 14 1019 100 10000 4.63 220 22:46 17.02.2021
6287 Clouds 14 1018 100 10000 4.63 210 22:22 17.02.2021
6288 Clouds 14 1019 94 10000 4.63 210 21:48 17.02.2021
6289 Clouds 14 1019 94 10000 4.12 200 21:21 17.02.2021
6290 Clouds 14 1019 94 10000 4.63 200 20:47 17.02.2021
6291 Clouds 14 1019 94 10000 4.63 210 20:28 17.02.2021
6292 Clouds 14 1019 94 10000 4.63 210 19:46 17.02.2021
6293 Clouds 14 1019 94 10000 4.12 210 19:27 17.02.2021
6294 Clouds 14 1019 88 10000 4.63 210 18:41 17.02.2021
6295 Clouds 14 1019 88 10000 4.63 210 18:22 17.02.2021
6296 Clouds 14 1019 88 10000 6.17 210 17:40 17.02.2021
6297 Clouds 14 1019 88 10000 6.17 210 17:19 17.02.2021
6298 Clouds 16 1019 82 10000 5.14 220 16:45 17.02.2021
6299 Clouds 16 1019 82 10000 4.63 210 16:24 17.02.2021
6300 Clouds 16 1020 82 10000 4.12 200 15:44 17.02.2021
6301 Clouds 16 1020 82 10000 3.6 170 15:25 17.02.2021
6302 Clouds 16 1021 82 10000 3.6 140 14:46 17.02.2021
6303 Clouds 16 1021 88 10000 3.09 120 14:28 17.02.2021
6304 Clouds 15 1022 88 9000 3.09 110 13:47 17.02.2021
6305 Clouds 15 1022 88 9000 2.57 110 13:29 17.02.2021
6306 Clouds 15 1022 100 9000 2.57 100 12:47 17.02.2021
6307 Clouds 14 1023 94 9000 2.06 160 12:23 17.02.2021
6308 Clouds 14 1023 94 9000 2.06 150 11:44 17.02.2021
6309 Clouds 14 1023 94 9000 2.57 160 11:20 17.02.2021
6310 Clouds 14 1023 100 9000 2.57 140 10:46 17.02.2021
6311 Clouds 13 1023 100 9000 1.54 130 10:26 17.02.2021
6312 Clouds 13 1023 100 9000 1.54 140 09:47 17.02.2021
6313 Clouds 13 1023 100 8000 1.03 0 09:29 17.02.2021
6314 Clouds 13 1023 100 9000 1.54 140 08:44 17.02.2021
6315 Clouds 13 1023 100 9000 0.51 0 08:22 17.02.2021
6316 Mist 13 1023 100 4000 1.03 90 07:34 17.02.2021
6317 Mist 13 1023 100 5000 1.92 159 06:35 17.02.2021
6318 Mist 13 1024 100 5000 1.76 183 03:40 17.02.2021
6319 Mist 13 1024 100 5000 0.51 0 02:30 17.02.2021
6320 Mist 14 1025 94 5000 2.06 140 01:30 17.02.2021
6321 Clouds 13 1025 100 9000 1.54 200 00:24 17.02.2021
6322 Clouds 14 1025 100 10000 2.57 230 23:38 16.02.2021
6323 Clouds 14 1025 94 10000 1.54 230 22:45 16.02.2021
6324 Clouds 14 1025 94 10000 3.09 250 22:26 16.02.2021
6325 Clouds 14 1025 94 10000 3.09 270 21:58 16.02.2021
6326 Clouds 14 1025 94 10000 3.09 220 21:39 16.02.2021
6327 Clouds 14 1025 94 10000 3.09 220 21:20 16.02.2021
6328 Clouds 14 1025 94 10000 3.6 230 20:46 16.02.2021
6329 Clouds 15 1025 94 10000 4.12 230 20:24 16.02.2021
6330 Clouds 15 1025 94 10000 3.6 220 19:47 16.02.2021
6331 Clouds 15 1025 88 10000 4.12 230 19:28 16.02.2021
6332 Clouds 15 1025 88 10000 3.6 240 18:50 16.02.2021
6333 Clouds 15 1025 88 10000 3.6 240 18:26 16.02.2021
6334 Clouds 16 1025 88 10000 3.6 240 17:53 16.02.2021
6335 Clouds 15 1025 88 10000 5.14 220 17:27 16.02.2021
6336 Clouds 16 1025 88 10000 5.14 210 16:57 16.02.2021
6337 Clouds 16 1025 82 10000 5.14 210 16:38 16.02.2021
6338 Clouds 16 1025 82 10000 5.14 210 16:19 16.02.2021
6339 Clouds 16 1026 88 10000 5.66 210 15:36 16.02.2021
6340 Clouds 16 1026 88 10000 5.66 210 15:18 16.02.2021
6341 Clouds 16 1026 88 10000 6.69 210 14:40 16.02.2021
6342 Clouds 16 1026 88 10000 6.69 210 14:21 16.02.2021
6343 Clouds 16 1027 88 10000 6.69 210 13:45 16.02.2021
6344 Fog 17 1026 82 10000 4.63 210 12:59 16.02.2021
6345 Clouds 17 1026 77 10000 4.12 160 12:41 16.02.2021
6346 Fog 16 1027 88 10000 1.03 0 12:19 16.02.2021
6347 Fog 15 1026 100 7000 1.03 0 11:40 16.02.2021
6348 Fog 15 1026 100 7000 1.03 0 11:20 16.02.2021
6349 Fog 14 1026 100 7000 3.62 181 10:46 16.02.2021
6350 Fog 13 1026 100 7000 1.03 0 10:27 16.02.2021
6351 Fog 13 1026 100 8000 1.03 0 09:53 16.02.2021
6352 Clouds 12 1026 100 9000 2.06 60 09:28 16.02.2021
6353 Clouds 12 1026 100 9000 2.06 60 09:28 16.02.2021
6354 Clouds 13 1025 88 10000 3.09 160 08:52 16.02.2021
6355 Clouds 13 1025 94 9000 2.06 210 08:29 16.02.2021
6356 Clouds 14 1025 94 9000 4.12 200 07:54 16.02.2021
6357 Clouds 14 1025 94 9000 5.66 190 06:58 16.02.2021
6358 Clouds 14 1025 94 10000 4.63 220 02:47 16.02.2021
6359 Clear 14 1025 88 10000 4.12 220 00:23 16.02.2021
6360 Clear 14 1025 88 10000 3.6 230 23:30 15.02.2021
6361 Clear 15 1025 88 10000 4.12 230 22:51 15.02.2021
6362 Clear 15 1025 82 10000 2.57 240 22:30 15.02.2021
6363 Clear 15 1025 82 10000 2.57 240 22:30 15.02.2021
6364 Clear 15 1024 82 10000 2.57 230 21:50 15.02.2021
6365 Clear 15 1024 77 10000 3.6 220 21:26 15.02.2021
6366 Clear 16 1024 77 10000 2.57 190 20:57 15.02.2021
6367 Clear 16 1024 67 10000 3.09 150 20:39 15.02.2021
6368 Clear 16 1024 67 10000 3.09 150 20:19 15.02.2021
6369 Clear 16 1023 63 10000 3.6 150 19:42 15.02.2021
6370 Clear 17 1023 63 10000 3.6 130 19:18 15.02.2021
6371 Clear 18 1023 59 10000 3.6 140 18:42 15.02.2021
6372 Clear 18 1023 59 10000 5.14 130 18:18 15.02.2021
6373 Clear 19 1024 59 10000 5.14 130 17:40 15.02.2021
6374 Clear 19 1024 59 10000 5.14 130 17:21 15.02.2021
6375 Clear 19 1024 55 10000 5.14 130 16:47 15.02.2021
6376 Clear 19 1024 55 10000 5.66 140 16:26 15.02.2021
6377 Clear 19 1024 55 10000 5.14 140 15:46 15.02.2021
6378 Clear 19 1025 52 10000 5.14 130 15:20 15.02.2021
6379 Clear 18 1025 55 10000 5.14 130 14:49 15.02.2021
6380 Clear 18 1025 59 10000 5.14 120 14:21 15.02.2021
6381 Clear 17 1026 59 10000 4.63 120 13:50 15.02.2021
6382 Clear 17 1026 59 10000 7.72 130 13:27 15.02.2021
6383 Clear 15 1026 72 10000 3.6 90 12:52 15.02.2021
6384 Clear 15 1026 76 10000 3.6 90 12:33 15.02.2021
6385 Clear 14 1027 82 10000 3.6 80 11:54 15.02.2021
6386 Clear 13 1027 82 10000 4.12 70 11:27 15.02.2021
6387 Clear 13 1027 87 10000 4.12 80 10:58 15.02.2021
6388 Clear 12 1027 87 10000 3.6 80 10:40 15.02.2021
6389 Clear 12 1027 87 10000 3.6 80 10:21 15.02.2021
6390 Clear 11 1027 93 10000 3.09 70 09:51 15.02.2021
6391 Clear 11 1026 93 10000 3.09 60 09:32 15.02.2021
6392 Clear 11 1026 93 10000 2.06 80 08:32 15.02.2021
6393 Clear 10 1026 93 10000 2.57 80 07:32 15.02.2021
6394 Clear 11 1026 93 10000 2.57 80 06:42 15.02.2021
6395 Clear 10 1026 93 10000 2.06 40 04:59 15.02.2021
6396 Clear 11 1026 87 10000 1.54 20 02:21 15.02.2021
6397 Clear 12 1027 76 10000 1.03 0 00:32 15.02.2021
6398 Clear 13 1027 82 10000 1.55 160 23:32 14.02.2021
6399 Clear 13 1026 82 10000 1.54 330 22:52 14.02.2021
6400 Clear 13 1026 76 10000 1.67 159 22:34 14.02.2021
6401 Clear 14 1026 71 10000 1.03 200 21:56 14.02.2021
6402 Clear 14 1026 76 10000 1.03 240 21:36 14.02.2021
6403 Clear 14 1026 71 10000 1.54 260 20:56 14.02.2021
6404 Clear 14 1026 62 10000 1.54 240 20:32 14.02.2021
6405 Clear 15 1026 62 10000 2.06 200 19:59 14.02.2021
6406 Clear 16 1025 45 10000 1.54 250 19:38 14.02.2021
6407 Clear 18 1025 37 10000 2.06 130 18:48 14.02.2021
6408 Clear 19 1025 34 10000 2.57 140 18:29 14.02.2021
6409 Clear 19 1025 37 10000 2.57 130 17:48 14.02.2021
6410 Clear 19 1025 45 10000 2.06 150 17:28 14.02.2021
6411 Clear 19 1025 48 10000 2.06 140 16:42 14.02.2021
6412 Clear 19 1025 63 10000 2.06 70 16:23 14.02.2021
6413 Clear 18 1026 67 10000 2.57 130 15:45 14.02.2021
6414 Clear 18 1026 63 10000 2.57 110 15:25 14.02.2021
6415 Clear 17 1026 67 10000 2.06 80 14:42 14.02.2021
6416 Clear 17 1026 63 10000 2.57 70 14:20 14.02.2021
6417 Clear 16 1027 67 10000 2.57 70 13:38 14.02.2021
6418 Clear 16 1027 67 10000 2.57 70 13:20 14.02.2021
6419 Clear 14 1027 82 10000 2.06 60 12:24 14.02.2021
6420 Clear 13 1027 87 10000 2.57 60 11:52 14.02.2021
6421 Clear 12 1027 93 10000 3.6 50 11:28 14.02.2021
6422 Clear 11 1026 100 10000 2.57 80 10:59 14.02.2021
6423 Clouds 11 1026 100 10000 2.06 60 10:23 14.02.2021
6424 Fog 9 1026 100 800 2.57 40 09:40 14.02.2021
6425 Fog 9 1026 100 800 2.57 40 09:21 14.02.2021
6426 Clouds 9 1025 100 10000 2.06 30 08:56 14.02.2021
6427 Fog 9 1025 100 600 1.54 50 07:58 14.02.2021
6428 Fog 8 1025 100 300 2.06 40 06:59 14.02.2021
6429 Fog 9 1025 100 600 1.54 50 05:44 14.02.2021
6430 Clear 10 1026 100 10000 0.51 0 03:57 14.02.2021
6431 Clear 11 1026 93 10000 1.03 290 02:29 14.02.2021
6432 Clear 11 1026 93 10000 0.7 116 00:57 14.02.2021
6433 Clear 12 1027 93 10000 0.7 116 00:37 14.02.2021
6434 Clear 12 1027 93 10000 0.51 0 23:49 13.02.2021
6435 Clear 12 1027 100 10000 0.51 280 23:25 13.02.2021
6436 Clear 12 1027 93 10000 0.92 116 22:50 13.02.2021
6437 Clear 12 1027 93 10000 1.06 115 22:21 13.02.2021
6438 Clear 13 1027 93 10000 1.03 320 21:49 13.02.2021
6439 Clear 13 1027 87 10000 1.03 0 21:26 13.02.2021
6440 Clear 13 1027 87 10000 1.03 0 20:44 13.02.2021
6441 Clear 14 1026 88 10000 0.69 228 20:24 13.02.2021
6442 Clear 14 1026 82 10000 1.03 0 19:48 13.02.2021
6443 Clear 14 1026 77 10000 2.06 200 19:23 13.02.2021
6444 Clouds 15 1026 72 10000 1.54 50 18:49 13.02.2021
6445 Clouds 16 1026 67 10000 1.03 0 18:25 13.02.2021
6446 Clouds 16 1026 72 10000 2.06 50 17:44 13.02.2021
6447 Clouds 16 1026 72 10000 2.57 0 17:24 13.02.2021
6448 Clouds 16 1026 72 10000 2.06 70 16:52 13.02.2021
6449 Clouds 16 1026 72 10000 1.54 120 16:31 13.02.2021
6450 Clouds 16 1026 82 10000 2.06 60 15:43 13.02.2021
6451 Clouds 15 1026 88 10000 2.57 110 15:24 13.02.2021
6452 Clouds 14 1027 100 10000 2.57 90 14:40 13.02.2021
6453 Fog 13 1028 100 9000 2.06 60 13:49 13.02.2021
6454 Fog 14 1028 100 1500 2.57 70 13:27 13.02.2021
6455 Mist 14 1028 100 4500 2.06 90 12:52 13.02.2021
6456 Fog 13 1028 100 300 1.03 0 12:21 13.02.2021
6457 Fog 13 1028 100 300 1.03 0 11:55 13.02.2021
6458 Fog 12 1028 100 200 1.03 0 11:22 13.02.2021
6459 Fog 11 1028 100 150 1.54 0 10:59 13.02.2021
6460 Fog 9 1027 100 150 1.03 0 10:41 13.02.2021
6461 Fog 9 1027 100 250 1.03 0 10:21 13.02.2021
6462 Fog 8 1027 100 250 1.03 0 09:45 13.02.2021
6463 Fog 9 1027 100 300 1.03 0 09:23 13.02.2021
6464 Clouds 9 1027 100 6000 1.03 0 08:46 13.02.2021
6465 Clouds 9 1026 100 10000 1.03 0 08:18 13.02.2021
6466 Clouds 10 1026 100 10000 2.08 166 06:50 13.02.2021
6467 Clouds 10 1026 100 10000 1.54 330 06:22 13.02.2021
6468 Clear 10 1026 100 10000 2.06 220 04:27 13.02.2021
6469 Clear 10 1027 93 10000 1.03 0 02:25 13.02.2021
6470 Clear 11 1026 93 10000 2.57 210 00:54 13.02.2021
6471 Clouds 11 1027 93 10000 1.03 270 23:55 12.02.2021
6472 Clouds 12 1026 93 10000 1.03 0 23:34 12.02.2021
6473 Clouds 12 1026 87 10000 1.54 240 22:59 12.02.2021
6474 Clouds 12 1026 87 10000 2.06 280 22:30 12.02.2021
6475 Clear 13 1026 82 10000 1.54 300 21:54 12.02.2021
6476 Clear 13 1026 82 10000 2.57 320 21:35 12.02.2021
6477 Clear 13 1026 76 10000 1.54 280 20:59 12.02.2021
6478 Clear 13 1026 76 10000 1.54 290 20:39 12.02.2021
6479 Clouds 14 1025 77 10000 2.06 300 20:19 12.02.2021
6480 Clouds 14 1025 77 10000 2.06 300 19:48 12.02.2021
6481 Clouds 14 1025 77 10000 2.57 310 19:26 12.02.2021
6482 Clouds 15 1025 72 10000 3.09 280 18:30 12.02.2021
6483 Clouds 16 1025 72 10000 3.09 280 17:51 12.02.2021
6484 Clouds 16 1025 67 10000 3.6 300 17:31 12.02.2021
6485 Clouds 17 1025 63 10000 3.09 250 16:43 12.02.2021
6486 Clouds 16 1025 77 10000 5.14 210 15:48 12.02.2021
6487 Clouds 16 1025 77 10000 5.14 220 15:22 12.02.2021
6488 Clouds 16 1025 67 10000 2.06 270 14:59 12.02.2021
6489 Clouds 16 1025 67 10000 1.03 0 14:32 12.02.2021
6490 Clouds 16 1025 72 10000 2.57 340 13:42 12.02.2021
6491 Clouds 16 1026 72 10000 2.57 240 13:24 12.02.2021
6492 Clouds 16 1026 72 10000 2.06 330 12:51 12.02.2021
6493 Clouds 15 1025 82 10000 2.06 310 12:33 12.02.2021
6494 Clouds 15 1025 77 10000 2.57 320 11:46 12.02.2021
6495 Clouds 14 1024 94 10000 2.57 330 11:20 12.02.2021
6496 Clouds 14 1024 94 10000 2.57 330 10:47 12.02.2021
6497 Clouds 12 1024 94 10000 2.57 300 09:56 12.02.2021
6498 Clouds 12 1024 94 10000 2.06 300 09:38 12.02.2021
6499 Clouds 12 1023 94 10000 2.06 280 09:19 12.02.2021
6500 Clouds 12 1023 94 10000 1.54 280 08:40 12.02.2021
6501 Clouds 12 1023 94 10000 1.54 280 08:18 12.02.2021
6502 Clouds 12 1022 94 10000 2.06 270 07:51 12.02.2021
6503 Clouds 12 1022 94 10000 2.06 260 06:58 12.02.2021
6504 Clouds 12 1022 88 10000 3.6 270 05:51 12.02.2021
6505 Clouds 12 1022 94 10000 2.57 270 05:26 12.02.2021
6506 Clouds 14 1020 94 10000 3.09 270 01:57 12.02.2021
6507 Clouds 14 1019 94 10000 4.63 230 23:58 11.02.2021
6508 Clouds 15 1019 94 10000 4.12 250 23:23 11.02.2021
6509 Clouds 15 1019 100 10000 5.66 240 22:58 11.02.2021
6510 Clouds 15 1019 100 10000 6.69 230 22:40 11.02.2021
6511 Clouds 15 1019 100 10000 6.69 230 22:21 11.02.2021
6512 Clouds 15 1018 94 10000 4.63 230 21:42 11.02.2021
6513 Clouds 15 1018 94 10000 4.63 230 21:42 11.02.2021
6514 Clouds 15 1018 100 9000 7.2 230 21:23 11.02.2021
6515 Rain 15 1018 100 10000 7.72 210 20:46 11.02.2021
6516 Drizzle 15 1018 100 4500 7.72 200 20:23 11.02.2021
6517 Drizzle 15 1018 100 4500 7.72 200 19:51 11.02.2021
6518 Clouds 15 1018 100 3500 7.2 210 19:33 11.02.2021
6519 Drizzle 15 1018 100 5000 7.2 200 18:59 11.02.2021
6520 Drizzle 15 1018 100 4500 6.17 210 18:31 11.02.2021
6521 Drizzle 16 1018 94 8000 6.17 200 17:58 11.02.2021
6522 Clouds 16 1018 94 10000 6.17 210 17:37 11.02.2021
6523 Clouds 16 1018 94 10000 6.17 210 17:19 11.02.2021
6524 Clouds 16 1018 94 10000 6.69 220 16:41 11.02.2021
6525 Clouds 16 1018 94 10000 6.69 220 16:23 11.02.2021
6526 Clouds 16 1018 94 10000 7.2 220 15:44 11.02.2021
6527 Clouds 16 1018 94 10000 7.2 220 15:44 11.02.2021
6528 Clouds 16 1018 100 10000 6.69 210 15:26 11.02.2021
6529 Clouds 16 1018 100 10000 7.72 210 14:51 11.02.2021
6530 Clouds 15 1019 100 8000 6.69 200 14:30 11.02.2021
6531 Drizzle 16 1019 94 3000 7.72 210 13:42 11.02.2021
6532 Drizzle 16 1019 94 8000 8.23 210 13:19 11.02.2021
6533 Clouds 16 1019 94 10000 6.69 210 12:53 11.02.2021
6534 Clouds 16 1019 100 10000 6.17 210 12:32 11.02.2021
6535 Clouds 15 1019 100 8000 6.17 210 11:47 11.02.2021
6536 Clouds 15 1019 100 6000 5.66 210 11:26 11.02.2021
6537 Clouds 15 1019 100 9000 5.66 210 10:45 11.02.2021
6538 Clouds 15 1019 100 8000 5.14 210 10:26 11.02.2021
6539 Clouds 15 1019 100 8000 5.66 210 09:55 11.02.2021
6540 Clouds 15 1019 100 8000 5.14 200 09:24 11.02.2021
6541 Clouds 14 1018 100 10000 4.12 210 08:54 11.02.2021
6542 Clouds 15 1018 100 10000 4.12 210 08:30 11.02.2021
6543 Clouds 14 1018 100 10000 4.12 210 07:39 11.02.2021
6544 Clouds 14 1018 100 10000 2.06 200 06:41 11.02.2021
6545 Clouds 14 1018 100 5000 1.54 140 05:38 11.02.2021
6546 Drizzle 14 1019 100 6000 4.12 230 02:29 11.02.2021
6547 Clouds 14 1019 100 10000 4.12 230 01:29 11.02.2021
6548 Clouds 14 1018 100 6000 3.6 210 00:22 11.02.2021
6549 Drizzle 14 1019 100 8000 4.63 220 23:45 10.02.2021
6550 Drizzle 14 1018 100 10000 4.12 230 23:18 10.02.2021
6551 Clouds 15 1018 94 10000 4.12 230 22:42 10.02.2021
6552 Clouds 14 1018 100 10000 4.12 230 22:18 10.02.2021
6553 Drizzle 15 1018 94 6000 4.12 240 21:38 10.02.2021
6554 Drizzle 15 1018 94 6000 4.12 240 21:19 10.02.2021
6555 Clouds 15 1017 94 10000 5.66 230 20:42 10.02.2021
6556 Drizzle 15 1017 100 7000 4.12 240 20:24 10.02.2021
6557 Drizzle 15 1017 100 10000 4.12 230 19:47 10.02.2021
6558 Drizzle 15 1016 100 10000 3.6 240 19:26 10.02.2021
6559 Clouds 15 1016 100 10000 3.6 240 18:47 10.02.2021
6560 Drizzle 15 1016 100 9000 4.12 250 18:24 10.02.2021
6561 Drizzle 15 1016 100 3500 5.14 240 17:57 10.02.2021
6562 Drizzle 15 1015 100 4000 4.12 240 17:26 10.02.2021
6563 Drizzle 15 1015 100 3500 4.12 230 16:57 10.02.2021
6564 Clouds 15 1015 100 10000 3.09 220 16:38 10.02.2021
6565 Clouds 15 1015 100 10000 3.09 220 16:19 10.02.2021
6566 Clouds 14 1015 94 8000 3.6 210 15:24 10.02.2021
6567 Drizzle 14 1015 94 3000 2.57 190 14:52 10.02.2021
6568 Clouds 14 1016 94 8000 2.57 220 14:34 10.02.2021
6569 Drizzle 14 1016 100 6000 2.06 220 13:54 10.02.2021
6570 Mist 14 1016 100 5000 2.06 240 13:30 10.02.2021
6571 Drizzle 14 1015 94 10000 2.57 250 12:53 10.02.2021
6572 Clouds 14 1015 94 9000 2.57 250 12:30 10.02.2021
6573 Clouds 14 1015 94 10000 2.57 220 11:57 10.02.2021
6574 Clouds 13 1014 94 10000 3.09 220 11:39 10.02.2021
6575 Clouds 13 1014 94 10000 3.09 220 11:20 10.02.2021
6576 Clouds 13 1013 94 10000 2.57 240 10:24 10.02.2021
6577 Clouds 12 1013 100 10000 2.57 230 09:56 10.02.2021
6578 Clouds 12 1013 100 10000 2.57 230 09:56 10.02.2021
6579 Clouds 12 1012 100 10000 2.06 260 09:32 10.02.2021
6580 Clouds 12 1012 94 10000 2.06 270 08:56 10.02.2021
6581 Clouds 12 1011 100 10000 2.06 290 08:35 10.02.2021
6582 Drizzle 12 1011 100 9000 2.06 310 07:39 10.02.2021
6583 Clouds 12 1010 100 4000 1.54 320 06:22 10.02.2021
6584 Clouds 14 1010 88 7000 7.72 240 01:56 10.02.2021
6585 Clouds 14 1009 88 10000 7.2 230 00:24 10.02.2021
6586 Clouds 14 1009 88 10000 7.2 230 00:24 10.02.2021
6587 Clouds 14 1009 82 10000 7.2 240 23:34 09.02.2021
6588 Clouds 14 1009 88 10000 5.14 240 22:54 09.02.2021
6589 Clouds 14 1009 82 10000 6.17 240 22:24 09.02.2021
6590 Clouds 14 1008 82 10000 6.69 250 21:52 09.02.2021
6591 Clouds 14 1008 82 10000 6.69 240 21:27 09.02.2021
6592 Clouds 14 1008 82 10000 7.2 230 20:49 09.02.2021
6593 Clouds 14 1008 88 10000 5.14 240 20:26 09.02.2021
6594 Clouds 14 1008 82 10000 5.14 240 19:58 09.02.2021
6595 Clouds 14 1007 77 10000 5.14 240 19:35 09.02.2021
6596 Clouds 14 1007 77 10000 5.66 250 18:58 09.02.2021
6597 Clouds 14 1007 77 10000 5.66 250 18:58 09.02.2021
6598 Clouds 14 1007 77 10000 5.66 250 18:58 09.02.2021
6599 Clouds 14 1007 77 10000 5.66 250 18:58 09.02.2021
6600 Clouds 14 1007 82 10000 7.2 250 18:36 09.02.2021
6601 Clouds 15 1007 77 10000 7.2 250 17:57 09.02.2021
6602 Clouds 15 1007 72 10000 8.23 260 17:37 09.02.2021
6603 Clouds 15 1007 72 10000 8.23 260 17:18 09.02.2021
6604 Clouds 15 1006 72 10000 7.2 250 16:41 09.02.2021
6605 Clouds 15 1006 72 10000 7.2 250 16:18 09.02.2021
6606 Clouds 15 1006 77 10000 9.26 250 15:48 09.02.2021
6607 Clouds 15 1006 88 10000 9.26 250 15:25 09.02.2021
6608 Clouds 14 1006 88 10000 8.75 250 14:53 09.02.2021
6609 Clouds 14 1006 88 10000 9.77 240 14:27 09.02.2021
6610 Clouds 14 1006 94 10000 7.2 240 13:51 09.02.2021
6611 Rain 14 1007 94 7000 7.2 250 13:25 09.02.2021
6612 Clouds 13 1007 88 10000 7.72 240 12:51 09.02.2021
6613 Clouds 13 1006 100 9000 7.72 250 12:32 09.02.2021
6614 Clouds 13 1006 94 9000 8.75 240 11:56 09.02.2021
6615 Clouds 13 1006 94 7000 8.23 260 11:38 09.02.2021
6616 Clouds 13 1006 94 7000 8.23 260 11:20 09.02.2021
6617 Clouds 13 1006 94 7000 8.23 260 11:20 09.02.2021
6618 Rain 14 1005 94 5000 10.29 230 10:49 09.02.2021
6619 Clouds 14 1005 100 10000 9.77 230 10:18 09.02.2021
6620 Rain 13 1005 88 7000 11.32 250 09:43 09.02.2021
6621 Rain 13 1005 100 5000 10.8 230 09:24 09.02.2021
6622 Rain 13 1005 94 5000 10.29 220 08:44 09.02.2021
6623 Rain 14 1005 94 10000 9.77 220 08:25 09.02.2021
6624 Clouds 14 1006 94 10000 9.77 220 06:20 09.02.2021
6625 Clouds 14 1008 88 10000 8.75 230 04:52 09.02.2021
6626 Clouds 14 1009 94 10000 9.26 220 03:38 09.02.2021
6627 Clouds 14 1010 94 10000 5.66 220 00:34 09.02.2021
6628 Clouds 13 1011 94 10000 4.12 210 23:57 08.02.2021
6629 Clouds 13 1011 94 10000 3.09 220 23:21 08.02.2021
6630 Clouds